<?xml version="1.0" encoding="UTF-8" standalone="no" ?>
<gpx xmlns="http://www.topografix.com/GPX/1/1" xmlns:xsi="http://www.w3.org/2001/XMLSchema-instance" xsi:schemaLocation="http://www.topografix.com/GPX/1/1 http://www.topografix.com/GPX/1/1/gpx.xsd" version="1.1" creator="VisuGPX - https://www.visugpx.com">
  <metadata>
    <name>Fraiture 01  MARCHE ADEPS 2015 (Mai)</name>
    <desc><![CDATA[BONNE MARCHE BIEN SYMPA A FAIRE LE DIMANCHE ]]></desc>
  </metadata>
  <trk>
    <name><![CDATA[scooby & choupy]]></name>
    <trkseg>
      <trkpt lat="50.2545" lon="5.7354">
        <ele>527</ele>
        <time>2015-05-10T08:10:05Z</time>
      </trkpt>
      <trkpt lat="50.25449" lon="5.73539">
        <ele>527</ele>
        <time>2015-05-10T08:10:10Z</time>
      </trkpt>
      <trkpt lat="50.25455" lon="5.73538">
        <ele>526</ele>
        <time>2015-05-10T08:10:15Z</time>
      </trkpt>
      <trkpt lat="50.25454" lon="5.73537">
        <ele>526</ele>
        <time>2015-05-10T08:10:20Z</time>
      </trkpt>
      <trkpt lat="50.25446" lon="5.73534">
        <ele>526</ele>
        <time>2015-05-10T08:10:25Z</time>
      </trkpt>
      <trkpt lat="50.25442" lon="5.73532">
        <ele>526</ele>
        <time>2015-05-10T08:10:31Z</time>
      </trkpt>
      <trkpt lat="50.25442" lon="5.73532">
        <ele>526</ele>
        <time>2015-05-10T08:10:37Z</time>
      </trkpt>
      <trkpt lat="50.25443" lon="5.73532">
        <ele>526</ele>
        <time>2015-05-10T08:10:43Z</time>
      </trkpt>
      <trkpt lat="50.25442" lon="5.73531">
        <ele>526</ele>
        <time>2015-05-10T08:10:48Z</time>
      </trkpt>
      <trkpt lat="50.25445" lon="5.73531">
        <ele>526</ele>
        <time>2015-05-10T08:10:53Z</time>
      </trkpt>
      <trkpt lat="50.25449" lon="5.73532">
        <ele>526</ele>
        <time>2015-05-10T08:10:58Z</time>
      </trkpt>
      <trkpt lat="50.25451" lon="5.73532">
        <ele>525</ele>
        <time>2015-05-10T08:11:03Z</time>
      </trkpt>
      <trkpt lat="50.25453" lon="5.73532">
        <ele>526</ele>
        <time>2015-05-10T08:11:08Z</time>
      </trkpt>
      <trkpt lat="50.25455" lon="5.73532">
        <ele>526</ele>
        <time>2015-05-10T08:11:13Z</time>
      </trkpt>
      <trkpt lat="50.25457" lon="5.73531">
        <ele>526</ele>
        <time>2015-05-10T08:11:19Z</time>
      </trkpt>
      <trkpt lat="50.25457" lon="5.7353">
        <ele>526</ele>
        <time>2015-05-10T08:11:25Z</time>
      </trkpt>
      <trkpt lat="50.25457" lon="5.7353">
        <ele>526</ele>
        <time>2015-05-10T08:11:30Z</time>
      </trkpt>
      <trkpt lat="50.25457" lon="5.73529">
        <ele>526</ele>
        <time>2015-05-10T08:11:35Z</time>
      </trkpt>
      <trkpt lat="50.25457" lon="5.73528">
        <ele>526</ele>
        <time>2015-05-10T08:11:40Z</time>
      </trkpt>
      <trkpt lat="50.25457" lon="5.73528">
        <ele>526</ele>
        <time>2015-05-10T08:11:46Z</time>
      </trkpt>
      <trkpt lat="50.25457" lon="5.73529">
        <ele>525</ele>
        <time>2015-05-10T08:11:51Z</time>
      </trkpt>
      <trkpt lat="50.25457" lon="5.7353">
        <ele>525</ele>
        <time>2015-05-10T08:11:57Z</time>
      </trkpt>
      <trkpt lat="50.25457" lon="5.7353">
        <ele>526</ele>
        <time>2015-05-10T08:12:02Z</time>
      </trkpt>
      <trkpt lat="50.25457" lon="5.73531">
        <ele>526</ele>
        <time>2015-05-10T08:12:08Z</time>
      </trkpt>
      <trkpt lat="50.25457" lon="5.73532">
        <ele>525</ele>
        <time>2015-05-10T08:12:13Z</time>
      </trkpt>
      <trkpt lat="50.25457" lon="5.73532">
        <ele>526</ele>
        <time>2015-05-10T08:12:19Z</time>
      </trkpt>
      <trkpt lat="50.25458" lon="5.73533">
        <ele>525</ele>
        <time>2015-05-10T08:12:25Z</time>
      </trkpt>
      <trkpt lat="50.25458" lon="5.73533">
        <ele>525</ele>
        <time>2015-05-10T08:12:32Z</time>
      </trkpt>
      <trkpt lat="50.25458" lon="5.73532">
        <ele>526</ele>
        <time>2015-05-10T08:12:37Z</time>
      </trkpt>
      <trkpt lat="50.25459" lon="5.73532">
        <ele>526</ele>
        <time>2015-05-10T08:12:42Z</time>
      </trkpt>
      <trkpt lat="50.25456" lon="5.73531">
        <ele>526</ele>
        <time>2015-05-10T08:12:48Z</time>
      </trkpt>
      <trkpt lat="50.25455" lon="5.7353">
        <ele>525</ele>
        <time>2015-05-10T08:12:53Z</time>
      </trkpt>
      <trkpt lat="50.25453" lon="5.73529">
        <ele>525</ele>
        <time>2015-05-10T08:13:01Z</time>
      </trkpt>
      <trkpt lat="50.25452" lon="5.7353">
        <ele>525</ele>
        <time>2015-05-10T08:13:06Z</time>
      </trkpt>
      <trkpt lat="50.25458" lon="5.73532">
        <ele>525</ele>
        <time>2015-05-10T08:13:12Z</time>
      </trkpt>
      <trkpt lat="50.25461" lon="5.73534">
        <ele>525</ele>
        <time>2015-05-10T08:13:18Z</time>
      </trkpt>
      <trkpt lat="50.25463" lon="5.73535">
        <ele>525</ele>
        <time>2015-05-10T08:13:23Z</time>
      </trkpt>
      <trkpt lat="50.25464" lon="5.73534">
        <ele>525</ele>
        <time>2015-05-10T08:13:28Z</time>
      </trkpt>
      <trkpt lat="50.25467" lon="5.73535">
        <ele>525</ele>
        <time>2015-05-10T08:13:33Z</time>
      </trkpt>
      <trkpt lat="50.25472" lon="5.73537">
        <ele>525</ele>
        <time>2015-05-10T08:13:38Z</time>
      </trkpt>
      <trkpt lat="50.25471" lon="5.73538">
        <ele>525</ele>
        <time>2015-05-10T08:13:43Z</time>
      </trkpt>
      <trkpt lat="50.25469" lon="5.73537">
        <ele>525</ele>
        <time>2015-05-10T08:13:48Z</time>
      </trkpt>
      <trkpt lat="50.25465" lon="5.73536">
        <ele>525</ele>
        <time>2015-05-10T08:13:54Z</time>
      </trkpt>
      <trkpt lat="50.25461" lon="5.73534">
        <ele>525</ele>
        <time>2015-05-10T08:13:59Z</time>
      </trkpt>
      <trkpt lat="50.25463" lon="5.7353">
        <ele>525</ele>
        <time>2015-05-10T08:14:04Z</time>
      </trkpt>
      <trkpt lat="50.25462" lon="5.73529">
        <ele>525</ele>
        <time>2015-05-10T08:14:09Z</time>
      </trkpt>
      <trkpt lat="50.25461" lon="5.73528">
        <ele>525</ele>
        <time>2015-05-10T08:14:15Z</time>
      </trkpt>
      <trkpt lat="50.25461" lon="5.73528">
        <ele>525</ele>
        <time>2015-05-10T08:14:20Z</time>
      </trkpt>
      <trkpt lat="50.25461" lon="5.73528">
        <ele>525</ele>
        <time>2015-05-10T08:14:25Z</time>
      </trkpt>
      <trkpt lat="50.2546" lon="5.73528">
        <ele>525</ele>
        <time>2015-05-10T08:14:31Z</time>
      </trkpt>
      <trkpt lat="50.25461" lon="5.73527">
        <ele>525</ele>
        <time>2015-05-10T08:14:36Z</time>
      </trkpt>
      <trkpt lat="50.25462" lon="5.73525">
        <ele>525</ele>
        <time>2015-05-10T08:14:43Z</time>
      </trkpt>
      <trkpt lat="50.2546" lon="5.73526">
        <ele>525</ele>
        <time>2015-05-10T08:14:48Z</time>
      </trkpt>
      <trkpt lat="50.25461" lon="5.73524">
        <ele>524</ele>
        <time>2015-05-10T08:14:54Z</time>
      </trkpt>
      <trkpt lat="50.25463" lon="5.73527">
        <ele>525</ele>
        <time>2015-05-10T08:15:00Z</time>
      </trkpt>
      <trkpt lat="50.25465" lon="5.73531">
        <ele>525</ele>
        <time>2015-05-10T08:15:05Z</time>
      </trkpt>
      <trkpt lat="50.25467" lon="5.73534">
        <ele>525</ele>
        <time>2015-05-10T08:15:11Z</time>
      </trkpt>
      <trkpt lat="50.25468" lon="5.73535">
        <ele>525</ele>
        <time>2015-05-10T08:15:16Z</time>
      </trkpt>
      <trkpt lat="50.25469" lon="5.73535">
        <ele>524</ele>
        <time>2015-05-10T08:15:22Z</time>
      </trkpt>
      <trkpt lat="50.2547" lon="5.73534">
        <ele>524</ele>
        <time>2015-05-10T08:15:27Z</time>
      </trkpt>
      <trkpt lat="50.25469" lon="5.73534">
        <ele>524</ele>
        <time>2015-05-10T08:15:32Z</time>
      </trkpt>
      <trkpt lat="50.25464" lon="5.73537">
        <ele>525</ele>
        <time>2015-05-10T08:15:38Z</time>
      </trkpt>
      <trkpt lat="50.2546" lon="5.73539">
        <ele>525</ele>
        <time>2015-05-10T08:15:43Z</time>
      </trkpt>
      <trkpt lat="50.25456" lon="5.7354">
        <ele>525</ele>
        <time>2015-05-10T08:15:49Z</time>
      </trkpt>
      <trkpt lat="50.25453" lon="5.73541">
        <ele>525</ele>
        <time>2015-05-10T08:15:54Z</time>
      </trkpt>
      <trkpt lat="50.25452" lon="5.7354">
        <ele>524</ele>
        <time>2015-05-10T08:15:59Z</time>
      </trkpt>
      <trkpt lat="50.25449" lon="5.73542">
        <ele>524</ele>
        <time>2015-05-10T08:16:04Z</time>
      </trkpt>
      <trkpt lat="50.25448" lon="5.73543">
        <ele>524</ele>
        <time>2015-05-10T08:16:10Z</time>
      </trkpt>
      <trkpt lat="50.25448" lon="5.73542">
        <ele>524</ele>
        <time>2015-05-10T08:16:15Z</time>
      </trkpt>
      <trkpt lat="50.25446" lon="5.73546">
        <ele>524</ele>
        <time>2015-05-10T08:16:21Z</time>
      </trkpt>
      <trkpt lat="50.25446" lon="5.73548">
        <ele>524</ele>
        <time>2015-05-10T08:16:26Z</time>
      </trkpt>
      <trkpt lat="50.25447" lon="5.73547">
        <ele>524</ele>
        <time>2015-05-10T08:16:31Z</time>
      </trkpt>
      <trkpt lat="50.25447" lon="5.73544">
        <ele>524</ele>
        <time>2015-05-10T08:16:37Z</time>
      </trkpt>
      <trkpt lat="50.25447" lon="5.73544">
        <ele>524</ele>
        <time>2015-05-10T08:16:43Z</time>
      </trkpt>
      <trkpt lat="50.25446" lon="5.73547">
        <ele>524</ele>
        <time>2015-05-10T08:16:49Z</time>
      </trkpt>
      <trkpt lat="50.25446" lon="5.73546">
        <ele>524</ele>
        <time>2015-05-10T08:16:54Z</time>
      </trkpt>
      <trkpt lat="50.25448" lon="5.73544">
        <ele>524</ele>
        <time>2015-05-10T08:17:00Z</time>
      </trkpt>
      <trkpt lat="50.25449" lon="5.73542">
        <ele>524</ele>
        <time>2015-05-10T08:17:05Z</time>
      </trkpt>
      <trkpt lat="50.25447" lon="5.7354">
        <ele>524</ele>
        <time>2015-05-10T08:17:10Z</time>
      </trkpt>
      <trkpt lat="50.25446" lon="5.73539">
        <ele>524</ele>
        <time>2015-05-10T08:17:16Z</time>
      </trkpt>
      <trkpt lat="50.25446" lon="5.73539">
        <ele>524</ele>
        <time>2015-05-10T08:17:21Z</time>
      </trkpt>
      <trkpt lat="50.25445" lon="5.73539">
        <ele>524</ele>
        <time>2015-05-10T08:17:27Z</time>
      </trkpt>
      <trkpt lat="50.25444" lon="5.73539">
        <ele>524</ele>
        <time>2015-05-10T08:17:33Z</time>
      </trkpt>
      <trkpt lat="50.25445" lon="5.73539">
        <ele>524</ele>
        <time>2015-05-10T08:17:38Z</time>
      </trkpt>
      <trkpt lat="50.25446" lon="5.73538">
        <ele>524</ele>
        <time>2015-05-10T08:17:44Z</time>
      </trkpt>
      <trkpt lat="50.25447" lon="5.73538">
        <ele>524</ele>
        <time>2015-05-10T08:17:50Z</time>
      </trkpt>
      <trkpt lat="50.25446" lon="5.73539">
        <ele>525</ele>
        <time>2015-05-10T08:17:55Z</time>
      </trkpt>
      <trkpt lat="50.25447" lon="5.73539">
        <ele>525</ele>
        <time>2015-05-10T08:18:01Z</time>
      </trkpt>
      <trkpt lat="50.25447" lon="5.7354">
        <ele>525</ele>
        <time>2015-05-10T08:18:07Z</time>
      </trkpt>
      <trkpt lat="50.25446" lon="5.7354">
        <ele>525</ele>
        <time>2015-05-10T08:18:12Z</time>
      </trkpt>
      <trkpt lat="50.25447" lon="5.7354">
        <ele>526</ele>
        <time>2015-05-10T08:18:17Z</time>
      </trkpt>
      <trkpt lat="50.25447" lon="5.73541">
        <ele>525</ele>
        <time>2015-05-10T08:18:23Z</time>
      </trkpt>
      <trkpt lat="50.25448" lon="5.73542">
        <ele>525</ele>
        <time>2015-05-10T08:18:28Z</time>
      </trkpt>
      <trkpt lat="50.25449" lon="5.73544">
        <ele>525</ele>
        <time>2015-05-10T08:18:33Z</time>
      </trkpt>
      <trkpt lat="50.25448" lon="5.73545">
        <ele>525</ele>
        <time>2015-05-10T08:18:38Z</time>
      </trkpt>
      <trkpt lat="50.25449" lon="5.73545">
        <ele>525</ele>
        <time>2015-05-10T08:18:44Z</time>
      </trkpt>
      <trkpt lat="50.25449" lon="5.73548">
        <ele>525</ele>
        <time>2015-05-10T08:18:49Z</time>
      </trkpt>
      <trkpt lat="50.2545" lon="5.73555">
        <ele>525</ele>
        <time>2015-05-10T08:18:54Z</time>
      </trkpt>
      <trkpt lat="50.2545" lon="5.73557">
        <ele>525</ele>
        <time>2015-05-10T08:19:00Z</time>
      </trkpt>
      <trkpt lat="50.25451" lon="5.73556">
        <ele>525</ele>
        <time>2015-05-10T08:19:05Z</time>
      </trkpt>
      <trkpt lat="50.25451" lon="5.73555">
        <ele>525</ele>
        <time>2015-05-10T08:19:11Z</time>
      </trkpt>
      <trkpt lat="50.25451" lon="5.73553">
        <ele>524</ele>
        <time>2015-05-10T08:19:16Z</time>
      </trkpt>
      <trkpt lat="50.25451" lon="5.73551">
        <ele>524</ele>
        <time>2015-05-10T08:19:21Z</time>
      </trkpt>
      <trkpt lat="50.25451" lon="5.7355">
        <ele>524</ele>
        <time>2015-05-10T08:19:26Z</time>
      </trkpt>
      <trkpt lat="50.25451" lon="5.73549">
        <ele>524</ele>
        <time>2015-05-10T08:19:31Z</time>
      </trkpt>
      <trkpt lat="50.25451" lon="5.73546">
        <ele>524</ele>
        <time>2015-05-10T08:19:36Z</time>
      </trkpt>
      <trkpt lat="50.2545" lon="5.73541">
        <ele>525</ele>
        <time>2015-05-10T08:19:41Z</time>
      </trkpt>
      <trkpt lat="50.2545" lon="5.73539">
        <ele>525</ele>
        <time>2015-05-10T08:19:46Z</time>
      </trkpt>
      <trkpt lat="50.2545" lon="5.73539">
        <ele>525</ele>
        <time>2015-05-10T08:19:51Z</time>
      </trkpt>
      <trkpt lat="50.25451" lon="5.73542">
        <ele>524</ele>
        <time>2015-05-10T08:19:57Z</time>
      </trkpt>
      <trkpt lat="50.25452" lon="5.73547">
        <ele>524</ele>
        <time>2015-05-10T08:20:02Z</time>
      </trkpt>
      <trkpt lat="50.25451" lon="5.73546">
        <ele>525</ele>
        <time>2015-05-10T08:20:08Z</time>
      </trkpt>
      <trkpt lat="50.25451" lon="5.73547">
        <ele>524</ele>
        <time>2015-05-10T08:20:13Z</time>
      </trkpt>
      <trkpt lat="50.25449" lon="5.7355">
        <ele>525</ele>
        <time>2015-05-10T08:20:20Z</time>
      </trkpt>
      <trkpt lat="50.25449" lon="5.7355">
        <ele>525</ele>
        <time>2015-05-10T08:20:26Z</time>
      </trkpt>
      <trkpt lat="50.2545" lon="5.7355">
        <ele>524</ele>
        <time>2015-05-10T08:20:32Z</time>
      </trkpt>
      <trkpt lat="50.25451" lon="5.7355">
        <ele>524</ele>
        <time>2015-05-10T08:20:37Z</time>
      </trkpt>
      <trkpt lat="50.25452" lon="5.7355">
        <ele>524</ele>
        <time>2015-05-10T08:20:43Z</time>
      </trkpt>
      <trkpt lat="50.25453" lon="5.7355">
        <ele>525</ele>
        <time>2015-05-10T08:20:48Z</time>
      </trkpt>
      <trkpt lat="50.25454" lon="5.7355">
        <ele>525</ele>
        <time>2015-05-10T08:20:54Z</time>
      </trkpt>
      <trkpt lat="50.25454" lon="5.7355">
        <ele>524</ele>
        <time>2015-05-10T08:21:00Z</time>
      </trkpt>
      <trkpt lat="50.25454" lon="5.7355">
        <ele>524</ele>
        <time>2015-05-10T08:21:05Z</time>
      </trkpt>
      <trkpt lat="50.25453" lon="5.7355">
        <ele>524</ele>
        <time>2015-05-10T08:21:10Z</time>
      </trkpt>
      <trkpt lat="50.25452" lon="5.73549">
        <ele>525</ele>
        <time>2015-05-10T08:21:15Z</time>
      </trkpt>
      <trkpt lat="50.25453" lon="5.73546">
        <ele>525</ele>
        <time>2015-05-10T08:21:20Z</time>
      </trkpt>
      <trkpt lat="50.25454" lon="5.73539">
        <ele>524</ele>
        <time>2015-05-10T08:21:26Z</time>
      </trkpt>
      <trkpt lat="50.25456" lon="5.73534">
        <ele>524</ele>
        <time>2015-05-10T08:21:31Z</time>
      </trkpt>
      <trkpt lat="50.25457" lon="5.7353">
        <ele>524</ele>
        <time>2015-05-10T08:21:36Z</time>
      </trkpt>
      <trkpt lat="50.25461" lon="5.73525">
        <ele>524</ele>
        <time>2015-05-10T08:21:41Z</time>
      </trkpt>
      <trkpt lat="50.25464" lon="5.7352">
        <ele>524</ele>
        <time>2015-05-10T08:21:47Z</time>
      </trkpt>
      <trkpt lat="50.25466" lon="5.73518">
        <ele>524</ele>
        <time>2015-05-10T08:21:52Z</time>
      </trkpt>
      <trkpt lat="50.25469" lon="5.73513">
        <ele>523</ele>
        <time>2015-05-10T08:21:58Z</time>
      </trkpt>
      <trkpt lat="50.25473" lon="5.7351">
        <ele>523</ele>
        <time>2015-05-10T08:22:03Z</time>
      </trkpt>
      <trkpt lat="50.25475" lon="5.7351">
        <ele>523</ele>
        <time>2015-05-10T08:22:09Z</time>
      </trkpt>
      <trkpt lat="50.25475" lon="5.73509">
        <ele>523</ele>
        <time>2015-05-10T08:22:15Z</time>
      </trkpt>
      <trkpt lat="50.25475" lon="5.73509">
        <ele>523</ele>
        <time>2015-05-10T08:22:22Z</time>
      </trkpt>
      <trkpt lat="50.25475" lon="5.73509">
        <ele>523</ele>
        <time>2015-05-10T08:22:28Z</time>
      </trkpt>
      <trkpt lat="50.25474" lon="5.7351">
        <ele>523</ele>
        <time>2015-05-10T08:22:34Z</time>
      </trkpt>
      <trkpt lat="50.25475" lon="5.7351">
        <ele>524</ele>
        <time>2015-05-10T08:22:42Z</time>
      </trkpt>
      <trkpt lat="50.25475" lon="5.73511">
        <ele>524</ele>
        <time>2015-05-10T08:22:47Z</time>
      </trkpt>
      <trkpt lat="50.25476" lon="5.73511">
        <ele>524</ele>
        <time>2015-05-10T08:22:53Z</time>
      </trkpt>
      <trkpt lat="50.25477" lon="5.73512">
        <ele>524</ele>
        <time>2015-05-10T08:22:58Z</time>
      </trkpt>
      <trkpt lat="50.25478" lon="5.73511">
        <ele>524</ele>
        <time>2015-05-10T08:23:03Z</time>
      </trkpt>
      <trkpt lat="50.25478" lon="5.7351">
        <ele>524</ele>
        <time>2015-05-10T08:23:09Z</time>
      </trkpt>
      <trkpt lat="50.25476" lon="5.7351">
        <ele>524</ele>
        <time>2015-05-10T08:23:15Z</time>
      </trkpt>
      <trkpt lat="50.25475" lon="5.73511">
        <ele>524</ele>
        <time>2015-05-10T08:23:21Z</time>
      </trkpt>
      <trkpt lat="50.25476" lon="5.7351">
        <ele>523</ele>
        <time>2015-05-10T08:23:26Z</time>
      </trkpt>
      <trkpt lat="50.25478" lon="5.73506">
        <ele>523</ele>
        <time>2015-05-10T08:23:31Z</time>
      </trkpt>
      <trkpt lat="50.25481" lon="5.735">
        <ele>523</ele>
        <time>2015-05-10T08:23:36Z</time>
      </trkpt>
      <trkpt lat="50.25486" lon="5.73493">
        <ele>522</ele>
        <time>2015-05-10T08:23:42Z</time>
      </trkpt>
      <trkpt lat="50.25491" lon="5.73486">
        <ele>522</ele>
        <time>2015-05-10T08:23:48Z</time>
      </trkpt>
      <trkpt lat="50.25496" lon="5.73481">
        <ele>522</ele>
        <time>2015-05-10T08:23:53Z</time>
      </trkpt>
      <trkpt lat="50.255" lon="5.73474">
        <ele>522</ele>
        <time>2015-05-10T08:23:59Z</time>
      </trkpt>
      <trkpt lat="50.25505" lon="5.73469">
        <ele>521</ele>
        <time>2015-05-10T08:24:04Z</time>
      </trkpt>
      <trkpt lat="50.25509" lon="5.73463">
        <ele>521</ele>
        <time>2015-05-10T08:24:10Z</time>
      </trkpt>
      <trkpt lat="50.25512" lon="5.7346">
        <ele>522</ele>
        <time>2015-05-10T08:24:15Z</time>
      </trkpt>
      <trkpt lat="50.25515" lon="5.73459">
        <ele>521</ele>
        <time>2015-05-10T08:24:21Z</time>
      </trkpt>
      <trkpt lat="50.25518" lon="5.73459">
        <ele>522</ele>
        <time>2015-05-10T08:24:26Z</time>
      </trkpt>
      <trkpt lat="50.25521" lon="5.73458">
        <ele>521</ele>
        <time>2015-05-10T08:24:31Z</time>
      </trkpt>
      <trkpt lat="50.25525" lon="5.73453">
        <ele>521</ele>
        <time>2015-05-10T08:24:37Z</time>
      </trkpt>
      <trkpt lat="50.25531" lon="5.73447">
        <ele>521</ele>
        <time>2015-05-10T08:24:43Z</time>
      </trkpt>
      <trkpt lat="50.25534" lon="5.73443">
        <ele>521</ele>
        <time>2015-05-10T08:24:49Z</time>
      </trkpt>
      <trkpt lat="50.25537" lon="5.73438">
        <ele>521</ele>
        <time>2015-05-10T08:24:54Z</time>
      </trkpt>
      <trkpt lat="50.25542" lon="5.73436">
        <ele>521</ele>
        <time>2015-05-10T08:25:00Z</time>
      </trkpt>
      <trkpt lat="50.25546" lon="5.73434">
        <ele>520</ele>
        <time>2015-05-10T08:25:05Z</time>
      </trkpt>
      <trkpt lat="50.25549" lon="5.73435">
        <ele>520</ele>
        <time>2015-05-10T08:25:10Z</time>
      </trkpt>
      <trkpt lat="50.25552" lon="5.73436">
        <ele>519</ele>
        <time>2015-05-10T08:25:16Z</time>
      </trkpt>
      <trkpt lat="50.25555" lon="5.73438">
        <ele>518</ele>
        <time>2015-05-10T08:25:21Z</time>
      </trkpt>
      <trkpt lat="50.25559" lon="5.73438">
        <ele>517</ele>
        <time>2015-05-10T08:25:26Z</time>
      </trkpt>
      <trkpt lat="50.25563" lon="5.73434">
        <ele>517</ele>
        <time>2015-05-10T08:25:32Z</time>
      </trkpt>
      <trkpt lat="50.25567" lon="5.73433">
        <ele>516</ele>
        <time>2015-05-10T08:25:38Z</time>
      </trkpt>
      <trkpt lat="50.2557" lon="5.73432">
        <ele>516</ele>
        <time>2015-05-10T08:25:44Z</time>
      </trkpt>
      <trkpt lat="50.25571" lon="5.73433">
        <ele>516</ele>
        <time>2015-05-10T08:25:49Z</time>
      </trkpt>
      <trkpt lat="50.25571" lon="5.73433">
        <ele>516</ele>
        <time>2015-05-10T08:25:55Z</time>
      </trkpt>
      <trkpt lat="50.25572" lon="5.73434">
        <ele>516</ele>
        <time>2015-05-10T08:26:01Z</time>
      </trkpt>
      <trkpt lat="50.25571" lon="5.73434">
        <ele>516</ele>
        <time>2015-05-10T08:26:06Z</time>
      </trkpt>
      <trkpt lat="50.2557" lon="5.73434">
        <ele>515</ele>
        <time>2015-05-10T08:26:12Z</time>
      </trkpt>
      <trkpt lat="50.25569" lon="5.73435">
        <ele>516</ele>
        <time>2015-05-10T08:26:17Z</time>
      </trkpt>
      <trkpt lat="50.25568" lon="5.73435">
        <ele>516</ele>
        <time>2015-05-10T08:26:25Z</time>
      </trkpt>
      <trkpt lat="50.25569" lon="5.73436">
        <ele>516</ele>
        <time>2015-05-10T08:26:32Z</time>
      </trkpt>
      <trkpt lat="50.25569" lon="5.73436">
        <ele>516</ele>
        <time>2015-05-10T08:26:38Z</time>
      </trkpt>
      <trkpt lat="50.25569" lon="5.73437">
        <ele>516</ele>
        <time>2015-05-10T08:26:44Z</time>
      </trkpt>
      <trkpt lat="50.25569" lon="5.73437">
        <ele>516</ele>
        <time>2015-05-10T08:26:49Z</time>
      </trkpt>
      <trkpt lat="50.25571" lon="5.73438">
        <ele>516</ele>
        <time>2015-05-10T08:26:54Z</time>
      </trkpt>
      <trkpt lat="50.25573" lon="5.73439">
        <ele>516</ele>
        <time>2015-05-10T08:26:59Z</time>
      </trkpt>
      <trkpt lat="50.25575" lon="5.7344">
        <ele>516</ele>
        <time>2015-05-10T08:27:05Z</time>
      </trkpt>
      <trkpt lat="50.25577" lon="5.7344">
        <ele>516</ele>
        <time>2015-05-10T08:27:10Z</time>
      </trkpt>
      <trkpt lat="50.25579" lon="5.73437">
        <ele>517</ele>
        <time>2015-05-10T08:27:16Z</time>
      </trkpt>
      <trkpt lat="50.2558" lon="5.73434">
        <ele>517</ele>
        <time>2015-05-10T08:27:21Z</time>
      </trkpt>
      <trkpt lat="50.25581" lon="5.73428">
        <ele>517</ele>
        <time>2015-05-10T08:27:27Z</time>
      </trkpt>
      <trkpt lat="50.25579" lon="5.73421">
        <ele>517</ele>
        <time>2015-05-10T08:27:33Z</time>
      </trkpt>
      <trkpt lat="50.25576" lon="5.7342">
        <ele>518</ele>
        <time>2015-05-10T08:27:39Z</time>
      </trkpt>
      <trkpt lat="50.25573" lon="5.73415">
        <ele>519</ele>
        <time>2015-05-10T08:27:45Z</time>
      </trkpt>
      <trkpt lat="50.25574" lon="5.73408">
        <ele>520</ele>
        <time>2015-05-10T08:27:50Z</time>
      </trkpt>
      <trkpt lat="50.25575" lon="5.734">
        <ele>520</ele>
        <time>2015-05-10T08:27:55Z</time>
      </trkpt>
      <trkpt lat="50.25576" lon="5.73392">
        <ele>520</ele>
        <time>2015-05-10T08:28:00Z</time>
      </trkpt>
      <trkpt lat="50.25578" lon="5.73383">
        <ele>520</ele>
        <time>2015-05-10T08:28:05Z</time>
      </trkpt>
      <trkpt lat="50.25578" lon="5.73375">
        <ele>520</ele>
        <time>2015-05-10T08:28:10Z</time>
      </trkpt>
      <trkpt lat="50.25579" lon="5.7337">
        <ele>520</ele>
        <time>2015-05-10T08:28:15Z</time>
      </trkpt>
      <trkpt lat="50.25581" lon="5.73366">
        <ele>520</ele>
        <time>2015-05-10T08:28:20Z</time>
      </trkpt>
      <trkpt lat="50.2558" lon="5.73364">
        <ele>520</ele>
        <time>2015-05-10T08:28:25Z</time>
      </trkpt>
      <trkpt lat="50.25579" lon="5.73362">
        <ele>520</ele>
        <time>2015-05-10T08:28:30Z</time>
      </trkpt>
      <trkpt lat="50.25576" lon="5.73359">
        <ele>520</ele>
        <time>2015-05-10T08:28:35Z</time>
      </trkpt>
      <trkpt lat="50.25573" lon="5.73357">
        <ele>521</ele>
        <time>2015-05-10T08:28:40Z</time>
      </trkpt>
      <trkpt lat="50.2557" lon="5.73358">
        <ele>522</ele>
        <time>2015-05-10T08:28:46Z</time>
      </trkpt>
      <trkpt lat="50.25566" lon="5.73359">
        <ele>522</ele>
        <time>2015-05-10T08:28:51Z</time>
      </trkpt>
      <trkpt lat="50.25563" lon="5.73359">
        <ele>522</ele>
        <time>2015-05-10T08:28:56Z</time>
      </trkpt>
      <trkpt lat="50.25563" lon="5.73356">
        <ele>522</ele>
        <time>2015-05-10T08:29:01Z</time>
      </trkpt>
      <trkpt lat="50.25561" lon="5.73357">
        <ele>522</ele>
        <time>2015-05-10T08:29:06Z</time>
      </trkpt>
      <trkpt lat="50.25562" lon="5.73354">
        <ele>522</ele>
        <time>2015-05-10T08:29:11Z</time>
      </trkpt>
      <trkpt lat="50.25563" lon="5.73353">
        <ele>522</ele>
        <time>2015-05-10T08:29:16Z</time>
      </trkpt>
      <trkpt lat="50.25562" lon="5.73353">
        <ele>522</ele>
        <time>2015-05-10T08:29:22Z</time>
      </trkpt>
      <trkpt lat="50.2556" lon="5.73353">
        <ele>522</ele>
        <time>2015-05-10T08:29:27Z</time>
      </trkpt>
      <trkpt lat="50.25559" lon="5.73353">
        <ele>521</ele>
        <time>2015-05-10T08:29:32Z</time>
      </trkpt>
      <trkpt lat="50.25559" lon="5.73352">
        <ele>521</ele>
        <time>2015-05-10T08:29:37Z</time>
      </trkpt>
      <trkpt lat="50.25558" lon="5.73352">
        <ele>522</ele>
        <time>2015-05-10T08:29:43Z</time>
      </trkpt>
      <trkpt lat="50.25557" lon="5.73352">
        <ele>522</ele>
        <time>2015-05-10T08:29:48Z</time>
      </trkpt>
      <trkpt lat="50.25557" lon="5.73351">
        <ele>522</ele>
        <time>2015-05-10T08:29:53Z</time>
      </trkpt>
      <trkpt lat="50.25557" lon="5.73349">
        <ele>522</ele>
        <time>2015-05-10T08:29:58Z</time>
      </trkpt>
      <trkpt lat="50.25558" lon="5.73345">
        <ele>522</ele>
        <time>2015-05-10T08:30:03Z</time>
      </trkpt>
      <trkpt lat="50.25558" lon="5.73343">
        <ele>522</ele>
        <time>2015-05-10T08:30:09Z</time>
      </trkpt>
      <trkpt lat="50.25561" lon="5.73337">
        <ele>522</ele>
        <time>2015-05-10T08:30:15Z</time>
      </trkpt>
      <trkpt lat="50.25564" lon="5.73332">
        <ele>522</ele>
        <time>2015-05-10T08:30:21Z</time>
      </trkpt>
      <trkpt lat="50.25565" lon="5.73331">
        <ele>522</ele>
        <time>2015-05-10T08:30:26Z</time>
      </trkpt>
      <trkpt lat="50.25567" lon="5.7333">
        <ele>522</ele>
        <time>2015-05-10T08:30:32Z</time>
      </trkpt>
      <trkpt lat="50.25568" lon="5.73329">
        <ele>522</ele>
        <time>2015-05-10T08:30:37Z</time>
      </trkpt>
      <trkpt lat="50.2557" lon="5.73329">
        <ele>522</ele>
        <time>2015-05-10T08:30:42Z</time>
      </trkpt>
      <trkpt lat="50.25571" lon="5.7333">
        <ele>521</ele>
        <time>2015-05-10T08:30:47Z</time>
      </trkpt>
      <trkpt lat="50.25571" lon="5.73332">
        <ele>521</ele>
        <time>2015-05-10T08:30:53Z</time>
      </trkpt>
      <trkpt lat="50.25572" lon="5.73333">
        <ele>522</ele>
        <time>2015-05-10T08:30:58Z</time>
      </trkpt>
      <trkpt lat="50.25571" lon="5.73334">
        <ele>522</ele>
        <time>2015-05-10T08:31:03Z</time>
      </trkpt>
      <trkpt lat="50.25573" lon="5.73333">
        <ele>522</ele>
        <time>2015-05-10T08:31:09Z</time>
      </trkpt>
      <trkpt lat="50.25573" lon="5.73335">
        <ele>522</ele>
        <time>2015-05-10T08:31:14Z</time>
      </trkpt>
      <trkpt lat="50.25574" lon="5.73337">
        <ele>522</ele>
        <time>2015-05-10T08:31:19Z</time>
      </trkpt>
      <trkpt lat="50.25576" lon="5.73336">
        <ele>521</ele>
        <time>2015-05-10T08:31:24Z</time>
      </trkpt>
      <trkpt lat="50.25574" lon="5.73335">
        <ele>522</ele>
        <time>2015-05-10T08:31:29Z</time>
      </trkpt>
      <trkpt lat="50.2557" lon="5.73335">
        <ele>523</ele>
        <time>2015-05-10T08:31:34Z</time>
      </trkpt>
      <trkpt lat="50.25568" lon="5.73332">
        <ele>523</ele>
        <time>2015-05-10T08:31:40Z</time>
      </trkpt>
      <trkpt lat="50.25565" lon="5.73328">
        <ele>524</ele>
        <time>2015-05-10T08:31:45Z</time>
      </trkpt>
      <trkpt lat="50.25564" lon="5.73323">
        <ele>524</ele>
        <time>2015-05-10T08:31:50Z</time>
      </trkpt>
      <trkpt lat="50.25563" lon="5.73315">
        <ele>525</ele>
        <time>2015-05-10T08:31:56Z</time>
      </trkpt>
      <trkpt lat="50.25563" lon="5.73311">
        <ele>525</ele>
        <time>2015-05-10T08:32:01Z</time>
      </trkpt>
      <trkpt lat="50.25565" lon="5.73308">
        <ele>524</ele>
        <time>2015-05-10T08:32:06Z</time>
      </trkpt>
      <trkpt lat="50.25568" lon="5.73305">
        <ele>524</ele>
        <time>2015-05-10T08:32:11Z</time>
      </trkpt>
      <trkpt lat="50.25572" lon="5.73299">
        <ele>524</ele>
        <time>2015-05-10T08:32:17Z</time>
      </trkpt>
      <trkpt lat="50.25575" lon="5.73294">
        <ele>524</ele>
        <time>2015-05-10T08:32:22Z</time>
      </trkpt>
      <trkpt lat="50.2558" lon="5.73289">
        <ele>524</ele>
        <time>2015-05-10T08:32:28Z</time>
      </trkpt>
      <trkpt lat="50.25583" lon="5.73286">
        <ele>523</ele>
        <time>2015-05-10T08:32:33Z</time>
      </trkpt>
      <trkpt lat="50.25586" lon="5.73283">
        <ele>523</ele>
        <time>2015-05-10T08:32:38Z</time>
      </trkpt>
      <trkpt lat="50.25588" lon="5.7328">
        <ele>523</ele>
        <time>2015-05-10T08:32:43Z</time>
      </trkpt>
      <trkpt lat="50.25591" lon="5.7328">
        <ele>523</ele>
        <time>2015-05-10T08:32:49Z</time>
      </trkpt>
      <trkpt lat="50.25595" lon="5.73278">
        <ele>523</ele>
        <time>2015-05-10T08:32:55Z</time>
      </trkpt>
      <trkpt lat="50.256" lon="5.73276">
        <ele>522</ele>
        <time>2015-05-10T08:33:00Z</time>
      </trkpt>
      <trkpt lat="50.25606" lon="5.73273">
        <ele>521</ele>
        <time>2015-05-10T08:33:06Z</time>
      </trkpt>
      <trkpt lat="50.25609" lon="5.73273">
        <ele>521</ele>
        <time>2015-05-10T08:33:11Z</time>
      </trkpt>
      <trkpt lat="50.25613" lon="5.73274">
        <ele>520</ele>
        <time>2015-05-10T08:33:17Z</time>
      </trkpt>
      <trkpt lat="50.25614" lon="5.73274">
        <ele>520</ele>
        <time>2015-05-10T08:33:22Z</time>
      </trkpt>
      <trkpt lat="50.25615" lon="5.73274">
        <ele>520</ele>
        <time>2015-05-10T08:33:27Z</time>
      </trkpt>
      <trkpt lat="50.25615" lon="5.73275">
        <ele>520</ele>
        <time>2015-05-10T08:33:32Z</time>
      </trkpt>
      <trkpt lat="50.25615" lon="5.73275">
        <ele>519</ele>
        <time>2015-05-10T08:33:37Z</time>
      </trkpt>
      <trkpt lat="50.25616" lon="5.73277">
        <ele>519</ele>
        <time>2015-05-10T08:33:43Z</time>
      </trkpt>
      <trkpt lat="50.25616" lon="5.73279">
        <ele>520</ele>
        <time>2015-05-10T08:33:49Z</time>
      </trkpt>
      <trkpt lat="50.25617" lon="5.7328">
        <ele>520</ele>
        <time>2015-05-10T08:33:54Z</time>
      </trkpt>
      <trkpt lat="50.25618" lon="5.7328">
        <ele>520</ele>
        <time>2015-05-10T08:34:00Z</time>
      </trkpt>
      <trkpt lat="50.25619" lon="5.73279">
        <ele>520</ele>
        <time>2015-05-10T08:34:05Z</time>
      </trkpt>
      <trkpt lat="50.25619" lon="5.73277">
        <ele>520</ele>
        <time>2015-05-10T08:34:10Z</time>
      </trkpt>
      <trkpt lat="50.2562" lon="5.73277">
        <ele>520</ele>
        <time>2015-05-10T08:34:15Z</time>
      </trkpt>
      <trkpt lat="50.2562" lon="5.73279">
        <ele>520</ele>
        <time>2015-05-10T08:34:20Z</time>
      </trkpt>
      <trkpt lat="50.25619" lon="5.73282">
        <ele>520</ele>
        <time>2015-05-10T08:34:26Z</time>
      </trkpt>
      <trkpt lat="50.25618" lon="5.73282">
        <ele>520</ele>
        <time>2015-05-10T08:34:31Z</time>
      </trkpt>
      <trkpt lat="50.25619" lon="5.7328">
        <ele>520</ele>
        <time>2015-05-10T08:34:37Z</time>
      </trkpt>
      <trkpt lat="50.25619" lon="5.73275">
        <ele>520</ele>
        <time>2015-05-10T08:34:43Z</time>
      </trkpt>
      <trkpt lat="50.25622" lon="5.73265">
        <ele>520</ele>
        <time>2015-05-10T08:34:49Z</time>
      </trkpt>
      <trkpt lat="50.25624" lon="5.73259">
        <ele>521</ele>
        <time>2015-05-10T08:34:54Z</time>
      </trkpt>
      <trkpt lat="50.25626" lon="5.73254">
        <ele>521</ele>
        <time>2015-05-10T08:34:59Z</time>
      </trkpt>
      <trkpt lat="50.25626" lon="5.73247">
        <ele>522</ele>
        <time>2015-05-10T08:35:04Z</time>
      </trkpt>
      <trkpt lat="50.25627" lon="5.73238">
        <ele>522</ele>
        <time>2015-05-10T08:35:10Z</time>
      </trkpt>
      <trkpt lat="50.25629" lon="5.73231">
        <ele>522</ele>
        <time>2015-05-10T08:35:15Z</time>
      </trkpt>
      <trkpt lat="50.25631" lon="5.73226">
        <ele>522</ele>
        <time>2015-05-10T08:35:20Z</time>
      </trkpt>
      <trkpt lat="50.25634" lon="5.73217">
        <ele>522</ele>
        <time>2015-05-10T08:35:26Z</time>
      </trkpt>
      <trkpt lat="50.25636" lon="5.7321">
        <ele>523</ele>
        <time>2015-05-10T08:35:31Z</time>
      </trkpt>
      <trkpt lat="50.25638" lon="5.73204">
        <ele>523</ele>
        <time>2015-05-10T08:35:37Z</time>
      </trkpt>
      <trkpt lat="50.25639" lon="5.73201">
        <ele>523</ele>
        <time>2015-05-10T08:35:42Z</time>
      </trkpt>
      <trkpt lat="50.25642" lon="5.73192">
        <ele>523</ele>
        <time>2015-05-10T08:35:47Z</time>
      </trkpt>
      <trkpt lat="50.25644" lon="5.73186">
        <ele>523</ele>
        <time>2015-05-10T08:35:53Z</time>
      </trkpt>
      <trkpt lat="50.25644" lon="5.73182">
        <ele>523</ele>
        <time>2015-05-10T08:35:59Z</time>
      </trkpt>
      <trkpt lat="50.25645" lon="5.73175">
        <ele>523</ele>
        <time>2015-05-10T08:36:05Z</time>
      </trkpt>
      <trkpt lat="50.25647" lon="5.73166">
        <ele>523</ele>
        <time>2015-05-10T08:36:11Z</time>
      </trkpt>
      <trkpt lat="50.25649" lon="5.73157">
        <ele>524</ele>
        <time>2015-05-10T08:36:16Z</time>
      </trkpt>
      <trkpt lat="50.25651" lon="5.73148">
        <ele>523</ele>
        <time>2015-05-10T08:36:21Z</time>
      </trkpt>
      <trkpt lat="50.25654" lon="5.73138">
        <ele>523</ele>
        <time>2015-05-10T08:36:27Z</time>
      </trkpt>
      <trkpt lat="50.25656" lon="5.73128">
        <ele>524</ele>
        <time>2015-05-10T08:36:33Z</time>
      </trkpt>
      <trkpt lat="50.25657" lon="5.73119">
        <ele>524</ele>
        <time>2015-05-10T08:36:38Z</time>
      </trkpt>
      <trkpt lat="50.25658" lon="5.73109">
        <ele>524</ele>
        <time>2015-05-10T08:36:43Z</time>
      </trkpt>
      <trkpt lat="50.25659" lon="5.731">
        <ele>525</ele>
        <time>2015-05-10T08:36:49Z</time>
      </trkpt>
      <trkpt lat="50.2566" lon="5.73092">
        <ele>525</ele>
        <time>2015-05-10T08:36:54Z</time>
      </trkpt>
      <trkpt lat="50.25658" lon="5.73084">
        <ele>525</ele>
        <time>2015-05-10T08:36:59Z</time>
      </trkpt>
      <trkpt lat="50.25656" lon="5.73077">
        <ele>526</ele>
        <time>2015-05-10T08:37:04Z</time>
      </trkpt>
      <trkpt lat="50.25655" lon="5.73075">
        <ele>526</ele>
        <time>2015-05-10T08:37:09Z</time>
      </trkpt>
      <trkpt lat="50.25655" lon="5.73074">
        <ele>526</ele>
        <time>2015-05-10T08:37:14Z</time>
      </trkpt>
      <trkpt lat="50.25657" lon="5.73074">
        <ele>526</ele>
        <time>2015-05-10T08:37:20Z</time>
      </trkpt>
      <trkpt lat="50.25659" lon="5.73074">
        <ele>526</ele>
        <time>2015-05-10T08:37:25Z</time>
      </trkpt>
      <trkpt lat="50.2566" lon="5.73075">
        <ele>526</ele>
        <time>2015-05-10T08:37:30Z</time>
      </trkpt>
      <trkpt lat="50.25661" lon="5.73075">
        <ele>526</ele>
        <time>2015-05-10T08:37:36Z</time>
      </trkpt>
      <trkpt lat="50.25661" lon="5.73079">
        <ele>526</ele>
        <time>2015-05-10T08:37:41Z</time>
      </trkpt>
      <trkpt lat="50.25661" lon="5.73083">
        <ele>526</ele>
        <time>2015-05-10T08:37:47Z</time>
      </trkpt>
      <trkpt lat="50.25663" lon="5.73085">
        <ele>526</ele>
        <time>2015-05-10T08:37:52Z</time>
      </trkpt>
      <trkpt lat="50.25666" lon="5.73086">
        <ele>526</ele>
        <time>2015-05-10T08:37:57Z</time>
      </trkpt>
      <trkpt lat="50.25668" lon="5.73086">
        <ele>526</ele>
        <time>2015-05-10T08:38:02Z</time>
      </trkpt>
      <trkpt lat="50.25671" lon="5.73087">
        <ele>526</ele>
        <time>2015-05-10T08:38:08Z</time>
      </trkpt>
      <trkpt lat="50.25673" lon="5.73086">
        <ele>526</ele>
        <time>2015-05-10T08:38:13Z</time>
      </trkpt>
      <trkpt lat="50.25671" lon="5.73088">
        <ele>526</ele>
        <time>2015-05-10T08:38:19Z</time>
      </trkpt>
      <trkpt lat="50.2567" lon="5.73093">
        <ele>526</ele>
        <time>2015-05-10T08:38:25Z</time>
      </trkpt>
      <trkpt lat="50.25669" lon="5.73094">
        <ele>525</ele>
        <time>2015-05-10T08:38:30Z</time>
      </trkpt>
      <trkpt lat="50.25671" lon="5.73091">
        <ele>526</ele>
        <time>2015-05-10T08:38:36Z</time>
      </trkpt>
      <trkpt lat="50.25672" lon="5.73089">
        <ele>526</ele>
        <time>2015-05-10T08:38:42Z</time>
      </trkpt>
      <trkpt lat="50.25676" lon="5.73081">
        <ele>525</ele>
        <time>2015-05-10T08:38:48Z</time>
      </trkpt>
      <trkpt lat="50.25681" lon="5.73076">
        <ele>525</ele>
        <time>2015-05-10T08:38:53Z</time>
      </trkpt>
      <trkpt lat="50.25684" lon="5.73072">
        <ele>525</ele>
        <time>2015-05-10T08:38:59Z</time>
      </trkpt>
      <trkpt lat="50.25691" lon="5.73068">
        <ele>524</ele>
        <time>2015-05-10T08:39:05Z</time>
      </trkpt>
      <trkpt lat="50.25695" lon="5.73064">
        <ele>524</ele>
        <time>2015-05-10T08:39:10Z</time>
      </trkpt>
      <trkpt lat="50.25699" lon="5.73059">
        <ele>524</ele>
        <time>2015-05-10T08:39:16Z</time>
      </trkpt>
      <trkpt lat="50.25703" lon="5.73055">
        <ele>523</ele>
        <time>2015-05-10T08:39:21Z</time>
      </trkpt>
      <trkpt lat="50.25708" lon="5.73053">
        <ele>523</ele>
        <time>2015-05-10T08:39:26Z</time>
      </trkpt>
      <trkpt lat="50.25713" lon="5.73053">
        <ele>523</ele>
        <time>2015-05-10T08:39:32Z</time>
      </trkpt>
      <trkpt lat="50.2572" lon="5.73053">
        <ele>523</ele>
        <time>2015-05-10T08:39:37Z</time>
      </trkpt>
      <trkpt lat="50.25722" lon="5.73054">
        <ele>523</ele>
        <time>2015-05-10T08:39:42Z</time>
      </trkpt>
      <trkpt lat="50.25724" lon="5.73055">
        <ele>523</ele>
        <time>2015-05-10T08:39:48Z</time>
      </trkpt>
      <trkpt lat="50.25726" lon="5.73055">
        <ele>523</ele>
        <time>2015-05-10T08:39:53Z</time>
      </trkpt>
      <trkpt lat="50.25731" lon="5.73052">
        <ele>523</ele>
        <time>2015-05-10T08:39:58Z</time>
      </trkpt>
      <trkpt lat="50.25736" lon="5.7305">
        <ele>523</ele>
        <time>2015-05-10T08:40:04Z</time>
      </trkpt>
      <trkpt lat="50.25738" lon="5.73049">
        <ele>523</ele>
        <time>2015-05-10T08:40:09Z</time>
      </trkpt>
      <trkpt lat="50.25741" lon="5.73045">
        <ele>523</ele>
        <time>2015-05-10T08:40:15Z</time>
      </trkpt>
      <trkpt lat="50.25734" lon="5.73042">
        <ele>522</ele>
        <time>2015-05-10T08:40:21Z</time>
      </trkpt>
      <trkpt lat="50.25729" lon="5.73032">
        <ele>522</ele>
        <time>2015-05-10T08:40:26Z</time>
      </trkpt>
      <trkpt lat="50.25738" lon="5.73031">
        <ele>522</ele>
        <time>2015-05-10T08:40:32Z</time>
      </trkpt>
      <trkpt lat="50.25746" lon="5.73029">
        <ele>522</ele>
        <time>2015-05-10T08:40:37Z</time>
      </trkpt>
      <trkpt lat="50.25755" lon="5.73027">
        <ele>522</ele>
        <time>2015-05-10T08:40:42Z</time>
      </trkpt>
      <trkpt lat="50.25764" lon="5.73024">
        <ele>521</ele>
        <time>2015-05-10T08:40:48Z</time>
      </trkpt>
      <trkpt lat="50.25773" lon="5.7302">
        <ele>521</ele>
        <time>2015-05-10T08:40:53Z</time>
      </trkpt>
      <trkpt lat="50.2578" lon="5.73018">
        <ele>521</ele>
        <time>2015-05-10T08:40:58Z</time>
      </trkpt>
      <trkpt lat="50.25788" lon="5.73011">
        <ele>521</ele>
        <time>2015-05-10T08:41:04Z</time>
      </trkpt>
      <trkpt lat="50.25794" lon="5.73008">
        <ele>521</ele>
        <time>2015-05-10T08:41:09Z</time>
      </trkpt>
      <trkpt lat="50.258" lon="5.73006">
        <ele>520</ele>
        <time>2015-05-10T08:41:14Z</time>
      </trkpt>
      <trkpt lat="50.25805" lon="5.72999">
        <ele>520</ele>
        <time>2015-05-10T08:41:20Z</time>
      </trkpt>
      <trkpt lat="50.25809" lon="5.72996">
        <ele>520</ele>
        <time>2015-05-10T08:41:25Z</time>
      </trkpt>
      <trkpt lat="50.25813" lon="5.72995">
        <ele>519</ele>
        <time>2015-05-10T08:41:30Z</time>
      </trkpt>
      <trkpt lat="50.25815" lon="5.72995">
        <ele>518</ele>
        <time>2015-05-10T08:41:36Z</time>
      </trkpt>
      <trkpt lat="50.2582" lon="5.72993">
        <ele>519</ele>
        <time>2015-05-10T08:41:41Z</time>
      </trkpt>
      <trkpt lat="50.25827" lon="5.7299">
        <ele>519</ele>
        <time>2015-05-10T08:41:46Z</time>
      </trkpt>
      <trkpt lat="50.25833" lon="5.72985">
        <ele>518</ele>
        <time>2015-05-10T08:41:52Z</time>
      </trkpt>
      <trkpt lat="50.25838" lon="5.72982">
        <ele>518</ele>
        <time>2015-05-10T08:41:58Z</time>
      </trkpt>
      <trkpt lat="50.25845" lon="5.72979">
        <ele>517</ele>
        <time>2015-05-10T08:42:04Z</time>
      </trkpt>
      <trkpt lat="50.2585" lon="5.72977">
        <ele>517</ele>
        <time>2015-05-10T08:42:09Z</time>
      </trkpt>
      <trkpt lat="50.25857" lon="5.72972">
        <ele>517</ele>
        <time>2015-05-10T08:42:14Z</time>
      </trkpt>
      <trkpt lat="50.25862" lon="5.72969">
        <ele>516</ele>
        <time>2015-05-10T08:42:19Z</time>
      </trkpt>
      <trkpt lat="50.25867" lon="5.72968">
        <ele>516</ele>
        <time>2015-05-10T08:42:25Z</time>
      </trkpt>
      <trkpt lat="50.25873" lon="5.72966">
        <ele>516</ele>
        <time>2015-05-10T08:42:30Z</time>
      </trkpt>
      <trkpt lat="50.25879" lon="5.72963">
        <ele>515</ele>
        <time>2015-05-10T08:42:35Z</time>
      </trkpt>
      <trkpt lat="50.25888" lon="5.7296">
        <ele>514</ele>
        <time>2015-05-10T08:42:41Z</time>
      </trkpt>
      <trkpt lat="50.25894" lon="5.72958">
        <ele>515</ele>
        <time>2015-05-10T08:42:47Z</time>
      </trkpt>
      <trkpt lat="50.25901" lon="5.72955">
        <ele>515</ele>
        <time>2015-05-10T08:42:53Z</time>
      </trkpt>
      <trkpt lat="50.25907" lon="5.72952">
        <ele>514</ele>
        <time>2015-05-10T08:42:58Z</time>
      </trkpt>
      <trkpt lat="50.25914" lon="5.72949">
        <ele>514</ele>
        <time>2015-05-10T08:43:03Z</time>
      </trkpt>
      <trkpt lat="50.25921" lon="5.72945">
        <ele>514</ele>
        <time>2015-05-10T08:43:08Z</time>
      </trkpt>
      <trkpt lat="50.2593" lon="5.7294">
        <ele>513</ele>
        <time>2015-05-10T08:43:14Z</time>
      </trkpt>
      <trkpt lat="50.25937" lon="5.72934">
        <ele>513</ele>
        <time>2015-05-10T08:43:20Z</time>
      </trkpt>
      <trkpt lat="50.25943" lon="5.72931">
        <ele>513</ele>
        <time>2015-05-10T08:43:25Z</time>
      </trkpt>
      <trkpt lat="50.25949" lon="5.72929">
        <ele>513</ele>
        <time>2015-05-10T08:43:31Z</time>
      </trkpt>
      <trkpt lat="50.25954" lon="5.72927">
        <ele>513</ele>
        <time>2015-05-10T08:43:36Z</time>
      </trkpt>
      <trkpt lat="50.2596" lon="5.72926">
        <ele>512</ele>
        <time>2015-05-10T08:43:41Z</time>
      </trkpt>
      <trkpt lat="50.25967" lon="5.72923">
        <ele>512</ele>
        <time>2015-05-10T08:43:47Z</time>
      </trkpt>
      <trkpt lat="50.25972" lon="5.7292">
        <ele>512</ele>
        <time>2015-05-10T08:43:52Z</time>
      </trkpt>
      <trkpt lat="50.25979" lon="5.72916">
        <ele>512</ele>
        <time>2015-05-10T08:43:58Z</time>
      </trkpt>
      <trkpt lat="50.25987" lon="5.72913">
        <ele>512</ele>
        <time>2015-05-10T08:44:04Z</time>
      </trkpt>
      <trkpt lat="50.25993" lon="5.72911">
        <ele>511</ele>
        <time>2015-05-10T08:44:09Z</time>
      </trkpt>
      <trkpt lat="50.25999" lon="5.7291">
        <ele>511</ele>
        <time>2015-05-10T08:44:14Z</time>
      </trkpt>
      <trkpt lat="50.26008" lon="5.72904">
        <ele>511</ele>
        <time>2015-05-10T08:44:20Z</time>
      </trkpt>
      <trkpt lat="50.26014" lon="5.72898">
        <ele>511</ele>
        <time>2015-05-10T08:44:26Z</time>
      </trkpt>
      <trkpt lat="50.26018" lon="5.72892">
        <ele>511</ele>
        <time>2015-05-10T08:44:32Z</time>
      </trkpt>
      <trkpt lat="50.26021" lon="5.72888">
        <ele>511</ele>
        <time>2015-05-10T08:44:37Z</time>
      </trkpt>
      <trkpt lat="50.26022" lon="5.72887">
        <ele>512</ele>
        <time>2015-05-10T08:44:42Z</time>
      </trkpt>
      <trkpt lat="50.26024" lon="5.72886">
        <ele>512</ele>
        <time>2015-05-10T08:44:47Z</time>
      </trkpt>
      <trkpt lat="50.26027" lon="5.72885">
        <ele>511</ele>
        <time>2015-05-10T08:44:52Z</time>
      </trkpt>
      <trkpt lat="50.26029" lon="5.72885">
        <ele>511</ele>
        <time>2015-05-10T08:44:57Z</time>
      </trkpt>
      <trkpt lat="50.26031" lon="5.72885">
        <ele>511</ele>
        <time>2015-05-10T08:45:03Z</time>
      </trkpt>
      <trkpt lat="50.26033" lon="5.7288">
        <ele>511</ele>
        <time>2015-05-10T08:45:08Z</time>
      </trkpt>
      <trkpt lat="50.26033" lon="5.72873">
        <ele>512</ele>
        <time>2015-05-10T08:45:13Z</time>
      </trkpt>
      <trkpt lat="50.26033" lon="5.72874">
        <ele>511</ele>
        <time>2015-05-10T08:45:19Z</time>
      </trkpt>
      <trkpt lat="50.26034" lon="5.72874">
        <ele>511</ele>
        <time>2015-05-10T08:45:25Z</time>
      </trkpt>
      <trkpt lat="50.26036" lon="5.72875">
        <ele>511</ele>
        <time>2015-05-10T08:45:30Z</time>
      </trkpt>
      <trkpt lat="50.26037" lon="5.72875">
        <ele>511</ele>
        <time>2015-05-10T08:45:35Z</time>
      </trkpt>
      <trkpt lat="50.26038" lon="5.72875">
        <ele>511</ele>
        <time>2015-05-10T08:45:40Z</time>
      </trkpt>
      <trkpt lat="50.26038" lon="5.72876">
        <ele>511</ele>
        <time>2015-05-10T08:45:46Z</time>
      </trkpt>
      <trkpt lat="50.2604" lon="5.72876">
        <ele>512</ele>
        <time>2015-05-10T08:45:52Z</time>
      </trkpt>
      <trkpt lat="50.26043" lon="5.72877">
        <ele>512</ele>
        <time>2015-05-10T08:45:58Z</time>
      </trkpt>
      <trkpt lat="50.26044" lon="5.72877">
        <ele>511</ele>
        <time>2015-05-10T08:46:03Z</time>
      </trkpt>
      <trkpt lat="50.26044" lon="5.72877">
        <ele>512</ele>
        <time>2015-05-10T08:46:08Z</time>
      </trkpt>
      <trkpt lat="50.26043" lon="5.72877">
        <ele>512</ele>
        <time>2015-05-10T08:46:14Z</time>
      </trkpt>
      <trkpt lat="50.26041" lon="5.72875">
        <ele>511</ele>
        <time>2015-05-10T08:46:19Z</time>
      </trkpt>
      <trkpt lat="50.26038" lon="5.72874">
        <ele>512</ele>
        <time>2015-05-10T08:46:24Z</time>
      </trkpt>
      <trkpt lat="50.26036" lon="5.72873">
        <ele>512</ele>
        <time>2015-05-10T08:46:30Z</time>
      </trkpt>
      <trkpt lat="50.26035" lon="5.72872">
        <ele>511</ele>
        <time>2015-05-10T08:46:36Z</time>
      </trkpt>
      <trkpt lat="50.26033" lon="5.72872">
        <ele>511</ele>
        <time>2015-05-10T08:46:41Z</time>
      </trkpt>
      <trkpt lat="50.26034" lon="5.72868">
        <ele>511</ele>
        <time>2015-05-10T08:46:46Z</time>
      </trkpt>
      <trkpt lat="50.26035" lon="5.72859">
        <ele>512</ele>
        <time>2015-05-10T08:46:52Z</time>
      </trkpt>
      <trkpt lat="50.26035" lon="5.72852">
        <ele>512</ele>
        <time>2015-05-10T08:46:57Z</time>
      </trkpt>
      <trkpt lat="50.26035" lon="5.72841">
        <ele>513</ele>
        <time>2015-05-10T08:47:03Z</time>
      </trkpt>
      <trkpt lat="50.26035" lon="5.72829">
        <ele>513</ele>
        <time>2015-05-10T08:47:09Z</time>
      </trkpt>
      <trkpt lat="50.26036" lon="5.72817">
        <ele>513</ele>
        <time>2015-05-10T08:47:14Z</time>
      </trkpt>
      <trkpt lat="50.26037" lon="5.72806">
        <ele>514</ele>
        <time>2015-05-10T08:47:20Z</time>
      </trkpt>
      <trkpt lat="50.26038" lon="5.72797">
        <ele>514</ele>
        <time>2015-05-10T08:47:25Z</time>
      </trkpt>
      <trkpt lat="50.26039" lon="5.72792">
        <ele>514</ele>
        <time>2015-05-10T08:47:30Z</time>
      </trkpt>
      <trkpt lat="50.26038" lon="5.7279">
        <ele>514</ele>
        <time>2015-05-10T08:47:35Z</time>
      </trkpt>
      <trkpt lat="50.26036" lon="5.72787">
        <ele>514</ele>
        <time>2015-05-10T08:47:41Z</time>
      </trkpt>
      <trkpt lat="50.26033" lon="5.72787">
        <ele>514</ele>
        <time>2015-05-10T08:47:46Z</time>
      </trkpt>
      <trkpt lat="50.26033" lon="5.72784">
        <ele>514</ele>
        <time>2015-05-10T08:47:52Z</time>
      </trkpt>
      <trkpt lat="50.26034" lon="5.72775">
        <ele>514</ele>
        <time>2015-05-10T08:47:58Z</time>
      </trkpt>
      <trkpt lat="50.26037" lon="5.72768">
        <ele>515</ele>
        <time>2015-05-10T08:48:03Z</time>
      </trkpt>
      <trkpt lat="50.26041" lon="5.72758">
        <ele>515</ele>
        <time>2015-05-10T08:48:09Z</time>
      </trkpt>
      <trkpt lat="50.26042" lon="5.72747">
        <ele>515</ele>
        <time>2015-05-10T08:48:15Z</time>
      </trkpt>
      <trkpt lat="50.26043" lon="5.72735">
        <ele>516</ele>
        <time>2015-05-10T08:48:21Z</time>
      </trkpt>
      <trkpt lat="50.26045" lon="5.72724">
        <ele>516</ele>
        <time>2015-05-10T08:48:26Z</time>
      </trkpt>
      <trkpt lat="50.26047" lon="5.72718">
        <ele>516</ele>
        <time>2015-05-10T08:48:31Z</time>
      </trkpt>
      <trkpt lat="50.26046" lon="5.72715">
        <ele>516</ele>
        <time>2015-05-10T08:48:36Z</time>
      </trkpt>
      <trkpt lat="50.26045" lon="5.72707">
        <ele>516</ele>
        <time>2015-05-10T08:48:42Z</time>
      </trkpt>
      <trkpt lat="50.26046" lon="5.72697">
        <ele>516</ele>
        <time>2015-05-10T08:48:47Z</time>
      </trkpt>
      <trkpt lat="50.26047" lon="5.72688">
        <ele>516</ele>
        <time>2015-05-10T08:48:52Z</time>
      </trkpt>
      <trkpt lat="50.26049" lon="5.7268">
        <ele>517</ele>
        <time>2015-05-10T08:48:57Z</time>
      </trkpt>
      <trkpt lat="50.26052" lon="5.72669">
        <ele>516</ele>
        <time>2015-05-10T08:49:03Z</time>
      </trkpt>
      <trkpt lat="50.26054" lon="5.72659">
        <ele>517</ele>
        <time>2015-05-10T08:49:08Z</time>
      </trkpt>
      <trkpt lat="50.26057" lon="5.7265">
        <ele>517</ele>
        <time>2015-05-10T08:49:13Z</time>
      </trkpt>
      <trkpt lat="50.26058" lon="5.72641">
        <ele>517</ele>
        <time>2015-05-10T08:49:18Z</time>
      </trkpt>
      <trkpt lat="50.26059" lon="5.72632">
        <ele>518</ele>
        <time>2015-05-10T08:49:23Z</time>
      </trkpt>
      <trkpt lat="50.2606" lon="5.7262">
        <ele>518</ele>
        <time>2015-05-10T08:49:29Z</time>
      </trkpt>
      <trkpt lat="50.26062" lon="5.72609">
        <ele>518</ele>
        <time>2015-05-10T08:49:35Z</time>
      </trkpt>
      <trkpt lat="50.26064" lon="5.72598">
        <ele>519</ele>
        <time>2015-05-10T08:49:40Z</time>
      </trkpt>
      <trkpt lat="50.26064" lon="5.72587">
        <ele>519</ele>
        <time>2015-05-10T08:49:45Z</time>
      </trkpt>
      <trkpt lat="50.26066" lon="5.72574">
        <ele>519</ele>
        <time>2015-05-10T08:49:51Z</time>
      </trkpt>
      <trkpt lat="50.26068" lon="5.72566">
        <ele>519</ele>
        <time>2015-05-10T08:49:56Z</time>
      </trkpt>
      <trkpt lat="50.26075" lon="5.72563">
        <ele>519</ele>
        <time>2015-05-10T08:50:02Z</time>
      </trkpt>
      <trkpt lat="50.2608" lon="5.72562">
        <ele>519</ele>
        <time>2015-05-10T08:50:08Z</time>
      </trkpt>
      <trkpt lat="50.26088" lon="5.72562">
        <ele>519</ele>
        <time>2015-05-10T08:50:14Z</time>
      </trkpt>
      <trkpt lat="50.26093" lon="5.72561">
        <ele>519</ele>
        <time>2015-05-10T08:50:19Z</time>
      </trkpt>
      <trkpt lat="50.26095" lon="5.72562">
        <ele>519</ele>
        <time>2015-05-10T08:50:24Z</time>
      </trkpt>
      <trkpt lat="50.26101" lon="5.72566">
        <ele>519</ele>
        <time>2015-05-10T08:50:30Z</time>
      </trkpt>
      <trkpt lat="50.26106" lon="5.7257">
        <ele>519</ele>
        <time>2015-05-10T08:50:35Z</time>
      </trkpt>
      <trkpt lat="50.26106" lon="5.72571">
        <ele>519</ele>
        <time>2015-05-10T08:50:40Z</time>
      </trkpt>
      <trkpt lat="50.26107" lon="5.72573">
        <ele>520</ele>
        <time>2015-05-10T08:50:46Z</time>
      </trkpt>
      <trkpt lat="50.26108" lon="5.72576">
        <ele>519</ele>
        <time>2015-05-10T08:50:51Z</time>
      </trkpt>
      <trkpt lat="50.2611" lon="5.72579">
        <ele>519</ele>
        <time>2015-05-10T08:50:57Z</time>
      </trkpt>
      <trkpt lat="50.26114" lon="5.72581">
        <ele>519</ele>
        <time>2015-05-10T08:51:02Z</time>
      </trkpt>
      <trkpt lat="50.2612" lon="5.72584">
        <ele>519</ele>
        <time>2015-05-10T08:51:08Z</time>
      </trkpt>
      <trkpt lat="50.26126" lon="5.72584">
        <ele>519</ele>
        <time>2015-05-10T08:51:14Z</time>
      </trkpt>
      <trkpt lat="50.26132" lon="5.72584">
        <ele>520</ele>
        <time>2015-05-10T08:51:20Z</time>
      </trkpt>
      <trkpt lat="50.26136" lon="5.72583">
        <ele>520</ele>
        <time>2015-05-10T08:51:25Z</time>
      </trkpt>
      <trkpt lat="50.26141" lon="5.72584">
        <ele>519</ele>
        <time>2015-05-10T08:51:30Z</time>
      </trkpt>
      <trkpt lat="50.26148" lon="5.72585">
        <ele>520</ele>
        <time>2015-05-10T08:51:36Z</time>
      </trkpt>
      <trkpt lat="50.26153" lon="5.72583">
        <ele>520</ele>
        <time>2015-05-10T08:51:42Z</time>
      </trkpt>
      <trkpt lat="50.26155" lon="5.72581">
        <ele>520</ele>
        <time>2015-05-10T08:51:47Z</time>
      </trkpt>
      <trkpt lat="50.26158" lon="5.72578">
        <ele>520</ele>
        <time>2015-05-10T08:51:53Z</time>
      </trkpt>
      <trkpt lat="50.26159" lon="5.72578">
        <ele>521</ele>
        <time>2015-05-10T08:51:58Z</time>
      </trkpt>
      <trkpt lat="50.26159" lon="5.72577">
        <ele>521</ele>
        <time>2015-05-10T08:52:04Z</time>
      </trkpt>
      <trkpt lat="50.26159" lon="5.72577">
        <ele>521</ele>
        <time>2015-05-10T08:52:10Z</time>
      </trkpt>
      <trkpt lat="50.26161" lon="5.72576">
        <ele>521</ele>
        <time>2015-05-10T08:52:15Z</time>
      </trkpt>
      <trkpt lat="50.26164" lon="5.72571">
        <ele>521</ele>
        <time>2015-05-10T08:52:20Z</time>
      </trkpt>
      <trkpt lat="50.26166" lon="5.72571">
        <ele>522</ele>
        <time>2015-05-10T08:52:25Z</time>
      </trkpt>
      <trkpt lat="50.26168" lon="5.7257">
        <ele>522</ele>
        <time>2015-05-10T08:52:31Z</time>
      </trkpt>
      <trkpt lat="50.26169" lon="5.7257">
        <ele>522</ele>
        <time>2015-05-10T08:52:37Z</time>
      </trkpt>
      <trkpt lat="50.26168" lon="5.72565">
        <ele>521</ele>
        <time>2015-05-10T08:52:43Z</time>
      </trkpt>
      <trkpt lat="50.26167" lon="5.72567">
        <ele>521</ele>
        <time>2015-05-10T08:52:49Z</time>
      </trkpt>
      <trkpt lat="50.26167" lon="5.72569">
        <ele>521</ele>
        <time>2015-05-10T08:52:54Z</time>
      </trkpt>
      <trkpt lat="50.26167" lon="5.72575">
        <ele>521</ele>
        <time>2015-05-10T08:52:59Z</time>
      </trkpt>
      <trkpt lat="50.26168" lon="5.72578">
        <ele>521</ele>
        <time>2015-05-10T08:53:05Z</time>
      </trkpt>
      <trkpt lat="50.26168" lon="5.72578">
        <ele>521</ele>
        <time>2015-05-10T08:53:11Z</time>
      </trkpt>
      <trkpt lat="50.26168" lon="5.7258">
        <ele>521</ele>
        <time>2015-05-10T08:53:16Z</time>
      </trkpt>
      <trkpt lat="50.26167" lon="5.72577">
        <ele>521</ele>
        <time>2015-05-10T08:53:21Z</time>
      </trkpt>
      <trkpt lat="50.26168" lon="5.72572">
        <ele>521</ele>
        <time>2015-05-10T08:53:27Z</time>
      </trkpt>
      <trkpt lat="50.26168" lon="5.72571">
        <ele>521</ele>
        <time>2015-05-10T08:53:32Z</time>
      </trkpt>
      <trkpt lat="50.26168" lon="5.72571">
        <ele>521</ele>
        <time>2015-05-10T08:53:40Z</time>
      </trkpt>
      <trkpt lat="50.26168" lon="5.72571">
        <ele>521</ele>
        <time>2015-05-10T08:53:45Z</time>
      </trkpt>
      <trkpt lat="50.26169" lon="5.72572">
        <ele>522</ele>
        <time>2015-05-10T08:53:51Z</time>
      </trkpt>
      <trkpt lat="50.26169" lon="5.72573">
        <ele>522</ele>
        <time>2015-05-10T08:53:56Z</time>
      </trkpt>
      <trkpt lat="50.26169" lon="5.72578">
        <ele>522</ele>
        <time>2015-05-10T08:54:02Z</time>
      </trkpt>
      <trkpt lat="50.26168" lon="5.7258">
        <ele>521</ele>
        <time>2015-05-10T08:54:07Z</time>
      </trkpt>
      <trkpt lat="50.26169" lon="5.72589">
        <ele>521</ele>
        <time>2015-05-10T08:54:13Z</time>
      </trkpt>
      <trkpt lat="50.26172" lon="5.72595">
        <ele>521</ele>
        <time>2015-05-10T08:54:18Z</time>
      </trkpt>
      <trkpt lat="50.26177" lon="5.72598">
        <ele>521</ele>
        <time>2015-05-10T08:54:23Z</time>
      </trkpt>
      <trkpt lat="50.26184" lon="5.72599">
        <ele>520</ele>
        <time>2015-05-10T08:54:29Z</time>
      </trkpt>
      <trkpt lat="50.2619" lon="5.726">
        <ele>521</ele>
        <time>2015-05-10T08:54:35Z</time>
      </trkpt>
      <trkpt lat="50.26195" lon="5.726">
        <ele>520</ele>
        <time>2015-05-10T08:54:40Z</time>
      </trkpt>
      <trkpt lat="50.26201" lon="5.72599">
        <ele>521</ele>
        <time>2015-05-10T08:54:45Z</time>
      </trkpt>
      <trkpt lat="50.26205" lon="5.72599">
        <ele>521</ele>
        <time>2015-05-10T08:54:50Z</time>
      </trkpt>
      <trkpt lat="50.26208" lon="5.72599">
        <ele>521</ele>
        <time>2015-05-10T08:54:56Z</time>
      </trkpt>
      <trkpt lat="50.2621" lon="5.726">
        <ele>521</ele>
        <time>2015-05-10T08:55:01Z</time>
      </trkpt>
      <trkpt lat="50.26215" lon="5.726">
        <ele>521</ele>
        <time>2015-05-10T08:55:07Z</time>
      </trkpt>
      <trkpt lat="50.26218" lon="5.726">
        <ele>521</ele>
        <time>2015-05-10T08:55:14Z</time>
      </trkpt>
      <trkpt lat="50.26219" lon="5.72601">
        <ele>520</ele>
        <time>2015-05-10T08:55:19Z</time>
      </trkpt>
      <trkpt lat="50.26218" lon="5.72603">
        <ele>520</ele>
        <time>2015-05-10T08:55:24Z</time>
      </trkpt>
      <trkpt lat="50.26219" lon="5.72604">
        <ele>520</ele>
        <time>2015-05-10T08:55:30Z</time>
      </trkpt>
      <trkpt lat="50.2622" lon="5.72607">
        <ele>521</ele>
        <time>2015-05-10T08:55:35Z</time>
      </trkpt>
      <trkpt lat="50.26223" lon="5.72609">
        <ele>521</ele>
        <time>2015-05-10T08:55:41Z</time>
      </trkpt>
      <trkpt lat="50.26226" lon="5.72608">
        <ele>520</ele>
        <time>2015-05-10T08:55:46Z</time>
      </trkpt>
      <trkpt lat="50.26229" lon="5.72607">
        <ele>520</ele>
        <time>2015-05-10T08:55:52Z</time>
      </trkpt>
      <trkpt lat="50.26232" lon="5.72607">
        <ele>520</ele>
        <time>2015-05-10T08:55:57Z</time>
      </trkpt>
      <trkpt lat="50.26234" lon="5.72607">
        <ele>520</ele>
        <time>2015-05-10T08:56:02Z</time>
      </trkpt>
      <trkpt lat="50.26239" lon="5.72608">
        <ele>520</ele>
        <time>2015-05-10T08:56:07Z</time>
      </trkpt>
      <trkpt lat="50.26244" lon="5.72609">
        <ele>520</ele>
        <time>2015-05-10T08:56:13Z</time>
      </trkpt>
      <trkpt lat="50.2625" lon="5.72611">
        <ele>520</ele>
        <time>2015-05-10T08:56:19Z</time>
      </trkpt>
      <trkpt lat="50.26254" lon="5.72611">
        <ele>519</ele>
        <time>2015-05-10T08:56:24Z</time>
      </trkpt>
      <trkpt lat="50.2626" lon="5.72612">
        <ele>519</ele>
        <time>2015-05-10T08:56:30Z</time>
      </trkpt>
      <trkpt lat="50.26265" lon="5.72613">
        <ele>519</ele>
        <time>2015-05-10T08:56:35Z</time>
      </trkpt>
      <trkpt lat="50.26272" lon="5.72616">
        <ele>519</ele>
        <time>2015-05-10T08:56:41Z</time>
      </trkpt>
      <trkpt lat="50.26277" lon="5.72615">
        <ele>519</ele>
        <time>2015-05-10T08:56:46Z</time>
      </trkpt>
      <trkpt lat="50.26285" lon="5.72615">
        <ele>519</ele>
        <time>2015-05-10T08:56:52Z</time>
      </trkpt>
      <trkpt lat="50.26292" lon="5.72615">
        <ele>519</ele>
        <time>2015-05-10T08:56:57Z</time>
      </trkpt>
      <trkpt lat="50.26297" lon="5.72616">
        <ele>518</ele>
        <time>2015-05-10T08:57:03Z</time>
      </trkpt>
      <trkpt lat="50.26301" lon="5.72616">
        <ele>518</ele>
        <time>2015-05-10T08:57:08Z</time>
      </trkpt>
      <trkpt lat="50.26305" lon="5.72617">
        <ele>518</ele>
        <time>2015-05-10T08:57:13Z</time>
      </trkpt>
      <trkpt lat="50.26309" lon="5.72619">
        <ele>518</ele>
        <time>2015-05-10T08:57:19Z</time>
      </trkpt>
      <trkpt lat="50.26313" lon="5.72621">
        <ele>518</ele>
        <time>2015-05-10T08:57:25Z</time>
      </trkpt>
      <trkpt lat="50.26316" lon="5.72621">
        <ele>518</ele>
        <time>2015-05-10T08:57:31Z</time>
      </trkpt>
      <trkpt lat="50.26319" lon="5.72622">
        <ele>518</ele>
        <time>2015-05-10T08:57:37Z</time>
      </trkpt>
      <trkpt lat="50.26323" lon="5.72623">
        <ele>518</ele>
        <time>2015-05-10T08:57:43Z</time>
      </trkpt>
      <trkpt lat="50.26325" lon="5.72622">
        <ele>518</ele>
        <time>2015-05-10T08:57:48Z</time>
      </trkpt>
      <trkpt lat="50.26329" lon="5.72623">
        <ele>517</ele>
        <time>2015-05-10T08:57:54Z</time>
      </trkpt>
      <trkpt lat="50.26332" lon="5.72624">
        <ele>517</ele>
        <time>2015-05-10T08:57:59Z</time>
      </trkpt>
      <trkpt lat="50.26336" lon="5.72623">
        <ele>517</ele>
        <time>2015-05-10T08:58:04Z</time>
      </trkpt>
      <trkpt lat="50.26341" lon="5.72621">
        <ele>517</ele>
        <time>2015-05-10T08:58:10Z</time>
      </trkpt>
      <trkpt lat="50.26347" lon="5.72621">
        <ele>517</ele>
        <time>2015-05-10T08:58:15Z</time>
      </trkpt>
      <trkpt lat="50.26351" lon="5.72619">
        <ele>517</ele>
        <time>2015-05-10T08:58:20Z</time>
      </trkpt>
      <trkpt lat="50.26356" lon="5.7262">
        <ele>516</ele>
        <time>2015-05-10T08:58:26Z</time>
      </trkpt>
      <trkpt lat="50.26362" lon="5.72623">
        <ele>515</ele>
        <time>2015-05-10T08:58:31Z</time>
      </trkpt>
      <trkpt lat="50.26369" lon="5.72624">
        <ele>515</ele>
        <time>2015-05-10T08:58:37Z</time>
      </trkpt>
      <trkpt lat="50.26376" lon="5.72625">
        <ele>515</ele>
        <time>2015-05-10T08:58:43Z</time>
      </trkpt>
      <trkpt lat="50.26383" lon="5.72625">
        <ele>514</ele>
        <time>2015-05-10T08:58:48Z</time>
      </trkpt>
      <trkpt lat="50.26388" lon="5.72624">
        <ele>514</ele>
        <time>2015-05-10T08:58:53Z</time>
      </trkpt>
      <trkpt lat="50.26395" lon="5.72623">
        <ele>514</ele>
        <time>2015-05-10T08:58:58Z</time>
      </trkpt>
      <trkpt lat="50.26402" lon="5.72623">
        <ele>513</ele>
        <time>2015-05-10T08:59:03Z</time>
      </trkpt>
      <trkpt lat="50.26413" lon="5.72626">
        <ele>513</ele>
        <time>2015-05-10T08:59:09Z</time>
      </trkpt>
      <trkpt lat="50.26422" lon="5.72627">
        <ele>513</ele>
        <time>2015-05-10T08:59:15Z</time>
      </trkpt>
      <trkpt lat="50.26431" lon="5.72631">
        <ele>512</ele>
        <time>2015-05-10T08:59:21Z</time>
      </trkpt>
      <trkpt lat="50.26437" lon="5.72631">
        <ele>512</ele>
        <time>2015-05-10T08:59:26Z</time>
      </trkpt>
      <trkpt lat="50.26442" lon="5.72631">
        <ele>512</ele>
        <time>2015-05-10T08:59:31Z</time>
      </trkpt>
      <trkpt lat="50.26447" lon="5.72632">
        <ele>512</ele>
        <time>2015-05-10T08:59:36Z</time>
      </trkpt>
      <trkpt lat="50.26453" lon="5.72632">
        <ele>511</ele>
        <time>2015-05-10T08:59:42Z</time>
      </trkpt>
      <trkpt lat="50.26461" lon="5.72632">
        <ele>511</ele>
        <time>2015-05-10T08:59:48Z</time>
      </trkpt>
      <trkpt lat="50.26468" lon="5.72632">
        <ele>510</ele>
        <time>2015-05-10T08:59:53Z</time>
      </trkpt>
      <trkpt lat="50.26474" lon="5.72632">
        <ele>510</ele>
        <time>2015-05-10T08:59:59Z</time>
      </trkpt>
      <trkpt lat="50.26482" lon="5.72633">
        <ele>510</ele>
        <time>2015-05-10T09:00:05Z</time>
      </trkpt>
      <trkpt lat="50.2649" lon="5.72634">
        <ele>509</ele>
        <time>2015-05-10T09:00:11Z</time>
      </trkpt>
      <trkpt lat="50.26496" lon="5.72636">
        <ele>509</ele>
        <time>2015-05-10T09:00:16Z</time>
      </trkpt>
      <trkpt lat="50.26504" lon="5.72637">
        <ele>508</ele>
        <time>2015-05-10T09:00:22Z</time>
      </trkpt>
      <trkpt lat="50.26509" lon="5.72638">
        <ele>508</ele>
        <time>2015-05-10T09:00:27Z</time>
      </trkpt>
      <trkpt lat="50.26515" lon="5.72643">
        <ele>508</ele>
        <time>2015-05-10T09:00:33Z</time>
      </trkpt>
      <trkpt lat="50.26521" lon="5.72648">
        <ele>507</ele>
        <time>2015-05-10T09:00:39Z</time>
      </trkpt>
      <trkpt lat="50.26525" lon="5.72647">
        <ele>507</ele>
        <time>2015-05-10T09:00:45Z</time>
      </trkpt>
      <trkpt lat="50.26528" lon="5.72647">
        <ele>507</ele>
        <time>2015-05-10T09:00:50Z</time>
      </trkpt>
      <trkpt lat="50.2653" lon="5.72648">
        <ele>507</ele>
        <time>2015-05-10T09:00:55Z</time>
      </trkpt>
      <trkpt lat="50.26533" lon="5.72648">
        <ele>507</ele>
        <time>2015-05-10T09:01:01Z</time>
      </trkpt>
      <trkpt lat="50.26535" lon="5.72649">
        <ele>507</ele>
        <time>2015-05-10T09:01:06Z</time>
      </trkpt>
      <trkpt lat="50.26539" lon="5.7265">
        <ele>507</ele>
        <time>2015-05-10T09:01:12Z</time>
      </trkpt>
      <trkpt lat="50.26541" lon="5.72651">
        <ele>508</ele>
        <time>2015-05-10T09:01:17Z</time>
      </trkpt>
      <trkpt lat="50.26542" lon="5.72651">
        <ele>507</ele>
        <time>2015-05-10T09:01:24Z</time>
      </trkpt>
      <trkpt lat="50.26542" lon="5.72653">
        <ele>508</ele>
        <time>2015-05-10T09:01:30Z</time>
      </trkpt>
      <trkpt lat="50.26542" lon="5.72652">
        <ele>508</ele>
        <time>2015-05-10T09:01:35Z</time>
      </trkpt>
      <trkpt lat="50.26541" lon="5.72652">
        <ele>507</ele>
        <time>2015-05-10T09:01:41Z</time>
      </trkpt>
      <trkpt lat="50.26541" lon="5.72651">
        <ele>507</ele>
        <time>2015-05-10T09:01:46Z</time>
      </trkpt>
      <trkpt lat="50.2654" lon="5.72651">
        <ele>508</ele>
        <time>2015-05-10T09:01:52Z</time>
      </trkpt>
      <trkpt lat="50.2654" lon="5.72651">
        <ele>508</ele>
        <time>2015-05-10T09:01:58Z</time>
      </trkpt>
      <trkpt lat="50.26537" lon="5.72649">
        <ele>508</ele>
        <time>2015-05-10T09:02:04Z</time>
      </trkpt>
      <trkpt lat="50.26535" lon="5.72647">
        <ele>508</ele>
        <time>2015-05-10T09:02:09Z</time>
      </trkpt>
      <trkpt lat="50.26532" lon="5.72647">
        <ele>507</ele>
        <time>2015-05-10T09:02:15Z</time>
      </trkpt>
      <trkpt lat="50.26531" lon="5.72646">
        <ele>507</ele>
        <time>2015-05-10T09:02:20Z</time>
      </trkpt>
      <trkpt lat="50.26531" lon="5.72646">
        <ele>507</ele>
        <time>2015-05-10T09:02:27Z</time>
      </trkpt>
      <trkpt lat="50.2653" lon="5.72646">
        <ele>507</ele>
        <time>2015-05-10T09:02:33Z</time>
      </trkpt>
      <trkpt lat="50.26531" lon="5.72646">
        <ele>507</ele>
        <time>2015-05-10T09:02:38Z</time>
      </trkpt>
      <trkpt lat="50.26532" lon="5.72646">
        <ele>507</ele>
        <time>2015-05-10T09:02:43Z</time>
      </trkpt>
      <trkpt lat="50.26533" lon="5.72647">
        <ele>507</ele>
        <time>2015-05-10T09:02:48Z</time>
      </trkpt>
      <trkpt lat="50.26533" lon="5.72646">
        <ele>507</ele>
        <time>2015-05-10T09:02:54Z</time>
      </trkpt>
      <trkpt lat="50.26533" lon="5.72646">
        <ele>507</ele>
        <time>2015-05-10T09:03:00Z</time>
      </trkpt>
      <trkpt lat="50.26533" lon="5.72646">
        <ele>507</ele>
        <time>2015-05-10T09:03:06Z</time>
      </trkpt>
      <trkpt lat="50.26534" lon="5.72647">
        <ele>507</ele>
        <time>2015-05-10T09:03:11Z</time>
      </trkpt>
      <trkpt lat="50.26536" lon="5.72651">
        <ele>508</ele>
        <time>2015-05-10T09:03:17Z</time>
      </trkpt>
      <trkpt lat="50.26538" lon="5.72658">
        <ele>508</ele>
        <time>2015-05-10T09:03:22Z</time>
      </trkpt>
      <trkpt lat="50.26541" lon="5.72662">
        <ele>508</ele>
        <time>2015-05-10T09:03:27Z</time>
      </trkpt>
      <trkpt lat="50.26543" lon="5.72663">
        <ele>508</ele>
        <time>2015-05-10T09:03:33Z</time>
      </trkpt>
      <trkpt lat="50.26544" lon="5.72662">
        <ele>507</ele>
        <time>2015-05-10T09:03:38Z</time>
      </trkpt>
      <trkpt lat="50.26543" lon="5.72661">
        <ele>508</ele>
        <time>2015-05-10T09:03:44Z</time>
      </trkpt>
      <trkpt lat="50.26542" lon="5.72661">
        <ele>508</ele>
        <time>2015-05-10T09:03:49Z</time>
      </trkpt>
      <trkpt lat="50.2654" lon="5.72661">
        <ele>508</ele>
        <time>2015-05-10T09:03:55Z</time>
      </trkpt>
      <trkpt lat="50.26538" lon="5.7266">
        <ele>508</ele>
        <time>2015-05-10T09:04:00Z</time>
      </trkpt>
      <trkpt lat="50.26538" lon="5.72661">
        <ele>508</ele>
        <time>2015-05-10T09:04:06Z</time>
      </trkpt>
      <trkpt lat="50.2654" lon="5.72664">
        <ele>508</ele>
        <time>2015-05-10T09:04:11Z</time>
      </trkpt>
      <trkpt lat="50.26541" lon="5.72672">
        <ele>508</ele>
        <time>2015-05-10T09:04:17Z</time>
      </trkpt>
      <trkpt lat="50.26542" lon="5.7268">
        <ele>508</ele>
        <time>2015-05-10T09:04:22Z</time>
      </trkpt>
      <trkpt lat="50.26543" lon="5.72685">
        <ele>508</ele>
        <time>2015-05-10T09:04:27Z</time>
      </trkpt>
      <trkpt lat="50.26544" lon="5.72691">
        <ele>508</ele>
        <time>2015-05-10T09:04:33Z</time>
      </trkpt>
      <trkpt lat="50.26547" lon="5.72694">
        <ele>508</ele>
        <time>2015-05-10T09:04:38Z</time>
      </trkpt>
      <trkpt lat="50.2655" lon="5.72699">
        <ele>508</ele>
        <time>2015-05-10T09:04:44Z</time>
      </trkpt>
      <trkpt lat="50.26552" lon="5.72707">
        <ele>508</ele>
        <time>2015-05-10T09:04:50Z</time>
      </trkpt>
      <trkpt lat="50.26555" lon="5.72716">
        <ele>508</ele>
        <time>2015-05-10T09:04:56Z</time>
      </trkpt>
      <trkpt lat="50.2656" lon="5.72724">
        <ele>508</ele>
        <time>2015-05-10T09:05:01Z</time>
      </trkpt>
      <trkpt lat="50.26566" lon="5.72735">
        <ele>508</ele>
        <time>2015-05-10T09:05:07Z</time>
      </trkpt>
      <trkpt lat="50.26568" lon="5.72744">
        <ele>508</ele>
        <time>2015-05-10T09:05:12Z</time>
      </trkpt>
      <trkpt lat="50.26571" lon="5.72755">
        <ele>508</ele>
        <time>2015-05-10T09:05:18Z</time>
      </trkpt>
      <trkpt lat="50.26574" lon="5.72766">
        <ele>508</ele>
        <time>2015-05-10T09:05:24Z</time>
      </trkpt>
      <trkpt lat="50.26577" lon="5.72775">
        <ele>508</ele>
        <time>2015-05-10T09:05:29Z</time>
      </trkpt>
      <trkpt lat="50.26578" lon="5.72784">
        <ele>508</ele>
        <time>2015-05-10T09:05:35Z</time>
      </trkpt>
      <trkpt lat="50.2658" lon="5.72792">
        <ele>508</ele>
        <time>2015-05-10T09:05:40Z</time>
      </trkpt>
      <trkpt lat="50.26582" lon="5.72799">
        <ele>508</ele>
        <time>2015-05-10T09:05:46Z</time>
      </trkpt>
      <trkpt lat="50.26585" lon="5.72799">
        <ele>508</ele>
        <time>2015-05-10T09:05:51Z</time>
      </trkpt>
      <trkpt lat="50.26588" lon="5.728">
        <ele>509</ele>
        <time>2015-05-10T09:05:57Z</time>
      </trkpt>
      <trkpt lat="50.26591" lon="5.72801">
        <ele>509</ele>
        <time>2015-05-10T09:06:02Z</time>
      </trkpt>
      <trkpt lat="50.26594" lon="5.72802">
        <ele>508</ele>
        <time>2015-05-10T09:06:08Z</time>
      </trkpt>
      <trkpt lat="50.26595" lon="5.72803">
        <ele>509</ele>
        <time>2015-05-10T09:06:14Z</time>
      </trkpt>
      <trkpt lat="50.26595" lon="5.72805">
        <ele>509</ele>
        <time>2015-05-10T09:06:19Z</time>
      </trkpt>
      <trkpt lat="50.26591" lon="5.72809">
        <ele>509</ele>
        <time>2015-05-10T09:06:25Z</time>
      </trkpt>
      <trkpt lat="50.26588" lon="5.72812">
        <ele>509</ele>
        <time>2015-05-10T09:06:31Z</time>
      </trkpt>
      <trkpt lat="50.26588" lon="5.72813">
        <ele>509</ele>
        <time>2015-05-10T09:06:36Z</time>
      </trkpt>
      <trkpt lat="50.26591" lon="5.72815">
        <ele>509</ele>
        <time>2015-05-10T09:06:42Z</time>
      </trkpt>
      <trkpt lat="50.26591" lon="5.72817">
        <ele>509</ele>
        <time>2015-05-10T09:06:47Z</time>
      </trkpt>
      <trkpt lat="50.26594" lon="5.72818">
        <ele>510</ele>
        <time>2015-05-10T09:06:53Z</time>
      </trkpt>
      <trkpt lat="50.26595" lon="5.72817">
        <ele>509</ele>
        <time>2015-05-10T09:06:58Z</time>
      </trkpt>
      <trkpt lat="50.26595" lon="5.72815">
        <ele>509</ele>
        <time>2015-05-10T09:07:03Z</time>
      </trkpt>
      <trkpt lat="50.26596" lon="5.72815">
        <ele>509</ele>
        <time>2015-05-10T09:07:09Z</time>
      </trkpt>
      <trkpt lat="50.26596" lon="5.72815">
        <ele>510</ele>
        <time>2015-05-10T09:07:15Z</time>
      </trkpt>
      <trkpt lat="50.26597" lon="5.72816">
        <ele>510</ele>
        <time>2015-05-10T09:07:20Z</time>
      </trkpt>
      <trkpt lat="50.26597" lon="5.72819">
        <ele>510</ele>
        <time>2015-05-10T09:07:25Z</time>
      </trkpt>
      <trkpt lat="50.26596" lon="5.72825">
        <ele>510</ele>
        <time>2015-05-10T09:07:31Z</time>
      </trkpt>
      <trkpt lat="50.26597" lon="5.72829">
        <ele>510</ele>
        <time>2015-05-10T09:07:36Z</time>
      </trkpt>
      <trkpt lat="50.26598" lon="5.72837">
        <ele>509</ele>
        <time>2015-05-10T09:07:42Z</time>
      </trkpt>
      <trkpt lat="50.266" lon="5.72845">
        <ele>509</ele>
        <time>2015-05-10T09:07:48Z</time>
      </trkpt>
      <trkpt lat="50.26602" lon="5.72849">
        <ele>510</ele>
        <time>2015-05-10T09:07:53Z</time>
      </trkpt>
      <trkpt lat="50.26604" lon="5.72856">
        <ele>510</ele>
        <time>2015-05-10T09:07:59Z</time>
      </trkpt>
      <trkpt lat="50.26606" lon="5.72859">
        <ele>511</ele>
        <time>2015-05-10T09:08:05Z</time>
      </trkpt>
      <trkpt lat="50.26606" lon="5.72861">
        <ele>510</ele>
        <time>2015-05-10T09:08:11Z</time>
      </trkpt>
      <trkpt lat="50.26606" lon="5.72862">
        <ele>510</ele>
        <time>2015-05-10T09:08:16Z</time>
      </trkpt>
      <trkpt lat="50.26606" lon="5.72865">
        <ele>510</ele>
        <time>2015-05-10T09:08:22Z</time>
      </trkpt>
      <trkpt lat="50.26606" lon="5.72869">
        <ele>510</ele>
        <time>2015-05-10T09:08:27Z</time>
      </trkpt>
      <trkpt lat="50.26607" lon="5.72872">
        <ele>510</ele>
        <time>2015-05-10T09:08:33Z</time>
      </trkpt>
      <trkpt lat="50.26606" lon="5.72874">
        <ele>510</ele>
        <time>2015-05-10T09:08:38Z</time>
      </trkpt>
      <trkpt lat="50.26607" lon="5.72879">
        <ele>510</ele>
        <time>2015-05-10T09:08:44Z</time>
      </trkpt>
      <trkpt lat="50.26609" lon="5.72887">
        <ele>510</ele>
        <time>2015-05-10T09:08:50Z</time>
      </trkpt>
      <trkpt lat="50.26611" lon="5.72891">
        <ele>511</ele>
        <time>2015-05-10T09:08:55Z</time>
      </trkpt>
      <trkpt lat="50.26615" lon="5.72899">
        <ele>511</ele>
        <time>2015-05-10T09:09:01Z</time>
      </trkpt>
      <trkpt lat="50.26617" lon="5.72909">
        <ele>511</ele>
        <time>2015-05-10T09:09:07Z</time>
      </trkpt>
      <trkpt lat="50.2662" lon="5.72916">
        <ele>511</ele>
        <time>2015-05-10T09:09:13Z</time>
      </trkpt>
      <trkpt lat="50.26622" lon="5.72923">
        <ele>511</ele>
        <time>2015-05-10T09:09:18Z</time>
      </trkpt>
      <trkpt lat="50.26624" lon="5.7293">
        <ele>511</ele>
        <time>2015-05-10T09:09:23Z</time>
      </trkpt>
      <trkpt lat="50.26627" lon="5.72939">
        <ele>511</ele>
        <time>2015-05-10T09:09:29Z</time>
      </trkpt>
      <trkpt lat="50.26629" lon="5.7295">
        <ele>511</ele>
        <time>2015-05-10T09:09:35Z</time>
      </trkpt>
      <trkpt lat="50.26632" lon="5.72955">
        <ele>511</ele>
        <time>2015-05-10T09:09:41Z</time>
      </trkpt>
      <trkpt lat="50.26634" lon="5.72964">
        <ele>511</ele>
        <time>2015-05-10T09:09:47Z</time>
      </trkpt>
      <trkpt lat="50.26633" lon="5.72971">
        <ele>511</ele>
        <time>2015-05-10T09:09:53Z</time>
      </trkpt>
      <trkpt lat="50.26631" lon="5.72979">
        <ele>512</ele>
        <time>2015-05-10T09:09:59Z</time>
      </trkpt>
      <trkpt lat="50.2663" lon="5.72985">
        <ele>512</ele>
        <time>2015-05-10T09:10:05Z</time>
      </trkpt>
      <trkpt lat="50.26629" lon="5.72987">
        <ele>512</ele>
        <time>2015-05-10T09:10:11Z</time>
      </trkpt>
      <trkpt lat="50.2663" lon="5.72987">
        <ele>512</ele>
        <time>2015-05-10T09:10:17Z</time>
      </trkpt>
      <trkpt lat="50.26627" lon="5.72989">
        <ele>512</ele>
        <time>2015-05-10T09:10:22Z</time>
      </trkpt>
      <trkpt lat="50.26622" lon="5.72993">
        <ele>512</ele>
        <time>2015-05-10T09:10:28Z</time>
      </trkpt>
      <trkpt lat="50.26618" lon="5.72997">
        <ele>513</ele>
        <time>2015-05-10T09:10:33Z</time>
      </trkpt>
      <trkpt lat="50.26613" lon="5.73003">
        <ele>514</ele>
        <time>2015-05-10T09:10:39Z</time>
      </trkpt>
      <trkpt lat="50.26608" lon="5.73003">
        <ele>514</ele>
        <time>2015-05-10T09:10:44Z</time>
      </trkpt>
      <trkpt lat="50.26604" lon="5.73008">
        <ele>514</ele>
        <time>2015-05-10T09:10:49Z</time>
      </trkpt>
      <trkpt lat="50.266" lon="5.73013">
        <ele>514</ele>
        <time>2015-05-10T09:10:54Z</time>
      </trkpt>
      <trkpt lat="50.26594" lon="5.7302">
        <ele>514</ele>
        <time>2015-05-10T09:11:00Z</time>
      </trkpt>
      <trkpt lat="50.26588" lon="5.73022">
        <ele>515</ele>
        <time>2015-05-10T09:11:05Z</time>
      </trkpt>
      <trkpt lat="50.26581" lon="5.73025">
        <ele>515</ele>
        <time>2015-05-10T09:11:11Z</time>
      </trkpt>
      <trkpt lat="50.26576" lon="5.73028">
        <ele>515</ele>
        <time>2015-05-10T09:11:17Z</time>
      </trkpt>
      <trkpt lat="50.26573" lon="5.73033">
        <ele>515</ele>
        <time>2015-05-10T09:11:23Z</time>
      </trkpt>
      <trkpt lat="50.26571" lon="5.73035">
        <ele>515</ele>
        <time>2015-05-10T09:11:29Z</time>
      </trkpt>
      <trkpt lat="50.2657" lon="5.73043">
        <ele>515</ele>
        <time>2015-05-10T09:11:34Z</time>
      </trkpt>
      <trkpt lat="50.26569" lon="5.73051">
        <ele>515</ele>
        <time>2015-05-10T09:11:40Z</time>
      </trkpt>
      <trkpt lat="50.2657" lon="5.73055">
        <ele>516</ele>
        <time>2015-05-10T09:11:46Z</time>
      </trkpt>
      <trkpt lat="50.2657" lon="5.7306">
        <ele>516</ele>
        <time>2015-05-10T09:11:52Z</time>
      </trkpt>
      <trkpt lat="50.26569" lon="5.73065">
        <ele>516</ele>
        <time>2015-05-10T09:11:57Z</time>
      </trkpt>
      <trkpt lat="50.26567" lon="5.73069">
        <ele>517</ele>
        <time>2015-05-10T09:12:02Z</time>
      </trkpt>
      <trkpt lat="50.26563" lon="5.73075">
        <ele>517</ele>
        <time>2015-05-10T09:12:07Z</time>
      </trkpt>
      <trkpt lat="50.2656" lon="5.73072">
        <ele>517</ele>
        <time>2015-05-10T09:12:13Z</time>
      </trkpt>
      <trkpt lat="50.26559" lon="5.73073">
        <ele>517</ele>
        <time>2015-05-10T09:12:19Z</time>
      </trkpt>
      <trkpt lat="50.26555" lon="5.73072">
        <ele>517</ele>
        <time>2015-05-10T09:12:24Z</time>
      </trkpt>
      <trkpt lat="50.26554" lon="5.73063">
        <ele>517</ele>
        <time>2015-05-10T09:12:30Z</time>
      </trkpt>
      <trkpt lat="50.26554" lon="5.73056">
        <ele>516</ele>
        <time>2015-05-10T09:12:36Z</time>
      </trkpt>
      <trkpt lat="50.26554" lon="5.73048">
        <ele>516</ele>
        <time>2015-05-10T09:12:42Z</time>
      </trkpt>
      <trkpt lat="50.26554" lon="5.73043">
        <ele>516</ele>
        <time>2015-05-10T09:12:47Z</time>
      </trkpt>
      <trkpt lat="50.26555" lon="5.73034">
        <ele>516</ele>
        <time>2015-05-10T09:12:53Z</time>
      </trkpt>
      <trkpt lat="50.26554" lon="5.73038">
        <ele>516</ele>
        <time>2015-05-10T09:12:59Z</time>
      </trkpt>
      <trkpt lat="50.26552" lon="5.73043">
        <ele>516</ele>
        <time>2015-05-10T09:13:04Z</time>
      </trkpt>
      <trkpt lat="50.26552" lon="5.73051">
        <ele>516</ele>
        <time>2015-05-10T09:13:09Z</time>
      </trkpt>
      <trkpt lat="50.26551" lon="5.73059">
        <ele>517</ele>
        <time>2015-05-10T09:13:14Z</time>
      </trkpt>
      <trkpt lat="50.26551" lon="5.73065">
        <ele>517</ele>
        <time>2015-05-10T09:13:20Z</time>
      </trkpt>
      <trkpt lat="50.26551" lon="5.73067">
        <ele>517</ele>
        <time>2015-05-10T09:13:25Z</time>
      </trkpt>
      <trkpt lat="50.26551" lon="5.73073">
        <ele>517</ele>
        <time>2015-05-10T09:13:30Z</time>
      </trkpt>
      <trkpt lat="50.26547" lon="5.73079">
        <ele>517</ele>
        <time>2015-05-10T09:13:36Z</time>
      </trkpt>
      <trkpt lat="50.26545" lon="5.7308">
        <ele>517</ele>
        <time>2015-05-10T09:13:43Z</time>
      </trkpt>
      <trkpt lat="50.26541" lon="5.73077">
        <ele>517</ele>
        <time>2015-05-10T09:13:48Z</time>
      </trkpt>
      <trkpt lat="50.26536" lon="5.73072">
        <ele>517</ele>
        <time>2015-05-10T09:13:54Z</time>
      </trkpt>
      <trkpt lat="50.26532" lon="5.73069">
        <ele>517</ele>
        <time>2015-05-10T09:13:59Z</time>
      </trkpt>
      <trkpt lat="50.2653" lon="5.73067">
        <ele>517</ele>
        <time>2015-05-10T09:14:05Z</time>
      </trkpt>
      <trkpt lat="50.2653" lon="5.73067">
        <ele>517</ele>
        <time>2015-05-10T09:14:10Z</time>
      </trkpt>
      <trkpt lat="50.26528" lon="5.73064">
        <ele>517</ele>
        <time>2015-05-10T09:14:15Z</time>
      </trkpt>
      <trkpt lat="50.26524" lon="5.7306">
        <ele>517</ele>
        <time>2015-05-10T09:14:20Z</time>
      </trkpt>
      <trkpt lat="50.26521" lon="5.73059">
        <ele>517</ele>
        <time>2015-05-10T09:14:26Z</time>
      </trkpt>
      <trkpt lat="50.26516" lon="5.73058">
        <ele>517</ele>
        <time>2015-05-10T09:14:32Z</time>
      </trkpt>
      <trkpt lat="50.26512" lon="5.73063">
        <ele>517</ele>
        <time>2015-05-10T09:14:38Z</time>
      </trkpt>
      <trkpt lat="50.26508" lon="5.73067">
        <ele>517</ele>
        <time>2015-05-10T09:14:45Z</time>
      </trkpt>
      <trkpt lat="50.26508" lon="5.73068">
        <ele>517</ele>
        <time>2015-05-10T09:14:51Z</time>
      </trkpt>
      <trkpt lat="50.26508" lon="5.73068">
        <ele>517</ele>
        <time>2015-05-10T09:14:58Z</time>
      </trkpt>
      <trkpt lat="50.26508" lon="5.73068">
        <ele>517</ele>
        <time>2015-05-10T09:15:03Z</time>
      </trkpt>
      <trkpt lat="50.26508" lon="5.73069">
        <ele>517</ele>
        <time>2015-05-10T09:15:10Z</time>
      </trkpt>
      <trkpt lat="50.26507" lon="5.73068">
        <ele>517</ele>
        <time>2015-05-10T09:15:17Z</time>
      </trkpt>
      <trkpt lat="50.26507" lon="5.73068">
        <ele>517</ele>
        <time>2015-05-10T09:15:22Z</time>
      </trkpt>
      <trkpt lat="50.26507" lon="5.73067">
        <ele>517</ele>
        <time>2015-05-10T09:15:28Z</time>
      </trkpt>
      <trkpt lat="50.26508" lon="5.73068">
        <ele>516</ele>
        <time>2015-05-10T09:15:33Z</time>
      </trkpt>
      <trkpt lat="50.26508" lon="5.73069">
        <ele>516</ele>
        <time>2015-05-10T09:15:38Z</time>
      </trkpt>
      <trkpt lat="50.26508" lon="5.73069">
        <ele>516</ele>
        <time>2015-05-10T09:15:44Z</time>
      </trkpt>
      <trkpt lat="50.26509" lon="5.73069">
        <ele>516</ele>
        <time>2015-05-10T09:15:49Z</time>
      </trkpt>
      <trkpt lat="50.26509" lon="5.73069">
        <ele>516</ele>
        <time>2015-05-10T09:15:55Z</time>
      </trkpt>
      <trkpt lat="50.26509" lon="5.73071">
        <ele>516</ele>
        <time>2015-05-10T09:16:00Z</time>
      </trkpt>
      <trkpt lat="50.2651" lon="5.7308">
        <ele>517</ele>
        <time>2015-05-10T09:16:06Z</time>
      </trkpt>
      <trkpt lat="50.26511" lon="5.73088">
        <ele>517</ele>
        <time>2015-05-10T09:16:11Z</time>
      </trkpt>
      <trkpt lat="50.26513" lon="5.73093">
        <ele>517</ele>
        <time>2015-05-10T09:16:16Z</time>
      </trkpt>
      <trkpt lat="50.26513" lon="5.73094">
        <ele>516</ele>
        <time>2015-05-10T09:16:21Z</time>
      </trkpt>
      <trkpt lat="50.26513" lon="5.73093">
        <ele>517</ele>
        <time>2015-05-10T09:16:26Z</time>
      </trkpt>
      <trkpt lat="50.26515" lon="5.73094">
        <ele>517</ele>
        <time>2015-05-10T09:16:32Z</time>
      </trkpt>
      <trkpt lat="50.2652" lon="5.73099">
        <ele>517</ele>
        <time>2015-05-10T09:16:38Z</time>
      </trkpt>
      <trkpt lat="50.26523" lon="5.73102">
        <ele>517</ele>
        <time>2015-05-10T09:16:44Z</time>
      </trkpt>
      <trkpt lat="50.26523" lon="5.73101">
        <ele>517</ele>
        <time>2015-05-10T09:16:51Z</time>
      </trkpt>
      <trkpt lat="50.26524" lon="5.73102">
        <ele>517</ele>
        <time>2015-05-10T09:16:56Z</time>
      </trkpt>
      <trkpt lat="50.26527" lon="5.73105">
        <ele>516</ele>
        <time>2015-05-10T09:17:01Z</time>
      </trkpt>
      <trkpt lat="50.26527" lon="5.73105">
        <ele>518</ele>
        <time>2015-05-10T09:17:07Z</time>
      </trkpt>
      <trkpt lat="50.26527" lon="5.73105">
        <ele>517</ele>
        <time>2015-05-10T09:17:12Z</time>
      </trkpt>
      <trkpt lat="50.26527" lon="5.73105">
        <ele>517</ele>
        <time>2015-05-10T09:17:18Z</time>
      </trkpt>
      <trkpt lat="50.26526" lon="5.73105">
        <ele>517</ele>
        <time>2015-05-10T09:17:23Z</time>
      </trkpt>
      <trkpt lat="50.26526" lon="5.73105">
        <ele>517</ele>
        <time>2015-05-10T09:17:30Z</time>
      </trkpt>
      <trkpt lat="50.26526" lon="5.73105">
        <ele>517</ele>
        <time>2015-05-10T09:17:36Z</time>
      </trkpt>
      <trkpt lat="50.26526" lon="5.73104">
        <ele>516</ele>
        <time>2015-05-10T09:17:41Z</time>
      </trkpt>
      <trkpt lat="50.26529" lon="5.73106">
        <ele>517</ele>
        <time>2015-05-10T09:17:46Z</time>
      </trkpt>
      <trkpt lat="50.26536" lon="5.73109">
        <ele>517</ele>
        <time>2015-05-10T09:17:52Z</time>
      </trkpt>
      <trkpt lat="50.26542" lon="5.73113">
        <ele>517</ele>
        <time>2015-05-10T09:17:58Z</time>
      </trkpt>
      <trkpt lat="50.26545" lon="5.73114">
        <ele>517</ele>
        <time>2015-05-10T09:18:03Z</time>
      </trkpt>
      <trkpt lat="50.26552" lon="5.73118">
        <ele>517</ele>
        <time>2015-05-10T09:18:09Z</time>
      </trkpt>
      <trkpt lat="50.26558" lon="5.73121">
        <ele>517</ele>
        <time>2015-05-10T09:18:14Z</time>
      </trkpt>
      <trkpt lat="50.26564" lon="5.73125">
        <ele>517</ele>
        <time>2015-05-10T09:18:20Z</time>
      </trkpt>
      <trkpt lat="50.2657" lon="5.73129">
        <ele>517</ele>
        <time>2015-05-10T09:18:25Z</time>
      </trkpt>
      <trkpt lat="50.26578" lon="5.73133">
        <ele>517</ele>
        <time>2015-05-10T09:18:31Z</time>
      </trkpt>
      <trkpt lat="50.26585" lon="5.73137">
        <ele>517</ele>
        <time>2015-05-10T09:18:37Z</time>
      </trkpt>
      <trkpt lat="50.2659" lon="5.7314">
        <ele>517</ele>
        <time>2015-05-10T09:18:42Z</time>
      </trkpt>
      <trkpt lat="50.26596" lon="5.73143">
        <ele>517</ele>
        <time>2015-05-10T09:18:47Z</time>
      </trkpt>
      <trkpt lat="50.26602" lon="5.73146">
        <ele>517</ele>
        <time>2015-05-10T09:18:52Z</time>
      </trkpt>
      <trkpt lat="50.26608" lon="5.73149">
        <ele>517</ele>
        <time>2015-05-10T09:18:57Z</time>
      </trkpt>
      <trkpt lat="50.26617" lon="5.73154">
        <ele>516</ele>
        <time>2015-05-10T09:19:03Z</time>
      </trkpt>
      <trkpt lat="50.26623" lon="5.7316">
        <ele>515</ele>
        <time>2015-05-10T09:19:09Z</time>
      </trkpt>
      <trkpt lat="50.2663" lon="5.73166">
        <ele>515</ele>
        <time>2015-05-10T09:19:15Z</time>
      </trkpt>
      <trkpt lat="50.26637" lon="5.73169">
        <ele>515</ele>
        <time>2015-05-10T09:19:20Z</time>
      </trkpt>
      <trkpt lat="50.26644" lon="5.73174">
        <ele>515</ele>
        <time>2015-05-10T09:19:26Z</time>
      </trkpt>
      <trkpt lat="50.26651" lon="5.73178">
        <ele>515</ele>
        <time>2015-05-10T09:19:32Z</time>
      </trkpt>
      <trkpt lat="50.26657" lon="5.73182">
        <ele>515</ele>
        <time>2015-05-10T09:19:38Z</time>
      </trkpt>
      <trkpt lat="50.26663" lon="5.73186">
        <ele>514</ele>
        <time>2015-05-10T09:19:43Z</time>
      </trkpt>
      <trkpt lat="50.2667" lon="5.7319">
        <ele>514</ele>
        <time>2015-05-10T09:19:49Z</time>
      </trkpt>
      <trkpt lat="50.26676" lon="5.73194">
        <ele>513</ele>
        <time>2015-05-10T09:19:54Z</time>
      </trkpt>
      <trkpt lat="50.26683" lon="5.73198">
        <ele>513</ele>
        <time>2015-05-10T09:20:00Z</time>
      </trkpt>
      <trkpt lat="50.26689" lon="5.73201">
        <ele>513</ele>
        <time>2015-05-10T09:20:05Z</time>
      </trkpt>
      <trkpt lat="50.26696" lon="5.73206">
        <ele>513</ele>
        <time>2015-05-10T09:20:11Z</time>
      </trkpt>
      <trkpt lat="50.26702" lon="5.73209">
        <ele>513</ele>
        <time>2015-05-10T09:20:16Z</time>
      </trkpt>
      <trkpt lat="50.26704" lon="5.73211">
        <ele>512</ele>
        <time>2015-05-10T09:20:22Z</time>
      </trkpt>
      <trkpt lat="50.26712" lon="5.73215">
        <ele>512</ele>
        <time>2015-05-10T09:20:28Z</time>
      </trkpt>
      <trkpt lat="50.26717" lon="5.73219">
        <ele>511</ele>
        <time>2015-05-10T09:20:33Z</time>
      </trkpt>
      <trkpt lat="50.2672" lon="5.73225">
        <ele>511</ele>
        <time>2015-05-10T09:20:38Z</time>
      </trkpt>
      <trkpt lat="50.2672" lon="5.73234">
        <ele>511</ele>
        <time>2015-05-10T09:20:44Z</time>
      </trkpt>
      <trkpt lat="50.26719" lon="5.73242">
        <ele>511</ele>
        <time>2015-05-10T09:20:50Z</time>
      </trkpt>
      <trkpt lat="50.26719" lon="5.73245">
        <ele>511</ele>
        <time>2015-05-10T09:20:56Z</time>
      </trkpt>
      <trkpt lat="50.26719" lon="5.73246">
        <ele>511</ele>
        <time>2015-05-10T09:21:02Z</time>
      </trkpt>
      <trkpt lat="50.2672" lon="5.73245">
        <ele>512</ele>
        <time>2015-05-10T09:21:08Z</time>
      </trkpt>
      <trkpt lat="50.2672" lon="5.73245">
        <ele>511</ele>
        <time>2015-05-10T09:21:13Z</time>
      </trkpt>
      <trkpt lat="50.2672" lon="5.73247">
        <ele>511</ele>
        <time>2015-05-10T09:21:19Z</time>
      </trkpt>
      <trkpt lat="50.26722" lon="5.73248">
        <ele>511</ele>
        <time>2015-05-10T09:21:24Z</time>
      </trkpt>
      <trkpt lat="50.26725" lon="5.7325">
        <ele>512</ele>
        <time>2015-05-10T09:21:29Z</time>
      </trkpt>
      <trkpt lat="50.26728" lon="5.73251">
        <ele>512</ele>
        <time>2015-05-10T09:21:35Z</time>
      </trkpt>
      <trkpt lat="50.26729" lon="5.73253">
        <ele>512</ele>
        <time>2015-05-10T09:21:40Z</time>
      </trkpt>
      <trkpt lat="50.2673" lon="5.73252">
        <ele>511</ele>
        <time>2015-05-10T09:21:46Z</time>
      </trkpt>
      <trkpt lat="50.26728" lon="5.73252">
        <ele>511</ele>
        <time>2015-05-10T09:21:51Z</time>
      </trkpt>
      <trkpt lat="50.26727" lon="5.73252">
        <ele>511</ele>
        <time>2015-05-10T09:21:56Z</time>
      </trkpt>
      <trkpt lat="50.26725" lon="5.73256">
        <ele>511</ele>
        <time>2015-05-10T09:22:02Z</time>
      </trkpt>
      <trkpt lat="50.26722" lon="5.73258">
        <ele>511</ele>
        <time>2015-05-10T09:22:08Z</time>
      </trkpt>
      <trkpt lat="50.26721" lon="5.73258">
        <ele>511</ele>
        <time>2015-05-10T09:22:14Z</time>
      </trkpt>
      <trkpt lat="50.2672" lon="5.73261">
        <ele>511</ele>
        <time>2015-05-10T09:22:19Z</time>
      </trkpt>
      <trkpt lat="50.26717" lon="5.73267">
        <ele>511</ele>
        <time>2015-05-10T09:22:24Z</time>
      </trkpt>
      <trkpt lat="50.26713" lon="5.73274">
        <ele>511</ele>
        <time>2015-05-10T09:22:30Z</time>
      </trkpt>
      <trkpt lat="50.26709" lon="5.73282">
        <ele>511</ele>
        <time>2015-05-10T09:22:35Z</time>
      </trkpt>
      <trkpt lat="50.26703" lon="5.7329">
        <ele>512</ele>
        <time>2015-05-10T09:22:41Z</time>
      </trkpt>
      <trkpt lat="50.26702" lon="5.73293">
        <ele>513</ele>
        <time>2015-05-10T09:22:46Z</time>
      </trkpt>
      <trkpt lat="50.26701" lon="5.73298">
        <ele>512</ele>
        <time>2015-05-10T09:22:52Z</time>
      </trkpt>
      <trkpt lat="50.26697" lon="5.73304">
        <ele>512</ele>
        <time>2015-05-10T09:22:57Z</time>
      </trkpt>
      <trkpt lat="50.26695" lon="5.73304">
        <ele>512</ele>
        <time>2015-05-10T09:23:03Z</time>
      </trkpt>
      <trkpt lat="50.26693" lon="5.73304">
        <ele>512</ele>
        <time>2015-05-10T09:23:08Z</time>
      </trkpt>
      <trkpt lat="50.26692" lon="5.73304">
        <ele>512</ele>
        <time>2015-05-10T09:23:14Z</time>
      </trkpt>
      <trkpt lat="50.26691" lon="5.73303">
        <ele>512</ele>
        <time>2015-05-10T09:23:19Z</time>
      </trkpt>
      <trkpt lat="50.26691" lon="5.73304">
        <ele>512</ele>
        <time>2015-05-10T09:23:25Z</time>
      </trkpt>
      <trkpt lat="50.2669" lon="5.73305">
        <ele>512</ele>
        <time>2015-05-10T09:23:30Z</time>
      </trkpt>
      <trkpt lat="50.26689" lon="5.73307">
        <ele>512</ele>
        <time>2015-05-10T09:23:36Z</time>
      </trkpt>
      <trkpt lat="50.26689" lon="5.73309">
        <ele>512</ele>
        <time>2015-05-10T09:23:41Z</time>
      </trkpt>
      <trkpt lat="50.2669" lon="5.73311">
        <ele>512</ele>
        <time>2015-05-10T09:23:47Z</time>
      </trkpt>
      <trkpt lat="50.26691" lon="5.73313">
        <ele>512</ele>
        <time>2015-05-10T09:23:53Z</time>
      </trkpt>
      <trkpt lat="50.26688" lon="5.73316">
        <ele>512</ele>
        <time>2015-05-10T09:23:58Z</time>
      </trkpt>
      <trkpt lat="50.26686" lon="5.73319">
        <ele>512</ele>
        <time>2015-05-10T09:24:03Z</time>
      </trkpt>
      <trkpt lat="50.26684" lon="5.73321">
        <ele>512</ele>
        <time>2015-05-10T09:24:08Z</time>
      </trkpt>
      <trkpt lat="50.26683" lon="5.7332">
        <ele>513</ele>
        <time>2015-05-10T09:24:14Z</time>
      </trkpt>
      <trkpt lat="50.26683" lon="5.7332">
        <ele>513</ele>
        <time>2015-05-10T09:24:20Z</time>
      </trkpt>
      <trkpt lat="50.26682" lon="5.7332">
        <ele>512</ele>
        <time>2015-05-10T09:24:25Z</time>
      </trkpt>
      <trkpt lat="50.2668" lon="5.73322">
        <ele>512</ele>
        <time>2015-05-10T09:24:30Z</time>
      </trkpt>
      <trkpt lat="50.26677" lon="5.73325">
        <ele>512</ele>
        <time>2015-05-10T09:24:36Z</time>
      </trkpt>
      <trkpt lat="50.26677" lon="5.73324">
        <ele>512</ele>
        <time>2015-05-10T09:24:42Z</time>
      </trkpt>
      <trkpt lat="50.26677" lon="5.73323">
        <ele>512</ele>
        <time>2015-05-10T09:24:48Z</time>
      </trkpt>
      <trkpt lat="50.26677" lon="5.73322">
        <ele>511</ele>
        <time>2015-05-10T09:24:53Z</time>
      </trkpt>
      <trkpt lat="50.26674" lon="5.73323">
        <ele>512</ele>
        <time>2015-05-10T09:24:59Z</time>
      </trkpt>
      <trkpt lat="50.2667" lon="5.73328">
        <ele>512</ele>
        <time>2015-05-10T09:25:04Z</time>
      </trkpt>
      <trkpt lat="50.26667" lon="5.73335">
        <ele>511</ele>
        <time>2015-05-10T09:25:10Z</time>
      </trkpt>
      <trkpt lat="50.26664" lon="5.73339">
        <ele>511</ele>
        <time>2015-05-10T09:25:16Z</time>
      </trkpt>
      <trkpt lat="50.26663" lon="5.73341">
        <ele>512</ele>
        <time>2015-05-10T09:25:22Z</time>
      </trkpt>
      <trkpt lat="50.26663" lon="5.73342">
        <ele>512</ele>
        <time>2015-05-10T09:25:27Z</time>
      </trkpt>
      <trkpt lat="50.2666" lon="5.73347">
        <ele>512</ele>
        <time>2015-05-10T09:25:33Z</time>
      </trkpt>
      <trkpt lat="50.26657" lon="5.73353">
        <ele>512</ele>
        <time>2015-05-10T09:25:39Z</time>
      </trkpt>
      <trkpt lat="50.26655" lon="5.73354">
        <ele>512</ele>
        <time>2015-05-10T09:25:44Z</time>
      </trkpt>
      <trkpt lat="50.26651" lon="5.73358">
        <ele>512</ele>
        <time>2015-05-10T09:25:50Z</time>
      </trkpt>
      <trkpt lat="50.26646" lon="5.73365">
        <ele>512</ele>
        <time>2015-05-10T09:25:55Z</time>
      </trkpt>
      <trkpt lat="50.26643" lon="5.7337">
        <ele>512</ele>
        <time>2015-05-10T09:26:01Z</time>
      </trkpt>
      <trkpt lat="50.26643" lon="5.73372">
        <ele>511</ele>
        <time>2015-05-10T09:26:06Z</time>
      </trkpt>
      <trkpt lat="50.26639" lon="5.73381">
        <ele>511</ele>
        <time>2015-05-10T09:26:12Z</time>
      </trkpt>
      <trkpt lat="50.26633" lon="5.73389">
        <ele>511</ele>
        <time>2015-05-10T09:26:18Z</time>
      </trkpt>
      <trkpt lat="50.26626" lon="5.73394">
        <ele>511</ele>
        <time>2015-05-10T09:26:24Z</time>
      </trkpt>
      <trkpt lat="50.2662" lon="5.73399">
        <ele>510</ele>
        <time>2015-05-10T09:26:30Z</time>
      </trkpt>
      <trkpt lat="50.26617" lon="5.73404">
        <ele>510</ele>
        <time>2015-05-10T09:26:36Z</time>
      </trkpt>
      <trkpt lat="50.26611" lon="5.73409">
        <ele>510</ele>
        <time>2015-05-10T09:26:41Z</time>
      </trkpt>
      <trkpt lat="50.26607" lon="5.73411">
        <ele>510</ele>
        <time>2015-05-10T09:26:46Z</time>
      </trkpt>
      <trkpt lat="50.266" lon="5.73417">
        <ele>510</ele>
        <time>2015-05-10T09:26:52Z</time>
      </trkpt>
      <trkpt lat="50.26594" lon="5.73421">
        <ele>509</ele>
        <time>2015-05-10T09:26:58Z</time>
      </trkpt>
      <trkpt lat="50.26588" lon="5.73427">
        <ele>510</ele>
        <time>2015-05-10T09:27:03Z</time>
      </trkpt>
      <trkpt lat="50.26581" lon="5.73432">
        <ele>509</ele>
        <time>2015-05-10T09:27:09Z</time>
      </trkpt>
      <trkpt lat="50.26575" lon="5.73436">
        <ele>508</ele>
        <time>2015-05-10T09:27:14Z</time>
      </trkpt>
      <trkpt lat="50.2657" lon="5.73442">
        <ele>508</ele>
        <time>2015-05-10T09:27:19Z</time>
      </trkpt>
      <trkpt lat="50.26565" lon="5.73448">
        <ele>507</ele>
        <time>2015-05-10T09:27:24Z</time>
      </trkpt>
      <trkpt lat="50.26559" lon="5.73455">
        <ele>507</ele>
        <time>2015-05-10T09:27:30Z</time>
      </trkpt>
      <trkpt lat="50.26553" lon="5.73458">
        <ele>506</ele>
        <time>2015-05-10T09:27:35Z</time>
      </trkpt>
      <trkpt lat="50.26548" lon="5.73463">
        <ele>506</ele>
        <time>2015-05-10T09:27:40Z</time>
      </trkpt>
      <trkpt lat="50.26542" lon="5.73469">
        <ele>505</ele>
        <time>2015-05-10T09:27:46Z</time>
      </trkpt>
      <trkpt lat="50.26537" lon="5.73476">
        <ele>505</ele>
        <time>2015-05-10T09:27:51Z</time>
      </trkpt>
      <trkpt lat="50.2653" lon="5.73482">
        <ele>505</ele>
        <time>2015-05-10T09:27:56Z</time>
      </trkpt>
      <trkpt lat="50.26523" lon="5.73488">
        <ele>504</ele>
        <time>2015-05-10T09:28:02Z</time>
      </trkpt>
      <trkpt lat="50.26519" lon="5.73493">
        <ele>504</ele>
        <time>2015-05-10T09:28:07Z</time>
      </trkpt>
      <trkpt lat="50.26514" lon="5.73499">
        <ele>503</ele>
        <time>2015-05-10T09:28:12Z</time>
      </trkpt>
      <trkpt lat="50.2651" lon="5.73506">
        <ele>502</ele>
        <time>2015-05-10T09:28:17Z</time>
      </trkpt>
      <trkpt lat="50.26504" lon="5.73516">
        <ele>501</ele>
        <time>2015-05-10T09:28:23Z</time>
      </trkpt>
      <trkpt lat="50.265" lon="5.7352">
        <ele>500</ele>
        <time>2015-05-10T09:28:28Z</time>
      </trkpt>
      <trkpt lat="50.26496" lon="5.73525">
        <ele>499</ele>
        <time>2015-05-10T09:28:34Z</time>
      </trkpt>
      <trkpt lat="50.2649" lon="5.73532">
        <ele>499</ele>
        <time>2015-05-10T09:28:40Z</time>
      </trkpt>
      <trkpt lat="50.26487" lon="5.73533">
        <ele>498</ele>
        <time>2015-05-10T09:28:46Z</time>
      </trkpt>
      <trkpt lat="50.26482" lon="5.73541">
        <ele>498</ele>
        <time>2015-05-10T09:28:51Z</time>
      </trkpt>
      <trkpt lat="50.26474" lon="5.73552">
        <ele>497</ele>
        <time>2015-05-10T09:28:56Z</time>
      </trkpt>
      <trkpt lat="50.2647" lon="5.73561">
        <ele>497</ele>
        <time>2015-05-10T09:29:01Z</time>
      </trkpt>
      <trkpt lat="50.26465" lon="5.73574">
        <ele>496</ele>
        <time>2015-05-10T09:29:07Z</time>
      </trkpt>
      <trkpt lat="50.26462" lon="5.73583">
        <ele>495</ele>
        <time>2015-05-10T09:29:12Z</time>
      </trkpt>
      <trkpt lat="50.26458" lon="5.73594">
        <ele>494</ele>
        <time>2015-05-10T09:29:18Z</time>
      </trkpt>
      <trkpt lat="50.26457" lon="5.73602">
        <ele>493</ele>
        <time>2015-05-10T09:29:23Z</time>
      </trkpt>
      <trkpt lat="50.26454" lon="5.7361">
        <ele>493</ele>
        <time>2015-05-10T09:29:28Z</time>
      </trkpt>
      <trkpt lat="50.26451" lon="5.7362">
        <ele>492</ele>
        <time>2015-05-10T09:29:34Z</time>
      </trkpt>
      <trkpt lat="50.26449" lon="5.7363">
        <ele>491</ele>
        <time>2015-05-10T09:29:40Z</time>
      </trkpt>
      <trkpt lat="50.26447" lon="5.73643">
        <ele>491</ele>
        <time>2015-05-10T09:29:46Z</time>
      </trkpt>
      <trkpt lat="50.26444" lon="5.73652">
        <ele>491</ele>
        <time>2015-05-10T09:29:51Z</time>
      </trkpt>
      <trkpt lat="50.26441" lon="5.7366">
        <ele>490</ele>
        <time>2015-05-10T09:29:56Z</time>
      </trkpt>
      <trkpt lat="50.26437" lon="5.73671">
        <ele>489</ele>
        <time>2015-05-10T09:30:02Z</time>
      </trkpt>
      <trkpt lat="50.26433" lon="5.7368">
        <ele>489</ele>
        <time>2015-05-10T09:30:08Z</time>
      </trkpt>
      <trkpt lat="50.26429" lon="5.73687">
        <ele>488</ele>
        <time>2015-05-10T09:30:13Z</time>
      </trkpt>
      <trkpt lat="50.26428" lon="5.737">
        <ele>488</ele>
        <time>2015-05-10T09:30:19Z</time>
      </trkpt>
      <trkpt lat="50.26423" lon="5.73709">
        <ele>487</ele>
        <time>2015-05-10T09:30:24Z</time>
      </trkpt>
      <trkpt lat="50.2642" lon="5.73717">
        <ele>487</ele>
        <time>2015-05-10T09:30:29Z</time>
      </trkpt>
      <trkpt lat="50.26416" lon="5.73727">
        <ele>486</ele>
        <time>2015-05-10T09:30:34Z</time>
      </trkpt>
      <trkpt lat="50.26411" lon="5.73738">
        <ele>486</ele>
        <time>2015-05-10T09:30:40Z</time>
      </trkpt>
      <trkpt lat="50.26408" lon="5.73744">
        <ele>485</ele>
        <time>2015-05-10T09:30:45Z</time>
      </trkpt>
      <trkpt lat="50.26407" lon="5.73746">
        <ele>485</ele>
        <time>2015-05-10T09:30:50Z</time>
      </trkpt>
      <trkpt lat="50.26407" lon="5.73748">
        <ele>485</ele>
        <time>2015-05-10T09:30:55Z</time>
      </trkpt>
      <trkpt lat="50.26404" lon="5.73755">
        <ele>484</ele>
        <time>2015-05-10T09:31:01Z</time>
      </trkpt>
      <trkpt lat="50.264" lon="5.73761">
        <ele>483</ele>
        <time>2015-05-10T09:31:06Z</time>
      </trkpt>
      <trkpt lat="50.26396" lon="5.73768">
        <ele>483</ele>
        <time>2015-05-10T09:31:12Z</time>
      </trkpt>
      <trkpt lat="50.26393" lon="5.73777">
        <ele>483</ele>
        <time>2015-05-10T09:31:18Z</time>
      </trkpt>
      <trkpt lat="50.26393" lon="5.7378">
        <ele>483</ele>
        <time>2015-05-10T09:31:23Z</time>
      </trkpt>
      <trkpt lat="50.26392" lon="5.73783">
        <ele>483</ele>
        <time>2015-05-10T09:31:28Z</time>
      </trkpt>
      <trkpt lat="50.26391" lon="5.73788">
        <ele>482</ele>
        <time>2015-05-10T09:31:34Z</time>
      </trkpt>
      <trkpt lat="50.26388" lon="5.73794">
        <ele>482</ele>
        <time>2015-05-10T09:31:39Z</time>
      </trkpt>
      <trkpt lat="50.26384" lon="5.73803">
        <ele>482</ele>
        <time>2015-05-10T09:31:45Z</time>
      </trkpt>
      <trkpt lat="50.2638" lon="5.73812">
        <ele>481</ele>
        <time>2015-05-10T09:31:51Z</time>
      </trkpt>
      <trkpt lat="50.26377" lon="5.73819">
        <ele>480</ele>
        <time>2015-05-10T09:31:56Z</time>
      </trkpt>
      <trkpt lat="50.26373" lon="5.73826">
        <ele>480</ele>
        <time>2015-05-10T09:32:02Z</time>
      </trkpt>
      <trkpt lat="50.2637" lon="5.73834">
        <ele>479</ele>
        <time>2015-05-10T09:32:07Z</time>
      </trkpt>
      <trkpt lat="50.26367" lon="5.7384">
        <ele>479</ele>
        <time>2015-05-10T09:32:12Z</time>
      </trkpt>
      <trkpt lat="50.26364" lon="5.73848">
        <ele>478</ele>
        <time>2015-05-10T09:32:18Z</time>
      </trkpt>
      <trkpt lat="50.26361" lon="5.73857">
        <ele>477</ele>
        <time>2015-05-10T09:32:23Z</time>
      </trkpt>
      <trkpt lat="50.26357" lon="5.73867">
        <ele>477</ele>
        <time>2015-05-10T09:32:28Z</time>
      </trkpt>
      <trkpt lat="50.26352" lon="5.73878">
        <ele>477</ele>
        <time>2015-05-10T09:32:34Z</time>
      </trkpt>
      <trkpt lat="50.26348" lon="5.73888">
        <ele>476</ele>
        <time>2015-05-10T09:32:40Z</time>
      </trkpt>
      <trkpt lat="50.26344" lon="5.73898">
        <ele>476</ele>
        <time>2015-05-10T09:32:45Z</time>
      </trkpt>
      <trkpt lat="50.26339" lon="5.73908">
        <ele>476</ele>
        <time>2015-05-10T09:32:51Z</time>
      </trkpt>
      <trkpt lat="50.26338" lon="5.73916">
        <ele>475</ele>
        <time>2015-05-10T09:32:56Z</time>
      </trkpt>
      <trkpt lat="50.26335" lon="5.73924">
        <ele>474</ele>
        <time>2015-05-10T09:33:01Z</time>
      </trkpt>
      <trkpt lat="50.26332" lon="5.73931">
        <ele>473</ele>
        <time>2015-05-10T09:33:06Z</time>
      </trkpt>
      <trkpt lat="50.26331" lon="5.73936">
        <ele>473</ele>
        <time>2015-05-10T09:33:11Z</time>
      </trkpt>
      <trkpt lat="50.26331" lon="5.73936">
        <ele>473</ele>
        <time>2015-05-10T09:33:17Z</time>
      </trkpt>
      <trkpt lat="50.26329" lon="5.73939">
        <ele>473</ele>
        <time>2015-05-10T09:33:22Z</time>
      </trkpt>
      <trkpt lat="50.2633" lon="5.73939">
        <ele>473</ele>
        <time>2015-05-10T09:33:28Z</time>
      </trkpt>
      <trkpt lat="50.26329" lon="5.73937">
        <ele>473</ele>
        <time>2015-05-10T09:33:34Z</time>
      </trkpt>
      <trkpt lat="50.26329" lon="5.73937">
        <ele>473</ele>
        <time>2015-05-10T09:33:40Z</time>
      </trkpt>
      <trkpt lat="50.26329" lon="5.73939">
        <ele>473</ele>
        <time>2015-05-10T09:33:46Z</time>
      </trkpt>
      <trkpt lat="50.26327" lon="5.73946">
        <ele>473</ele>
        <time>2015-05-10T09:33:51Z</time>
      </trkpt>
      <trkpt lat="50.26323" lon="5.73954">
        <ele>472</ele>
        <time>2015-05-10T09:33:57Z</time>
      </trkpt>
      <trkpt lat="50.2632" lon="5.73957">
        <ele>472</ele>
        <time>2015-05-10T09:34:03Z</time>
      </trkpt>
      <trkpt lat="50.26317" lon="5.73965">
        <ele>472</ele>
        <time>2015-05-10T09:34:08Z</time>
      </trkpt>
      <trkpt lat="50.26315" lon="5.73977">
        <ele>472</ele>
        <time>2015-05-10T09:34:14Z</time>
      </trkpt>
      <trkpt lat="50.26312" lon="5.73984">
        <ele>471</ele>
        <time>2015-05-10T09:34:19Z</time>
      </trkpt>
      <trkpt lat="50.26309" lon="5.73995">
        <ele>471</ele>
        <time>2015-05-10T09:34:25Z</time>
      </trkpt>
      <trkpt lat="50.26305" lon="5.74006">
        <ele>470</ele>
        <time>2015-05-10T09:34:30Z</time>
      </trkpt>
      <trkpt lat="50.26304" lon="5.74013">
        <ele>470</ele>
        <time>2015-05-10T09:34:35Z</time>
      </trkpt>
      <trkpt lat="50.26302" lon="5.74016">
        <ele>469</ele>
        <time>2015-05-10T09:34:41Z</time>
      </trkpt>
      <trkpt lat="50.26302" lon="5.74013">
        <ele>470</ele>
        <time>2015-05-10T09:34:47Z</time>
      </trkpt>
      <trkpt lat="50.26302" lon="5.74013">
        <ele>470</ele>
        <time>2015-05-10T09:34:52Z</time>
      </trkpt>
      <trkpt lat="50.26302" lon="5.74013">
        <ele>469</ele>
        <time>2015-05-10T09:34:57Z</time>
      </trkpt>
      <trkpt lat="50.26301" lon="5.74012">
        <ele>469</ele>
        <time>2015-05-10T09:35:02Z</time>
      </trkpt>
      <trkpt lat="50.263" lon="5.74012">
        <ele>469</ele>
        <time>2015-05-10T09:35:08Z</time>
      </trkpt>
      <trkpt lat="50.263" lon="5.74012">
        <ele>469</ele>
        <time>2015-05-10T09:35:14Z</time>
      </trkpt>
      <trkpt lat="50.263" lon="5.74013">
        <ele>469</ele>
        <time>2015-05-10T09:35:22Z</time>
      </trkpt>
      <trkpt lat="50.263" lon="5.74014">
        <ele>470</ele>
        <time>2015-05-10T09:35:27Z</time>
      </trkpt>
      <trkpt lat="50.26297" lon="5.74019">
        <ele>470</ele>
        <time>2015-05-10T09:35:33Z</time>
      </trkpt>
      <trkpt lat="50.26295" lon="5.74025">
        <ele>469</ele>
        <time>2015-05-10T09:35:39Z</time>
      </trkpt>
      <trkpt lat="50.26292" lon="5.74034">
        <ele>468</ele>
        <time>2015-05-10T09:35:44Z</time>
      </trkpt>
      <trkpt lat="50.26289" lon="5.74045">
        <ele>466</ele>
        <time>2015-05-10T09:35:50Z</time>
      </trkpt>
      <trkpt lat="50.26286" lon="5.74053">
        <ele>466</ele>
        <time>2015-05-10T09:35:55Z</time>
      </trkpt>
      <trkpt lat="50.26285" lon="5.74056">
        <ele>466</ele>
        <time>2015-05-10T09:36:00Z</time>
      </trkpt>
      <trkpt lat="50.26286" lon="5.74052">
        <ele>465</ele>
        <time>2015-05-10T09:36:05Z</time>
      </trkpt>
      <trkpt lat="50.26286" lon="5.74056">
        <ele>465</ele>
        <time>2015-05-10T09:36:10Z</time>
      </trkpt>
      <trkpt lat="50.26282" lon="5.74065">
        <ele>465</ele>
        <time>2015-05-10T09:36:16Z</time>
      </trkpt>
      <trkpt lat="50.26279" lon="5.74072">
        <ele>464</ele>
        <time>2015-05-10T09:36:21Z</time>
      </trkpt>
      <trkpt lat="50.26277" lon="5.74076">
        <ele>464</ele>
        <time>2015-05-10T09:36:27Z</time>
      </trkpt>
      <trkpt lat="50.26273" lon="5.74082">
        <ele>463</ele>
        <time>2015-05-10T09:36:33Z</time>
      </trkpt>
      <trkpt lat="50.26268" lon="5.74086">
        <ele>463</ele>
        <time>2015-05-10T09:36:38Z</time>
      </trkpt>
      <trkpt lat="50.26265" lon="5.74088">
        <ele>462</ele>
        <time>2015-05-10T09:36:44Z</time>
      </trkpt>
      <trkpt lat="50.26262" lon="5.74091">
        <ele>461</ele>
        <time>2015-05-10T09:36:50Z</time>
      </trkpt>
      <trkpt lat="50.26255" lon="5.74099">
        <ele>461</ele>
        <time>2015-05-10T09:36:56Z</time>
      </trkpt>
      <trkpt lat="50.2625" lon="5.74106">
        <ele>460</ele>
        <time>2015-05-10T09:37:01Z</time>
      </trkpt>
      <trkpt lat="50.26245" lon="5.74113">
        <ele>459</ele>
        <time>2015-05-10T09:37:06Z</time>
      </trkpt>
      <trkpt lat="50.2624" lon="5.74119">
        <ele>458</ele>
        <time>2015-05-10T09:37:11Z</time>
      </trkpt>
      <trkpt lat="50.26236" lon="5.7412">
        <ele>457</ele>
        <time>2015-05-10T09:37:17Z</time>
      </trkpt>
      <trkpt lat="50.26236" lon="5.7412">
        <ele>457</ele>
        <time>2015-05-10T09:37:22Z</time>
      </trkpt>
      <trkpt lat="50.26235" lon="5.7412">
        <ele>457</ele>
        <time>2015-05-10T09:37:28Z</time>
      </trkpt>
      <trkpt lat="50.26234" lon="5.7412">
        <ele>457</ele>
        <time>2015-05-10T09:37:34Z</time>
      </trkpt>
      <trkpt lat="50.26234" lon="5.7412">
        <ele>457</ele>
        <time>2015-05-10T09:37:39Z</time>
      </trkpt>
      <trkpt lat="50.26234" lon="5.7412">
        <ele>457</ele>
        <time>2015-05-10T09:37:45Z</time>
      </trkpt>
      <trkpt lat="50.26231" lon="5.74123">
        <ele>457</ele>
        <time>2015-05-10T09:37:50Z</time>
      </trkpt>
      <trkpt lat="50.26223" lon="5.74133">
        <ele>456</ele>
        <time>2015-05-10T09:37:55Z</time>
      </trkpt>
      <trkpt lat="50.26212" lon="5.74145">
        <ele>454</ele>
        <time>2015-05-10T09:38:01Z</time>
      </trkpt>
      <trkpt lat="50.26202" lon="5.74155">
        <ele>454</ele>
        <time>2015-05-10T09:38:07Z</time>
      </trkpt>
      <trkpt lat="50.26197" lon="5.74158">
        <ele>453</ele>
        <time>2015-05-10T09:38:12Z</time>
      </trkpt>
      <trkpt lat="50.26192" lon="5.74162">
        <ele>452</ele>
        <time>2015-05-10T09:38:18Z</time>
      </trkpt>
      <trkpt lat="50.26189" lon="5.74164">
        <ele>451</ele>
        <time>2015-05-10T09:38:24Z</time>
      </trkpt>
      <trkpt lat="50.26188" lon="5.74165">
        <ele>451</ele>
        <time>2015-05-10T09:38:30Z</time>
      </trkpt>
      <trkpt lat="50.26188" lon="5.74165">
        <ele>451</ele>
        <time>2015-05-10T09:38:36Z</time>
      </trkpt>
      <trkpt lat="50.26186" lon="5.74165">
        <ele>451</ele>
        <time>2015-05-10T09:38:41Z</time>
      </trkpt>
      <trkpt lat="50.26186" lon="5.74165">
        <ele>450</ele>
        <time>2015-05-10T09:38:47Z</time>
      </trkpt>
      <trkpt lat="50.26186" lon="5.74165">
        <ele>451</ele>
        <time>2015-05-10T09:38:52Z</time>
      </trkpt>
      <trkpt lat="50.26185" lon="5.74164">
        <ele>451</ele>
        <time>2015-05-10T09:38:58Z</time>
      </trkpt>
      <trkpt lat="50.26185" lon="5.74164">
        <ele>451</ele>
        <time>2015-05-10T09:39:04Z</time>
      </trkpt>
      <trkpt lat="50.26185" lon="5.74165">
        <ele>451</ele>
        <time>2015-05-10T09:39:09Z</time>
      </trkpt>
      <trkpt lat="50.26186" lon="5.74165">
        <ele>451</ele>
        <time>2015-05-10T09:39:14Z</time>
      </trkpt>
      <trkpt lat="50.26188" lon="5.74169">
        <ele>451</ele>
        <time>2015-05-10T09:39:20Z</time>
      </trkpt>
      <trkpt lat="50.26191" lon="5.74173">
        <ele>450</ele>
        <time>2015-05-10T09:39:25Z</time>
      </trkpt>
      <trkpt lat="50.26194" lon="5.74178">
        <ele>450</ele>
        <time>2015-05-10T09:39:30Z</time>
      </trkpt>
      <trkpt lat="50.26198" lon="5.74186">
        <ele>450</ele>
        <time>2015-05-10T09:39:36Z</time>
      </trkpt>
      <trkpt lat="50.26201" lon="5.74193">
        <ele>450</ele>
        <time>2015-05-10T09:39:41Z</time>
      </trkpt>
      <trkpt lat="50.26204" lon="5.74198">
        <ele>450</ele>
        <time>2015-05-10T09:39:46Z</time>
      </trkpt>
      <trkpt lat="50.26208" lon="5.74201">
        <ele>450</ele>
        <time>2015-05-10T09:39:51Z</time>
      </trkpt>
      <trkpt lat="50.26214" lon="5.7421">
        <ele>450</ele>
        <time>2015-05-10T09:39:57Z</time>
      </trkpt>
      <trkpt lat="50.26219" lon="5.74216">
        <ele>449</ele>
        <time>2015-05-10T09:40:02Z</time>
      </trkpt>
      <trkpt lat="50.26226" lon="5.74225">
        <ele>449</ele>
        <time>2015-05-10T09:40:08Z</time>
      </trkpt>
      <trkpt lat="50.26231" lon="5.74232">
        <ele>450</ele>
        <time>2015-05-10T09:40:14Z</time>
      </trkpt>
      <trkpt lat="50.26237" lon="5.74238">
        <ele>450</ele>
        <time>2015-05-10T09:40:19Z</time>
      </trkpt>
      <trkpt lat="50.26241" lon="5.74246">
        <ele>449</ele>
        <time>2015-05-10T09:40:24Z</time>
      </trkpt>
      <trkpt lat="50.2624" lon="5.74257">
        <ele>449</ele>
        <time>2015-05-10T09:40:30Z</time>
      </trkpt>
      <trkpt lat="50.26241" lon="5.74257">
        <ele>449</ele>
        <time>2015-05-10T09:40:35Z</time>
      </trkpt>
      <trkpt lat="50.26241" lon="5.74258">
        <ele>449</ele>
        <time>2015-05-10T09:40:40Z</time>
      </trkpt>
      <trkpt lat="50.2624" lon="5.74264">
        <ele>448</ele>
        <time>2015-05-10T09:40:46Z</time>
      </trkpt>
      <trkpt lat="50.26238" lon="5.74271">
        <ele>448</ele>
        <time>2015-05-10T09:40:51Z</time>
      </trkpt>
      <trkpt lat="50.26236" lon="5.7428">
        <ele>447</ele>
        <time>2015-05-10T09:40:56Z</time>
      </trkpt>
      <trkpt lat="50.26234" lon="5.74289">
        <ele>446</ele>
        <time>2015-05-10T09:41:01Z</time>
      </trkpt>
      <trkpt lat="50.26233" lon="5.74301">
        <ele>445</ele>
        <time>2015-05-10T09:41:07Z</time>
      </trkpt>
      <trkpt lat="50.26231" lon="5.74311">
        <ele>444</ele>
        <time>2015-05-10T09:41:12Z</time>
      </trkpt>
      <trkpt lat="50.26228" lon="5.74322">
        <ele>443</ele>
        <time>2015-05-10T09:41:17Z</time>
      </trkpt>
      <trkpt lat="50.26226" lon="5.74334">
        <ele>443</ele>
        <time>2015-05-10T09:41:23Z</time>
      </trkpt>
      <trkpt lat="50.26225" lon="5.74346">
        <ele>442</ele>
        <time>2015-05-10T09:41:28Z</time>
      </trkpt>
      <trkpt lat="50.26223" lon="5.74357">
        <ele>441</ele>
        <time>2015-05-10T09:41:33Z</time>
      </trkpt>
      <trkpt lat="50.26221" lon="5.74372">
        <ele>440</ele>
        <time>2015-05-10T09:41:39Z</time>
      </trkpt>
      <trkpt lat="50.26221" lon="5.74389">
        <ele>440</ele>
        <time>2015-05-10T09:41:45Z</time>
      </trkpt>
      <trkpt lat="50.2622" lon="5.74405">
        <ele>438</ele>
        <time>2015-05-10T09:41:51Z</time>
      </trkpt>
      <trkpt lat="50.26219" lon="5.74417">
        <ele>437</ele>
        <time>2015-05-10T09:41:57Z</time>
      </trkpt>
      <trkpt lat="50.26218" lon="5.74426">
        <ele>436</ele>
        <time>2015-05-10T09:42:02Z</time>
      </trkpt>
      <trkpt lat="50.26217" lon="5.74433">
        <ele>436</ele>
        <time>2015-05-10T09:42:07Z</time>
      </trkpt>
      <trkpt lat="50.26214" lon="5.74451">
        <ele>435</ele>
        <time>2015-05-10T09:42:13Z</time>
      </trkpt>
      <trkpt lat="50.26212" lon="5.74469">
        <ele>433</ele>
        <time>2015-05-10T09:42:18Z</time>
      </trkpt>
      <trkpt lat="50.2621" lon="5.74485">
        <ele>431</ele>
        <time>2015-05-10T09:42:24Z</time>
      </trkpt>
      <trkpt lat="50.26208" lon="5.74495">
        <ele>429</ele>
        <time>2015-05-10T09:42:30Z</time>
      </trkpt>
      <trkpt lat="50.26205" lon="5.74503">
        <ele>428</ele>
        <time>2015-05-10T09:42:35Z</time>
      </trkpt>
      <trkpt lat="50.26202" lon="5.7451">
        <ele>428</ele>
        <time>2015-05-10T09:42:41Z</time>
      </trkpt>
      <trkpt lat="50.262" lon="5.74524">
        <ele>426</ele>
        <time>2015-05-10T09:42:46Z</time>
      </trkpt>
      <trkpt lat="50.26196" lon="5.74535">
        <ele>425</ele>
        <time>2015-05-10T09:42:52Z</time>
      </trkpt>
      <trkpt lat="50.26189" lon="5.74544">
        <ele>424</ele>
        <time>2015-05-10T09:42:58Z</time>
      </trkpt>
      <trkpt lat="50.26183" lon="5.74554">
        <ele>423</ele>
        <time>2015-05-10T09:43:04Z</time>
      </trkpt>
      <trkpt lat="50.26179" lon="5.74559">
        <ele>422</ele>
        <time>2015-05-10T09:43:09Z</time>
      </trkpt>
      <trkpt lat="50.26178" lon="5.74561">
        <ele>422</ele>
        <time>2015-05-10T09:43:14Z</time>
      </trkpt>
      <trkpt lat="50.26174" lon="5.74565">
        <ele>422</ele>
        <time>2015-05-10T09:43:19Z</time>
      </trkpt>
      <trkpt lat="50.26171" lon="5.74577">
        <ele>420</ele>
        <time>2015-05-10T09:43:25Z</time>
      </trkpt>
      <trkpt lat="50.26168" lon="5.74585">
        <ele>420</ele>
        <time>2015-05-10T09:43:30Z</time>
      </trkpt>
      <trkpt lat="50.26166" lon="5.74596">
        <ele>419</ele>
        <time>2015-05-10T09:43:35Z</time>
      </trkpt>
      <trkpt lat="50.26164" lon="5.74609">
        <ele>418</ele>
        <time>2015-05-10T09:43:41Z</time>
      </trkpt>
      <trkpt lat="50.26161" lon="5.74621">
        <ele>417</ele>
        <time>2015-05-10T09:43:47Z</time>
      </trkpt>
      <trkpt lat="50.26161" lon="5.74631">
        <ele>416</ele>
        <time>2015-05-10T09:43:52Z</time>
      </trkpt>
      <trkpt lat="50.26159" lon="5.74641">
        <ele>415</ele>
        <time>2015-05-10T09:43:57Z</time>
      </trkpt>
      <trkpt lat="50.26158" lon="5.74652">
        <ele>414</ele>
        <time>2015-05-10T09:44:03Z</time>
      </trkpt>
      <trkpt lat="50.26158" lon="5.74662">
        <ele>413</ele>
        <time>2015-05-10T09:44:08Z</time>
      </trkpt>
      <trkpt lat="50.26157" lon="5.74669">
        <ele>411</ele>
        <time>2015-05-10T09:44:13Z</time>
      </trkpt>
      <trkpt lat="50.26157" lon="5.74677">
        <ele>410</ele>
        <time>2015-05-10T09:44:19Z</time>
      </trkpt>
      <trkpt lat="50.26158" lon="5.74684">
        <ele>409</ele>
        <time>2015-05-10T09:44:24Z</time>
      </trkpt>
      <trkpt lat="50.26158" lon="5.74692">
        <ele>408</ele>
        <time>2015-05-10T09:44:29Z</time>
      </trkpt>
      <trkpt lat="50.26159" lon="5.74702">
        <ele>407</ele>
        <time>2015-05-10T09:44:35Z</time>
      </trkpt>
      <trkpt lat="50.2616" lon="5.7471">
        <ele>406</ele>
        <time>2015-05-10T09:44:40Z</time>
      </trkpt>
      <trkpt lat="50.26161" lon="5.74717">
        <ele>405</ele>
        <time>2015-05-10T09:44:45Z</time>
      </trkpt>
      <trkpt lat="50.26162" lon="5.74727">
        <ele>405</ele>
        <time>2015-05-10T09:44:51Z</time>
      </trkpt>
      <trkpt lat="50.26162" lon="5.74735">
        <ele>403</ele>
        <time>2015-05-10T09:44:56Z</time>
      </trkpt>
      <trkpt lat="50.26162" lon="5.74746">
        <ele>403</ele>
        <time>2015-05-10T09:45:01Z</time>
      </trkpt>
      <trkpt lat="50.26162" lon="5.74754">
        <ele>402</ele>
        <time>2015-05-10T09:45:06Z</time>
      </trkpt>
      <trkpt lat="50.26163" lon="5.74762">
        <ele>401</ele>
        <time>2015-05-10T09:45:11Z</time>
      </trkpt>
      <trkpt lat="50.26163" lon="5.74765">
        <ele>401</ele>
        <time>2015-05-10T09:45:17Z</time>
      </trkpt>
      <trkpt lat="50.26163" lon="5.74769">
        <ele>400</ele>
        <time>2015-05-10T09:45:22Z</time>
      </trkpt>
      <trkpt lat="50.26162" lon="5.74771">
        <ele>400</ele>
        <time>2015-05-10T09:45:27Z</time>
      </trkpt>
      <trkpt lat="50.26161" lon="5.74771">
        <ele>400</ele>
        <time>2015-05-10T09:45:33Z</time>
      </trkpt>
      <trkpt lat="50.2616" lon="5.74772">
        <ele>400</ele>
        <time>2015-05-10T09:45:38Z</time>
      </trkpt>
      <trkpt lat="50.2616" lon="5.74772">
        <ele>400</ele>
        <time>2015-05-10T09:45:44Z</time>
      </trkpt>
      <trkpt lat="50.2616" lon="5.74774">
        <ele>400</ele>
        <time>2015-05-10T09:45:49Z</time>
      </trkpt>
      <trkpt lat="50.2616" lon="5.74774">
        <ele>401</ele>
        <time>2015-05-10T09:45:54Z</time>
      </trkpt>
      <trkpt lat="50.26161" lon="5.74775">
        <ele>400</ele>
        <time>2015-05-10T09:46:00Z</time>
      </trkpt>
      <trkpt lat="50.26162" lon="5.74777">
        <ele>401</ele>
        <time>2015-05-10T09:46:06Z</time>
      </trkpt>
      <trkpt lat="50.26162" lon="5.74777">
        <ele>400</ele>
        <time>2015-05-10T09:46:11Z</time>
      </trkpt>
      <trkpt lat="50.26161" lon="5.7478">
        <ele>400</ele>
        <time>2015-05-10T09:46:17Z</time>
      </trkpt>
      <trkpt lat="50.26162" lon="5.74781">
        <ele>401</ele>
        <time>2015-05-10T09:46:22Z</time>
      </trkpt>
      <trkpt lat="50.26163" lon="5.74781">
        <ele>401</ele>
        <time>2015-05-10T09:46:27Z</time>
      </trkpt>
      <trkpt lat="50.26164" lon="5.7478">
        <ele>401</ele>
        <time>2015-05-10T09:46:33Z</time>
      </trkpt>
      <trkpt lat="50.26166" lon="5.74779">
        <ele>401</ele>
        <time>2015-05-10T09:46:39Z</time>
      </trkpt>
      <trkpt lat="50.26166" lon="5.74778">
        <ele>401</ele>
        <time>2015-05-10T09:46:46Z</time>
      </trkpt>
      <trkpt lat="50.26165" lon="5.74778">
        <ele>401</ele>
        <time>2015-05-10T09:46:51Z</time>
      </trkpt>
      <trkpt lat="50.26164" lon="5.74777">
        <ele>401</ele>
        <time>2015-05-10T09:46:56Z</time>
      </trkpt>
      <trkpt lat="50.26164" lon="5.74776">
        <ele>401</ele>
        <time>2015-05-10T09:47:02Z</time>
      </trkpt>
      <trkpt lat="50.26163" lon="5.74775">
        <ele>401</ele>
        <time>2015-05-10T09:47:08Z</time>
      </trkpt>
      <trkpt lat="50.26163" lon="5.74774">
        <ele>401</ele>
        <time>2015-05-10T09:47:13Z</time>
      </trkpt>
      <trkpt lat="50.26165" lon="5.74772">
        <ele>401</ele>
        <time>2015-05-10T09:47:19Z</time>
      </trkpt>
      <trkpt lat="50.26165" lon="5.7477">
        <ele>401</ele>
        <time>2015-05-10T09:47:24Z</time>
      </trkpt>
      <trkpt lat="50.26164" lon="5.74769">
        <ele>400</ele>
        <time>2015-05-10T09:47:30Z</time>
      </trkpt>
      <trkpt lat="50.26163" lon="5.74769">
        <ele>400</ele>
        <time>2015-05-10T09:47:36Z</time>
      </trkpt>
      <trkpt lat="50.26162" lon="5.74769">
        <ele>400</ele>
        <time>2015-05-10T09:47:41Z</time>
      </trkpt>
      <trkpt lat="50.26161" lon="5.74769">
        <ele>400</ele>
        <time>2015-05-10T09:47:46Z</time>
      </trkpt>
      <trkpt lat="50.26158" lon="5.74768">
        <ele>400</ele>
        <time>2015-05-10T09:47:52Z</time>
      </trkpt>
      <trkpt lat="50.26155" lon="5.74766">
        <ele>400</ele>
        <time>2015-05-10T09:47:57Z</time>
      </trkpt>
      <trkpt lat="50.26152" lon="5.74765">
        <ele>400</ele>
        <time>2015-05-10T09:48:03Z</time>
      </trkpt>
      <trkpt lat="50.26154" lon="5.74765">
        <ele>400</ele>
        <time>2015-05-10T09:48:09Z</time>
      </trkpt>
      <trkpt lat="50.26154" lon="5.74765">
        <ele>400</ele>
        <time>2015-05-10T09:48:14Z</time>
      </trkpt>
      <trkpt lat="50.26155" lon="5.74766">
        <ele>400</ele>
        <time>2015-05-10T09:48:20Z</time>
      </trkpt>
      <trkpt lat="50.26156" lon="5.74767">
        <ele>400</ele>
        <time>2015-05-10T09:48:26Z</time>
      </trkpt>
      <trkpt lat="50.26157" lon="5.74768">
        <ele>400</ele>
        <time>2015-05-10T09:48:31Z</time>
      </trkpt>
      <trkpt lat="50.26158" lon="5.7477">
        <ele>400</ele>
        <time>2015-05-10T09:48:36Z</time>
      </trkpt>
      <trkpt lat="50.26157" lon="5.74771">
        <ele>400</ele>
        <time>2015-05-10T09:48:41Z</time>
      </trkpt>
      <trkpt lat="50.26157" lon="5.74771">
        <ele>400</ele>
        <time>2015-05-10T09:48:47Z</time>
      </trkpt>
      <trkpt lat="50.26158" lon="5.7477">
        <ele>400</ele>
        <time>2015-05-10T09:48:53Z</time>
      </trkpt>
      <trkpt lat="50.26158" lon="5.74769">
        <ele>400</ele>
        <time>2015-05-10T09:48:58Z</time>
      </trkpt>
      <trkpt lat="50.26159" lon="5.74769">
        <ele>400</ele>
        <time>2015-05-10T09:49:03Z</time>
      </trkpt>
      <trkpt lat="50.26159" lon="5.7477">
        <ele>400</ele>
        <time>2015-05-10T09:49:08Z</time>
      </trkpt>
      <trkpt lat="50.26157" lon="5.7477">
        <ele>400</ele>
        <time>2015-05-10T09:49:14Z</time>
      </trkpt>
      <trkpt lat="50.26156" lon="5.74769">
        <ele>400</ele>
        <time>2015-05-10T09:49:19Z</time>
      </trkpt>
      <trkpt lat="50.26156" lon="5.7477">
        <ele>400</ele>
        <time>2015-05-10T09:49:25Z</time>
      </trkpt>
      <trkpt lat="50.26156" lon="5.74771">
        <ele>401</ele>
        <time>2015-05-10T09:49:31Z</time>
      </trkpt>
      <trkpt lat="50.26155" lon="5.74771">
        <ele>400</ele>
        <time>2015-05-10T09:49:36Z</time>
      </trkpt>
      <trkpt lat="50.26152" lon="5.74769">
        <ele>401</ele>
        <time>2015-05-10T09:49:42Z</time>
      </trkpt>
      <trkpt lat="50.26149" lon="5.74768">
        <ele>401</ele>
        <time>2015-05-10T09:49:47Z</time>
      </trkpt>
      <trkpt lat="50.26146" lon="5.74767">
        <ele>401</ele>
        <time>2015-05-10T09:49:52Z</time>
      </trkpt>
      <trkpt lat="50.26146" lon="5.74767">
        <ele>401</ele>
        <time>2015-05-10T09:49:57Z</time>
      </trkpt>
      <trkpt lat="50.26147" lon="5.74766">
        <ele>401</ele>
        <time>2015-05-10T09:50:03Z</time>
      </trkpt>
      <trkpt lat="50.26147" lon="5.74765">
        <ele>401</ele>
        <time>2015-05-10T09:50:08Z</time>
      </trkpt>
      <trkpt lat="50.26148" lon="5.74763">
        <ele>401</ele>
        <time>2015-05-10T09:50:13Z</time>
      </trkpt>
      <trkpt lat="50.26148" lon="5.74763">
        <ele>401</ele>
        <time>2015-05-10T09:50:19Z</time>
      </trkpt>
      <trkpt lat="50.26148" lon="5.74764">
        <ele>401</ele>
        <time>2015-05-10T09:50:24Z</time>
      </trkpt>
      <trkpt lat="50.26149" lon="5.74765">
        <ele>401</ele>
        <time>2015-05-10T09:50:29Z</time>
      </trkpt>
      <trkpt lat="50.26152" lon="5.74768">
        <ele>401</ele>
        <time>2015-05-10T09:50:35Z</time>
      </trkpt>
      <trkpt lat="50.26152" lon="5.7477">
        <ele>401</ele>
        <time>2015-05-10T09:50:40Z</time>
      </trkpt>
      <trkpt lat="50.26153" lon="5.74772">
        <ele>402</ele>
        <time>2015-05-10T09:50:45Z</time>
      </trkpt>
      <trkpt lat="50.26154" lon="5.74774">
        <ele>401</ele>
        <time>2015-05-10T09:50:51Z</time>
      </trkpt>
      <trkpt lat="50.26153" lon="5.74776">
        <ele>401</ele>
        <time>2015-05-10T09:50:56Z</time>
      </trkpt>
      <trkpt lat="50.26154" lon="5.74776">
        <ele>401</ele>
        <time>2015-05-10T09:51:02Z</time>
      </trkpt>
      <trkpt lat="50.26154" lon="5.74777">
        <ele>401</ele>
        <time>2015-05-10T09:51:08Z</time>
      </trkpt>
      <trkpt lat="50.26155" lon="5.74777">
        <ele>401</ele>
        <time>2015-05-10T09:51:14Z</time>
      </trkpt>
      <trkpt lat="50.26156" lon="5.74778">
        <ele>401</ele>
        <time>2015-05-10T09:51:19Z</time>
      </trkpt>
      <trkpt lat="50.26157" lon="5.74779">
        <ele>401</ele>
        <time>2015-05-10T09:51:24Z</time>
      </trkpt>
      <trkpt lat="50.26158" lon="5.7478">
        <ele>401</ele>
        <time>2015-05-10T09:51:30Z</time>
      </trkpt>
      <trkpt lat="50.26157" lon="5.74781">
        <ele>401</ele>
        <time>2015-05-10T09:51:35Z</time>
      </trkpt>
      <trkpt lat="50.26157" lon="5.74782">
        <ele>402</ele>
        <time>2015-05-10T09:51:41Z</time>
      </trkpt>
      <trkpt lat="50.26156" lon="5.74782">
        <ele>402</ele>
        <time>2015-05-10T09:51:47Z</time>
      </trkpt>
      <trkpt lat="50.26157" lon="5.74783">
        <ele>402</ele>
        <time>2015-05-10T09:51:52Z</time>
      </trkpt>
      <trkpt lat="50.26157" lon="5.74782">
        <ele>402</ele>
        <time>2015-05-10T09:51:57Z</time>
      </trkpt>
      <trkpt lat="50.26157" lon="5.74782">
        <ele>402</ele>
        <time>2015-05-10T09:52:02Z</time>
      </trkpt>
      <trkpt lat="50.26157" lon="5.74783">
        <ele>402</ele>
        <time>2015-05-10T09:52:08Z</time>
      </trkpt>
      <trkpt lat="50.26157" lon="5.74782">
        <ele>401</ele>
        <time>2015-05-10T09:52:13Z</time>
      </trkpt>
      <trkpt lat="50.26157" lon="5.74783">
        <ele>402</ele>
        <time>2015-05-10T09:52:18Z</time>
      </trkpt>
      <trkpt lat="50.26158" lon="5.74782">
        <ele>401</ele>
        <time>2015-05-10T09:52:24Z</time>
      </trkpt>
      <trkpt lat="50.26157" lon="5.74782">
        <ele>401</ele>
        <time>2015-05-10T09:52:29Z</time>
      </trkpt>
      <trkpt lat="50.26157" lon="5.74782">
        <ele>402</ele>
        <time>2015-05-10T09:52:34Z</time>
      </trkpt>
      <trkpt lat="50.26157" lon="5.74782">
        <ele>402</ele>
        <time>2015-05-10T09:52:39Z</time>
      </trkpt>
      <trkpt lat="50.26158" lon="5.74781">
        <ele>401</ele>
        <time>2015-05-10T09:52:45Z</time>
      </trkpt>
      <trkpt lat="50.26159" lon="5.74781">
        <ele>401</ele>
        <time>2015-05-10T09:52:50Z</time>
      </trkpt>
      <trkpt lat="50.2616" lon="5.74781">
        <ele>401</ele>
        <time>2015-05-10T09:52:55Z</time>
      </trkpt>
      <trkpt lat="50.26162" lon="5.74779">
        <ele>401</ele>
        <time>2015-05-10T09:53:01Z</time>
      </trkpt>
      <trkpt lat="50.26163" lon="5.74779">
        <ele>401</ele>
        <time>2015-05-10T09:53:07Z</time>
      </trkpt>
      <trkpt lat="50.26164" lon="5.74779">
        <ele>401</ele>
        <time>2015-05-10T09:53:12Z</time>
      </trkpt>
      <trkpt lat="50.26161" lon="5.74778">
        <ele>401</ele>
        <time>2015-05-10T09:53:17Z</time>
      </trkpt>
      <trkpt lat="50.26158" lon="5.74776">
        <ele>402</ele>
        <time>2015-05-10T09:53:23Z</time>
      </trkpt>
      <trkpt lat="50.26156" lon="5.74776">
        <ele>402</ele>
        <time>2015-05-10T09:53:28Z</time>
      </trkpt>
      <trkpt lat="50.26155" lon="5.74774">
        <ele>402</ele>
        <time>2015-05-10T09:53:33Z</time>
      </trkpt>
      <trkpt lat="50.26153" lon="5.74772">
        <ele>402</ele>
        <time>2015-05-10T09:53:39Z</time>
      </trkpt>
      <trkpt lat="50.26152" lon="5.74771">
        <ele>401</ele>
        <time>2015-05-10T09:53:44Z</time>
      </trkpt>
      <trkpt lat="50.26152" lon="5.74771">
        <ele>401</ele>
        <time>2015-05-10T09:53:50Z</time>
      </trkpt>
      <trkpt lat="50.26153" lon="5.74773">
        <ele>402</ele>
        <time>2015-05-10T09:53:56Z</time>
      </trkpt>
      <trkpt lat="50.26152" lon="5.74772">
        <ele>401</ele>
        <time>2015-05-10T09:54:01Z</time>
      </trkpt>
      <trkpt lat="50.2615" lon="5.7477">
        <ele>401</ele>
        <time>2015-05-10T09:54:07Z</time>
      </trkpt>
      <trkpt lat="50.26147" lon="5.74769">
        <ele>401</ele>
        <time>2015-05-10T09:54:12Z</time>
      </trkpt>
      <trkpt lat="50.26146" lon="5.74768">
        <ele>401</ele>
        <time>2015-05-10T09:54:17Z</time>
      </trkpt>
      <trkpt lat="50.26144" lon="5.74765">
        <ele>402</ele>
        <time>2015-05-10T09:54:22Z</time>
      </trkpt>
      <trkpt lat="50.26145" lon="5.74764">
        <ele>402</ele>
        <time>2015-05-10T09:54:28Z</time>
      </trkpt>
      <trkpt lat="50.26148" lon="5.74763">
        <ele>402</ele>
        <time>2015-05-10T09:54:33Z</time>
      </trkpt>
      <trkpt lat="50.26147" lon="5.74762">
        <ele>401</ele>
        <time>2015-05-10T09:54:39Z</time>
      </trkpt>
      <trkpt lat="50.26148" lon="5.74762">
        <ele>402</ele>
        <time>2015-05-10T09:54:44Z</time>
      </trkpt>
      <trkpt lat="50.26151" lon="5.74761">
        <ele>401</ele>
        <time>2015-05-10T09:54:49Z</time>
      </trkpt>
      <trkpt lat="50.26153" lon="5.7476">
        <ele>401</ele>
        <time>2015-05-10T09:54:54Z</time>
      </trkpt>
      <trkpt lat="50.2615" lon="5.74759">
        <ele>402</ele>
        <time>2015-05-10T09:55:00Z</time>
      </trkpt>
      <trkpt lat="50.26147" lon="5.74758">
        <ele>402</ele>
        <time>2015-05-10T09:55:06Z</time>
      </trkpt>
      <trkpt lat="50.26145" lon="5.74757">
        <ele>401</ele>
        <time>2015-05-10T09:55:11Z</time>
      </trkpt>
      <trkpt lat="50.26144" lon="5.74757">
        <ele>401</ele>
        <time>2015-05-10T09:55:16Z</time>
      </trkpt>
      <trkpt lat="50.26141" lon="5.74755">
        <ele>402</ele>
        <time>2015-05-10T09:55:21Z</time>
      </trkpt>
      <trkpt lat="50.26141" lon="5.74755">
        <ele>402</ele>
        <time>2015-05-10T09:55:27Z</time>
      </trkpt>
      <trkpt lat="50.26144" lon="5.74758">
        <ele>402</ele>
        <time>2015-05-10T09:55:32Z</time>
      </trkpt>
      <trkpt lat="50.26144" lon="5.74761">
        <ele>401</ele>
        <time>2015-05-10T09:55:37Z</time>
      </trkpt>
      <trkpt lat="50.26145" lon="5.74769">
        <ele>402</ele>
        <time>2015-05-10T09:55:43Z</time>
      </trkpt>
      <trkpt lat="50.26143" lon="5.74781">
        <ele>402</ele>
        <time>2015-05-10T09:55:49Z</time>
      </trkpt>
      <trkpt lat="50.2614" lon="5.74788">
        <ele>402</ele>
        <time>2015-05-10T09:55:54Z</time>
      </trkpt>
      <trkpt lat="50.26137" lon="5.74793">
        <ele>402</ele>
        <time>2015-05-10T09:55:59Z</time>
      </trkpt>
      <trkpt lat="50.26132" lon="5.74799">
        <ele>403</ele>
        <time>2015-05-10T09:56:05Z</time>
      </trkpt>
      <trkpt lat="50.26125" lon="5.74804">
        <ele>404</ele>
        <time>2015-05-10T09:56:11Z</time>
      </trkpt>
      <trkpt lat="50.26118" lon="5.74807">
        <ele>404</ele>
        <time>2015-05-10T09:56:16Z</time>
      </trkpt>
      <trkpt lat="50.26114" lon="5.74811">
        <ele>404</ele>
        <time>2015-05-10T09:56:22Z</time>
      </trkpt>
      <trkpt lat="50.26108" lon="5.74811">
        <ele>405</ele>
        <time>2015-05-10T09:56:27Z</time>
      </trkpt>
      <trkpt lat="50.26102" lon="5.74811">
        <ele>406</ele>
        <time>2015-05-10T09:56:33Z</time>
      </trkpt>
      <trkpt lat="50.26095" lon="5.7481">
        <ele>406</ele>
        <time>2015-05-10T09:56:38Z</time>
      </trkpt>
      <trkpt lat="50.26088" lon="5.7481">
        <ele>407</ele>
        <time>2015-05-10T09:56:44Z</time>
      </trkpt>
      <trkpt lat="50.26083" lon="5.74809">
        <ele>407</ele>
        <time>2015-05-10T09:56:49Z</time>
      </trkpt>
      <trkpt lat="50.26077" lon="5.74809">
        <ele>408</ele>
        <time>2015-05-10T09:56:55Z</time>
      </trkpt>
      <trkpt lat="50.26072" lon="5.74812">
        <ele>409</ele>
        <time>2015-05-10T09:57:01Z</time>
      </trkpt>
      <trkpt lat="50.26068" lon="5.74815">
        <ele>409</ele>
        <time>2015-05-10T09:57:06Z</time>
      </trkpt>
      <trkpt lat="50.26064" lon="5.74819">
        <ele>410</ele>
        <time>2015-05-10T09:57:11Z</time>
      </trkpt>
      <trkpt lat="50.26062" lon="5.74825">
        <ele>410</ele>
        <time>2015-05-10T09:57:17Z</time>
      </trkpt>
      <trkpt lat="50.26059" lon="5.74832">
        <ele>411</ele>
        <time>2015-05-10T09:57:23Z</time>
      </trkpt>
      <trkpt lat="50.26059" lon="5.74839">
        <ele>412</ele>
        <time>2015-05-10T09:57:28Z</time>
      </trkpt>
      <trkpt lat="50.26058" lon="5.74844">
        <ele>412</ele>
        <time>2015-05-10T09:57:33Z</time>
      </trkpt>
      <trkpt lat="50.26058" lon="5.74851">
        <ele>413</ele>
        <time>2015-05-10T09:57:39Z</time>
      </trkpt>
      <trkpt lat="50.26058" lon="5.74856">
        <ele>413</ele>
        <time>2015-05-10T09:57:44Z</time>
      </trkpt>
      <trkpt lat="50.26058" lon="5.74861">
        <ele>414</ele>
        <time>2015-05-10T09:57:50Z</time>
      </trkpt>
      <trkpt lat="50.26056" lon="5.74867">
        <ele>414</ele>
        <time>2015-05-10T09:57:55Z</time>
      </trkpt>
      <trkpt lat="50.26056" lon="5.74875">
        <ele>415</ele>
        <time>2015-05-10T09:58:01Z</time>
      </trkpt>
      <trkpt lat="50.26054" lon="5.74883">
        <ele>415</ele>
        <time>2015-05-10T09:58:07Z</time>
      </trkpt>
      <trkpt lat="50.26053" lon="5.74888">
        <ele>416</ele>
        <time>2015-05-10T09:58:12Z</time>
      </trkpt>
      <trkpt lat="50.2605" lon="5.7489">
        <ele>416</ele>
        <time>2015-05-10T09:58:18Z</time>
      </trkpt>
      <trkpt lat="50.26049" lon="5.74892">
        <ele>416</ele>
        <time>2015-05-10T09:58:23Z</time>
      </trkpt>
      <trkpt lat="50.26048" lon="5.74894">
        <ele>416</ele>
        <time>2015-05-10T09:58:28Z</time>
      </trkpt>
      <trkpt lat="50.26046" lon="5.74895">
        <ele>416</ele>
        <time>2015-05-10T09:58:34Z</time>
      </trkpt>
      <trkpt lat="50.26044" lon="5.74896">
        <ele>416</ele>
        <time>2015-05-10T09:58:39Z</time>
      </trkpt>
      <trkpt lat="50.26042" lon="5.74898">
        <ele>416</ele>
        <time>2015-05-10T09:58:44Z</time>
      </trkpt>
      <trkpt lat="50.26041" lon="5.749">
        <ele>416</ele>
        <time>2015-05-10T09:58:50Z</time>
      </trkpt>
      <trkpt lat="50.26041" lon="5.74901">
        <ele>416</ele>
        <time>2015-05-10T09:58:55Z</time>
      </trkpt>
      <trkpt lat="50.26043" lon="5.74902">
        <ele>416</ele>
        <time>2015-05-10T09:59:00Z</time>
      </trkpt>
      <trkpt lat="50.26046" lon="5.74903">
        <ele>416</ele>
        <time>2015-05-10T09:59:06Z</time>
      </trkpt>
      <trkpt lat="50.26049" lon="5.74904">
        <ele>416</ele>
        <time>2015-05-10T09:59:12Z</time>
      </trkpt>
      <trkpt lat="50.26052" lon="5.74905">
        <ele>416</ele>
        <time>2015-05-10T09:59:18Z</time>
      </trkpt>
      <trkpt lat="50.26054" lon="5.74905">
        <ele>416</ele>
        <time>2015-05-10T09:59:25Z</time>
      </trkpt>
      <trkpt lat="50.26055" lon="5.74908">
        <ele>416</ele>
        <time>2015-05-10T09:59:30Z</time>
      </trkpt>
      <trkpt lat="50.26057" lon="5.74914">
        <ele>417</ele>
        <time>2015-05-10T09:59:35Z</time>
      </trkpt>
      <trkpt lat="50.26057" lon="5.74919">
        <ele>418</ele>
        <time>2015-05-10T09:59:40Z</time>
      </trkpt>
      <trkpt lat="50.26059" lon="5.74926">
        <ele>418</ele>
        <time>2015-05-10T09:59:45Z</time>
      </trkpt>
      <trkpt lat="50.26061" lon="5.74934">
        <ele>419</ele>
        <time>2015-05-10T09:59:51Z</time>
      </trkpt>
      <trkpt lat="50.26061" lon="5.74941">
        <ele>420</ele>
        <time>2015-05-10T09:59:57Z</time>
      </trkpt>
      <trkpt lat="50.26062" lon="5.74948">
        <ele>421</ele>
        <time>2015-05-10T10:00:02Z</time>
      </trkpt>
      <trkpt lat="50.26062" lon="5.74954">
        <ele>421</ele>
        <time>2015-05-10T10:00:08Z</time>
      </trkpt>
      <trkpt lat="50.26063" lon="5.74961">
        <ele>421</ele>
        <time>2015-05-10T10:00:13Z</time>
      </trkpt>
      <trkpt lat="50.26064" lon="5.74966">
        <ele>422</ele>
        <time>2015-05-10T10:00:18Z</time>
      </trkpt>
      <trkpt lat="50.26063" lon="5.74971">
        <ele>423</ele>
        <time>2015-05-10T10:00:24Z</time>
      </trkpt>
      <trkpt lat="50.26063" lon="5.74972">
        <ele>423</ele>
        <time>2015-05-10T10:00:29Z</time>
      </trkpt>
      <trkpt lat="50.26062" lon="5.74974">
        <ele>423</ele>
        <time>2015-05-10T10:00:34Z</time>
      </trkpt>
      <trkpt lat="50.26062" lon="5.74977">
        <ele>423</ele>
        <time>2015-05-10T10:00:40Z</time>
      </trkpt>
      <trkpt lat="50.26059" lon="5.74977">
        <ele>423</ele>
        <time>2015-05-10T10:00:46Z</time>
      </trkpt>
      <trkpt lat="50.26057" lon="5.74979">
        <ele>423</ele>
        <time>2015-05-10T10:00:51Z</time>
      </trkpt>
      <trkpt lat="50.26057" lon="5.74981">
        <ele>423</ele>
        <time>2015-05-10T10:00:56Z</time>
      </trkpt>
      <trkpt lat="50.26058" lon="5.7498">
        <ele>423</ele>
        <time>2015-05-10T10:01:01Z</time>
      </trkpt>
      <trkpt lat="50.26059" lon="5.74978">
        <ele>423</ele>
        <time>2015-05-10T10:01:07Z</time>
      </trkpt>
      <trkpt lat="50.26061" lon="5.74976">
        <ele>424</ele>
        <time>2015-05-10T10:01:12Z</time>
      </trkpt>
      <trkpt lat="50.26064" lon="5.74976">
        <ele>423</ele>
        <time>2015-05-10T10:01:17Z</time>
      </trkpt>
      <trkpt lat="50.26068" lon="5.74975">
        <ele>423</ele>
        <time>2015-05-10T10:01:23Z</time>
      </trkpt>
      <trkpt lat="50.26072" lon="5.74973">
        <ele>423</ele>
        <time>2015-05-10T10:01:28Z</time>
      </trkpt>
      <trkpt lat="50.26077" lon="5.74973">
        <ele>423</ele>
        <time>2015-05-10T10:01:33Z</time>
      </trkpt>
      <trkpt lat="50.26082" lon="5.74972">
        <ele>423</ele>
        <time>2015-05-10T10:01:39Z</time>
      </trkpt>
      <trkpt lat="50.26085" lon="5.74972">
        <ele>423</ele>
        <time>2015-05-10T10:01:45Z</time>
      </trkpt>
      <trkpt lat="50.26086" lon="5.74972">
        <ele>423</ele>
        <time>2015-05-10T10:01:50Z</time>
      </trkpt>
      <trkpt lat="50.26085" lon="5.74976">
        <ele>424</ele>
        <time>2015-05-10T10:01:55Z</time>
      </trkpt>
      <trkpt lat="50.26082" lon="5.74983">
        <ele>424</ele>
        <time>2015-05-10T10:02:01Z</time>
      </trkpt>
      <trkpt lat="50.26078" lon="5.74991">
        <ele>424</ele>
        <time>2015-05-10T10:02:06Z</time>
      </trkpt>
      <trkpt lat="50.26075" lon="5.75001">
        <ele>425</ele>
        <time>2015-05-10T10:02:12Z</time>
      </trkpt>
      <trkpt lat="50.26072" lon="5.75008">
        <ele>426</ele>
        <time>2015-05-10T10:02:17Z</time>
      </trkpt>
      <trkpt lat="50.26071" lon="5.75015">
        <ele>426</ele>
        <time>2015-05-10T10:02:22Z</time>
      </trkpt>
      <trkpt lat="50.26068" lon="5.75024">
        <ele>427</ele>
        <time>2015-05-10T10:02:27Z</time>
      </trkpt>
      <trkpt lat="50.26067" lon="5.75033">
        <ele>427</ele>
        <time>2015-05-10T10:02:33Z</time>
      </trkpt>
      <trkpt lat="50.26066" lon="5.75042">
        <ele>428</ele>
        <time>2015-05-10T10:02:38Z</time>
      </trkpt>
      <trkpt lat="50.26065" lon="5.7505">
        <ele>428</ele>
        <time>2015-05-10T10:02:43Z</time>
      </trkpt>
      <trkpt lat="50.26062" lon="5.75057">
        <ele>429</ele>
        <time>2015-05-10T10:02:48Z</time>
      </trkpt>
      <trkpt lat="50.2606" lon="5.75065">
        <ele>429</ele>
        <time>2015-05-10T10:02:54Z</time>
      </trkpt>
      <trkpt lat="50.26059" lon="5.75073">
        <ele>430</ele>
        <time>2015-05-10T10:02:59Z</time>
      </trkpt>
      <trkpt lat="50.26059" lon="5.75081">
        <ele>430</ele>
        <time>2015-05-10T10:03:04Z</time>
      </trkpt>
      <trkpt lat="50.26059" lon="5.75088">
        <ele>431</ele>
        <time>2015-05-10T10:03:09Z</time>
      </trkpt>
      <trkpt lat="50.26058" lon="5.75096">
        <ele>432</ele>
        <time>2015-05-10T10:03:15Z</time>
      </trkpt>
      <trkpt lat="50.26057" lon="5.75104">
        <ele>432</ele>
        <time>2015-05-10T10:03:20Z</time>
      </trkpt>
      <trkpt lat="50.26056" lon="5.75112">
        <ele>433</ele>
        <time>2015-05-10T10:03:26Z</time>
      </trkpt>
      <trkpt lat="50.26056" lon="5.75117">
        <ele>433</ele>
        <time>2015-05-10T10:03:31Z</time>
      </trkpt>
      <trkpt lat="50.26056" lon="5.75128">
        <ele>433</ele>
        <time>2015-05-10T10:03:37Z</time>
      </trkpt>
      <trkpt lat="50.26055" lon="5.75136">
        <ele>434</ele>
        <time>2015-05-10T10:03:42Z</time>
      </trkpt>
      <trkpt lat="50.26055" lon="5.75144">
        <ele>435</ele>
        <time>2015-05-10T10:03:47Z</time>
      </trkpt>
      <trkpt lat="50.26056" lon="5.75152">
        <ele>435</ele>
        <time>2015-05-10T10:03:53Z</time>
      </trkpt>
      <trkpt lat="50.26055" lon="5.75158">
        <ele>435</ele>
        <time>2015-05-10T10:03:58Z</time>
      </trkpt>
      <trkpt lat="50.26057" lon="5.75165">
        <ele>435</ele>
        <time>2015-05-10T10:04:03Z</time>
      </trkpt>
      <trkpt lat="50.26056" lon="5.75173">
        <ele>436</ele>
        <time>2015-05-10T10:04:09Z</time>
      </trkpt>
      <trkpt lat="50.26057" lon="5.75183">
        <ele>437</ele>
        <time>2015-05-10T10:04:15Z</time>
      </trkpt>
      <trkpt lat="50.26056" lon="5.7519">
        <ele>437</ele>
        <time>2015-05-10T10:04:20Z</time>
      </trkpt>
      <trkpt lat="50.26057" lon="5.75198">
        <ele>437</ele>
        <time>2015-05-10T10:04:26Z</time>
      </trkpt>
      <trkpt lat="50.26056" lon="5.75205">
        <ele>438</ele>
        <time>2015-05-10T10:04:32Z</time>
      </trkpt>
      <trkpt lat="50.26054" lon="5.75211">
        <ele>439</ele>
        <time>2015-05-10T10:04:38Z</time>
      </trkpt>
      <trkpt lat="50.26054" lon="5.75218">
        <ele>440</ele>
        <time>2015-05-10T10:04:44Z</time>
      </trkpt>
      <trkpt lat="50.26054" lon="5.75223">
        <ele>440</ele>
        <time>2015-05-10T10:04:49Z</time>
      </trkpt>
      <trkpt lat="50.26052" lon="5.75229">
        <ele>440</ele>
        <time>2015-05-10T10:04:55Z</time>
      </trkpt>
      <trkpt lat="50.26054" lon="5.75237">
        <ele>441</ele>
        <time>2015-05-10T10:05:00Z</time>
      </trkpt>
      <trkpt lat="50.26054" lon="5.75247">
        <ele>441</ele>
        <time>2015-05-10T10:05:06Z</time>
      </trkpt>
      <trkpt lat="50.26054" lon="5.75256">
        <ele>442</ele>
        <time>2015-05-10T10:05:11Z</time>
      </trkpt>
      <trkpt lat="50.26054" lon="5.75265">
        <ele>443</ele>
        <time>2015-05-10T10:05:16Z</time>
      </trkpt>
      <trkpt lat="50.26053" lon="5.75273">
        <ele>443</ele>
        <time>2015-05-10T10:05:21Z</time>
      </trkpt>
      <trkpt lat="50.26052" lon="5.75281">
        <ele>444</ele>
        <time>2015-05-10T10:05:27Z</time>
      </trkpt>
      <trkpt lat="50.26052" lon="5.75289">
        <ele>444</ele>
        <time>2015-05-10T10:05:33Z</time>
      </trkpt>
      <trkpt lat="50.26051" lon="5.75297">
        <ele>444</ele>
        <time>2015-05-10T10:05:38Z</time>
      </trkpt>
      <trkpt lat="50.26049" lon="5.75307">
        <ele>445</ele>
        <time>2015-05-10T10:05:44Z</time>
      </trkpt>
      <trkpt lat="50.26048" lon="5.75316">
        <ele>445</ele>
        <time>2015-05-10T10:05:49Z</time>
      </trkpt>
      <trkpt lat="50.26044" lon="5.75325">
        <ele>445</ele>
        <time>2015-05-10T10:05:55Z</time>
      </trkpt>
      <trkpt lat="50.26041" lon="5.75329">
        <ele>446</ele>
        <time>2015-05-10T10:06:01Z</time>
      </trkpt>
      <trkpt lat="50.26037" lon="5.75333">
        <ele>446</ele>
        <time>2015-05-10T10:06:07Z</time>
      </trkpt>
      <trkpt lat="50.26036" lon="5.75337">
        <ele>446</ele>
        <time>2015-05-10T10:06:12Z</time>
      </trkpt>
      <trkpt lat="50.26035" lon="5.75337">
        <ele>446</ele>
        <time>2015-05-10T10:06:18Z</time>
      </trkpt>
      <trkpt lat="50.26032" lon="5.75335">
        <ele>446</ele>
        <time>2015-05-10T10:06:23Z</time>
      </trkpt>
      <trkpt lat="50.26028" lon="5.75332">
        <ele>445</ele>
        <time>2015-05-10T10:06:29Z</time>
      </trkpt>
      <trkpt lat="50.26025" lon="5.75331">
        <ele>446</ele>
        <time>2015-05-10T10:06:35Z</time>
      </trkpt>
      <trkpt lat="50.26024" lon="5.75332">
        <ele>446</ele>
        <time>2015-05-10T10:06:41Z</time>
      </trkpt>
      <trkpt lat="50.26021" lon="5.75333">
        <ele>446</ele>
        <time>2015-05-10T10:06:46Z</time>
      </trkpt>
      <trkpt lat="50.26021" lon="5.75334">
        <ele>446</ele>
        <time>2015-05-10T10:06:51Z</time>
      </trkpt>
      <trkpt lat="50.26018" lon="5.75332">
        <ele>446</ele>
        <time>2015-05-10T10:06:57Z</time>
      </trkpt>
      <trkpt lat="50.26017" lon="5.75332">
        <ele>446</ele>
        <time>2015-05-10T10:07:02Z</time>
      </trkpt>
      <trkpt lat="50.26012" lon="5.7533">
        <ele>446</ele>
        <time>2015-05-10T10:07:08Z</time>
      </trkpt>
      <trkpt lat="50.26011" lon="5.75331">
        <ele>446</ele>
        <time>2015-05-10T10:07:13Z</time>
      </trkpt>
      <trkpt lat="50.26014" lon="5.75331">
        <ele>446</ele>
        <time>2015-05-10T10:07:19Z</time>
      </trkpt>
      <trkpt lat="50.26017" lon="5.75333">
        <ele>446</ele>
        <time>2015-05-10T10:07:24Z</time>
      </trkpt>
      <trkpt lat="50.26019" lon="5.75332">
        <ele>446</ele>
        <time>2015-05-10T10:07:29Z</time>
      </trkpt>
      <trkpt lat="50.26021" lon="5.75331">
        <ele>446</ele>
        <time>2015-05-10T10:07:34Z</time>
      </trkpt>
      <trkpt lat="50.26025" lon="5.75331">
        <ele>446</ele>
        <time>2015-05-10T10:07:40Z</time>
      </trkpt>
      <trkpt lat="50.26028" lon="5.75332">
        <ele>446</ele>
        <time>2015-05-10T10:07:45Z</time>
      </trkpt>
      <trkpt lat="50.2603" lon="5.75331">
        <ele>446</ele>
        <time>2015-05-10T10:07:51Z</time>
      </trkpt>
      <trkpt lat="50.26031" lon="5.75331">
        <ele>446</ele>
        <time>2015-05-10T10:07:57Z</time>
      </trkpt>
      <trkpt lat="50.26031" lon="5.75331">
        <ele>446</ele>
        <time>2015-05-10T10:08:02Z</time>
      </trkpt>
      <trkpt lat="50.26032" lon="5.75332">
        <ele>446</ele>
        <time>2015-05-10T10:08:09Z</time>
      </trkpt>
      <trkpt lat="50.26031" lon="5.75332">
        <ele>446</ele>
        <time>2015-05-10T10:08:15Z</time>
      </trkpt>
      <trkpt lat="50.26027" lon="5.75331">
        <ele>446</ele>
        <time>2015-05-10T10:08:20Z</time>
      </trkpt>
      <trkpt lat="50.26025" lon="5.7533">
        <ele>446</ele>
        <time>2015-05-10T10:08:26Z</time>
      </trkpt>
      <trkpt lat="50.26023" lon="5.7533">
        <ele>446</ele>
        <time>2015-05-10T10:08:31Z</time>
      </trkpt>
      <trkpt lat="50.26023" lon="5.75329">
        <ele>446</ele>
        <time>2015-05-10T10:08:37Z</time>
      </trkpt>
      <trkpt lat="50.26023" lon="5.7533">
        <ele>446</ele>
        <time>2015-05-10T10:08:42Z</time>
      </trkpt>
      <trkpt lat="50.26023" lon="5.7533">
        <ele>446</ele>
        <time>2015-05-10T10:08:47Z</time>
      </trkpt>
      <trkpt lat="50.26025" lon="5.7533">
        <ele>446</ele>
        <time>2015-05-10T10:08:53Z</time>
      </trkpt>
      <trkpt lat="50.26026" lon="5.7533">
        <ele>446</ele>
        <time>2015-05-10T10:08:58Z</time>
      </trkpt>
      <trkpt lat="50.26028" lon="5.75331">
        <ele>446</ele>
        <time>2015-05-10T10:09:04Z</time>
      </trkpt>
      <trkpt lat="50.26029" lon="5.75331">
        <ele>447</ele>
        <time>2015-05-10T10:09:09Z</time>
      </trkpt>
      <trkpt lat="50.2603" lon="5.75333">
        <ele>446</ele>
        <time>2015-05-10T10:09:14Z</time>
      </trkpt>
      <trkpt lat="50.26031" lon="5.75334">
        <ele>446</ele>
        <time>2015-05-10T10:09:20Z</time>
      </trkpt>
      <trkpt lat="50.2603" lon="5.75336">
        <ele>446</ele>
        <time>2015-05-10T10:09:26Z</time>
      </trkpt>
      <trkpt lat="50.2603" lon="5.75337">
        <ele>446</ele>
        <time>2015-05-10T10:09:33Z</time>
      </trkpt>
      <trkpt lat="50.26031" lon="5.75336">
        <ele>446</ele>
        <time>2015-05-10T10:09:39Z</time>
      </trkpt>
      <trkpt lat="50.26031" lon="5.75335">
        <ele>446</ele>
        <time>2015-05-10T10:09:44Z</time>
      </trkpt>
      <trkpt lat="50.26032" lon="5.75335">
        <ele>447</ele>
        <time>2015-05-10T10:09:49Z</time>
      </trkpt>
      <trkpt lat="50.26033" lon="5.75333">
        <ele>446</ele>
        <time>2015-05-10T10:09:55Z</time>
      </trkpt>
      <trkpt lat="50.26034" lon="5.7533">
        <ele>446</ele>
        <time>2015-05-10T10:10:00Z</time>
      </trkpt>
      <trkpt lat="50.26034" lon="5.7533">
        <ele>446</ele>
        <time>2015-05-10T10:10:05Z</time>
      </trkpt>
      <trkpt lat="50.26036" lon="5.75331">
        <ele>446</ele>
        <time>2015-05-10T10:10:11Z</time>
      </trkpt>
      <trkpt lat="50.26037" lon="5.7533">
        <ele>446</ele>
        <time>2015-05-10T10:10:17Z</time>
      </trkpt>
      <trkpt lat="50.26038" lon="5.7533">
        <ele>446</ele>
        <time>2015-05-10T10:10:23Z</time>
      </trkpt>
      <trkpt lat="50.2604" lon="5.75332">
        <ele>446</ele>
        <time>2015-05-10T10:10:28Z</time>
      </trkpt>
      <trkpt lat="50.2604" lon="5.75333">
        <ele>445</ele>
        <time>2015-05-10T10:10:34Z</time>
      </trkpt>
      <trkpt lat="50.26039" lon="5.75333">
        <ele>446</ele>
        <time>2015-05-10T10:10:40Z</time>
      </trkpt>
      <trkpt lat="50.26038" lon="5.75334">
        <ele>446</ele>
        <time>2015-05-10T10:10:46Z</time>
      </trkpt>
      <trkpt lat="50.26038" lon="5.75335">
        <ele>445</ele>
        <time>2015-05-10T10:10:51Z</time>
      </trkpt>
      <trkpt lat="50.26038" lon="5.75336">
        <ele>446</ele>
        <time>2015-05-10T10:10:57Z</time>
      </trkpt>
      <trkpt lat="50.26038" lon="5.75338">
        <ele>446</ele>
        <time>2015-05-10T10:11:02Z</time>
      </trkpt>
      <trkpt lat="50.26039" lon="5.75339">
        <ele>445</ele>
        <time>2015-05-10T10:11:07Z</time>
      </trkpt>
      <trkpt lat="50.2604" lon="5.75338">
        <ele>446</ele>
        <time>2015-05-10T10:11:12Z</time>
      </trkpt>
      <trkpt lat="50.2604" lon="5.75338">
        <ele>446</ele>
        <time>2015-05-10T10:11:17Z</time>
      </trkpt>
      <trkpt lat="50.26041" lon="5.75337">
        <ele>446</ele>
        <time>2015-05-10T10:11:23Z</time>
      </trkpt>
      <trkpt lat="50.26041" lon="5.75335">
        <ele>446</ele>
        <time>2015-05-10T10:11:28Z</time>
      </trkpt>
      <trkpt lat="50.26041" lon="5.75333">
        <ele>445</ele>
        <time>2015-05-10T10:11:34Z</time>
      </trkpt>
      <trkpt lat="50.26041" lon="5.75332">
        <ele>445</ele>
        <time>2015-05-10T10:11:39Z</time>
      </trkpt>
      <trkpt lat="50.26039" lon="5.75329">
        <ele>446</ele>
        <time>2015-05-10T10:11:45Z</time>
      </trkpt>
      <trkpt lat="50.26037" lon="5.75327">
        <ele>446</ele>
        <time>2015-05-10T10:11:51Z</time>
      </trkpt>
      <trkpt lat="50.26035" lon="5.75326">
        <ele>446</ele>
        <time>2015-05-10T10:11:56Z</time>
      </trkpt>
      <trkpt lat="50.26032" lon="5.75324">
        <ele>446</ele>
        <time>2015-05-10T10:12:02Z</time>
      </trkpt>
      <trkpt lat="50.26031" lon="5.75324">
        <ele>446</ele>
        <time>2015-05-10T10:12:07Z</time>
      </trkpt>
      <trkpt lat="50.26031" lon="5.75325">
        <ele>446</ele>
        <time>2015-05-10T10:12:12Z</time>
      </trkpt>
      <trkpt lat="50.26031" lon="5.75325">
        <ele>446</ele>
        <time>2015-05-10T10:12:18Z</time>
      </trkpt>
      <trkpt lat="50.26034" lon="5.7533">
        <ele>446</ele>
        <time>2015-05-10T10:12:23Z</time>
      </trkpt>
      <trkpt lat="50.26035" lon="5.75331">
        <ele>446</ele>
        <time>2015-05-10T10:12:29Z</time>
      </trkpt>
      <trkpt lat="50.26036" lon="5.7533">
        <ele>446</ele>
        <time>2015-05-10T10:12:35Z</time>
      </trkpt>
      <trkpt lat="50.26037" lon="5.7533">
        <ele>446</ele>
        <time>2015-05-10T10:12:40Z</time>
      </trkpt>
      <trkpt lat="50.26038" lon="5.7533">
        <ele>446</ele>
        <time>2015-05-10T10:12:46Z</time>
      </trkpt>
      <trkpt lat="50.26038" lon="5.75331">
        <ele>446</ele>
        <time>2015-05-10T10:12:51Z</time>
      </trkpt>
      <trkpt lat="50.26038" lon="5.75331">
        <ele>446</ele>
        <time>2015-05-10T10:12:56Z</time>
      </trkpt>
      <trkpt lat="50.26037" lon="5.75331">
        <ele>446</ele>
        <time>2015-05-10T10:13:01Z</time>
      </trkpt>
      <trkpt lat="50.26036" lon="5.7533">
        <ele>446</ele>
        <time>2015-05-10T10:13:06Z</time>
      </trkpt>
      <trkpt lat="50.26036" lon="5.7533">
        <ele>446</ele>
        <time>2015-05-10T10:13:11Z</time>
      </trkpt>
      <trkpt lat="50.26037" lon="5.7533">
        <ele>446</ele>
        <time>2015-05-10T10:13:17Z</time>
      </trkpt>
      <trkpt lat="50.26036" lon="5.7533">
        <ele>446</ele>
        <time>2015-05-10T10:13:22Z</time>
      </trkpt>
      <trkpt lat="50.26035" lon="5.7533">
        <ele>446</ele>
        <time>2015-05-10T10:13:28Z</time>
      </trkpt>
      <trkpt lat="50.26033" lon="5.75329">
        <ele>446</ele>
        <time>2015-05-10T10:13:33Z</time>
      </trkpt>
      <trkpt lat="50.26033" lon="5.75328">
        <ele>446</ele>
        <time>2015-05-10T10:13:38Z</time>
      </trkpt>
      <trkpt lat="50.26031" lon="5.75328">
        <ele>446</ele>
        <time>2015-05-10T10:13:44Z</time>
      </trkpt>
      <trkpt lat="50.26031" lon="5.75327">
        <ele>447</ele>
        <time>2015-05-10T10:13:50Z</time>
      </trkpt>
      <trkpt lat="50.26031" lon="5.75327">
        <ele>447</ele>
        <time>2015-05-10T10:13:55Z</time>
      </trkpt>
      <trkpt lat="50.26031" lon="5.75332">
        <ele>447</ele>
        <time>2015-05-10T10:14:00Z</time>
      </trkpt>
      <trkpt lat="50.26031" lon="5.75336">
        <ele>447</ele>
        <time>2015-05-10T10:14:06Z</time>
      </trkpt>
      <trkpt lat="50.26032" lon="5.75342">
        <ele>447</ele>
        <time>2015-05-10T10:14:11Z</time>
      </trkpt>
      <trkpt lat="50.26033" lon="5.75352">
        <ele>446</ele>
        <time>2015-05-10T10:14:17Z</time>
      </trkpt>
      <trkpt lat="50.26035" lon="5.75362">
        <ele>447</ele>
        <time>2015-05-10T10:14:22Z</time>
      </trkpt>
      <trkpt lat="50.26035" lon="5.75372">
        <ele>447</ele>
        <time>2015-05-10T10:14:27Z</time>
      </trkpt>
      <trkpt lat="50.26035" lon="5.75383">
        <ele>447</ele>
        <time>2015-05-10T10:14:33Z</time>
      </trkpt>
      <trkpt lat="50.26035" lon="5.75392">
        <ele>447</ele>
        <time>2015-05-10T10:14:38Z</time>
      </trkpt>
      <trkpt lat="50.26034" lon="5.75401">
        <ele>448</ele>
        <time>2015-05-10T10:14:43Z</time>
      </trkpt>
      <trkpt lat="50.26032" lon="5.7541">
        <ele>447</ele>
        <time>2015-05-10T10:14:48Z</time>
      </trkpt>
      <trkpt lat="50.2603" lon="5.75421">
        <ele>447</ele>
        <time>2015-05-10T10:14:54Z</time>
      </trkpt>
      <trkpt lat="50.26028" lon="5.75433">
        <ele>448</ele>
        <time>2015-05-10T10:15:00Z</time>
      </trkpt>
      <trkpt lat="50.26027" lon="5.75442">
        <ele>448</ele>
        <time>2015-05-10T10:15:05Z</time>
      </trkpt>
      <trkpt lat="50.26025" lon="5.75451">
        <ele>448</ele>
        <time>2015-05-10T10:15:10Z</time>
      </trkpt>
      <trkpt lat="50.26023" lon="5.75461">
        <ele>448</ele>
        <time>2015-05-10T10:15:16Z</time>
      </trkpt>
      <trkpt lat="50.26021" lon="5.7547">
        <ele>448</ele>
        <time>2015-05-10T10:15:21Z</time>
      </trkpt>
      <trkpt lat="50.26018" lon="5.75481">
        <ele>448</ele>
        <time>2015-05-10T10:15:27Z</time>
      </trkpt>
      <trkpt lat="50.26017" lon="5.7549">
        <ele>449</ele>
        <time>2015-05-10T10:15:32Z</time>
      </trkpt>
      <trkpt lat="50.26015" lon="5.75498">
        <ele>449</ele>
        <time>2015-05-10T10:15:37Z</time>
      </trkpt>
      <trkpt lat="50.26013" lon="5.75507">
        <ele>449</ele>
        <time>2015-05-10T10:15:42Z</time>
      </trkpt>
      <trkpt lat="50.2601" lon="5.75518">
        <ele>449</ele>
        <time>2015-05-10T10:15:48Z</time>
      </trkpt>
      <trkpt lat="50.26009" lon="5.75527">
        <ele>449</ele>
        <time>2015-05-10T10:15:53Z</time>
      </trkpt>
      <trkpt lat="50.26009" lon="5.75536">
        <ele>449</ele>
        <time>2015-05-10T10:15:58Z</time>
      </trkpt>
      <trkpt lat="50.26007" lon="5.75546">
        <ele>450</ele>
        <time>2015-05-10T10:16:04Z</time>
      </trkpt>
      <trkpt lat="50.26006" lon="5.75554">
        <ele>450</ele>
        <time>2015-05-10T10:16:10Z</time>
      </trkpt>
      <trkpt lat="50.26006" lon="5.75556">
        <ele>450</ele>
        <time>2015-05-10T10:16:16Z</time>
      </trkpt>
      <trkpt lat="50.26005" lon="5.75558">
        <ele>449</ele>
        <time>2015-05-10T10:16:22Z</time>
      </trkpt>
      <trkpt lat="50.26005" lon="5.75559">
        <ele>449</ele>
        <time>2015-05-10T10:16:27Z</time>
      </trkpt>
      <trkpt lat="50.26005" lon="5.7556">
        <ele>449</ele>
        <time>2015-05-10T10:16:32Z</time>
      </trkpt>
      <trkpt lat="50.26007" lon="5.7556">
        <ele>450</ele>
        <time>2015-05-10T10:16:38Z</time>
      </trkpt>
      <trkpt lat="50.26008" lon="5.7556">
        <ele>450</ele>
        <time>2015-05-10T10:16:43Z</time>
      </trkpt>
      <trkpt lat="50.26009" lon="5.75559">
        <ele>450</ele>
        <time>2015-05-10T10:16:48Z</time>
      </trkpt>
      <trkpt lat="50.26009" lon="5.7556">
        <ele>449</ele>
        <time>2015-05-10T10:16:53Z</time>
      </trkpt>
      <trkpt lat="50.2601" lon="5.75565">
        <ele>449</ele>
        <time>2015-05-10T10:16:59Z</time>
      </trkpt>
      <trkpt lat="50.26009" lon="5.75566">
        <ele>449</ele>
        <time>2015-05-10T10:17:05Z</time>
      </trkpt>
      <trkpt lat="50.26007" lon="5.75568">
        <ele>449</ele>
        <time>2015-05-10T10:17:10Z</time>
      </trkpt>
      <trkpt lat="50.26008" lon="5.75576">
        <ele>449</ele>
        <time>2015-05-10T10:17:15Z</time>
      </trkpt>
      <trkpt lat="50.26009" lon="5.75579">
        <ele>450</ele>
        <time>2015-05-10T10:17:20Z</time>
      </trkpt>
      <trkpt lat="50.26009" lon="5.75579">
        <ele>449</ele>
        <time>2015-05-10T10:17:27Z</time>
      </trkpt>
      <trkpt lat="50.2601" lon="5.75579">
        <ele>449</ele>
        <time>2015-05-10T10:17:32Z</time>
      </trkpt>
      <trkpt lat="50.26013" lon="5.75583">
        <ele>450</ele>
        <time>2015-05-10T10:17:37Z</time>
      </trkpt>
      <trkpt lat="50.26015" lon="5.75589">
        <ele>449</ele>
        <time>2015-05-10T10:17:43Z</time>
      </trkpt>
      <trkpt lat="50.2602" lon="5.75596">
        <ele>449</ele>
        <time>2015-05-10T10:17:48Z</time>
      </trkpt>
      <trkpt lat="50.26024" lon="5.75603">
        <ele>449</ele>
        <time>2015-05-10T10:17:53Z</time>
      </trkpt>
      <trkpt lat="50.26026" lon="5.75608">
        <ele>449</ele>
        <time>2015-05-10T10:17:58Z</time>
      </trkpt>
      <trkpt lat="50.26026" lon="5.75608">
        <ele>449</ele>
        <time>2015-05-10T10:18:04Z</time>
      </trkpt>
      <trkpt lat="50.26028" lon="5.75611">
        <ele>449</ele>
        <time>2015-05-10T10:18:09Z</time>
      </trkpt>
      <trkpt lat="50.2603" lon="5.75622">
        <ele>449</ele>
        <time>2015-05-10T10:18:15Z</time>
      </trkpt>
      <trkpt lat="50.26032" lon="5.75632">
        <ele>448</ele>
        <time>2015-05-10T10:18:20Z</time>
      </trkpt>
      <trkpt lat="50.26033" lon="5.75641">
        <ele>448</ele>
        <time>2015-05-10T10:18:25Z</time>
      </trkpt>
      <trkpt lat="50.26034" lon="5.7565">
        <ele>447</ele>
        <time>2015-05-10T10:18:30Z</time>
      </trkpt>
      <trkpt lat="50.26036" lon="5.75658">
        <ele>447</ele>
        <time>2015-05-10T10:18:35Z</time>
      </trkpt>
      <trkpt lat="50.26037" lon="5.75669">
        <ele>447</ele>
        <time>2015-05-10T10:18:41Z</time>
      </trkpt>
      <trkpt lat="50.26038" lon="5.75677">
        <ele>446</ele>
        <time>2015-05-10T10:18:46Z</time>
      </trkpt>
      <trkpt lat="50.26039" lon="5.75684">
        <ele>445</ele>
        <time>2015-05-10T10:18:51Z</time>
      </trkpt>
      <trkpt lat="50.26039" lon="5.75687">
        <ele>446</ele>
        <time>2015-05-10T10:18:56Z</time>
      </trkpt>
      <trkpt lat="50.26041" lon="5.75696">
        <ele>445</ele>
        <time>2015-05-10T10:19:01Z</time>
      </trkpt>
      <trkpt lat="50.26043" lon="5.75707">
        <ele>445</ele>
        <time>2015-05-10T10:19:07Z</time>
      </trkpt>
      <trkpt lat="50.26044" lon="5.75717">
        <ele>444</ele>
        <time>2015-05-10T10:19:12Z</time>
      </trkpt>
      <trkpt lat="50.26047" lon="5.75728">
        <ele>444</ele>
        <time>2015-05-10T10:19:18Z</time>
      </trkpt>
      <trkpt lat="50.26048" lon="5.75737">
        <ele>443</ele>
        <time>2015-05-10T10:19:24Z</time>
      </trkpt>
      <trkpt lat="50.2605" lon="5.75747">
        <ele>444</ele>
        <time>2015-05-10T10:19:29Z</time>
      </trkpt>
      <trkpt lat="50.26054" lon="5.75758">
        <ele>443</ele>
        <time>2015-05-10T10:19:35Z</time>
      </trkpt>
      <trkpt lat="50.26058" lon="5.75767">
        <ele>442</ele>
        <time>2015-05-10T10:19:40Z</time>
      </trkpt>
      <trkpt lat="50.26062" lon="5.75778">
        <ele>441</ele>
        <time>2015-05-10T10:19:46Z</time>
      </trkpt>
      <trkpt lat="50.26066" lon="5.75787">
        <ele>441</ele>
        <time>2015-05-10T10:19:52Z</time>
      </trkpt>
      <trkpt lat="50.26071" lon="5.75798">
        <ele>440</ele>
        <time>2015-05-10T10:19:58Z</time>
      </trkpt>
      <trkpt lat="50.26076" lon="5.75808">
        <ele>439</ele>
        <time>2015-05-10T10:20:04Z</time>
      </trkpt>
      <trkpt lat="50.26079" lon="5.75818">
        <ele>439</ele>
        <time>2015-05-10T10:20:10Z</time>
      </trkpt>
      <trkpt lat="50.26081" lon="5.75828">
        <ele>438</ele>
        <time>2015-05-10T10:20:15Z</time>
      </trkpt>
      <trkpt lat="50.26083" lon="5.75838">
        <ele>438</ele>
        <time>2015-05-10T10:20:20Z</time>
      </trkpt>
      <trkpt lat="50.26085" lon="5.75849">
        <ele>437</ele>
        <time>2015-05-10T10:20:26Z</time>
      </trkpt>
      <trkpt lat="50.26087" lon="5.75858">
        <ele>436</ele>
        <time>2015-05-10T10:20:31Z</time>
      </trkpt>
      <trkpt lat="50.26089" lon="5.7587">
        <ele>436</ele>
        <time>2015-05-10T10:20:37Z</time>
      </trkpt>
      <trkpt lat="50.2609" lon="5.75879">
        <ele>435</ele>
        <time>2015-05-10T10:20:42Z</time>
      </trkpt>
      <trkpt lat="50.26092" lon="5.7589">
        <ele>435</ele>
        <time>2015-05-10T10:20:48Z</time>
      </trkpt>
      <trkpt lat="50.26093" lon="5.759">
        <ele>434</ele>
        <time>2015-05-10T10:20:53Z</time>
      </trkpt>
      <trkpt lat="50.26096" lon="5.75912">
        <ele>434</ele>
        <time>2015-05-10T10:20:59Z</time>
      </trkpt>
      <trkpt lat="50.26095" lon="5.75924">
        <ele>433</ele>
        <time>2015-05-10T10:21:05Z</time>
      </trkpt>
      <trkpt lat="50.26094" lon="5.75936">
        <ele>433</ele>
        <time>2015-05-10T10:21:11Z</time>
      </trkpt>
      <trkpt lat="50.26094" lon="5.75948">
        <ele>432</ele>
        <time>2015-05-10T10:21:17Z</time>
      </trkpt>
      <trkpt lat="50.26092" lon="5.7596">
        <ele>432</ele>
        <time>2015-05-10T10:21:23Z</time>
      </trkpt>
      <trkpt lat="50.26091" lon="5.75969">
        <ele>432</ele>
        <time>2015-05-10T10:21:28Z</time>
      </trkpt>
      <trkpt lat="50.26088" lon="5.75981">
        <ele>431</ele>
        <time>2015-05-10T10:21:34Z</time>
      </trkpt>
      <trkpt lat="50.26086" lon="5.7599">
        <ele>431</ele>
        <time>2015-05-10T10:21:39Z</time>
      </trkpt>
      <trkpt lat="50.26083" lon="5.76001">
        <ele>430</ele>
        <time>2015-05-10T10:21:45Z</time>
      </trkpt>
      <trkpt lat="50.2608" lon="5.76011">
        <ele>430</ele>
        <time>2015-05-10T10:21:50Z</time>
      </trkpt>
      <trkpt lat="50.26078" lon="5.76022">
        <ele>429</ele>
        <time>2015-05-10T10:21:56Z</time>
      </trkpt>
      <trkpt lat="50.26077" lon="5.76032">
        <ele>429</ele>
        <time>2015-05-10T10:22:01Z</time>
      </trkpt>
      <trkpt lat="50.26075" lon="5.76043">
        <ele>429</ele>
        <time>2015-05-10T10:22:06Z</time>
      </trkpt>
      <trkpt lat="50.26075" lon="5.76055">
        <ele>428</ele>
        <time>2015-05-10T10:22:12Z</time>
      </trkpt>
      <trkpt lat="50.26075" lon="5.76065">
        <ele>427</ele>
        <time>2015-05-10T10:22:17Z</time>
      </trkpt>
      <trkpt lat="50.26074" lon="5.76078">
        <ele>427</ele>
        <time>2015-05-10T10:22:23Z</time>
      </trkpt>
      <trkpt lat="50.26074" lon="5.76088">
        <ele>427</ele>
        <time>2015-05-10T10:22:28Z</time>
      </trkpt>
      <trkpt lat="50.26074" lon="5.76098">
        <ele>426</ele>
        <time>2015-05-10T10:22:33Z</time>
      </trkpt>
      <trkpt lat="50.26075" lon="5.76108">
        <ele>426</ele>
        <time>2015-05-10T10:22:38Z</time>
      </trkpt>
      <trkpt lat="50.26074" lon="5.76119">
        <ele>425</ele>
        <time>2015-05-10T10:22:44Z</time>
      </trkpt>
      <trkpt lat="50.26074" lon="5.76129">
        <ele>425</ele>
        <time>2015-05-10T10:22:49Z</time>
      </trkpt>
      <trkpt lat="50.26074" lon="5.76139">
        <ele>424</ele>
        <time>2015-05-10T10:22:54Z</time>
      </trkpt>
      <trkpt lat="50.26072" lon="5.7615">
        <ele>424</ele>
        <time>2015-05-10T10:23:00Z</time>
      </trkpt>
      <trkpt lat="50.26072" lon="5.76161">
        <ele>423</ele>
        <time>2015-05-10T10:23:06Z</time>
      </trkpt>
      <trkpt lat="50.26072" lon="5.76172">
        <ele>423</ele>
        <time>2015-05-10T10:23:12Z</time>
      </trkpt>
      <trkpt lat="50.26071" lon="5.76183">
        <ele>422</ele>
        <time>2015-05-10T10:23:18Z</time>
      </trkpt>
      <trkpt lat="50.26071" lon="5.76193">
        <ele>422</ele>
        <time>2015-05-10T10:23:23Z</time>
      </trkpt>
      <trkpt lat="50.2607" lon="5.76203">
        <ele>422</ele>
        <time>2015-05-10T10:23:28Z</time>
      </trkpt>
      <trkpt lat="50.2607" lon="5.76215">
        <ele>422</ele>
        <time>2015-05-10T10:23:34Z</time>
      </trkpt>
      <trkpt lat="50.26069" lon="5.76228">
        <ele>421</ele>
        <time>2015-05-10T10:23:40Z</time>
      </trkpt>
      <trkpt lat="50.26067" lon="5.76239">
        <ele>421</ele>
        <time>2015-05-10T10:23:46Z</time>
      </trkpt>
      <trkpt lat="50.26067" lon="5.7625">
        <ele>421</ele>
        <time>2015-05-10T10:23:51Z</time>
      </trkpt>
      <trkpt lat="50.26065" lon="5.76262">
        <ele>421</ele>
        <time>2015-05-10T10:23:57Z</time>
      </trkpt>
      <trkpt lat="50.26064" lon="5.7627">
        <ele>421</ele>
        <time>2015-05-10T10:24:02Z</time>
      </trkpt>
      <trkpt lat="50.26063" lon="5.76271">
        <ele>420</ele>
        <time>2015-05-10T10:24:09Z</time>
      </trkpt>
      <trkpt lat="50.26063" lon="5.76272">
        <ele>420</ele>
        <time>2015-05-10T10:24:15Z</time>
      </trkpt>
      <trkpt lat="50.26063" lon="5.76272">
        <ele>420</ele>
        <time>2015-05-10T10:24:20Z</time>
      </trkpt>
      <trkpt lat="50.26063" lon="5.76273">
        <ele>420</ele>
        <time>2015-05-10T10:24:25Z</time>
      </trkpt>
      <trkpt lat="50.26062" lon="5.76275">
        <ele>420</ele>
        <time>2015-05-10T10:24:31Z</time>
      </trkpt>
      <trkpt lat="50.26061" lon="5.76276">
        <ele>420</ele>
        <time>2015-05-10T10:24:36Z</time>
      </trkpt>
      <trkpt lat="50.26062" lon="5.76277">
        <ele>420</ele>
        <time>2015-05-10T10:24:41Z</time>
      </trkpt>
      <trkpt lat="50.26062" lon="5.76281">
        <ele>420</ele>
        <time>2015-05-10T10:24:47Z</time>
      </trkpt>
      <trkpt lat="50.26063" lon="5.76289">
        <ele>420</ele>
        <time>2015-05-10T10:24:52Z</time>
      </trkpt>
      <trkpt lat="50.26064" lon="5.76292">
        <ele>420</ele>
        <time>2015-05-10T10:24:57Z</time>
      </trkpt>
      <trkpt lat="50.26064" lon="5.76293">
        <ele>420</ele>
        <time>2015-05-10T10:25:04Z</time>
      </trkpt>
      <trkpt lat="50.26064" lon="5.76292">
        <ele>420</ele>
        <time>2015-05-10T10:25:09Z</time>
      </trkpt>
      <trkpt lat="50.26065" lon="5.76292">
        <ele>420</ele>
        <time>2015-05-10T10:25:14Z</time>
      </trkpt>
      <trkpt lat="50.26065" lon="5.76292">
        <ele>420</ele>
        <time>2015-05-10T10:25:20Z</time>
      </trkpt>
      <trkpt lat="50.26064" lon="5.76292">
        <ele>420</ele>
        <time>2015-05-10T10:25:26Z</time>
      </trkpt>
      <trkpt lat="50.26065" lon="5.76291">
        <ele>420</ele>
        <time>2015-05-10T10:25:31Z</time>
      </trkpt>
      <trkpt lat="50.26065" lon="5.76291">
        <ele>420</ele>
        <time>2015-05-10T10:25:37Z</time>
      </trkpt>
      <trkpt lat="50.26065" lon="5.7629">
        <ele>420</ele>
        <time>2015-05-10T10:25:42Z</time>
      </trkpt>
      <trkpt lat="50.26065" lon="5.7629">
        <ele>420</ele>
        <time>2015-05-10T10:25:47Z</time>
      </trkpt>
      <trkpt lat="50.26063" lon="5.76292">
        <ele>420</ele>
        <time>2015-05-10T10:25:53Z</time>
      </trkpt>
      <trkpt lat="50.26063" lon="5.76293">
        <ele>421</ele>
        <time>2015-05-10T10:25:58Z</time>
      </trkpt>
      <trkpt lat="50.26063" lon="5.76298">
        <ele>420</ele>
        <time>2015-05-10T10:26:03Z</time>
      </trkpt>
      <trkpt lat="50.26063" lon="5.76306">
        <ele>420</ele>
        <time>2015-05-10T10:26:09Z</time>
      </trkpt>
      <trkpt lat="50.26062" lon="5.76313">
        <ele>420</ele>
        <time>2015-05-10T10:26:14Z</time>
      </trkpt>
      <trkpt lat="50.26062" lon="5.76323">
        <ele>420</ele>
        <time>2015-05-10T10:26:20Z</time>
      </trkpt>
      <trkpt lat="50.26062" lon="5.76335">
        <ele>419</ele>
        <time>2015-05-10T10:26:26Z</time>
      </trkpt>
      <trkpt lat="50.26061" lon="5.76345">
        <ele>419</ele>
        <time>2015-05-10T10:26:31Z</time>
      </trkpt>
      <trkpt lat="50.26061" lon="5.76355">
        <ele>418</ele>
        <time>2015-05-10T10:26:36Z</time>
      </trkpt>
      <trkpt lat="50.2606" lon="5.76366">
        <ele>418</ele>
        <time>2015-05-10T10:26:42Z</time>
      </trkpt>
      <trkpt lat="50.26059" lon="5.76377">
        <ele>417</ele>
        <time>2015-05-10T10:26:48Z</time>
      </trkpt>
      <trkpt lat="50.26059" lon="5.76387">
        <ele>417</ele>
        <time>2015-05-10T10:26:53Z</time>
      </trkpt>
      <trkpt lat="50.26058" lon="5.764">
        <ele>415</ele>
        <time>2015-05-10T10:26:59Z</time>
      </trkpt>
      <trkpt lat="50.26057" lon="5.76409">
        <ele>415</ele>
        <time>2015-05-10T10:27:05Z</time>
      </trkpt>
      <trkpt lat="50.26057" lon="5.76421">
        <ele>416</ele>
        <time>2015-05-10T10:27:11Z</time>
      </trkpt>
      <trkpt lat="50.26055" lon="5.76434">
        <ele>416</ele>
        <time>2015-05-10T10:27:16Z</time>
      </trkpt>
      <trkpt lat="50.26054" lon="5.76446">
        <ele>415</ele>
        <time>2015-05-10T10:27:22Z</time>
      </trkpt>
      <trkpt lat="50.26052" lon="5.76458">
        <ele>415</ele>
        <time>2015-05-10T10:27:28Z</time>
      </trkpt>
      <trkpt lat="50.26051" lon="5.76467">
        <ele>415</ele>
        <time>2015-05-10T10:27:33Z</time>
      </trkpt>
      <trkpt lat="50.26049" lon="5.76478">
        <ele>414</ele>
        <time>2015-05-10T10:27:39Z</time>
      </trkpt>
      <trkpt lat="50.26048" lon="5.76489">
        <ele>413</ele>
        <time>2015-05-10T10:27:45Z</time>
      </trkpt>
      <trkpt lat="50.26048" lon="5.76498">
        <ele>413</ele>
        <time>2015-05-10T10:27:50Z</time>
      </trkpt>
      <trkpt lat="50.26051" lon="5.76508">
        <ele>413</ele>
        <time>2015-05-10T10:27:56Z</time>
      </trkpt>
      <trkpt lat="50.26055" lon="5.76517">
        <ele>412</ele>
        <time>2015-05-10T10:28:02Z</time>
      </trkpt>
      <trkpt lat="50.2606" lon="5.76525">
        <ele>412</ele>
        <time>2015-05-10T10:28:07Z</time>
      </trkpt>
      <trkpt lat="50.26065" lon="5.76532">
        <ele>411</ele>
        <time>2015-05-10T10:28:12Z</time>
      </trkpt>
      <trkpt lat="50.26069" lon="5.76544">
        <ele>411</ele>
        <time>2015-05-10T10:28:18Z</time>
      </trkpt>
      <trkpt lat="50.2607" lon="5.76554">
        <ele>410</ele>
        <time>2015-05-10T10:28:23Z</time>
      </trkpt>
      <trkpt lat="50.2607" lon="5.76563">
        <ele>410</ele>
        <time>2015-05-10T10:28:28Z</time>
      </trkpt>
      <trkpt lat="50.26069" lon="5.76573">
        <ele>409</ele>
        <time>2015-05-10T10:28:34Z</time>
      </trkpt>
      <trkpt lat="50.26068" lon="5.76581">
        <ele>409</ele>
        <time>2015-05-10T10:28:39Z</time>
      </trkpt>
      <trkpt lat="50.26067" lon="5.7659">
        <ele>409</ele>
        <time>2015-05-10T10:28:44Z</time>
      </trkpt>
      <trkpt lat="50.26066" lon="5.76604">
        <ele>409</ele>
        <time>2015-05-10T10:28:50Z</time>
      </trkpt>
      <trkpt lat="50.26065" lon="5.76614">
        <ele>408</ele>
        <time>2015-05-10T10:28:55Z</time>
      </trkpt>
      <trkpt lat="50.26064" lon="5.76625">
        <ele>408</ele>
        <time>2015-05-10T10:29:00Z</time>
      </trkpt>
      <trkpt lat="50.26062" lon="5.76635">
        <ele>407</ele>
        <time>2015-05-10T10:29:05Z</time>
      </trkpt>
      <trkpt lat="50.26061" lon="5.76646">
        <ele>406</ele>
        <time>2015-05-10T10:29:11Z</time>
      </trkpt>
      <trkpt lat="50.26059" lon="5.76656">
        <ele>406</ele>
        <time>2015-05-10T10:29:16Z</time>
      </trkpt>
      <trkpt lat="50.26058" lon="5.76667">
        <ele>406</ele>
        <time>2015-05-10T10:29:22Z</time>
      </trkpt>
      <trkpt lat="50.26056" lon="5.76676">
        <ele>405</ele>
        <time>2015-05-10T10:29:27Z</time>
      </trkpt>
      <trkpt lat="50.26055" lon="5.76687">
        <ele>406</ele>
        <time>2015-05-10T10:29:32Z</time>
      </trkpt>
      <trkpt lat="50.26054" lon="5.76697">
        <ele>405</ele>
        <time>2015-05-10T10:29:37Z</time>
      </trkpt>
      <trkpt lat="50.26053" lon="5.76709">
        <ele>405</ele>
        <time>2015-05-10T10:29:43Z</time>
      </trkpt>
      <trkpt lat="50.26053" lon="5.7672">
        <ele>404</ele>
        <time>2015-05-10T10:29:48Z</time>
      </trkpt>
      <trkpt lat="50.26053" lon="5.76731">
        <ele>404</ele>
        <time>2015-05-10T10:29:53Z</time>
      </trkpt>
      <trkpt lat="50.26053" lon="5.76743">
        <ele>404</ele>
        <time>2015-05-10T10:29:59Z</time>
      </trkpt>
      <trkpt lat="50.26054" lon="5.76754">
        <ele>403</ele>
        <time>2015-05-10T10:30:04Z</time>
      </trkpt>
      <trkpt lat="50.26057" lon="5.76766">
        <ele>403</ele>
        <time>2015-05-10T10:30:10Z</time>
      </trkpt>
      <trkpt lat="50.26059" lon="5.76778">
        <ele>403</ele>
        <time>2015-05-10T10:30:16Z</time>
      </trkpt>
      <trkpt lat="50.26059" lon="5.76786">
        <ele>402</ele>
        <time>2015-05-10T10:30:21Z</time>
      </trkpt>
      <trkpt lat="50.26059" lon="5.76794">
        <ele>401</ele>
        <time>2015-05-10T10:30:26Z</time>
      </trkpt>
      <trkpt lat="50.26062" lon="5.76803">
        <ele>400</ele>
        <time>2015-05-10T10:30:32Z</time>
      </trkpt>
      <trkpt lat="50.26064" lon="5.76811">
        <ele>400</ele>
        <time>2015-05-10T10:30:37Z</time>
      </trkpt>
      <trkpt lat="50.26066" lon="5.76818">
        <ele>399</ele>
        <time>2015-05-10T10:30:42Z</time>
      </trkpt>
      <trkpt lat="50.26069" lon="5.76829">
        <ele>399</ele>
        <time>2015-05-10T10:30:48Z</time>
      </trkpt>
      <trkpt lat="50.26072" lon="5.76839">
        <ele>398</ele>
        <time>2015-05-10T10:30:53Z</time>
      </trkpt>
      <trkpt lat="50.26078" lon="5.76848">
        <ele>398</ele>
        <time>2015-05-10T10:30:59Z</time>
      </trkpt>
      <trkpt lat="50.26082" lon="5.76857">
        <ele>398</ele>
        <time>2015-05-10T10:31:04Z</time>
      </trkpt>
      <trkpt lat="50.26086" lon="5.76866">
        <ele>398</ele>
        <time>2015-05-10T10:31:09Z</time>
      </trkpt>
      <trkpt lat="50.26092" lon="5.76876">
        <ele>398</ele>
        <time>2015-05-10T10:31:15Z</time>
      </trkpt>
      <trkpt lat="50.26097" lon="5.76885">
        <ele>398</ele>
        <time>2015-05-10T10:31:20Z</time>
      </trkpt>
      <trkpt lat="50.26104" lon="5.76893">
        <ele>397</ele>
        <time>2015-05-10T10:31:25Z</time>
      </trkpt>
      <trkpt lat="50.26109" lon="5.76902">
        <ele>397</ele>
        <time>2015-05-10T10:31:30Z</time>
      </trkpt>
      <trkpt lat="50.26114" lon="5.76912">
        <ele>396</ele>
        <time>2015-05-10T10:31:36Z</time>
      </trkpt>
      <trkpt lat="50.26118" lon="5.76921">
        <ele>396</ele>
        <time>2015-05-10T10:31:41Z</time>
      </trkpt>
      <trkpt lat="50.26121" lon="5.76929">
        <ele>396</ele>
        <time>2015-05-10T10:31:46Z</time>
      </trkpt>
      <trkpt lat="50.26125" lon="5.76938">
        <ele>396</ele>
        <time>2015-05-10T10:31:52Z</time>
      </trkpt>
      <trkpt lat="50.26129" lon="5.76946">
        <ele>396</ele>
        <time>2015-05-10T10:31:57Z</time>
      </trkpt>
      <trkpt lat="50.26134" lon="5.76956">
        <ele>396</ele>
        <time>2015-05-10T10:32:03Z</time>
      </trkpt>
      <trkpt lat="50.26137" lon="5.76965">
        <ele>395</ele>
        <time>2015-05-10T10:32:09Z</time>
      </trkpt>
      <trkpt lat="50.26141" lon="5.76973">
        <ele>395</ele>
        <time>2015-05-10T10:32:14Z</time>
      </trkpt>
      <trkpt lat="50.26144" lon="5.7698">
        <ele>395</ele>
        <time>2015-05-10T10:32:19Z</time>
      </trkpt>
      <trkpt lat="50.26146" lon="5.76989">
        <ele>394</ele>
        <time>2015-05-10T10:32:25Z</time>
      </trkpt>
      <trkpt lat="50.26148" lon="5.76996">
        <ele>394</ele>
        <time>2015-05-10T10:32:30Z</time>
      </trkpt>
      <trkpt lat="50.2615" lon="5.77006">
        <ele>394</ele>
        <time>2015-05-10T10:32:36Z</time>
      </trkpt>
      <trkpt lat="50.26153" lon="5.77014">
        <ele>394</ele>
        <time>2015-05-10T10:32:42Z</time>
      </trkpt>
      <trkpt lat="50.26156" lon="5.77022">
        <ele>393</ele>
        <time>2015-05-10T10:32:47Z</time>
      </trkpt>
      <trkpt lat="50.2616" lon="5.77029">
        <ele>393</ele>
        <time>2015-05-10T10:32:53Z</time>
      </trkpt>
      <trkpt lat="50.26164" lon="5.77037">
        <ele>393</ele>
        <time>2015-05-10T10:32:58Z</time>
      </trkpt>
      <trkpt lat="50.26168" lon="5.77047">
        <ele>393</ele>
        <time>2015-05-10T10:33:03Z</time>
      </trkpt>
      <trkpt lat="50.26173" lon="5.77059">
        <ele>392</ele>
        <time>2015-05-10T10:33:09Z</time>
      </trkpt>
      <trkpt lat="50.26177" lon="5.77069">
        <ele>392</ele>
        <time>2015-05-10T10:33:14Z</time>
      </trkpt>
      <trkpt lat="50.26183" lon="5.7708">
        <ele>391</ele>
        <time>2015-05-10T10:33:20Z</time>
      </trkpt>
      <trkpt lat="50.26187" lon="5.77088">
        <ele>390</ele>
        <time>2015-05-10T10:33:25Z</time>
      </trkpt>
      <trkpt lat="50.26193" lon="5.771">
        <ele>390</ele>
        <time>2015-05-10T10:33:31Z</time>
      </trkpt>
      <trkpt lat="50.26199" lon="5.77112">
        <ele>390</ele>
        <time>2015-05-10T10:33:37Z</time>
      </trkpt>
      <trkpt lat="50.26204" lon="5.77121">
        <ele>390</ele>
        <time>2015-05-10T10:33:42Z</time>
      </trkpt>
      <trkpt lat="50.26207" lon="5.77131">
        <ele>389</ele>
        <time>2015-05-10T10:33:47Z</time>
      </trkpt>
      <trkpt lat="50.2621" lon="5.77141">
        <ele>389</ele>
        <time>2015-05-10T10:33:53Z</time>
      </trkpt>
      <trkpt lat="50.26212" lon="5.77151">
        <ele>389</ele>
        <time>2015-05-10T10:33:59Z</time>
      </trkpt>
      <trkpt lat="50.26215" lon="5.77162">
        <ele>388</ele>
        <time>2015-05-10T10:34:05Z</time>
      </trkpt>
      <trkpt lat="50.26218" lon="5.77173">
        <ele>389</ele>
        <time>2015-05-10T10:34:11Z</time>
      </trkpt>
      <trkpt lat="50.26221" lon="5.7718">
        <ele>389</ele>
        <time>2015-05-10T10:34:16Z</time>
      </trkpt>
      <trkpt lat="50.26223" lon="5.77186">
        <ele>388</ele>
        <time>2015-05-10T10:34:21Z</time>
      </trkpt>
      <trkpt lat="50.26226" lon="5.77192">
        <ele>387</ele>
        <time>2015-05-10T10:34:27Z</time>
      </trkpt>
      <trkpt lat="50.26228" lon="5.772">
        <ele>387</ele>
        <time>2015-05-10T10:34:32Z</time>
      </trkpt>
      <trkpt lat="50.26231" lon="5.77207">
        <ele>388</ele>
        <time>2015-05-10T10:34:37Z</time>
      </trkpt>
      <trkpt lat="50.26234" lon="5.77216">
        <ele>387</ele>
        <time>2015-05-10T10:34:43Z</time>
      </trkpt>
      <trkpt lat="50.26237" lon="5.77224">
        <ele>387</ele>
        <time>2015-05-10T10:34:49Z</time>
      </trkpt>
      <trkpt lat="50.2624" lon="5.77231">
        <ele>388</ele>
        <time>2015-05-10T10:34:54Z</time>
      </trkpt>
      <trkpt lat="50.26243" lon="5.77236">
        <ele>388</ele>
        <time>2015-05-10T10:35:00Z</time>
      </trkpt>
      <trkpt lat="50.26245" lon="5.7724">
        <ele>387</ele>
        <time>2015-05-10T10:35:05Z</time>
      </trkpt>
      <trkpt lat="50.26249" lon="5.77247">
        <ele>387</ele>
        <time>2015-05-10T10:35:11Z</time>
      </trkpt>
      <trkpt lat="50.26252" lon="5.77253">
        <ele>387</ele>
        <time>2015-05-10T10:35:17Z</time>
      </trkpt>
      <trkpt lat="50.26254" lon="5.77262">
        <ele>387</ele>
        <time>2015-05-10T10:35:23Z</time>
      </trkpt>
      <trkpt lat="50.26255" lon="5.77273">
        <ele>387</ele>
        <time>2015-05-10T10:35:29Z</time>
      </trkpt>
      <trkpt lat="50.26258" lon="5.77284">
        <ele>387</ele>
        <time>2015-05-10T10:35:35Z</time>
      </trkpt>
      <trkpt lat="50.2626" lon="5.77294">
        <ele>386</ele>
        <time>2015-05-10T10:35:40Z</time>
      </trkpt>
      <trkpt lat="50.26262" lon="5.77306">
        <ele>386</ele>
        <time>2015-05-10T10:35:46Z</time>
      </trkpt>
      <trkpt lat="50.26265" lon="5.77317">
        <ele>385</ele>
        <time>2015-05-10T10:35:52Z</time>
      </trkpt>
      <trkpt lat="50.26267" lon="5.77327">
        <ele>385</ele>
        <time>2015-05-10T10:35:57Z</time>
      </trkpt>
      <trkpt lat="50.2627" lon="5.77339">
        <ele>385</ele>
        <time>2015-05-10T10:36:03Z</time>
      </trkpt>
      <trkpt lat="50.26273" lon="5.77347">
        <ele>385</ele>
        <time>2015-05-10T10:36:08Z</time>
      </trkpt>
      <trkpt lat="50.26277" lon="5.77353">
        <ele>385</ele>
        <time>2015-05-10T10:36:13Z</time>
      </trkpt>
      <trkpt lat="50.26282" lon="5.7736">
        <ele>384</ele>
        <time>2015-05-10T10:36:19Z</time>
      </trkpt>
      <trkpt lat="50.26288" lon="5.77365">
        <ele>384</ele>
        <time>2015-05-10T10:36:25Z</time>
      </trkpt>
      <trkpt lat="50.26294" lon="5.77368">
        <ele>384</ele>
        <time>2015-05-10T10:36:31Z</time>
      </trkpt>
      <trkpt lat="50.26299" lon="5.77372">
        <ele>383</ele>
        <time>2015-05-10T10:36:36Z</time>
      </trkpt>
      <trkpt lat="50.26303" lon="5.77375">
        <ele>383</ele>
        <time>2015-05-10T10:36:42Z</time>
      </trkpt>
      <trkpt lat="50.26308" lon="5.77378">
        <ele>383</ele>
        <time>2015-05-10T10:36:47Z</time>
      </trkpt>
      <trkpt lat="50.26312" lon="5.77381">
        <ele>383</ele>
        <time>2015-05-10T10:36:52Z</time>
      </trkpt>
      <trkpt lat="50.26316" lon="5.77383">
        <ele>384</ele>
        <time>2015-05-10T10:36:57Z</time>
      </trkpt>
      <trkpt lat="50.26321" lon="5.77386">
        <ele>384</ele>
        <time>2015-05-10T10:37:03Z</time>
      </trkpt>
      <trkpt lat="50.26325" lon="5.77388">
        <ele>384</ele>
        <time>2015-05-10T10:37:08Z</time>
      </trkpt>
      <trkpt lat="50.26329" lon="5.77391">
        <ele>384</ele>
        <time>2015-05-10T10:37:13Z</time>
      </trkpt>
      <trkpt lat="50.26332" lon="5.77393">
        <ele>385</ele>
        <time>2015-05-10T10:37:19Z</time>
      </trkpt>
      <trkpt lat="50.26334" lon="5.77395">
        <ele>384</ele>
        <time>2015-05-10T10:37:24Z</time>
      </trkpt>
      <trkpt lat="50.26335" lon="5.77396">
        <ele>384</ele>
        <time>2015-05-10T10:37:30Z</time>
      </trkpt>
      <trkpt lat="50.26335" lon="5.77398">
        <ele>384</ele>
        <time>2015-05-10T10:37:35Z</time>
      </trkpt>
      <trkpt lat="50.26334" lon="5.77401">
        <ele>384</ele>
        <time>2015-05-10T10:37:41Z</time>
      </trkpt>
      <trkpt lat="50.26335" lon="5.77404">
        <ele>385</ele>
        <time>2015-05-10T10:37:46Z</time>
      </trkpt>
      <trkpt lat="50.26335" lon="5.77406">
        <ele>384</ele>
        <time>2015-05-10T10:37:52Z</time>
      </trkpt>
      <trkpt lat="50.26335" lon="5.77406">
        <ele>385</ele>
        <time>2015-05-10T10:37:57Z</time>
      </trkpt>
      <trkpt lat="50.26334" lon="5.77403">
        <ele>385</ele>
        <time>2015-05-10T10:38:03Z</time>
      </trkpt>
      <trkpt lat="50.26332" lon="5.77402">
        <ele>384</ele>
        <time>2015-05-10T10:38:08Z</time>
      </trkpt>
      <trkpt lat="50.26331" lon="5.77401">
        <ele>384</ele>
        <time>2015-05-10T10:38:13Z</time>
      </trkpt>
      <trkpt lat="50.26328" lon="5.774">
        <ele>384</ele>
        <time>2015-05-10T10:38:19Z</time>
      </trkpt>
      <trkpt lat="50.26326" lon="5.774">
        <ele>385</ele>
        <time>2015-05-10T10:38:24Z</time>
      </trkpt>
      <trkpt lat="50.26326" lon="5.774">
        <ele>384</ele>
        <time>2015-05-10T10:38:30Z</time>
      </trkpt>
      <trkpt lat="50.26327" lon="5.77399">
        <ele>384</ele>
        <time>2015-05-10T10:38:36Z</time>
      </trkpt>
      <trkpt lat="50.26327" lon="5.77399">
        <ele>384</ele>
        <time>2015-05-10T10:38:42Z</time>
      </trkpt>
      <trkpt lat="50.26326" lon="5.77398">
        <ele>384</ele>
        <time>2015-05-10T10:38:48Z</time>
      </trkpt>
      <trkpt lat="50.26327" lon="5.77397">
        <ele>385</ele>
        <time>2015-05-10T10:38:54Z</time>
      </trkpt>
      <trkpt lat="50.26327" lon="5.77397">
        <ele>385</ele>
        <time>2015-05-10T10:38:59Z</time>
      </trkpt>
      <trkpt lat="50.26326" lon="5.77398">
        <ele>385</ele>
        <time>2015-05-10T10:39:06Z</time>
      </trkpt>
      <trkpt lat="50.26326" lon="5.77397">
        <ele>385</ele>
        <time>2015-05-10T10:39:11Z</time>
      </trkpt>
      <trkpt lat="50.26329" lon="5.77401">
        <ele>385</ele>
        <time>2015-05-10T10:39:16Z</time>
      </trkpt>
      <trkpt lat="50.26329" lon="5.77403">
        <ele>385</ele>
        <time>2015-05-10T10:39:21Z</time>
      </trkpt>
      <trkpt lat="50.26331" lon="5.77405">
        <ele>386</ele>
        <time>2015-05-10T10:39:26Z</time>
      </trkpt>
      <trkpt lat="50.26331" lon="5.77406">
        <ele>386</ele>
        <time>2015-05-10T10:39:32Z</time>
      </trkpt>
      <trkpt lat="50.26332" lon="5.77409">
        <ele>386</ele>
        <time>2015-05-10T10:39:37Z</time>
      </trkpt>
      <trkpt lat="50.26332" lon="5.77412">
        <ele>387</ele>
        <time>2015-05-10T10:39:42Z</time>
      </trkpt>
      <trkpt lat="50.26332" lon="5.77414">
        <ele>388</ele>
        <time>2015-05-10T10:39:47Z</time>
      </trkpt>
      <trkpt lat="50.26329" lon="5.77417">
        <ele>388</ele>
        <time>2015-05-10T10:39:53Z</time>
      </trkpt>
      <trkpt lat="50.26329" lon="5.77422">
        <ele>388</ele>
        <time>2015-05-10T10:39:58Z</time>
      </trkpt>
      <trkpt lat="50.26328" lon="5.77427">
        <ele>389</ele>
        <time>2015-05-10T10:40:03Z</time>
      </trkpt>
      <trkpt lat="50.26326" lon="5.77431">
        <ele>390</ele>
        <time>2015-05-10T10:40:08Z</time>
      </trkpt>
      <trkpt lat="50.26323" lon="5.77438">
        <ele>391</ele>
        <time>2015-05-10T10:40:14Z</time>
      </trkpt>
      <trkpt lat="50.26322" lon="5.77444">
        <ele>391</ele>
        <time>2015-05-10T10:40:19Z</time>
      </trkpt>
      <trkpt lat="50.2632" lon="5.77451">
        <ele>392</ele>
        <time>2015-05-10T10:40:24Z</time>
      </trkpt>
      <trkpt lat="50.26317" lon="5.77457">
        <ele>393</ele>
        <time>2015-05-10T10:40:30Z</time>
      </trkpt>
      <trkpt lat="50.26316" lon="5.77466">
        <ele>393</ele>
        <time>2015-05-10T10:40:35Z</time>
      </trkpt>
      <trkpt lat="50.26313" lon="5.77472">
        <ele>393</ele>
        <time>2015-05-10T10:40:41Z</time>
      </trkpt>
      <trkpt lat="50.2631" lon="5.77479">
        <ele>393</ele>
        <time>2015-05-10T10:40:46Z</time>
      </trkpt>
      <trkpt lat="50.26307" lon="5.77485">
        <ele>394</ele>
        <time>2015-05-10T10:40:52Z</time>
      </trkpt>
      <trkpt lat="50.26303" lon="5.77491">
        <ele>394</ele>
        <time>2015-05-10T10:40:57Z</time>
      </trkpt>
      <trkpt lat="50.26299" lon="5.77497">
        <ele>395</ele>
        <time>2015-05-10T10:41:03Z</time>
      </trkpt>
      <trkpt lat="50.26295" lon="5.77503">
        <ele>396</ele>
        <time>2015-05-10T10:41:09Z</time>
      </trkpt>
      <trkpt lat="50.26292" lon="5.7751">
        <ele>396</ele>
        <time>2015-05-10T10:41:15Z</time>
      </trkpt>
      <trkpt lat="50.26289" lon="5.77515">
        <ele>397</ele>
        <time>2015-05-10T10:41:20Z</time>
      </trkpt>
      <trkpt lat="50.26288" lon="5.7752">
        <ele>397</ele>
        <time>2015-05-10T10:41:25Z</time>
      </trkpt>
      <trkpt lat="50.26286" lon="5.77525">
        <ele>398</ele>
        <time>2015-05-10T10:41:30Z</time>
      </trkpt>
      <trkpt lat="50.26283" lon="5.77532">
        <ele>399</ele>
        <time>2015-05-10T10:41:35Z</time>
      </trkpt>
      <trkpt lat="50.26281" lon="5.77538">
        <ele>399</ele>
        <time>2015-05-10T10:41:41Z</time>
      </trkpt>
      <trkpt lat="50.2628" lon="5.77543">
        <ele>400</ele>
        <time>2015-05-10T10:41:46Z</time>
      </trkpt>
      <trkpt lat="50.26281" lon="5.77546">
        <ele>400</ele>
        <time>2015-05-10T10:41:52Z</time>
      </trkpt>
      <trkpt lat="50.26281" lon="5.7755">
        <ele>401</ele>
        <time>2015-05-10T10:41:57Z</time>
      </trkpt>
      <trkpt lat="50.26279" lon="5.77555">
        <ele>401</ele>
        <time>2015-05-10T10:42:02Z</time>
      </trkpt>
      <trkpt lat="50.26278" lon="5.77561">
        <ele>402</ele>
        <time>2015-05-10T10:42:08Z</time>
      </trkpt>
      <trkpt lat="50.26276" lon="5.77566">
        <ele>402</ele>
        <time>2015-05-10T10:42:13Z</time>
      </trkpt>
      <trkpt lat="50.26273" lon="5.77571">
        <ele>403</ele>
        <time>2015-05-10T10:42:18Z</time>
      </trkpt>
      <trkpt lat="50.26271" lon="5.77577">
        <ele>404</ele>
        <time>2015-05-10T10:42:23Z</time>
      </trkpt>
      <trkpt lat="50.26269" lon="5.77581">
        <ele>404</ele>
        <time>2015-05-10T10:42:29Z</time>
      </trkpt>
      <trkpt lat="50.26266" lon="5.77587">
        <ele>405</ele>
        <time>2015-05-10T10:42:34Z</time>
      </trkpt>
      <trkpt lat="50.26264" lon="5.77592">
        <ele>406</ele>
        <time>2015-05-10T10:42:39Z</time>
      </trkpt>
      <trkpt lat="50.26263" lon="5.77597">
        <ele>406</ele>
        <time>2015-05-10T10:42:45Z</time>
      </trkpt>
      <trkpt lat="50.26261" lon="5.77603">
        <ele>407</ele>
        <time>2015-05-10T10:42:51Z</time>
      </trkpt>
      <trkpt lat="50.26258" lon="5.7761">
        <ele>407</ele>
        <time>2015-05-10T10:42:56Z</time>
      </trkpt>
      <trkpt lat="50.26255" lon="5.77615">
        <ele>408</ele>
        <time>2015-05-10T10:43:01Z</time>
      </trkpt>
      <trkpt lat="50.26253" lon="5.7762">
        <ele>409</ele>
        <time>2015-05-10T10:43:07Z</time>
      </trkpt>
      <trkpt lat="50.2625" lon="5.77624">
        <ele>410</ele>
        <time>2015-05-10T10:43:12Z</time>
      </trkpt>
      <trkpt lat="50.26247" lon="5.77627">
        <ele>410</ele>
        <time>2015-05-10T10:43:18Z</time>
      </trkpt>
      <trkpt lat="50.26243" lon="5.77633">
        <ele>410</ele>
        <time>2015-05-10T10:43:24Z</time>
      </trkpt>
      <trkpt lat="50.2624" lon="5.77638">
        <ele>411</ele>
        <time>2015-05-10T10:43:29Z</time>
      </trkpt>
      <trkpt lat="50.26235" lon="5.77643">
        <ele>412</ele>
        <time>2015-05-10T10:43:35Z</time>
      </trkpt>
      <trkpt lat="50.26234" lon="5.77646">
        <ele>412</ele>
        <time>2015-05-10T10:43:40Z</time>
      </trkpt>
      <trkpt lat="50.26229" lon="5.77652">
        <ele>412</ele>
        <time>2015-05-10T10:43:46Z</time>
      </trkpt>
      <trkpt lat="50.26224" lon="5.77658">
        <ele>412</ele>
        <time>2015-05-10T10:43:51Z</time>
      </trkpt>
      <trkpt lat="50.26219" lon="5.77664">
        <ele>413</ele>
        <time>2015-05-10T10:43:56Z</time>
      </trkpt>
      <trkpt lat="50.26215" lon="5.77668">
        <ele>412</ele>
        <time>2015-05-10T10:44:02Z</time>
      </trkpt>
      <trkpt lat="50.2621" lon="5.77673">
        <ele>413</ele>
        <time>2015-05-10T10:44:08Z</time>
      </trkpt>
      <trkpt lat="50.26205" lon="5.77679">
        <ele>413</ele>
        <time>2015-05-10T10:44:13Z</time>
      </trkpt>
      <trkpt lat="50.262" lon="5.77683">
        <ele>414</ele>
        <time>2015-05-10T10:44:18Z</time>
      </trkpt>
      <trkpt lat="50.26196" lon="5.77687">
        <ele>414</ele>
        <time>2015-05-10T10:44:24Z</time>
      </trkpt>
      <trkpt lat="50.26191" lon="5.77692">
        <ele>414</ele>
        <time>2015-05-10T10:44:30Z</time>
      </trkpt>
      <trkpt lat="50.26186" lon="5.77696">
        <ele>415</ele>
        <time>2015-05-10T10:44:35Z</time>
      </trkpt>
      <trkpt lat="50.26181" lon="5.77698">
        <ele>415</ele>
        <time>2015-05-10T10:44:41Z</time>
      </trkpt>
      <trkpt lat="50.26175" lon="5.77702">
        <ele>416</ele>
        <time>2015-05-10T10:44:47Z</time>
      </trkpt>
      <trkpt lat="50.26171" lon="5.77703">
        <ele>416</ele>
        <time>2015-05-10T10:44:53Z</time>
      </trkpt>
      <trkpt lat="50.2617" lon="5.77705">
        <ele>416</ele>
        <time>2015-05-10T10:44:58Z</time>
      </trkpt>
      <trkpt lat="50.26168" lon="5.77707">
        <ele>416</ele>
        <time>2015-05-10T10:45:04Z</time>
      </trkpt>
      <trkpt lat="50.26162" lon="5.77711">
        <ele>416</ele>
        <time>2015-05-10T10:45:09Z</time>
      </trkpt>
      <trkpt lat="50.26158" lon="5.77714">
        <ele>417</ele>
        <time>2015-05-10T10:45:14Z</time>
      </trkpt>
      <trkpt lat="50.26157" lon="5.77714">
        <ele>417</ele>
        <time>2015-05-10T10:45:21Z</time>
      </trkpt>
      <trkpt lat="50.26157" lon="5.77716">
        <ele>417</ele>
        <time>2015-05-10T10:45:27Z</time>
      </trkpt>
      <trkpt lat="50.26152" lon="5.77719">
        <ele>416</ele>
        <time>2015-05-10T10:45:32Z</time>
      </trkpt>
      <trkpt lat="50.26147" lon="5.77724">
        <ele>417</ele>
        <time>2015-05-10T10:45:38Z</time>
      </trkpt>
      <trkpt lat="50.26143" lon="5.7773">
        <ele>417</ele>
        <time>2015-05-10T10:45:43Z</time>
      </trkpt>
      <trkpt lat="50.26138" lon="5.77735">
        <ele>418</ele>
        <time>2015-05-10T10:45:48Z</time>
      </trkpt>
      <trkpt lat="50.26134" lon="5.77738">
        <ele>418</ele>
        <time>2015-05-10T10:45:54Z</time>
      </trkpt>
      <trkpt lat="50.2613" lon="5.77741">
        <ele>419</ele>
        <time>2015-05-10T10:45:59Z</time>
      </trkpt>
      <trkpt lat="50.26126" lon="5.77745">
        <ele>419</ele>
        <time>2015-05-10T10:46:04Z</time>
      </trkpt>
      <trkpt lat="50.26122" lon="5.77748">
        <ele>419</ele>
        <time>2015-05-10T10:46:11Z</time>
      </trkpt>
      <trkpt lat="50.26118" lon="5.77752">
        <ele>420</ele>
        <time>2015-05-10T10:46:16Z</time>
      </trkpt>
      <trkpt lat="50.26112" lon="5.77757">
        <ele>420</ele>
        <time>2015-05-10T10:46:22Z</time>
      </trkpt>
      <trkpt lat="50.26111" lon="5.77758">
        <ele>421</ele>
        <time>2015-05-10T10:46:29Z</time>
      </trkpt>
      <trkpt lat="50.26108" lon="5.77761">
        <ele>421</ele>
        <time>2015-05-10T10:46:34Z</time>
      </trkpt>
      <trkpt lat="50.26107" lon="5.77761">
        <ele>421</ele>
        <time>2015-05-10T10:46:40Z</time>
      </trkpt>
      <trkpt lat="50.26104" lon="5.77763">
        <ele>421</ele>
        <time>2015-05-10T10:46:45Z</time>
      </trkpt>
      <trkpt lat="50.26101" lon="5.77764">
        <ele>422</ele>
        <time>2015-05-10T10:46:50Z</time>
      </trkpt>
      <trkpt lat="50.26099" lon="5.77766">
        <ele>422</ele>
        <time>2015-05-10T10:46:55Z</time>
      </trkpt>
      <trkpt lat="50.26095" lon="5.77768">
        <ele>422</ele>
        <time>2015-05-10T10:47:01Z</time>
      </trkpt>
      <trkpt lat="50.26091" lon="5.77771">
        <ele>422</ele>
        <time>2015-05-10T10:47:06Z</time>
      </trkpt>
      <trkpt lat="50.26087" lon="5.77774">
        <ele>423</ele>
        <time>2015-05-10T10:47:12Z</time>
      </trkpt>
      <trkpt lat="50.26083" lon="5.77778">
        <ele>423</ele>
        <time>2015-05-10T10:47:18Z</time>
      </trkpt>
      <trkpt lat="50.26079" lon="5.77781">
        <ele>423</ele>
        <time>2015-05-10T10:47:23Z</time>
      </trkpt>
      <trkpt lat="50.26077" lon="5.77785">
        <ele>423</ele>
        <time>2015-05-10T10:47:29Z</time>
      </trkpt>
      <trkpt lat="50.26072" lon="5.77792">
        <ele>423</ele>
        <time>2015-05-10T10:47:34Z</time>
      </trkpt>
      <trkpt lat="50.26068" lon="5.77797">
        <ele>424</ele>
        <time>2015-05-10T10:47:39Z</time>
      </trkpt>
      <trkpt lat="50.26065" lon="5.77804">
        <ele>425</ele>
        <time>2015-05-10T10:47:45Z</time>
      </trkpt>
      <trkpt lat="50.26062" lon="5.7781">
        <ele>425</ele>
        <time>2015-05-10T10:47:50Z</time>
      </trkpt>
      <trkpt lat="50.26058" lon="5.77817">
        <ele>425</ele>
        <time>2015-05-10T10:47:56Z</time>
      </trkpt>
      <trkpt lat="50.26055" lon="5.77822">
        <ele>426</ele>
        <time>2015-05-10T10:48:02Z</time>
      </trkpt>
      <trkpt lat="50.26051" lon="5.7783">
        <ele>426</ele>
        <time>2015-05-10T10:48:07Z</time>
      </trkpt>
      <trkpt lat="50.26048" lon="5.77835">
        <ele>427</ele>
        <time>2015-05-10T10:48:12Z</time>
      </trkpt>
      <trkpt lat="50.26044" lon="5.77842">
        <ele>427</ele>
        <time>2015-05-10T10:48:18Z</time>
      </trkpt>
      <trkpt lat="50.26041" lon="5.77847">
        <ele>427</ele>
        <time>2015-05-10T10:48:23Z</time>
      </trkpt>
      <trkpt lat="50.26038" lon="5.77852">
        <ele>428</ele>
        <time>2015-05-10T10:48:28Z</time>
      </trkpt>
      <trkpt lat="50.26035" lon="5.77858">
        <ele>429</ele>
        <time>2015-05-10T10:48:34Z</time>
      </trkpt>
      <trkpt lat="50.26031" lon="5.77865">
        <ele>429</ele>
        <time>2015-05-10T10:48:39Z</time>
      </trkpt>
      <trkpt lat="50.26027" lon="5.77873">
        <ele>429</ele>
        <time>2015-05-10T10:48:45Z</time>
      </trkpt>
      <trkpt lat="50.26023" lon="5.77877">
        <ele>430</ele>
        <time>2015-05-10T10:48:50Z</time>
      </trkpt>
      <trkpt lat="50.26019" lon="5.77879">
        <ele>431</ele>
        <time>2015-05-10T10:48:56Z</time>
      </trkpt>
      <trkpt lat="50.26017" lon="5.7788">
        <ele>431</ele>
        <time>2015-05-10T10:49:01Z</time>
      </trkpt>
      <trkpt lat="50.26018" lon="5.77882">
        <ele>431</ele>
        <time>2015-05-10T10:49:06Z</time>
      </trkpt>
      <trkpt lat="50.26017" lon="5.77885">
        <ele>431</ele>
        <time>2015-05-10T10:49:11Z</time>
      </trkpt>
      <trkpt lat="50.26015" lon="5.77885">
        <ele>431</ele>
        <time>2015-05-10T10:49:17Z</time>
      </trkpt>
      <trkpt lat="50.26014" lon="5.77883">
        <ele>431</ele>
        <time>2015-05-10T10:49:24Z</time>
      </trkpt>
      <trkpt lat="50.26013" lon="5.77882">
        <ele>431</ele>
        <time>2015-05-10T10:49:29Z</time>
      </trkpt>
      <trkpt lat="50.26011" lon="5.77881">
        <ele>431</ele>
        <time>2015-05-10T10:49:34Z</time>
      </trkpt>
      <trkpt lat="50.26006" lon="5.77878">
        <ele>430</ele>
        <time>2015-05-10T10:49:40Z</time>
      </trkpt>
      <trkpt lat="50.26002" lon="5.77876">
        <ele>430</ele>
        <time>2015-05-10T10:49:45Z</time>
      </trkpt>
      <trkpt lat="50.25998" lon="5.77873">
        <ele>430</ele>
        <time>2015-05-10T10:49:50Z</time>
      </trkpt>
      <trkpt lat="50.25993" lon="5.77869">
        <ele>431</ele>
        <time>2015-05-10T10:49:56Z</time>
      </trkpt>
      <trkpt lat="50.25989" lon="5.77866">
        <ele>430</ele>
        <time>2015-05-10T10:50:01Z</time>
      </trkpt>
      <trkpt lat="50.25985" lon="5.77862">
        <ele>430</ele>
        <time>2015-05-10T10:50:06Z</time>
      </trkpt>
      <trkpt lat="50.25979" lon="5.77857">
        <ele>430</ele>
        <time>2015-05-10T10:50:12Z</time>
      </trkpt>
      <trkpt lat="50.25974" lon="5.77854">
        <ele>429</ele>
        <time>2015-05-10T10:50:17Z</time>
      </trkpt>
      <trkpt lat="50.25968" lon="5.77851">
        <ele>429</ele>
        <time>2015-05-10T10:50:23Z</time>
      </trkpt>
      <trkpt lat="50.25964" lon="5.77848">
        <ele>429</ele>
        <time>2015-05-10T10:50:28Z</time>
      </trkpt>
      <trkpt lat="50.25958" lon="5.77844">
        <ele>429</ele>
        <time>2015-05-10T10:50:33Z</time>
      </trkpt>
      <trkpt lat="50.25953" lon="5.77842">
        <ele>429</ele>
        <time>2015-05-10T10:50:39Z</time>
      </trkpt>
      <trkpt lat="50.25946" lon="5.77838">
        <ele>429</ele>
        <time>2015-05-10T10:50:44Z</time>
      </trkpt>
      <trkpt lat="50.2594" lon="5.77835">
        <ele>428</ele>
        <time>2015-05-10T10:50:49Z</time>
      </trkpt>
      <trkpt lat="50.25936" lon="5.77832">
        <ele>428</ele>
        <time>2015-05-10T10:50:54Z</time>
      </trkpt>
      <trkpt lat="50.25931" lon="5.7783">
        <ele>428</ele>
        <time>2015-05-10T10:51:00Z</time>
      </trkpt>
      <trkpt lat="50.25927" lon="5.77826">
        <ele>428</ele>
        <time>2015-05-10T10:51:05Z</time>
      </trkpt>
      <trkpt lat="50.25922" lon="5.77823">
        <ele>428</ele>
        <time>2015-05-10T10:51:10Z</time>
      </trkpt>
      <trkpt lat="50.25917" lon="5.77819">
        <ele>428</ele>
        <time>2015-05-10T10:51:16Z</time>
      </trkpt>
      <trkpt lat="50.25909" lon="5.77815">
        <ele>428</ele>
        <time>2015-05-10T10:51:22Z</time>
      </trkpt>
      <trkpt lat="50.25903" lon="5.77814">
        <ele>428</ele>
        <time>2015-05-10T10:51:27Z</time>
      </trkpt>
      <trkpt lat="50.25896" lon="5.77812">
        <ele>428</ele>
        <time>2015-05-10T10:51:32Z</time>
      </trkpt>
      <trkpt lat="50.25888" lon="5.77811">
        <ele>427</ele>
        <time>2015-05-10T10:51:37Z</time>
      </trkpt>
      <trkpt lat="50.25882" lon="5.7781">
        <ele>428</ele>
        <time>2015-05-10T10:51:42Z</time>
      </trkpt>
      <trkpt lat="50.25877" lon="5.77809">
        <ele>428</ele>
        <time>2015-05-10T10:51:47Z</time>
      </trkpt>
      <trkpt lat="50.25872" lon="5.77808">
        <ele>427</ele>
        <time>2015-05-10T10:51:52Z</time>
      </trkpt>
      <trkpt lat="50.25866" lon="5.77807">
        <ele>427</ele>
        <time>2015-05-10T10:51:57Z</time>
      </trkpt>
      <trkpt lat="50.2586" lon="5.77805">
        <ele>427</ele>
        <time>2015-05-10T10:52:02Z</time>
      </trkpt>
      <trkpt lat="50.25855" lon="5.77804">
        <ele>427</ele>
        <time>2015-05-10T10:52:07Z</time>
      </trkpt>
      <trkpt lat="50.25848" lon="5.77803">
        <ele>427</ele>
        <time>2015-05-10T10:52:13Z</time>
      </trkpt>
      <trkpt lat="50.25842" lon="5.77802">
        <ele>427</ele>
        <time>2015-05-10T10:52:19Z</time>
      </trkpt>
      <trkpt lat="50.25835" lon="5.77802">
        <ele>427</ele>
        <time>2015-05-10T10:52:24Z</time>
      </trkpt>
      <trkpt lat="50.25829" lon="5.77801">
        <ele>427</ele>
        <time>2015-05-10T10:52:29Z</time>
      </trkpt>
      <trkpt lat="50.25822" lon="5.77801">
        <ele>427</ele>
        <time>2015-05-10T10:52:35Z</time>
      </trkpt>
      <trkpt lat="50.25816" lon="5.778">
        <ele>427</ele>
        <time>2015-05-10T10:52:40Z</time>
      </trkpt>
      <trkpt lat="50.25811" lon="5.77799">
        <ele>428</ele>
        <time>2015-05-10T10:52:45Z</time>
      </trkpt>
      <trkpt lat="50.25805" lon="5.77799">
        <ele>428</ele>
        <time>2015-05-10T10:52:51Z</time>
      </trkpt>
      <trkpt lat="50.258" lon="5.77799">
        <ele>428</ele>
        <time>2015-05-10T10:52:56Z</time>
      </trkpt>
      <trkpt lat="50.25794" lon="5.778">
        <ele>428</ele>
        <time>2015-05-10T10:53:01Z</time>
      </trkpt>
      <trkpt lat="50.25792" lon="5.778">
        <ele>428</ele>
        <time>2015-05-10T10:53:06Z</time>
      </trkpt>
      <trkpt lat="50.25785" lon="5.778">
        <ele>429</ele>
        <time>2015-05-10T10:53:12Z</time>
      </trkpt>
      <trkpt lat="50.25779" lon="5.778">
        <ele>429</ele>
        <time>2015-05-10T10:53:17Z</time>
      </trkpt>
      <trkpt lat="50.25773" lon="5.77798">
        <ele>429</ele>
        <time>2015-05-10T10:53:22Z</time>
      </trkpt>
      <trkpt lat="50.25766" lon="5.77797">
        <ele>429</ele>
        <time>2015-05-10T10:53:28Z</time>
      </trkpt>
      <trkpt lat="50.25762" lon="5.77796">
        <ele>429</ele>
        <time>2015-05-10T10:53:34Z</time>
      </trkpt>
      <trkpt lat="50.25756" lon="5.77796">
        <ele>430</ele>
        <time>2015-05-10T10:53:39Z</time>
      </trkpt>
      <trkpt lat="50.25751" lon="5.77795">
        <ele>430</ele>
        <time>2015-05-10T10:53:44Z</time>
      </trkpt>
      <trkpt lat="50.25746" lon="5.77794">
        <ele>430</ele>
        <time>2015-05-10T10:53:49Z</time>
      </trkpt>
      <trkpt lat="50.25742" lon="5.77794">
        <ele>430</ele>
        <time>2015-05-10T10:53:54Z</time>
      </trkpt>
      <trkpt lat="50.25737" lon="5.77792">
        <ele>430</ele>
        <time>2015-05-10T10:53:59Z</time>
      </trkpt>
      <trkpt lat="50.25732" lon="5.77791">
        <ele>430</ele>
        <time>2015-05-10T10:54:05Z</time>
      </trkpt>
      <trkpt lat="50.25725" lon="5.77789">
        <ele>430</ele>
        <time>2015-05-10T10:54:11Z</time>
      </trkpt>
      <trkpt lat="50.25719" lon="5.77787">
        <ele>431</ele>
        <time>2015-05-10T10:54:17Z</time>
      </trkpt>
      <trkpt lat="50.25713" lon="5.77786">
        <ele>431</ele>
        <time>2015-05-10T10:54:22Z</time>
      </trkpt>
      <trkpt lat="50.25708" lon="5.77784">
        <ele>432</ele>
        <time>2015-05-10T10:54:27Z</time>
      </trkpt>
      <trkpt lat="50.25703" lon="5.77782">
        <ele>432</ele>
        <time>2015-05-10T10:54:32Z</time>
      </trkpt>
      <trkpt lat="50.25698" lon="5.77781">
        <ele>433</ele>
        <time>2015-05-10T10:54:38Z</time>
      </trkpt>
      <trkpt lat="50.25692" lon="5.7778">
        <ele>433</ele>
        <time>2015-05-10T10:54:44Z</time>
      </trkpt>
      <trkpt lat="50.25689" lon="5.7778">
        <ele>433</ele>
        <time>2015-05-10T10:54:49Z</time>
      </trkpt>
      <trkpt lat="50.25686" lon="5.77779">
        <ele>433</ele>
        <time>2015-05-10T10:54:55Z</time>
      </trkpt>
      <trkpt lat="50.25685" lon="5.77779">
        <ele>433</ele>
        <time>2015-05-10T10:55:01Z</time>
      </trkpt>
      <trkpt lat="50.25684" lon="5.77779">
        <ele>433</ele>
        <time>2015-05-10T10:55:06Z</time>
      </trkpt>
      <trkpt lat="50.25682" lon="5.77779">
        <ele>433</ele>
        <time>2015-05-10T10:55:12Z</time>
      </trkpt>
      <trkpt lat="50.25681" lon="5.7778">
        <ele>432</ele>
        <time>2015-05-10T10:55:18Z</time>
      </trkpt>
      <trkpt lat="50.25681" lon="5.77779">
        <ele>433</ele>
        <time>2015-05-10T10:55:24Z</time>
      </trkpt>
      <trkpt lat="50.2568" lon="5.77779">
        <ele>433</ele>
        <time>2015-05-10T10:55:29Z</time>
      </trkpt>
      <trkpt lat="50.2568" lon="5.77779">
        <ele>433</ele>
        <time>2015-05-10T10:55:34Z</time>
      </trkpt>
      <trkpt lat="50.25679" lon="5.77779">
        <ele>433</ele>
        <time>2015-05-10T10:55:39Z</time>
      </trkpt>
      <trkpt lat="50.2568" lon="5.77778">
        <ele>433</ele>
        <time>2015-05-10T10:55:45Z</time>
      </trkpt>
      <trkpt lat="50.2568" lon="5.77778">
        <ele>433</ele>
        <time>2015-05-10T10:55:50Z</time>
      </trkpt>
      <trkpt lat="50.2568" lon="5.77778">
        <ele>433</ele>
        <time>2015-05-10T10:55:56Z</time>
      </trkpt>
      <trkpt lat="50.2568" lon="5.77777">
        <ele>433</ele>
        <time>2015-05-10T10:56:01Z</time>
      </trkpt>
      <trkpt lat="50.25681" lon="5.77776">
        <ele>433</ele>
        <time>2015-05-10T10:56:06Z</time>
      </trkpt>
      <trkpt lat="50.2568" lon="5.77775">
        <ele>433</ele>
        <time>2015-05-10T10:56:11Z</time>
      </trkpt>
      <trkpt lat="50.25677" lon="5.77775">
        <ele>434</ele>
        <time>2015-05-10T10:56:17Z</time>
      </trkpt>
      <trkpt lat="50.25674" lon="5.77774">
        <ele>433</ele>
        <time>2015-05-10T10:56:22Z</time>
      </trkpt>
      <trkpt lat="50.25671" lon="5.77773">
        <ele>434</ele>
        <time>2015-05-10T10:56:28Z</time>
      </trkpt>
      <trkpt lat="50.25666" lon="5.77773">
        <ele>434</ele>
        <time>2015-05-10T10:56:34Z</time>
      </trkpt>
      <trkpt lat="50.25661" lon="5.77773">
        <ele>435</ele>
        <time>2015-05-10T10:56:40Z</time>
      </trkpt>
      <trkpt lat="50.25657" lon="5.77772">
        <ele>435</ele>
        <time>2015-05-10T10:56:45Z</time>
      </trkpt>
      <trkpt lat="50.25653" lon="5.77771">
        <ele>435</ele>
        <time>2015-05-10T10:56:51Z</time>
      </trkpt>
      <trkpt lat="50.25648" lon="5.7777">
        <ele>436</ele>
        <time>2015-05-10T10:56:56Z</time>
      </trkpt>
      <trkpt lat="50.25643" lon="5.77769">
        <ele>436</ele>
        <time>2015-05-10T10:57:01Z</time>
      </trkpt>
      <trkpt lat="50.25638" lon="5.77769">
        <ele>437</ele>
        <time>2015-05-10T10:57:07Z</time>
      </trkpt>
      <trkpt lat="50.25631" lon="5.77769">
        <ele>437</ele>
        <time>2015-05-10T10:57:13Z</time>
      </trkpt>
      <trkpt lat="50.25625" lon="5.77768">
        <ele>437</ele>
        <time>2015-05-10T10:57:18Z</time>
      </trkpt>
      <trkpt lat="50.25617" lon="5.77768">
        <ele>438</ele>
        <time>2015-05-10T10:57:24Z</time>
      </trkpt>
      <trkpt lat="50.2561" lon="5.77767">
        <ele>439</ele>
        <time>2015-05-10T10:57:30Z</time>
      </trkpt>
      <trkpt lat="50.25605" lon="5.77768">
        <ele>439</ele>
        <time>2015-05-10T10:57:35Z</time>
      </trkpt>
      <trkpt lat="50.25599" lon="5.7777">
        <ele>440</ele>
        <time>2015-05-10T10:57:41Z</time>
      </trkpt>
      <trkpt lat="50.25594" lon="5.7777">
        <ele>440</ele>
        <time>2015-05-10T10:57:46Z</time>
      </trkpt>
      <trkpt lat="50.25591" lon="5.77771">
        <ele>440</ele>
        <time>2015-05-10T10:57:52Z</time>
      </trkpt>
      <trkpt lat="50.25589" lon="5.77771">
        <ele>440</ele>
        <time>2015-05-10T10:57:58Z</time>
      </trkpt>
      <trkpt lat="50.25588" lon="5.7777">
        <ele>440</ele>
        <time>2015-05-10T10:58:06Z</time>
      </trkpt>
      <trkpt lat="50.25587" lon="5.77769">
        <ele>439</ele>
        <time>2015-05-10T10:58:12Z</time>
      </trkpt>
      <trkpt lat="50.25588" lon="5.77769">
        <ele>440</ele>
        <time>2015-05-10T10:58:18Z</time>
      </trkpt>
      <trkpt lat="50.25588" lon="5.77769">
        <ele>440</ele>
        <time>2015-05-10T10:58:23Z</time>
      </trkpt>
      <trkpt lat="50.25588" lon="5.77769">
        <ele>439</ele>
        <time>2015-05-10T10:58:28Z</time>
      </trkpt>
      <trkpt lat="50.25587" lon="5.77768">
        <ele>439</ele>
        <time>2015-05-10T10:58:34Z</time>
      </trkpt>
      <trkpt lat="50.25586" lon="5.77769">
        <ele>440</ele>
        <time>2015-05-10T10:58:39Z</time>
      </trkpt>
      <trkpt lat="50.25583" lon="5.77769">
        <ele>440</ele>
        <time>2015-05-10T10:58:44Z</time>
      </trkpt>
      <trkpt lat="50.25579" lon="5.77768">
        <ele>440</ele>
        <time>2015-05-10T10:58:50Z</time>
      </trkpt>
      <trkpt lat="50.25576" lon="5.77767">
        <ele>440</ele>
        <time>2015-05-10T10:58:55Z</time>
      </trkpt>
      <trkpt lat="50.25571" lon="5.77765">
        <ele>440</ele>
        <time>2015-05-10T10:59:01Z</time>
      </trkpt>
      <trkpt lat="50.25567" lon="5.77765">
        <ele>441</ele>
        <time>2015-05-10T10:59:07Z</time>
      </trkpt>
      <trkpt lat="50.25563" lon="5.77765">
        <ele>441</ele>
        <time>2015-05-10T10:59:12Z</time>
      </trkpt>
      <trkpt lat="50.25558" lon="5.77764">
        <ele>441</ele>
        <time>2015-05-10T10:59:18Z</time>
      </trkpt>
      <trkpt lat="50.25551" lon="5.77762">
        <ele>442</ele>
        <time>2015-05-10T10:59:23Z</time>
      </trkpt>
      <trkpt lat="50.25546" lon="5.77762">
        <ele>442</ele>
        <time>2015-05-10T10:59:28Z</time>
      </trkpt>
      <trkpt lat="50.2554" lon="5.7776">
        <ele>442</ele>
        <time>2015-05-10T10:59:34Z</time>
      </trkpt>
      <trkpt lat="50.25534" lon="5.77758">
        <ele>443</ele>
        <time>2015-05-10T10:59:39Z</time>
      </trkpt>
      <trkpt lat="50.25528" lon="5.77755">
        <ele>443</ele>
        <time>2015-05-10T10:59:44Z</time>
      </trkpt>
      <trkpt lat="50.25521" lon="5.77752">
        <ele>444</ele>
        <time>2015-05-10T10:59:50Z</time>
      </trkpt>
      <trkpt lat="50.25514" lon="5.77748">
        <ele>444</ele>
        <time>2015-05-10T10:59:56Z</time>
      </trkpt>
      <trkpt lat="50.25508" lon="5.77744">
        <ele>445</ele>
        <time>2015-05-10T11:00:02Z</time>
      </trkpt>
      <trkpt lat="50.25503" lon="5.77741">
        <ele>445</ele>
        <time>2015-05-10T11:00:07Z</time>
      </trkpt>
      <trkpt lat="50.25497" lon="5.77736">
        <ele>445</ele>
        <time>2015-05-10T11:00:13Z</time>
      </trkpt>
      <trkpt lat="50.25491" lon="5.77731">
        <ele>446</ele>
        <time>2015-05-10T11:00:19Z</time>
      </trkpt>
      <trkpt lat="50.25487" lon="5.77726">
        <ele>446</ele>
        <time>2015-05-10T11:00:25Z</time>
      </trkpt>
      <trkpt lat="50.25482" lon="5.77723">
        <ele>447</ele>
        <time>2015-05-10T11:00:30Z</time>
      </trkpt>
      <trkpt lat="50.25478" lon="5.77718">
        <ele>447</ele>
        <time>2015-05-10T11:00:35Z</time>
      </trkpt>
      <trkpt lat="50.25472" lon="5.77713">
        <ele>447</ele>
        <time>2015-05-10T11:00:41Z</time>
      </trkpt>
      <trkpt lat="50.25467" lon="5.77707">
        <ele>447</ele>
        <time>2015-05-10T11:00:47Z</time>
      </trkpt>
      <trkpt lat="50.25462" lon="5.77703">
        <ele>448</ele>
        <time>2015-05-10T11:00:53Z</time>
      </trkpt>
      <trkpt lat="50.25457" lon="5.77698">
        <ele>449</ele>
        <time>2015-05-10T11:00:59Z</time>
      </trkpt>
      <trkpt lat="50.25453" lon="5.77694">
        <ele>449</ele>
        <time>2015-05-10T11:01:04Z</time>
      </trkpt>
      <trkpt lat="50.25448" lon="5.7769">
        <ele>449</ele>
        <time>2015-05-10T11:01:10Z</time>
      </trkpt>
      <trkpt lat="50.25444" lon="5.77687">
        <ele>450</ele>
        <time>2015-05-10T11:01:15Z</time>
      </trkpt>
      <trkpt lat="50.2544" lon="5.77683">
        <ele>450</ele>
        <time>2015-05-10T11:01:20Z</time>
      </trkpt>
      <trkpt lat="50.25435" lon="5.7768">
        <ele>451</ele>
        <time>2015-05-10T11:01:25Z</time>
      </trkpt>
      <trkpt lat="50.2543" lon="5.77677">
        <ele>451</ele>
        <time>2015-05-10T11:01:31Z</time>
      </trkpt>
      <trkpt lat="50.25426" lon="5.77675">
        <ele>451</ele>
        <time>2015-05-10T11:01:36Z</time>
      </trkpt>
      <trkpt lat="50.25422" lon="5.77673">
        <ele>452</ele>
        <time>2015-05-10T11:01:42Z</time>
      </trkpt>
      <trkpt lat="50.25418" lon="5.77672">
        <ele>452</ele>
        <time>2015-05-10T11:01:48Z</time>
      </trkpt>
      <trkpt lat="50.25415" lon="5.77671">
        <ele>452</ele>
        <time>2015-05-10T11:01:54Z</time>
      </trkpt>
      <trkpt lat="50.25409" lon="5.7767">
        <ele>453</ele>
        <time>2015-05-10T11:01:59Z</time>
      </trkpt>
      <trkpt lat="50.25406" lon="5.7767">
        <ele>454</ele>
        <time>2015-05-10T11:02:05Z</time>
      </trkpt>
      <trkpt lat="50.25401" lon="5.7767">
        <ele>454</ele>
        <time>2015-05-10T11:02:10Z</time>
      </trkpt>
      <trkpt lat="50.25394" lon="5.77668">
        <ele>454</ele>
        <time>2015-05-10T11:02:16Z</time>
      </trkpt>
      <trkpt lat="50.2539" lon="5.77668">
        <ele>454</ele>
        <time>2015-05-10T11:02:21Z</time>
      </trkpt>
      <trkpt lat="50.25385" lon="5.77667">
        <ele>455</ele>
        <time>2015-05-10T11:02:26Z</time>
      </trkpt>
      <trkpt lat="50.2538" lon="5.77666">
        <ele>455</ele>
        <time>2015-05-10T11:02:31Z</time>
      </trkpt>
      <trkpt lat="50.25374" lon="5.77665">
        <ele>456</ele>
        <time>2015-05-10T11:02:37Z</time>
      </trkpt>
      <trkpt lat="50.25369" lon="5.77663">
        <ele>456</ele>
        <time>2015-05-10T11:02:42Z</time>
      </trkpt>
      <trkpt lat="50.25364" lon="5.7766">
        <ele>456</ele>
        <time>2015-05-10T11:02:48Z</time>
      </trkpt>
      <trkpt lat="50.25359" lon="5.77659">
        <ele>456</ele>
        <time>2015-05-10T11:02:53Z</time>
      </trkpt>
      <trkpt lat="50.25355" lon="5.77657">
        <ele>457</ele>
        <time>2015-05-10T11:02:58Z</time>
      </trkpt>
      <trkpt lat="50.2535" lon="5.77656">
        <ele>457</ele>
        <time>2015-05-10T11:03:04Z</time>
      </trkpt>
      <trkpt lat="50.25349" lon="5.77654">
        <ele>458</ele>
        <time>2015-05-10T11:03:09Z</time>
      </trkpt>
      <trkpt lat="50.25349" lon="5.77655">
        <ele>458</ele>
        <time>2015-05-10T11:03:15Z</time>
      </trkpt>
      <trkpt lat="50.25348" lon="5.77654">
        <ele>458</ele>
        <time>2015-05-10T11:03:20Z</time>
      </trkpt>
      <trkpt lat="50.25348" lon="5.77653">
        <ele>458</ele>
        <time>2015-05-10T11:03:26Z</time>
      </trkpt>
      <trkpt lat="50.25348" lon="5.77654">
        <ele>458</ele>
        <time>2015-05-10T11:03:31Z</time>
      </trkpt>
      <trkpt lat="50.25347" lon="5.77654">
        <ele>458</ele>
        <time>2015-05-10T11:03:36Z</time>
      </trkpt>
      <trkpt lat="50.25347" lon="5.77655">
        <ele>458</ele>
        <time>2015-05-10T11:03:43Z</time>
      </trkpt>
      <trkpt lat="50.25346" lon="5.77655">
        <ele>458</ele>
        <time>2015-05-10T11:03:48Z</time>
      </trkpt>
      <trkpt lat="50.25345" lon="5.77654">
        <ele>458</ele>
        <time>2015-05-10T11:03:53Z</time>
      </trkpt>
      <trkpt lat="50.25345" lon="5.77654">
        <ele>458</ele>
        <time>2015-05-10T11:04:02Z</time>
      </trkpt>
      <trkpt lat="50.25344" lon="5.77652">
        <ele>458</ele>
        <time>2015-05-10T11:04:07Z</time>
      </trkpt>
      <trkpt lat="50.25343" lon="5.7765">
        <ele>458</ele>
        <time>2015-05-10T11:04:12Z</time>
      </trkpt>
      <trkpt lat="50.25341" lon="5.77649">
        <ele>458</ele>
        <time>2015-05-10T11:04:18Z</time>
      </trkpt>
      <trkpt lat="50.2534" lon="5.77649">
        <ele>458</ele>
        <time>2015-05-10T11:04:23Z</time>
      </trkpt>
      <trkpt lat="50.2534" lon="5.77649">
        <ele>459</ele>
        <time>2015-05-10T11:04:29Z</time>
      </trkpt>
      <trkpt lat="50.2534" lon="5.7765">
        <ele>459</ele>
        <time>2015-05-10T11:04:34Z</time>
      </trkpt>
      <trkpt lat="50.25337" lon="5.7765">
        <ele>459</ele>
        <time>2015-05-10T11:04:39Z</time>
      </trkpt>
      <trkpt lat="50.25332" lon="5.77649">
        <ele>459</ele>
        <time>2015-05-10T11:04:45Z</time>
      </trkpt>
      <trkpt lat="50.25329" lon="5.77653">
        <ele>459</ele>
        <time>2015-05-10T11:04:51Z</time>
      </trkpt>
      <trkpt lat="50.25326" lon="5.77661">
        <ele>459</ele>
        <time>2015-05-10T11:04:57Z</time>
      </trkpt>
      <trkpt lat="50.25325" lon="5.77667">
        <ele>459</ele>
        <time>2015-05-10T11:05:02Z</time>
      </trkpt>
      <trkpt lat="50.25322" lon="5.77676">
        <ele>459</ele>
        <time>2015-05-10T11:05:08Z</time>
      </trkpt>
      <trkpt lat="50.25319" lon="5.77681">
        <ele>460</ele>
        <time>2015-05-10T11:05:13Z</time>
      </trkpt>
      <trkpt lat="50.25316" lon="5.77689">
        <ele>460</ele>
        <time>2015-05-10T11:05:19Z</time>
      </trkpt>
      <trkpt lat="50.25312" lon="5.77696">
        <ele>460</ele>
        <time>2015-05-10T11:05:25Z</time>
      </trkpt>
      <trkpt lat="50.25309" lon="5.77703">
        <ele>460</ele>
        <time>2015-05-10T11:05:30Z</time>
      </trkpt>
      <trkpt lat="50.25306" lon="5.77709">
        <ele>460</ele>
        <time>2015-05-10T11:05:35Z</time>
      </trkpt>
      <trkpt lat="50.25304" lon="5.77716">
        <ele>460</ele>
        <time>2015-05-10T11:05:40Z</time>
      </trkpt>
      <trkpt lat="50.25301" lon="5.77724">
        <ele>461</ele>
        <time>2015-05-10T11:05:45Z</time>
      </trkpt>
      <trkpt lat="50.25298" lon="5.77734">
        <ele>461</ele>
        <time>2015-05-10T11:05:51Z</time>
      </trkpt>
      <trkpt lat="50.25295" lon="5.77742">
        <ele>461</ele>
        <time>2015-05-10T11:05:56Z</time>
      </trkpt>
      <trkpt lat="50.25293" lon="5.77751">
        <ele>461</ele>
        <time>2015-05-10T11:06:02Z</time>
      </trkpt>
      <trkpt lat="50.25291" lon="5.77757">
        <ele>461</ele>
        <time>2015-05-10T11:06:07Z</time>
      </trkpt>
      <trkpt lat="50.25288" lon="5.77765">
        <ele>461</ele>
        <time>2015-05-10T11:06:12Z</time>
      </trkpt>
      <trkpt lat="50.25286" lon="5.77772">
        <ele>462</ele>
        <time>2015-05-10T11:06:17Z</time>
      </trkpt>
      <trkpt lat="50.25284" lon="5.77781">
        <ele>462</ele>
        <time>2015-05-10T11:06:23Z</time>
      </trkpt>
      <trkpt lat="50.25282" lon="5.77789">
        <ele>462</ele>
        <time>2015-05-10T11:06:29Z</time>
      </trkpt>
      <trkpt lat="50.25281" lon="5.77798">
        <ele>462</ele>
        <time>2015-05-10T11:06:34Z</time>
      </trkpt>
      <trkpt lat="50.25279" lon="5.77808">
        <ele>462</ele>
        <time>2015-05-10T11:06:39Z</time>
      </trkpt>
      <trkpt lat="50.25276" lon="5.77817">
        <ele>462</ele>
        <time>2015-05-10T11:06:45Z</time>
      </trkpt>
      <trkpt lat="50.25273" lon="5.77823">
        <ele>462</ele>
        <time>2015-05-10T11:06:50Z</time>
      </trkpt>
      <trkpt lat="50.25268" lon="5.77831">
        <ele>462</ele>
        <time>2015-05-10T11:06:56Z</time>
      </trkpt>
      <trkpt lat="50.25263" lon="5.77839">
        <ele>462</ele>
        <time>2015-05-10T11:07:02Z</time>
      </trkpt>
      <trkpt lat="50.25259" lon="5.77845">
        <ele>462</ele>
        <time>2015-05-10T11:07:08Z</time>
      </trkpt>
      <trkpt lat="50.25255" lon="5.77851">
        <ele>462</ele>
        <time>2015-05-10T11:07:13Z</time>
      </trkpt>
      <trkpt lat="50.25253" lon="5.77855">
        <ele>463</ele>
        <time>2015-05-10T11:07:19Z</time>
      </trkpt>
      <trkpt lat="50.2525" lon="5.7786">
        <ele>463</ele>
        <time>2015-05-10T11:07:24Z</time>
      </trkpt>
      <trkpt lat="50.25246" lon="5.77864">
        <ele>463</ele>
        <time>2015-05-10T11:07:29Z</time>
      </trkpt>
      <trkpt lat="50.25242" lon="5.77868">
        <ele>463</ele>
        <time>2015-05-10T11:07:35Z</time>
      </trkpt>
      <trkpt lat="50.2524" lon="5.77873">
        <ele>464</ele>
        <time>2015-05-10T11:07:40Z</time>
      </trkpt>
      <trkpt lat="50.25237" lon="5.77877">
        <ele>464</ele>
        <time>2015-05-10T11:07:45Z</time>
      </trkpt>
      <trkpt lat="50.25235" lon="5.7788">
        <ele>464</ele>
        <time>2015-05-10T11:07:50Z</time>
      </trkpt>
      <trkpt lat="50.25235" lon="5.77881">
        <ele>464</ele>
        <time>2015-05-10T11:07:56Z</time>
      </trkpt>
      <trkpt lat="50.25234" lon="5.77882">
        <ele>464</ele>
        <time>2015-05-10T11:08:01Z</time>
      </trkpt>
      <trkpt lat="50.25233" lon="5.77883">
        <ele>464</ele>
        <time>2015-05-10T11:08:06Z</time>
      </trkpt>
      <trkpt lat="50.25232" lon="5.77884">
        <ele>464</ele>
        <time>2015-05-10T11:08:11Z</time>
      </trkpt>
      <trkpt lat="50.25232" lon="5.77885">
        <ele>464</ele>
        <time>2015-05-10T11:08:17Z</time>
      </trkpt>
      <trkpt lat="50.2523" lon="5.77888">
        <ele>464</ele>
        <time>2015-05-10T11:08:24Z</time>
      </trkpt>
      <trkpt lat="50.2523" lon="5.77888">
        <ele>464</ele>
        <time>2015-05-10T11:08:30Z</time>
      </trkpt>
      <trkpt lat="50.25229" lon="5.77889">
        <ele>464</ele>
        <time>2015-05-10T11:08:35Z</time>
      </trkpt>
      <trkpt lat="50.25229" lon="5.77888">
        <ele>464</ele>
        <time>2015-05-10T11:08:41Z</time>
      </trkpt>
      <trkpt lat="50.25229" lon="5.77888">
        <ele>464</ele>
        <time>2015-05-10T11:08:47Z</time>
      </trkpt>
      <trkpt lat="50.25227" lon="5.77891">
        <ele>464</ele>
        <time>2015-05-10T11:08:52Z</time>
      </trkpt>
      <trkpt lat="50.25223" lon="5.77892">
        <ele>464</ele>
        <time>2015-05-10T11:08:57Z</time>
      </trkpt>
      <trkpt lat="50.2522" lon="5.77895">
        <ele>464</ele>
        <time>2015-05-10T11:09:02Z</time>
      </trkpt>
      <trkpt lat="50.25217" lon="5.779">
        <ele>465</ele>
        <time>2015-05-10T11:09:08Z</time>
      </trkpt>
      <trkpt lat="50.25214" lon="5.77904">
        <ele>464</ele>
        <time>2015-05-10T11:09:13Z</time>
      </trkpt>
      <trkpt lat="50.2521" lon="5.7791">
        <ele>465</ele>
        <time>2015-05-10T11:09:19Z</time>
      </trkpt>
      <trkpt lat="50.25207" lon="5.77915">
        <ele>465</ele>
        <time>2015-05-10T11:09:24Z</time>
      </trkpt>
      <trkpt lat="50.25203" lon="5.7792">
        <ele>465</ele>
        <time>2015-05-10T11:09:29Z</time>
      </trkpt>
      <trkpt lat="50.25199" lon="5.77927">
        <ele>465</ele>
        <time>2015-05-10T11:09:35Z</time>
      </trkpt>
      <trkpt lat="50.25195" lon="5.77933">
        <ele>465</ele>
        <time>2015-05-10T11:09:40Z</time>
      </trkpt>
      <trkpt lat="50.25194" lon="5.77937">
        <ele>465</ele>
        <time>2015-05-10T11:09:45Z</time>
      </trkpt>
      <trkpt lat="50.25193" lon="5.77939">
        <ele>466</ele>
        <time>2015-05-10T11:09:52Z</time>
      </trkpt>
      <trkpt lat="50.25193" lon="5.7794">
        <ele>465</ele>
        <time>2015-05-10T11:09:57Z</time>
      </trkpt>
      <trkpt lat="50.25192" lon="5.77941">
        <ele>465</ele>
        <time>2015-05-10T11:10:02Z</time>
      </trkpt>
      <trkpt lat="50.25193" lon="5.77943">
        <ele>466</ele>
        <time>2015-05-10T11:10:08Z</time>
      </trkpt>
      <trkpt lat="50.25193" lon="5.77944">
        <ele>466</ele>
        <time>2015-05-10T11:10:13Z</time>
      </trkpt>
      <trkpt lat="50.25193" lon="5.77944">
        <ele>465</ele>
        <time>2015-05-10T11:10:18Z</time>
      </trkpt>
      <trkpt lat="50.25193" lon="5.77947">
        <ele>465</ele>
        <time>2015-05-10T11:10:24Z</time>
      </trkpt>
      <trkpt lat="50.25191" lon="5.77951">
        <ele>465</ele>
        <time>2015-05-10T11:10:30Z</time>
      </trkpt>
      <trkpt lat="50.25189" lon="5.77958">
        <ele>465</ele>
        <time>2015-05-10T11:10:35Z</time>
      </trkpt>
      <trkpt lat="50.25184" lon="5.77965">
        <ele>466</ele>
        <time>2015-05-10T11:10:41Z</time>
      </trkpt>
      <trkpt lat="50.25181" lon="5.77971">
        <ele>466</ele>
        <time>2015-05-10T11:10:46Z</time>
      </trkpt>
      <trkpt lat="50.25177" lon="5.77979">
        <ele>467</ele>
        <time>2015-05-10T11:10:52Z</time>
      </trkpt>
      <trkpt lat="50.25174" lon="5.77987">
        <ele>466</ele>
        <time>2015-05-10T11:10:58Z</time>
      </trkpt>
      <trkpt lat="50.25171" lon="5.77994">
        <ele>466</ele>
        <time>2015-05-10T11:11:03Z</time>
      </trkpt>
      <trkpt lat="50.25168" lon="5.78002">
        <ele>467</ele>
        <time>2015-05-10T11:11:09Z</time>
      </trkpt>
      <trkpt lat="50.25164" lon="5.78011">
        <ele>467</ele>
        <time>2015-05-10T11:11:15Z</time>
      </trkpt>
      <trkpt lat="50.25161" lon="5.78019">
        <ele>467</ele>
        <time>2015-05-10T11:11:20Z</time>
      </trkpt>
      <trkpt lat="50.25158" lon="5.78029">
        <ele>467</ele>
        <time>2015-05-10T11:11:26Z</time>
      </trkpt>
      <trkpt lat="50.25156" lon="5.78038">
        <ele>468</ele>
        <time>2015-05-10T11:11:32Z</time>
      </trkpt>
      <trkpt lat="50.25153" lon="5.78046">
        <ele>468</ele>
        <time>2015-05-10T11:11:37Z</time>
      </trkpt>
      <trkpt lat="50.25151" lon="5.78055">
        <ele>468</ele>
        <time>2015-05-10T11:11:43Z</time>
      </trkpt>
      <trkpt lat="50.25148" lon="5.78062">
        <ele>468</ele>
        <time>2015-05-10T11:11:49Z</time>
      </trkpt>
      <trkpt lat="50.25143" lon="5.78061">
        <ele>468</ele>
        <time>2015-05-10T11:11:54Z</time>
      </trkpt>
      <trkpt lat="50.25143" lon="5.78061">
        <ele>468</ele>
        <time>2015-05-10T11:12:00Z</time>
      </trkpt>
      <trkpt lat="50.25143" lon="5.78064">
        <ele>468</ele>
        <time>2015-05-10T11:12:06Z</time>
      </trkpt>
      <trkpt lat="50.25144" lon="5.78061">
        <ele>468</ele>
        <time>2015-05-10T11:12:11Z</time>
      </trkpt>
      <trkpt lat="50.25143" lon="5.78052">
        <ele>468</ele>
        <time>2015-05-10T11:12:16Z</time>
      </trkpt>
      <trkpt lat="50.2514" lon="5.78043">
        <ele>468</ele>
        <time>2015-05-10T11:12:22Z</time>
      </trkpt>
      <trkpt lat="50.25137" lon="5.7804">
        <ele>468</ele>
        <time>2015-05-10T11:12:27Z</time>
      </trkpt>
      <trkpt lat="50.25137" lon="5.78033">
        <ele>469</ele>
        <time>2015-05-10T11:12:32Z</time>
      </trkpt>
      <trkpt lat="50.25137" lon="5.78023">
        <ele>469</ele>
        <time>2015-05-10T11:12:38Z</time>
      </trkpt>
      <trkpt lat="50.25131" lon="5.78007">
        <ele>468</ele>
        <time>2015-05-10T11:12:44Z</time>
      </trkpt>
      <trkpt lat="50.25124" lon="5.77996">
        <ele>469</ele>
        <time>2015-05-10T11:12:50Z</time>
      </trkpt>
      <trkpt lat="50.2512" lon="5.77989">
        <ele>469</ele>
        <time>2015-05-10T11:12:56Z</time>
      </trkpt>
      <trkpt lat="50.25118" lon="5.77982">
        <ele>470</ele>
        <time>2015-05-10T11:13:02Z</time>
      </trkpt>
      <trkpt lat="50.25118" lon="5.77974">
        <ele>469</ele>
        <time>2015-05-10T11:13:07Z</time>
      </trkpt>
      <trkpt lat="50.25117" lon="5.77965">
        <ele>469</ele>
        <time>2015-05-10T11:13:12Z</time>
      </trkpt>
      <trkpt lat="50.25114" lon="5.77956">
        <ele>470</ele>
        <time>2015-05-10T11:13:18Z</time>
      </trkpt>
      <trkpt lat="50.25112" lon="5.77946">
        <ele>470</ele>
        <time>2015-05-10T11:13:24Z</time>
      </trkpt>
      <trkpt lat="50.25111" lon="5.77936">
        <ele>471</ele>
        <time>2015-05-10T11:13:30Z</time>
      </trkpt>
      <trkpt lat="50.25108" lon="5.77927">
        <ele>471</ele>
        <time>2015-05-10T11:13:36Z</time>
      </trkpt>
      <trkpt lat="50.25106" lon="5.7792">
        <ele>472</ele>
        <time>2015-05-10T11:13:41Z</time>
      </trkpt>
      <trkpt lat="50.25105" lon="5.77914">
        <ele>472</ele>
        <time>2015-05-10T11:13:46Z</time>
      </trkpt>
      <trkpt lat="50.25104" lon="5.77906">
        <ele>472</ele>
        <time>2015-05-10T11:13:51Z</time>
      </trkpt>
      <trkpt lat="50.25101" lon="5.77898">
        <ele>473</ele>
        <time>2015-05-10T11:13:57Z</time>
      </trkpt>
      <trkpt lat="50.25101" lon="5.77891">
        <ele>473</ele>
        <time>2015-05-10T11:14:02Z</time>
      </trkpt>
      <trkpt lat="50.25099" lon="5.77885">
        <ele>474</ele>
        <time>2015-05-10T11:14:08Z</time>
      </trkpt>
      <trkpt lat="50.25099" lon="5.77883">
        <ele>474</ele>
        <time>2015-05-10T11:14:14Z</time>
      </trkpt>
      <trkpt lat="50.25098" lon="5.77879">
        <ele>474</ele>
        <time>2015-05-10T11:14:20Z</time>
      </trkpt>
      <trkpt lat="50.25096" lon="5.77874">
        <ele>474</ele>
        <time>2015-05-10T11:14:25Z</time>
      </trkpt>
      <trkpt lat="50.25095" lon="5.77868">
        <ele>475</ele>
        <time>2015-05-10T11:14:30Z</time>
      </trkpt>
      <trkpt lat="50.25093" lon="5.77864">
        <ele>475</ele>
        <time>2015-05-10T11:14:35Z</time>
      </trkpt>
      <trkpt lat="50.25092" lon="5.77857">
        <ele>476</ele>
        <time>2015-05-10T11:14:41Z</time>
      </trkpt>
      <trkpt lat="50.25091" lon="5.77851">
        <ele>476</ele>
        <time>2015-05-10T11:14:46Z</time>
      </trkpt>
      <trkpt lat="50.2509" lon="5.77845">
        <ele>476</ele>
        <time>2015-05-10T11:14:51Z</time>
      </trkpt>
      <trkpt lat="50.25089" lon="5.77838">
        <ele>475</ele>
        <time>2015-05-10T11:14:56Z</time>
      </trkpt>
      <trkpt lat="50.25086" lon="5.77831">
        <ele>476</ele>
        <time>2015-05-10T11:15:02Z</time>
      </trkpt>
      <trkpt lat="50.25083" lon="5.77826">
        <ele>476</ele>
        <time>2015-05-10T11:15:07Z</time>
      </trkpt>
      <trkpt lat="50.25081" lon="5.77818">
        <ele>476</ele>
        <time>2015-05-10T11:15:13Z</time>
      </trkpt>
      <trkpt lat="50.25078" lon="5.77811">
        <ele>476</ele>
        <time>2015-05-10T11:15:19Z</time>
      </trkpt>
      <trkpt lat="50.25075" lon="5.77803">
        <ele>476</ele>
        <time>2015-05-10T11:15:25Z</time>
      </trkpt>
      <trkpt lat="50.25072" lon="5.77795">
        <ele>477</ele>
        <time>2015-05-10T11:15:31Z</time>
      </trkpt>
      <trkpt lat="50.2507" lon="5.77789">
        <ele>476</ele>
        <time>2015-05-10T11:15:37Z</time>
      </trkpt>
      <trkpt lat="50.25065" lon="5.7778">
        <ele>477</ele>
        <time>2015-05-10T11:15:43Z</time>
      </trkpt>
      <trkpt lat="50.25063" lon="5.77771">
        <ele>477</ele>
        <time>2015-05-10T11:15:48Z</time>
      </trkpt>
      <trkpt lat="50.25062" lon="5.77758">
        <ele>476</ele>
        <time>2015-05-10T11:15:54Z</time>
      </trkpt>
      <trkpt lat="50.25063" lon="5.77749">
        <ele>476</ele>
        <time>2015-05-10T11:15:59Z</time>
      </trkpt>
      <trkpt lat="50.25064" lon="5.77738">
        <ele>476</ele>
        <time>2015-05-10T11:16:05Z</time>
      </trkpt>
      <trkpt lat="50.25066" lon="5.77731">
        <ele>476</ele>
        <time>2015-05-10T11:16:10Z</time>
      </trkpt>
      <trkpt lat="50.25067" lon="5.77721">
        <ele>477</ele>
        <time>2015-05-10T11:16:16Z</time>
      </trkpt>
      <trkpt lat="50.25069" lon="5.77714">
        <ele>476</ele>
        <time>2015-05-10T11:16:22Z</time>
      </trkpt>
      <trkpt lat="50.2507" lon="5.77707">
        <ele>477</ele>
        <time>2015-05-10T11:16:27Z</time>
      </trkpt>
      <trkpt lat="50.2507" lon="5.777">
        <ele>477</ele>
        <time>2015-05-10T11:16:33Z</time>
      </trkpt>
      <trkpt lat="50.25071" lon="5.77691">
        <ele>477</ele>
        <time>2015-05-10T11:16:38Z</time>
      </trkpt>
      <trkpt lat="50.25069" lon="5.77681">
        <ele>477</ele>
        <time>2015-05-10T11:16:43Z</time>
      </trkpt>
      <trkpt lat="50.25068" lon="5.77668">
        <ele>477</ele>
        <time>2015-05-10T11:16:49Z</time>
      </trkpt>
      <trkpt lat="50.25068" lon="5.77656">
        <ele>477</ele>
        <time>2015-05-10T11:16:54Z</time>
      </trkpt>
      <trkpt lat="50.25067" lon="5.77643">
        <ele>477</ele>
        <time>2015-05-10T11:17:00Z</time>
      </trkpt>
      <trkpt lat="50.25067" lon="5.77635">
        <ele>477</ele>
        <time>2015-05-10T11:17:05Z</time>
      </trkpt>
      <trkpt lat="50.25066" lon="5.77629">
        <ele>478</ele>
        <time>2015-05-10T11:17:11Z</time>
      </trkpt>
      <trkpt lat="50.25066" lon="5.7762">
        <ele>477</ele>
        <time>2015-05-10T11:17:17Z</time>
      </trkpt>
      <trkpt lat="50.25067" lon="5.77612">
        <ele>477</ele>
        <time>2015-05-10T11:17:22Z</time>
      </trkpt>
      <trkpt lat="50.25067" lon="5.77606">
        <ele>477</ele>
        <time>2015-05-10T11:17:27Z</time>
      </trkpt>
      <trkpt lat="50.25066" lon="5.77601">
        <ele>477</ele>
        <time>2015-05-10T11:17:32Z</time>
      </trkpt>
      <trkpt lat="50.25067" lon="5.77593">
        <ele>477</ele>
        <time>2015-05-10T11:17:38Z</time>
      </trkpt>
      <trkpt lat="50.25067" lon="5.7759">
        <ele>477</ele>
        <time>2015-05-10T11:17:43Z</time>
      </trkpt>
      <trkpt lat="50.25067" lon="5.77583">
        <ele>477</ele>
        <time>2015-05-10T11:17:49Z</time>
      </trkpt>
      <trkpt lat="50.25068" lon="5.77578">
        <ele>478</ele>
        <time>2015-05-10T11:17:54Z</time>
      </trkpt>
      <trkpt lat="50.25069" lon="5.7757">
        <ele>478</ele>
        <time>2015-05-10T11:17:59Z</time>
      </trkpt>
      <trkpt lat="50.25068" lon="5.77561">
        <ele>478</ele>
        <time>2015-05-10T11:18:04Z</time>
      </trkpt>
      <trkpt lat="50.25069" lon="5.7755">
        <ele>477</ele>
        <time>2015-05-10T11:18:10Z</time>
      </trkpt>
      <trkpt lat="50.25069" lon="5.77541">
        <ele>477</ele>
        <time>2015-05-10T11:18:15Z</time>
      </trkpt>
      <trkpt lat="50.25068" lon="5.77531">
        <ele>477</ele>
        <time>2015-05-10T11:18:21Z</time>
      </trkpt>
      <trkpt lat="50.25068" lon="5.77523">
        <ele>477</ele>
        <time>2015-05-10T11:18:26Z</time>
      </trkpt>
      <trkpt lat="50.25069" lon="5.77515">
        <ele>477</ele>
        <time>2015-05-10T11:18:31Z</time>
      </trkpt>
      <trkpt lat="50.25068" lon="5.77505">
        <ele>477</ele>
        <time>2015-05-10T11:18:37Z</time>
      </trkpt>
      <trkpt lat="50.2507" lon="5.77496">
        <ele>477</ele>
        <time>2015-05-10T11:18:43Z</time>
      </trkpt>
      <trkpt lat="50.2507" lon="5.77489">
        <ele>478</ele>
        <time>2015-05-10T11:18:48Z</time>
      </trkpt>
      <trkpt lat="50.25069" lon="5.77478">
        <ele>477</ele>
        <time>2015-05-10T11:18:54Z</time>
      </trkpt>
      <trkpt lat="50.25069" lon="5.77468">
        <ele>477</ele>
        <time>2015-05-10T11:19:00Z</time>
      </trkpt>
      <trkpt lat="50.25069" lon="5.7746">
        <ele>478</ele>
        <time>2015-05-10T11:19:05Z</time>
      </trkpt>
      <trkpt lat="50.25069" lon="5.77453">
        <ele>478</ele>
        <time>2015-05-10T11:19:10Z</time>
      </trkpt>
      <trkpt lat="50.25069" lon="5.77445">
        <ele>478</ele>
        <time>2015-05-10T11:19:16Z</time>
      </trkpt>
      <trkpt lat="50.25069" lon="5.77437">
        <ele>478</ele>
        <time>2015-05-10T11:19:21Z</time>
      </trkpt>
      <trkpt lat="50.25068" lon="5.77429">
        <ele>478</ele>
        <time>2015-05-10T11:19:26Z</time>
      </trkpt>
      <trkpt lat="50.25068" lon="5.7742">
        <ele>479</ele>
        <time>2015-05-10T11:19:31Z</time>
      </trkpt>
      <trkpt lat="50.25066" lon="5.77409">
        <ele>479</ele>
        <time>2015-05-10T11:19:37Z</time>
      </trkpt>
      <trkpt lat="50.25065" lon="5.77398">
        <ele>479</ele>
        <time>2015-05-10T11:19:43Z</time>
      </trkpt>
      <trkpt lat="50.25065" lon="5.7739">
        <ele>479</ele>
        <time>2015-05-10T11:19:48Z</time>
      </trkpt>
      <trkpt lat="50.25063" lon="5.7738">
        <ele>479</ele>
        <time>2015-05-10T11:19:54Z</time>
      </trkpt>
      <trkpt lat="50.25062" lon="5.7737">
        <ele>479</ele>
        <time>2015-05-10T11:19:59Z</time>
      </trkpt>
      <trkpt lat="50.25061" lon="5.77361">
        <ele>479</ele>
        <time>2015-05-10T11:20:05Z</time>
      </trkpt>
      <trkpt lat="50.2506" lon="5.7735">
        <ele>479</ele>
        <time>2015-05-10T11:20:11Z</time>
      </trkpt>
      <trkpt lat="50.25058" lon="5.77342">
        <ele>479</ele>
        <time>2015-05-10T11:20:16Z</time>
      </trkpt>
      <trkpt lat="50.25057" lon="5.77332">
        <ele>480</ele>
        <time>2015-05-10T11:20:22Z</time>
      </trkpt>
      <trkpt lat="50.25056" lon="5.77323">
        <ele>480</ele>
        <time>2015-05-10T11:20:28Z</time>
      </trkpt>
      <trkpt lat="50.25055" lon="5.77317">
        <ele>480</ele>
        <time>2015-05-10T11:20:33Z</time>
      </trkpt>
      <trkpt lat="50.25055" lon="5.77308">
        <ele>480</ele>
        <time>2015-05-10T11:20:39Z</time>
      </trkpt>
      <trkpt lat="50.25054" lon="5.77299">
        <ele>480</ele>
        <time>2015-05-10T11:20:44Z</time>
      </trkpt>
      <trkpt lat="50.25053" lon="5.7729">
        <ele>480</ele>
        <time>2015-05-10T11:20:50Z</time>
      </trkpt>
      <trkpt lat="50.25053" lon="5.77282">
        <ele>480</ele>
        <time>2015-05-10T11:20:55Z</time>
      </trkpt>
      <trkpt lat="50.25052" lon="5.77272">
        <ele>480</ele>
        <time>2015-05-10T11:21:01Z</time>
      </trkpt>
      <trkpt lat="50.25052" lon="5.77264">
        <ele>480</ele>
        <time>2015-05-10T11:21:07Z</time>
      </trkpt>
      <trkpt lat="50.25052" lon="5.77256">
        <ele>480</ele>
        <time>2015-05-10T11:21:12Z</time>
      </trkpt>
      <trkpt lat="50.25051" lon="5.77247">
        <ele>481</ele>
        <time>2015-05-10T11:21:18Z</time>
      </trkpt>
      <trkpt lat="50.2505" lon="5.77239">
        <ele>480</ele>
        <time>2015-05-10T11:21:23Z</time>
      </trkpt>
      <trkpt lat="50.25049" lon="5.7723">
        <ele>481</ele>
        <time>2015-05-10T11:21:28Z</time>
      </trkpt>
      <trkpt lat="50.25048" lon="5.77221">
        <ele>481</ele>
        <time>2015-05-10T11:21:34Z</time>
      </trkpt>
      <trkpt lat="50.25047" lon="5.77213">
        <ele>481</ele>
        <time>2015-05-10T11:21:39Z</time>
      </trkpt>
      <trkpt lat="50.25047" lon="5.77206">
        <ele>481</ele>
        <time>2015-05-10T11:21:44Z</time>
      </trkpt>
      <trkpt lat="50.25045" lon="5.77202">
        <ele>482</ele>
        <time>2015-05-10T11:21:50Z</time>
      </trkpt>
      <trkpt lat="50.25045" lon="5.77193">
        <ele>482</ele>
        <time>2015-05-10T11:21:56Z</time>
      </trkpt>
      <trkpt lat="50.25044" lon="5.77183">
        <ele>482</ele>
        <time>2015-05-10T11:22:02Z</time>
      </trkpt>
      <trkpt lat="50.25043" lon="5.77174">
        <ele>482</ele>
        <time>2015-05-10T11:22:08Z</time>
      </trkpt>
      <trkpt lat="50.25042" lon="5.77167">
        <ele>482</ele>
        <time>2015-05-10T11:22:13Z</time>
      </trkpt>
      <trkpt lat="50.25041" lon="5.77157">
        <ele>483</ele>
        <time>2015-05-10T11:22:19Z</time>
      </trkpt>
      <trkpt lat="50.2504" lon="5.77148">
        <ele>483</ele>
        <time>2015-05-10T11:22:24Z</time>
      </trkpt>
      <trkpt lat="50.25039" lon="5.77139">
        <ele>483</ele>
        <time>2015-05-10T11:22:30Z</time>
      </trkpt>
      <trkpt lat="50.25038" lon="5.77132">
        <ele>483</ele>
        <time>2015-05-10T11:22:35Z</time>
      </trkpt>
      <trkpt lat="50.25038" lon="5.77123">
        <ele>483</ele>
        <time>2015-05-10T11:22:41Z</time>
      </trkpt>
      <trkpt lat="50.25037" lon="5.77113">
        <ele>482</ele>
        <time>2015-05-10T11:22:47Z</time>
      </trkpt>
      <trkpt lat="50.25036" lon="5.77105">
        <ele>482</ele>
        <time>2015-05-10T11:22:52Z</time>
      </trkpt>
      <trkpt lat="50.25035" lon="5.77095">
        <ele>483</ele>
        <time>2015-05-10T11:22:58Z</time>
      </trkpt>
      <trkpt lat="50.25034" lon="5.77088">
        <ele>484</ele>
        <time>2015-05-10T11:23:04Z</time>
      </trkpt>
      <trkpt lat="50.25034" lon="5.77082">
        <ele>483</ele>
        <time>2015-05-10T11:23:09Z</time>
      </trkpt>
      <trkpt lat="50.25032" lon="5.77073">
        <ele>483</ele>
        <time>2015-05-10T11:23:15Z</time>
      </trkpt>
      <trkpt lat="50.25032" lon="5.77064">
        <ele>483</ele>
        <time>2015-05-10T11:23:20Z</time>
      </trkpt>
      <trkpt lat="50.25032" lon="5.77057">
        <ele>483</ele>
        <time>2015-05-10T11:23:25Z</time>
      </trkpt>
      <trkpt lat="50.25031" lon="5.77049">
        <ele>484</ele>
        <time>2015-05-10T11:23:31Z</time>
      </trkpt>
      <trkpt lat="50.25031" lon="5.77039">
        <ele>484</ele>
        <time>2015-05-10T11:23:37Z</time>
      </trkpt>
      <trkpt lat="50.2503" lon="5.77031">
        <ele>484</ele>
        <time>2015-05-10T11:23:43Z</time>
      </trkpt>
      <trkpt lat="50.25029" lon="5.77024">
        <ele>484</ele>
        <time>2015-05-10T11:23:48Z</time>
      </trkpt>
      <trkpt lat="50.25029" lon="5.77018">
        <ele>484</ele>
        <time>2015-05-10T11:23:53Z</time>
      </trkpt>
      <trkpt lat="50.25029" lon="5.77011">
        <ele>484</ele>
        <time>2015-05-10T11:23:59Z</time>
      </trkpt>
      <trkpt lat="50.25029" lon="5.77006">
        <ele>485</ele>
        <time>2015-05-10T11:24:04Z</time>
      </trkpt>
      <trkpt lat="50.25029" lon="5.76999">
        <ele>485</ele>
        <time>2015-05-10T11:24:09Z</time>
      </trkpt>
      <trkpt lat="50.25029" lon="5.76991">
        <ele>485</ele>
        <time>2015-05-10T11:24:14Z</time>
      </trkpt>
      <trkpt lat="50.25029" lon="5.76983">
        <ele>486</ele>
        <time>2015-05-10T11:24:20Z</time>
      </trkpt>
      <trkpt lat="50.25028" lon="5.7698">
        <ele>486</ele>
        <time>2015-05-10T11:24:26Z</time>
      </trkpt>
      <trkpt lat="50.25028" lon="5.76975">
        <ele>485</ele>
        <time>2015-05-10T11:24:32Z</time>
      </trkpt>
      <trkpt lat="50.25028" lon="5.76971">
        <ele>485</ele>
        <time>2015-05-10T11:24:38Z</time>
      </trkpt>
      <trkpt lat="50.25027" lon="5.76965">
        <ele>486</ele>
        <time>2015-05-10T11:24:43Z</time>
      </trkpt>
      <trkpt lat="50.25027" lon="5.76958">
        <ele>486</ele>
        <time>2015-05-10T11:24:48Z</time>
      </trkpt>
      <trkpt lat="50.25027" lon="5.76952">
        <ele>486</ele>
        <time>2015-05-10T11:24:53Z</time>
      </trkpt>
      <trkpt lat="50.25027" lon="5.76945">
        <ele>486</ele>
        <time>2015-05-10T11:24:58Z</time>
      </trkpt>
      <trkpt lat="50.25027" lon="5.76936">
        <ele>486</ele>
        <time>2015-05-10T11:25:04Z</time>
      </trkpt>
      <trkpt lat="50.25026" lon="5.76927">
        <ele>486</ele>
        <time>2015-05-10T11:25:10Z</time>
      </trkpt>
      <trkpt lat="50.25025" lon="5.7692">
        <ele>486</ele>
        <time>2015-05-10T11:25:15Z</time>
      </trkpt>
      <trkpt lat="50.25025" lon="5.76913">
        <ele>487</ele>
        <time>2015-05-10T11:25:21Z</time>
      </trkpt>
      <trkpt lat="50.25024" lon="5.76902">
        <ele>486</ele>
        <time>2015-05-10T11:25:27Z</time>
      </trkpt>
      <trkpt lat="50.25023" lon="5.76894">
        <ele>486</ele>
        <time>2015-05-10T11:25:32Z</time>
      </trkpt>
      <trkpt lat="50.25022" lon="5.76886">
        <ele>487</ele>
        <time>2015-05-10T11:25:37Z</time>
      </trkpt>
      <trkpt lat="50.25021" lon="5.76877">
        <ele>487</ele>
        <time>2015-05-10T11:25:43Z</time>
      </trkpt>
      <trkpt lat="50.2502" lon="5.76869">
        <ele>487</ele>
        <time>2015-05-10T11:25:48Z</time>
      </trkpt>
      <trkpt lat="50.25019" lon="5.76859">
        <ele>487</ele>
        <time>2015-05-10T11:25:54Z</time>
      </trkpt>
      <trkpt lat="50.25018" lon="5.76851">
        <ele>487</ele>
        <time>2015-05-10T11:25:59Z</time>
      </trkpt>
      <trkpt lat="50.25017" lon="5.76843">
        <ele>488</ele>
        <time>2015-05-10T11:26:05Z</time>
      </trkpt>
      <trkpt lat="50.25016" lon="5.76841">
        <ele>488</ele>
        <time>2015-05-10T11:26:11Z</time>
      </trkpt>
      <trkpt lat="50.25016" lon="5.7684">
        <ele>488</ele>
        <time>2015-05-10T11:26:16Z</time>
      </trkpt>
      <trkpt lat="50.25016" lon="5.7684">
        <ele>488</ele>
        <time>2015-05-10T11:26:22Z</time>
      </trkpt>
      <trkpt lat="50.25016" lon="5.7684">
        <ele>488</ele>
        <time>2015-05-10T11:26:27Z</time>
      </trkpt>
      <trkpt lat="50.25015" lon="5.76837">
        <ele>488</ele>
        <time>2015-05-10T11:26:33Z</time>
      </trkpt>
      <trkpt lat="50.25014" lon="5.7683">
        <ele>488</ele>
        <time>2015-05-10T11:26:38Z</time>
      </trkpt>
      <trkpt lat="50.25012" lon="5.76821">
        <ele>488</ele>
        <time>2015-05-10T11:26:44Z</time>
      </trkpt>
      <trkpt lat="50.2501" lon="5.76813">
        <ele>488</ele>
        <time>2015-05-10T11:26:49Z</time>
      </trkpt>
      <trkpt lat="50.25009" lon="5.76805">
        <ele>489</ele>
        <time>2015-05-10T11:26:54Z</time>
      </trkpt>
      <trkpt lat="50.25008" lon="5.76796">
        <ele>488</ele>
        <time>2015-05-10T11:27:00Z</time>
      </trkpt>
      <trkpt lat="50.25007" lon="5.76789">
        <ele>488</ele>
        <time>2015-05-10T11:27:05Z</time>
      </trkpt>
      <trkpt lat="50.25007" lon="5.76782">
        <ele>488</ele>
        <time>2015-05-10T11:27:11Z</time>
      </trkpt>
      <trkpt lat="50.25006" lon="5.76781">
        <ele>488</ele>
        <time>2015-05-10T11:27:16Z</time>
      </trkpt>
      <trkpt lat="50.25006" lon="5.76777">
        <ele>488</ele>
        <time>2015-05-10T11:27:22Z</time>
      </trkpt>
      <trkpt lat="50.25006" lon="5.76777">
        <ele>488</ele>
        <time>2015-05-10T11:27:28Z</time>
      </trkpt>
      <trkpt lat="50.25006" lon="5.76778">
        <ele>489</ele>
        <time>2015-05-10T11:27:34Z</time>
      </trkpt>
      <trkpt lat="50.25007" lon="5.76777">
        <ele>488</ele>
        <time>2015-05-10T11:27:40Z</time>
      </trkpt>
      <trkpt lat="50.25007" lon="5.76775">
        <ele>488</ele>
        <time>2015-05-10T11:27:46Z</time>
      </trkpt>
      <trkpt lat="50.25007" lon="5.76771">
        <ele>489</ele>
        <time>2015-05-10T11:27:53Z</time>
      </trkpt>
      <trkpt lat="50.25006" lon="5.76769">
        <ele>489</ele>
        <time>2015-05-10T11:27:58Z</time>
      </trkpt>
      <trkpt lat="50.25006" lon="5.76769">
        <ele>488</ele>
        <time>2015-05-10T11:28:04Z</time>
      </trkpt>
      <trkpt lat="50.25006" lon="5.76769">
        <ele>488</ele>
        <time>2015-05-10T11:28:10Z</time>
      </trkpt>
      <trkpt lat="50.25006" lon="5.76769">
        <ele>488</ele>
        <time>2015-05-10T11:28:15Z</time>
      </trkpt>
      <trkpt lat="50.25005" lon="5.76766">
        <ele>488</ele>
        <time>2015-05-10T11:28:21Z</time>
      </trkpt>
      <trkpt lat="50.25005" lon="5.76761">
        <ele>488</ele>
        <time>2015-05-10T11:28:26Z</time>
      </trkpt>
      <trkpt lat="50.25005" lon="5.76754">
        <ele>489</ele>
        <time>2015-05-10T11:28:32Z</time>
      </trkpt>
      <trkpt lat="50.25004" lon="5.76746">
        <ele>489</ele>
        <time>2015-05-10T11:28:38Z</time>
      </trkpt>
      <trkpt lat="50.25003" lon="5.76737">
        <ele>489</ele>
        <time>2015-05-10T11:28:44Z</time>
      </trkpt>
      <trkpt lat="50.25002" lon="5.76728">
        <ele>489</ele>
        <time>2015-05-10T11:28:50Z</time>
      </trkpt>
      <trkpt lat="50.25001" lon="5.7672">
        <ele>489</ele>
        <time>2015-05-10T11:28:55Z</time>
      </trkpt>
      <trkpt lat="50.25" lon="5.7671">
        <ele>489</ele>
        <time>2015-05-10T11:29:01Z</time>
      </trkpt>
      <trkpt lat="50.25" lon="5.76703">
        <ele>489</ele>
        <time>2015-05-10T11:29:06Z</time>
      </trkpt>
      <trkpt lat="50.24999" lon="5.76695">
        <ele>489</ele>
        <time>2015-05-10T11:29:11Z</time>
      </trkpt>
      <trkpt lat="50.24999" lon="5.76685">
        <ele>489</ele>
        <time>2015-05-10T11:29:17Z</time>
      </trkpt>
      <trkpt lat="50.24998" lon="5.76676">
        <ele>490</ele>
        <time>2015-05-10T11:29:22Z</time>
      </trkpt>
      <trkpt lat="50.24996" lon="5.76667">
        <ele>490</ele>
        <time>2015-05-10T11:29:28Z</time>
      </trkpt>
      <trkpt lat="50.24995" lon="5.76658">
        <ele>490</ele>
        <time>2015-05-10T11:29:33Z</time>
      </trkpt>
      <trkpt lat="50.24994" lon="5.76648">
        <ele>489</ele>
        <time>2015-05-10T11:29:39Z</time>
      </trkpt>
      <trkpt lat="50.24993" lon="5.76639">
        <ele>490</ele>
        <time>2015-05-10T11:29:44Z</time>
      </trkpt>
      <trkpt lat="50.24993" lon="5.76631">
        <ele>490</ele>
        <time>2015-05-10T11:29:49Z</time>
      </trkpt>
      <trkpt lat="50.24991" lon="5.76619">
        <ele>490</ele>
        <time>2015-05-10T11:29:55Z</time>
      </trkpt>
      <trkpt lat="50.2499" lon="5.76615">
        <ele>490</ele>
        <time>2015-05-10T11:30:00Z</time>
      </trkpt>
      <trkpt lat="50.24989" lon="5.76606">
        <ele>491</ele>
        <time>2015-05-10T11:30:05Z</time>
      </trkpt>
      <trkpt lat="50.24988" lon="5.76594">
        <ele>491</ele>
        <time>2015-05-10T11:30:11Z</time>
      </trkpt>
      <trkpt lat="50.24988" lon="5.76585">
        <ele>491</ele>
        <time>2015-05-10T11:30:16Z</time>
      </trkpt>
      <trkpt lat="50.24987" lon="5.76578">
        <ele>492</ele>
        <time>2015-05-10T11:30:22Z</time>
      </trkpt>
      <trkpt lat="50.24986" lon="5.76572">
        <ele>492</ele>
        <time>2015-05-10T11:30:27Z</time>
      </trkpt>
      <trkpt lat="50.24986" lon="5.76565">
        <ele>492</ele>
        <time>2015-05-10T11:30:32Z</time>
      </trkpt>
      <trkpt lat="50.24986" lon="5.76555">
        <ele>492</ele>
        <time>2015-05-10T11:30:37Z</time>
      </trkpt>
      <trkpt lat="50.24984" lon="5.76548">
        <ele>493</ele>
        <time>2015-05-10T11:30:43Z</time>
      </trkpt>
      <trkpt lat="50.24983" lon="5.76543">
        <ele>493</ele>
        <time>2015-05-10T11:30:48Z</time>
      </trkpt>
      <trkpt lat="50.24982" lon="5.76527">
        <ele>493</ele>
        <time>2015-05-10T11:30:54Z</time>
      </trkpt>
      <trkpt lat="50.24981" lon="5.76517">
        <ele>494</ele>
        <time>2015-05-10T11:30:59Z</time>
      </trkpt>
      <trkpt lat="50.24981" lon="5.76508">
        <ele>494</ele>
        <time>2015-05-10T11:31:05Z</time>
      </trkpt>
      <trkpt lat="50.24979" lon="5.765">
        <ele>494</ele>
        <time>2015-05-10T11:31:11Z</time>
      </trkpt>
      <trkpt lat="50.24976" lon="5.76486">
        <ele>494</ele>
        <time>2015-05-10T11:31:17Z</time>
      </trkpt>
      <trkpt lat="50.24975" lon="5.76478">
        <ele>494</ele>
        <time>2015-05-10T11:31:23Z</time>
      </trkpt>
      <trkpt lat="50.24973" lon="5.76471">
        <ele>494</ele>
        <time>2015-05-10T11:31:28Z</time>
      </trkpt>
      <trkpt lat="50.24974" lon="5.76463">
        <ele>495</ele>
        <time>2015-05-10T11:31:34Z</time>
      </trkpt>
      <trkpt lat="50.24974" lon="5.76455">
        <ele>495</ele>
        <time>2015-05-10T11:31:39Z</time>
      </trkpt>
      <trkpt lat="50.24973" lon="5.76446">
        <ele>495</ele>
        <time>2015-05-10T11:31:45Z</time>
      </trkpt>
      <trkpt lat="50.24973" lon="5.76437">
        <ele>495</ele>
        <time>2015-05-10T11:31:51Z</time>
      </trkpt>
      <trkpt lat="50.24972" lon="5.76429">
        <ele>496</ele>
        <time>2015-05-10T11:31:56Z</time>
      </trkpt>
      <trkpt lat="50.24972" lon="5.76421">
        <ele>496</ele>
        <time>2015-05-10T11:32:01Z</time>
      </trkpt>
      <trkpt lat="50.24971" lon="5.76412">
        <ele>496</ele>
        <time>2015-05-10T11:32:07Z</time>
      </trkpt>
      <trkpt lat="50.2497" lon="5.76405">
        <ele>496</ele>
        <time>2015-05-10T11:32:12Z</time>
      </trkpt>
      <trkpt lat="50.24969" lon="5.76397">
        <ele>496</ele>
        <time>2015-05-10T11:32:17Z</time>
      </trkpt>
      <trkpt lat="50.24968" lon="5.76387">
        <ele>497</ele>
        <time>2015-05-10T11:32:23Z</time>
      </trkpt>
      <trkpt lat="50.24968" lon="5.76379">
        <ele>497</ele>
        <time>2015-05-10T11:32:28Z</time>
      </trkpt>
      <trkpt lat="50.24967" lon="5.76367">
        <ele>497</ele>
        <time>2015-05-10T11:32:34Z</time>
      </trkpt>
      <trkpt lat="50.24967" lon="5.76357">
        <ele>497</ele>
        <time>2015-05-10T11:32:39Z</time>
      </trkpt>
      <trkpt lat="50.24967" lon="5.76346">
        <ele>497</ele>
        <time>2015-05-10T11:32:45Z</time>
      </trkpt>
      <trkpt lat="50.24967" lon="5.76335">
        <ele>498</ele>
        <time>2015-05-10T11:32:51Z</time>
      </trkpt>
      <trkpt lat="50.24967" lon="5.76327">
        <ele>498</ele>
        <time>2015-05-10T11:32:56Z</time>
      </trkpt>
      <trkpt lat="50.24967" lon="5.76318">
        <ele>498</ele>
        <time>2015-05-10T11:33:02Z</time>
      </trkpt>
      <trkpt lat="50.24967" lon="5.76309">
        <ele>498</ele>
        <time>2015-05-10T11:33:07Z</time>
      </trkpt>
      <trkpt lat="50.24964" lon="5.76284">
        <ele>499</ele>
        <time>2015-05-10T11:33:13Z</time>
      </trkpt>
      <trkpt lat="50.24961" lon="5.76263">
        <ele>499</ele>
        <time>2015-05-10T11:33:18Z</time>
      </trkpt>
      <trkpt lat="50.24958" lon="5.76248">
        <ele>500</ele>
        <time>2015-05-10T11:33:23Z</time>
      </trkpt>
      <trkpt lat="50.24955" lon="5.76242">
        <ele>499</ele>
        <time>2015-05-10T11:33:28Z</time>
      </trkpt>
      <trkpt lat="50.24951" lon="5.76237">
        <ele>499</ele>
        <time>2015-05-10T11:33:33Z</time>
      </trkpt>
      <trkpt lat="50.24949" lon="5.76227">
        <ele>500</ele>
        <time>2015-05-10T11:33:39Z</time>
      </trkpt>
      <trkpt lat="50.24946" lon="5.7622">
        <ele>500</ele>
        <time>2015-05-10T11:33:44Z</time>
      </trkpt>
      <trkpt lat="50.24943" lon="5.76211">
        <ele>499</ele>
        <time>2015-05-10T11:33:50Z</time>
      </trkpt>
      <trkpt lat="50.24942" lon="5.76206">
        <ele>500</ele>
        <time>2015-05-10T11:33:55Z</time>
      </trkpt>
      <trkpt lat="50.24938" lon="5.762">
        <ele>500</ele>
        <time>2015-05-10T11:34:01Z</time>
      </trkpt>
      <trkpt lat="50.24935" lon="5.76193">
        <ele>500</ele>
        <time>2015-05-10T11:34:07Z</time>
      </trkpt>
      <trkpt lat="50.2493" lon="5.76185">
        <ele>499</ele>
        <time>2015-05-10T11:34:13Z</time>
      </trkpt>
      <trkpt lat="50.24927" lon="5.76179">
        <ele>499</ele>
        <time>2015-05-10T11:34:18Z</time>
      </trkpt>
      <trkpt lat="50.24923" lon="5.7617">
        <ele>499</ele>
        <time>2015-05-10T11:34:24Z</time>
      </trkpt>
      <trkpt lat="50.24918" lon="5.76162">
        <ele>500</ele>
        <time>2015-05-10T11:34:29Z</time>
      </trkpt>
      <trkpt lat="50.24913" lon="5.76154">
        <ele>499</ele>
        <time>2015-05-10T11:34:34Z</time>
      </trkpt>
      <trkpt lat="50.24909" lon="5.76145">
        <ele>499</ele>
        <time>2015-05-10T11:34:40Z</time>
      </trkpt>
      <trkpt lat="50.24906" lon="5.76139">
        <ele>498</ele>
        <time>2015-05-10T11:34:45Z</time>
      </trkpt>
      <trkpt lat="50.249" lon="5.7613">
        <ele>499</ele>
        <time>2015-05-10T11:34:51Z</time>
      </trkpt>
      <trkpt lat="50.24891" lon="5.76114">
        <ele>499</ele>
        <time>2015-05-10T11:34:56Z</time>
      </trkpt>
      <trkpt lat="50.24886" lon="5.76105">
        <ele>499</ele>
        <time>2015-05-10T11:35:02Z</time>
      </trkpt>
      <trkpt lat="50.24884" lon="5.76101">
        <ele>498</ele>
        <time>2015-05-10T11:35:08Z</time>
      </trkpt>
      <trkpt lat="50.24884" lon="5.76101">
        <ele>499</ele>
        <time>2015-05-10T11:35:13Z</time>
      </trkpt>
      <trkpt lat="50.24883" lon="5.76099">
        <ele>499</ele>
        <time>2015-05-10T11:35:19Z</time>
      </trkpt>
      <trkpt lat="50.24884" lon="5.76098">
        <ele>499</ele>
        <time>2015-05-10T11:35:24Z</time>
      </trkpt>
      <trkpt lat="50.24884" lon="5.76098">
        <ele>499</ele>
        <time>2015-05-10T11:35:29Z</time>
      </trkpt>
      <trkpt lat="50.24884" lon="5.76098">
        <ele>499</ele>
        <time>2015-05-10T11:35:35Z</time>
      </trkpt>
      <trkpt lat="50.24884" lon="5.76099">
        <ele>499</ele>
        <time>2015-05-10T11:35:40Z</time>
      </trkpt>
      <trkpt lat="50.24884" lon="5.76099">
        <ele>499</ele>
        <time>2015-05-10T11:35:46Z</time>
      </trkpt>
      <trkpt lat="50.24884" lon="5.76099">
        <ele>499</ele>
        <time>2015-05-10T11:35:51Z</time>
      </trkpt>
      <trkpt lat="50.24883" lon="5.76101">
        <ele>498</ele>
        <time>2015-05-10T11:35:56Z</time>
      </trkpt>
      <trkpt lat="50.24882" lon="5.76103">
        <ele>499</ele>
        <time>2015-05-10T11:36:02Z</time>
      </trkpt>
      <trkpt lat="50.24881" lon="5.76104">
        <ele>499</ele>
        <time>2015-05-10T11:36:09Z</time>
      </trkpt>
      <trkpt lat="50.24881" lon="5.76105">
        <ele>498</ele>
        <time>2015-05-10T11:36:14Z</time>
      </trkpt>
      <trkpt lat="50.24881" lon="5.76105">
        <ele>499</ele>
        <time>2015-05-10T11:36:21Z</time>
      </trkpt>
      <trkpt lat="50.24887" lon="5.76108">
        <ele>499</ele>
        <time>2015-05-10T11:36:27Z</time>
      </trkpt>
      <trkpt lat="50.24892" lon="5.76112">
        <ele>499</ele>
        <time>2015-05-10T11:36:33Z</time>
      </trkpt>
      <trkpt lat="50.24893" lon="5.76113">
        <ele>499</ele>
        <time>2015-05-10T11:36:38Z</time>
      </trkpt>
      <trkpt lat="50.24894" lon="5.76117">
        <ele>499</ele>
        <time>2015-05-10T11:36:43Z</time>
      </trkpt>
      <trkpt lat="50.24897" lon="5.76122">
        <ele>499</ele>
        <time>2015-05-10T11:36:49Z</time>
      </trkpt>
      <trkpt lat="50.24898" lon="5.76125">
        <ele>499</ele>
        <time>2015-05-10T11:36:55Z</time>
      </trkpt>
      <trkpt lat="50.249" lon="5.7613">
        <ele>499</ele>
        <time>2015-05-10T11:37:01Z</time>
      </trkpt>
      <trkpt lat="50.24903" lon="5.76137">
        <ele>500</ele>
        <time>2015-05-10T11:37:06Z</time>
      </trkpt>
      <trkpt lat="50.24907" lon="5.76142">
        <ele>500</ele>
        <time>2015-05-10T11:37:11Z</time>
      </trkpt>
      <trkpt lat="50.24911" lon="5.76148">
        <ele>499</ele>
        <time>2015-05-10T11:37:16Z</time>
      </trkpt>
      <trkpt lat="50.24916" lon="5.76156">
        <ele>499</ele>
        <time>2015-05-10T11:37:22Z</time>
      </trkpt>
      <trkpt lat="50.24922" lon="5.76164">
        <ele>500</ele>
        <time>2015-05-10T11:37:27Z</time>
      </trkpt>
      <trkpt lat="50.24926" lon="5.76171">
        <ele>500</ele>
        <time>2015-05-10T11:37:32Z</time>
      </trkpt>
      <trkpt lat="50.24931" lon="5.76178">
        <ele>501</ele>
        <time>2015-05-10T11:37:38Z</time>
      </trkpt>
      <trkpt lat="50.24936" lon="5.76186">
        <ele>501</ele>
        <time>2015-05-10T11:37:44Z</time>
      </trkpt>
      <trkpt lat="50.24941" lon="5.76194">
        <ele>500</ele>
        <time>2015-05-10T11:37:50Z</time>
      </trkpt>
      <trkpt lat="50.24944" lon="5.76202">
        <ele>501</ele>
        <time>2015-05-10T11:37:55Z</time>
      </trkpt>
      <trkpt lat="50.24947" lon="5.76209">
        <ele>500</ele>
        <time>2015-05-10T11:38:00Z</time>
      </trkpt>
      <trkpt lat="50.24949" lon="5.76218">
        <ele>500</ele>
        <time>2015-05-10T11:38:06Z</time>
      </trkpt>
      <trkpt lat="50.2495" lon="5.76222">
        <ele>500</ele>
        <time>2015-05-10T11:38:11Z</time>
      </trkpt>
      <trkpt lat="50.24951" lon="5.76225">
        <ele>500</ele>
        <time>2015-05-10T11:38:17Z</time>
      </trkpt>
      <trkpt lat="50.24957" lon="5.76229">
        <ele>500</ele>
        <time>2015-05-10T11:38:23Z</time>
      </trkpt>
      <trkpt lat="50.24958" lon="5.76235">
        <ele>500</ele>
        <time>2015-05-10T11:38:28Z</time>
      </trkpt>
      <trkpt lat="50.24958" lon="5.76236">
        <ele>500</ele>
        <time>2015-05-10T11:38:34Z</time>
      </trkpt>
      <trkpt lat="50.24953" lon="5.76234">
        <ele>500</ele>
        <time>2015-05-10T11:38:40Z</time>
      </trkpt>
      <trkpt lat="50.2495" lon="5.76231">
        <ele>500</ele>
        <time>2015-05-10T11:38:46Z</time>
      </trkpt>
      <trkpt lat="50.24946" lon="5.76228">
        <ele>500</ele>
        <time>2015-05-10T11:38:52Z</time>
      </trkpt>
      <trkpt lat="50.24946" lon="5.76226">
        <ele>500</ele>
        <time>2015-05-10T11:38:57Z</time>
      </trkpt>
      <trkpt lat="50.24947" lon="5.76223">
        <ele>500</ele>
        <time>2015-05-10T11:39:03Z</time>
      </trkpt>
      <trkpt lat="50.24947" lon="5.76222">
        <ele>500</ele>
        <time>2015-05-10T11:39:08Z</time>
      </trkpt>
      <trkpt lat="50.24946" lon="5.76222">
        <ele>500</ele>
        <time>2015-05-10T11:39:14Z</time>
      </trkpt>
      <trkpt lat="50.24945" lon="5.76224">
        <ele>500</ele>
        <time>2015-05-10T11:39:20Z</time>
      </trkpt>
      <trkpt lat="50.24945" lon="5.76225">
        <ele>501</ele>
        <time>2015-05-10T11:39:25Z</time>
      </trkpt>
      <trkpt lat="50.24944" lon="5.76226">
        <ele>500</ele>
        <time>2015-05-10T11:39:30Z</time>
      </trkpt>
      <trkpt lat="50.24944" lon="5.76227">
        <ele>500</ele>
        <time>2015-05-10T11:39:35Z</time>
      </trkpt>
      <trkpt lat="50.24944" lon="5.76229">
        <ele>501</ele>
        <time>2015-05-10T11:39:40Z</time>
      </trkpt>
      <trkpt lat="50.24943" lon="5.7623">
        <ele>500</ele>
        <time>2015-05-10T11:39:45Z</time>
      </trkpt>
      <trkpt lat="50.24943" lon="5.7623">
        <ele>500</ele>
        <time>2015-05-10T11:39:51Z</time>
      </trkpt>
      <trkpt lat="50.24944" lon="5.76231">
        <ele>500</ele>
        <time>2015-05-10T11:39:57Z</time>
      </trkpt>
      <trkpt lat="50.24944" lon="5.76232">
        <ele>500</ele>
        <time>2015-05-10T11:40:03Z</time>
      </trkpt>
      <trkpt lat="50.24946" lon="5.76233">
        <ele>500</ele>
        <time>2015-05-10T11:40:08Z</time>
      </trkpt>
      <trkpt lat="50.24947" lon="5.76233">
        <ele>500</ele>
        <time>2015-05-10T11:40:13Z</time>
      </trkpt>
      <trkpt lat="50.24948" lon="5.76236">
        <ele>500</ele>
        <time>2015-05-10T11:40:19Z</time>
      </trkpt>
      <trkpt lat="50.24947" lon="5.76235">
        <ele>500</ele>
        <time>2015-05-10T11:40:25Z</time>
      </trkpt>
      <trkpt lat="50.24948" lon="5.76239">
        <ele>500</ele>
        <time>2015-05-10T11:40:30Z</time>
      </trkpt>
      <trkpt lat="50.24949" lon="5.7624">
        <ele>500</ele>
        <time>2015-05-10T11:40:35Z</time>
      </trkpt>
      <trkpt lat="50.24949" lon="5.76239">
        <ele>500</ele>
        <time>2015-05-10T11:40:41Z</time>
      </trkpt>
      <trkpt lat="50.24949" lon="5.76236">
        <ele>500</ele>
        <time>2015-05-10T11:40:48Z</time>
      </trkpt>
      <trkpt lat="50.24949" lon="5.76236">
        <ele>500</ele>
        <time>2015-05-10T11:40:53Z</time>
      </trkpt>
      <trkpt lat="50.24947" lon="5.76238">
        <ele>500</ele>
        <time>2015-05-10T11:40:59Z</time>
      </trkpt>
      <trkpt lat="50.24947" lon="5.76238">
        <ele>500</ele>
        <time>2015-05-10T11:41:05Z</time>
      </trkpt>
      <trkpt lat="50.24947" lon="5.76239">
        <ele>500</ele>
        <time>2015-05-10T11:41:10Z</time>
      </trkpt>
      <trkpt lat="50.24947" lon="5.7624">
        <ele>500</ele>
        <time>2015-05-10T11:41:16Z</time>
      </trkpt>
      <trkpt lat="50.24948" lon="5.76241">
        <ele>500</ele>
        <time>2015-05-10T11:41:22Z</time>
      </trkpt>
      <trkpt lat="50.24948" lon="5.7624">
        <ele>500</ele>
        <time>2015-05-10T11:41:27Z</time>
      </trkpt>
      <trkpt lat="50.24949" lon="5.76238">
        <ele>500</ele>
        <time>2015-05-10T11:41:32Z</time>
      </trkpt>
      <trkpt lat="50.24948" lon="5.76231">
        <ele>500</ele>
        <time>2015-05-10T11:41:38Z</time>
      </trkpt>
      <trkpt lat="50.24947" lon="5.76223">
        <ele>500</ele>
        <time>2015-05-10T11:41:44Z</time>
      </trkpt>
      <trkpt lat="50.24946" lon="5.76217">
        <ele>501</ele>
        <time>2015-05-10T11:41:49Z</time>
      </trkpt>
      <trkpt lat="50.24945" lon="5.76212">
        <ele>501</ele>
        <time>2015-05-10T11:41:55Z</time>
      </trkpt>
      <trkpt lat="50.24945" lon="5.76211">
        <ele>501</ele>
        <time>2015-05-10T11:42:01Z</time>
      </trkpt>
      <trkpt lat="50.24943" lon="5.7621">
        <ele>500</ele>
        <time>2015-05-10T11:42:06Z</time>
      </trkpt>
      <trkpt lat="50.24942" lon="5.76205">
        <ele>501</ele>
        <time>2015-05-10T11:42:12Z</time>
      </trkpt>
      <trkpt lat="50.24939" lon="5.76199">
        <ele>500</ele>
        <time>2015-05-10T11:42:18Z</time>
      </trkpt>
      <trkpt lat="50.24936" lon="5.76194">
        <ele>501</ele>
        <time>2015-05-10T11:42:23Z</time>
      </trkpt>
      <trkpt lat="50.24932" lon="5.76188">
        <ele>500</ele>
        <time>2015-05-10T11:42:29Z</time>
      </trkpt>
      <trkpt lat="50.24928" lon="5.76181">
        <ele>500</ele>
        <time>2015-05-10T11:42:35Z</time>
      </trkpt>
      <trkpt lat="50.24924" lon="5.76174">
        <ele>500</ele>
        <time>2015-05-10T11:42:41Z</time>
      </trkpt>
      <trkpt lat="50.24918" lon="5.76168">
        <ele>500</ele>
        <time>2015-05-10T11:42:47Z</time>
      </trkpt>
      <trkpt lat="50.24913" lon="5.76161">
        <ele>500</ele>
        <time>2015-05-10T11:42:53Z</time>
      </trkpt>
      <trkpt lat="50.2491" lon="5.76154">
        <ele>500</ele>
        <time>2015-05-10T11:42:58Z</time>
      </trkpt>
      <trkpt lat="50.24908" lon="5.76149">
        <ele>500</ele>
        <time>2015-05-10T11:43:04Z</time>
      </trkpt>
      <trkpt lat="50.24908" lon="5.76147">
        <ele>500</ele>
        <time>2015-05-10T11:43:10Z</time>
      </trkpt>
      <trkpt lat="50.24906" lon="5.76147">
        <ele>500</ele>
        <time>2015-05-10T11:43:16Z</time>
      </trkpt>
      <trkpt lat="50.24905" lon="5.76148">
        <ele>500</ele>
        <time>2015-05-10T11:43:22Z</time>
      </trkpt>
      <trkpt lat="50.24905" lon="5.7615">
        <ele>500</ele>
        <time>2015-05-10T11:43:27Z</time>
      </trkpt>
      <trkpt lat="50.24905" lon="5.76151">
        <ele>500</ele>
        <time>2015-05-10T11:43:36Z</time>
      </trkpt>
      <trkpt lat="50.24905" lon="5.7615">
        <ele>500</ele>
        <time>2015-05-10T11:43:41Z</time>
      </trkpt>
      <trkpt lat="50.24903" lon="5.76146">
        <ele>501</ele>
        <time>2015-05-10T11:43:48Z</time>
      </trkpt>
      <trkpt lat="50.24903" lon="5.76144">
        <ele>501</ele>
        <time>2015-05-10T11:43:54Z</time>
      </trkpt>
      <trkpt lat="50.24902" lon="5.76141">
        <ele>501</ele>
        <time>2015-05-10T11:44:00Z</time>
      </trkpt>
      <trkpt lat="50.24902" lon="5.76137">
        <ele>501</ele>
        <time>2015-05-10T11:44:06Z</time>
      </trkpt>
      <trkpt lat="50.24901" lon="5.76135">
        <ele>500</ele>
        <time>2015-05-10T11:44:11Z</time>
      </trkpt>
      <trkpt lat="50.249" lon="5.76132">
        <ele>500</ele>
        <time>2015-05-10T11:44:16Z</time>
      </trkpt>
      <trkpt lat="50.249" lon="5.7613">
        <ele>500</ele>
        <time>2015-05-10T11:44:22Z</time>
      </trkpt>
      <trkpt lat="50.249" lon="5.76128">
        <ele>500</ele>
        <time>2015-05-10T11:44:27Z</time>
      </trkpt>
      <trkpt lat="50.24899" lon="5.76128">
        <ele>500</ele>
        <time>2015-05-10T11:44:33Z</time>
      </trkpt>
      <trkpt lat="50.24899" lon="5.76126">
        <ele>500</ele>
        <time>2015-05-10T11:44:38Z</time>
      </trkpt>
      <trkpt lat="50.24898" lon="5.76124">
        <ele>500</ele>
        <time>2015-05-10T11:44:43Z</time>
      </trkpt>
      <trkpt lat="50.24897" lon="5.76123">
        <ele>500</ele>
        <time>2015-05-10T11:44:49Z</time>
      </trkpt>
      <trkpt lat="50.24895" lon="5.7612">
        <ele>500</ele>
        <time>2015-05-10T11:44:54Z</time>
      </trkpt>
      <trkpt lat="50.24894" lon="5.76116">
        <ele>500</ele>
        <time>2015-05-10T11:45:00Z</time>
      </trkpt>
      <trkpt lat="50.24891" lon="5.76111">
        <ele>500</ele>
        <time>2015-05-10T11:45:05Z</time>
      </trkpt>
      <trkpt lat="50.24888" lon="5.76106">
        <ele>500</ele>
        <time>2015-05-10T11:45:10Z</time>
      </trkpt>
      <trkpt lat="50.24884" lon="5.761">
        <ele>500</ele>
        <time>2015-05-10T11:45:16Z</time>
      </trkpt>
      <trkpt lat="50.24881" lon="5.76094">
        <ele>500</ele>
        <time>2015-05-10T11:45:22Z</time>
      </trkpt>
      <trkpt lat="50.24878" lon="5.7609">
        <ele>500</ele>
        <time>2015-05-10T11:45:27Z</time>
      </trkpt>
      <trkpt lat="50.24873" lon="5.76082">
        <ele>500</ele>
        <time>2015-05-10T11:45:33Z</time>
      </trkpt>
      <trkpt lat="50.2487" lon="5.76076">
        <ele>501</ele>
        <time>2015-05-10T11:45:38Z</time>
      </trkpt>
      <trkpt lat="50.24865" lon="5.76068">
        <ele>500</ele>
        <time>2015-05-10T11:45:44Z</time>
      </trkpt>
      <trkpt lat="50.24862" lon="5.76063">
        <ele>500</ele>
        <time>2015-05-10T11:45:49Z</time>
      </trkpt>
      <trkpt lat="50.24856" lon="5.76057">
        <ele>500</ele>
        <time>2015-05-10T11:45:55Z</time>
      </trkpt>
      <trkpt lat="50.24852" lon="5.76049">
        <ele>500</ele>
        <time>2015-05-10T11:46:00Z</time>
      </trkpt>
      <trkpt lat="50.24852" lon="5.76043">
        <ele>500</ele>
        <time>2015-05-10T11:46:06Z</time>
      </trkpt>
      <trkpt lat="50.2485" lon="5.7604">
        <ele>500</ele>
        <time>2015-05-10T11:46:11Z</time>
      </trkpt>
      <trkpt lat="50.24852" lon="5.76035">
        <ele>500</ele>
        <time>2015-05-10T11:46:17Z</time>
      </trkpt>
      <trkpt lat="50.24855" lon="5.76033">
        <ele>500</ele>
        <time>2015-05-10T11:46:23Z</time>
      </trkpt>
      <trkpt lat="50.24858" lon="5.76029">
        <ele>499</ele>
        <time>2015-05-10T11:46:29Z</time>
      </trkpt>
      <trkpt lat="50.24856" lon="5.76027">
        <ele>500</ele>
        <time>2015-05-10T11:46:34Z</time>
      </trkpt>
      <trkpt lat="50.24857" lon="5.76026">
        <ele>500</ele>
        <time>2015-05-10T11:46:40Z</time>
      </trkpt>
      <trkpt lat="50.24854" lon="5.76023">
        <ele>500</ele>
        <time>2015-05-10T11:46:46Z</time>
      </trkpt>
      <trkpt lat="50.24849" lon="5.7602">
        <ele>500</ele>
        <time>2015-05-10T11:46:52Z</time>
      </trkpt>
      <trkpt lat="50.24844" lon="5.76016">
        <ele>500</ele>
        <time>2015-05-10T11:46:58Z</time>
      </trkpt>
      <trkpt lat="50.2484" lon="5.76012">
        <ele>500</ele>
        <time>2015-05-10T11:47:03Z</time>
      </trkpt>
      <trkpt lat="50.24835" lon="5.76008">
        <ele>500</ele>
        <time>2015-05-10T11:47:09Z</time>
      </trkpt>
      <trkpt lat="50.24832" lon="5.76005">
        <ele>500</ele>
        <time>2015-05-10T11:47:15Z</time>
      </trkpt>
      <trkpt lat="50.24828" lon="5.76001">
        <ele>500</ele>
        <time>2015-05-10T11:47:21Z</time>
      </trkpt>
      <trkpt lat="50.24825" lon="5.75996">
        <ele>500</ele>
        <time>2015-05-10T11:47:26Z</time>
      </trkpt>
      <trkpt lat="50.2482" lon="5.75991">
        <ele>500</ele>
        <time>2015-05-10T11:47:31Z</time>
      </trkpt>
      <trkpt lat="50.24816" lon="5.75986">
        <ele>500</ele>
        <time>2015-05-10T11:47:36Z</time>
      </trkpt>
      <trkpt lat="50.24812" lon="5.75982">
        <ele>501</ele>
        <time>2015-05-10T11:47:42Z</time>
      </trkpt>
      <trkpt lat="50.24807" lon="5.7598">
        <ele>501</ele>
        <time>2015-05-10T11:47:47Z</time>
      </trkpt>
      <trkpt lat="50.24801" lon="5.75979">
        <ele>501</ele>
        <time>2015-05-10T11:47:53Z</time>
      </trkpt>
      <trkpt lat="50.24798" lon="5.75979">
        <ele>501</ele>
        <time>2015-05-10T11:47:58Z</time>
      </trkpt>
      <trkpt lat="50.24796" lon="5.75976">
        <ele>501</ele>
        <time>2015-05-10T11:48:03Z</time>
      </trkpt>
      <trkpt lat="50.24792" lon="5.75977">
        <ele>501</ele>
        <time>2015-05-10T11:48:09Z</time>
      </trkpt>
      <trkpt lat="50.2479" lon="5.75975">
        <ele>501</ele>
        <time>2015-05-10T11:48:14Z</time>
      </trkpt>
      <trkpt lat="50.24789" lon="5.75974">
        <ele>501</ele>
        <time>2015-05-10T11:48:20Z</time>
      </trkpt>
      <trkpt lat="50.24786" lon="5.75974">
        <ele>501</ele>
        <time>2015-05-10T11:48:26Z</time>
      </trkpt>
      <trkpt lat="50.24784" lon="5.75975">
        <ele>501</ele>
        <time>2015-05-10T11:48:31Z</time>
      </trkpt>
      <trkpt lat="50.2478" lon="5.75976">
        <ele>501</ele>
        <time>2015-05-10T11:48:37Z</time>
      </trkpt>
      <trkpt lat="50.24775" lon="5.75979">
        <ele>501</ele>
        <time>2015-05-10T11:48:43Z</time>
      </trkpt>
      <trkpt lat="50.2477" lon="5.75982">
        <ele>501</ele>
        <time>2015-05-10T11:48:49Z</time>
      </trkpt>
      <trkpt lat="50.24766" lon="5.75984">
        <ele>501</ele>
        <time>2015-05-10T11:48:54Z</time>
      </trkpt>
      <trkpt lat="50.24763" lon="5.75985">
        <ele>501</ele>
        <time>2015-05-10T11:48:59Z</time>
      </trkpt>
      <trkpt lat="50.24759" lon="5.75987">
        <ele>501</ele>
        <time>2015-05-10T11:49:05Z</time>
      </trkpt>
      <trkpt lat="50.24756" lon="5.75989">
        <ele>501</ele>
        <time>2015-05-10T11:49:10Z</time>
      </trkpt>
      <trkpt lat="50.24752" lon="5.75989">
        <ele>501</ele>
        <time>2015-05-10T11:49:15Z</time>
      </trkpt>
      <trkpt lat="50.24749" lon="5.7599">
        <ele>500</ele>
        <time>2015-05-10T11:49:20Z</time>
      </trkpt>
      <trkpt lat="50.24744" lon="5.75991">
        <ele>501</ele>
        <time>2015-05-10T11:49:25Z</time>
      </trkpt>
      <trkpt lat="50.24739" lon="5.75992">
        <ele>501</ele>
        <time>2015-05-10T11:49:31Z</time>
      </trkpt>
      <trkpt lat="50.24735" lon="5.75993">
        <ele>501</ele>
        <time>2015-05-10T11:49:36Z</time>
      </trkpt>
      <trkpt lat="50.2473" lon="5.75995">
        <ele>502</ele>
        <time>2015-05-10T11:49:41Z</time>
      </trkpt>
      <trkpt lat="50.24725" lon="5.75997">
        <ele>502</ele>
        <time>2015-05-10T11:49:47Z</time>
      </trkpt>
      <trkpt lat="50.24723" lon="5.75999">
        <ele>502</ele>
        <time>2015-05-10T11:49:52Z</time>
      </trkpt>
      <trkpt lat="50.24724" lon="5.75996">
        <ele>502</ele>
        <time>2015-05-10T11:49:57Z</time>
      </trkpt>
      <trkpt lat="50.24724" lon="5.75996">
        <ele>502</ele>
        <time>2015-05-10T11:50:03Z</time>
      </trkpt>
      <trkpt lat="50.24722" lon="5.75998">
        <ele>502</ele>
        <time>2015-05-10T11:50:09Z</time>
      </trkpt>
      <trkpt lat="50.24716" lon="5.76">
        <ele>502</ele>
        <time>2015-05-10T11:50:15Z</time>
      </trkpt>
      <trkpt lat="50.24711" lon="5.76003">
        <ele>502</ele>
        <time>2015-05-10T11:50:20Z</time>
      </trkpt>
      <trkpt lat="50.24706" lon="5.76004">
        <ele>502</ele>
        <time>2015-05-10T11:50:25Z</time>
      </trkpt>
      <trkpt lat="50.247" lon="5.76006">
        <ele>502</ele>
        <time>2015-05-10T11:50:31Z</time>
      </trkpt>
      <trkpt lat="50.24696" lon="5.76007">
        <ele>502</ele>
        <time>2015-05-10T11:50:36Z</time>
      </trkpt>
      <trkpt lat="50.2469" lon="5.76008">
        <ele>501</ele>
        <time>2015-05-10T11:50:42Z</time>
      </trkpt>
      <trkpt lat="50.24684" lon="5.76009">
        <ele>502</ele>
        <time>2015-05-10T11:50:48Z</time>
      </trkpt>
      <trkpt lat="50.24679" lon="5.7601">
        <ele>502</ele>
        <time>2015-05-10T11:50:53Z</time>
      </trkpt>
      <trkpt lat="50.24674" lon="5.7601">
        <ele>502</ele>
        <time>2015-05-10T11:50:58Z</time>
      </trkpt>
      <trkpt lat="50.2467" lon="5.7601">
        <ele>502</ele>
        <time>2015-05-10T11:51:03Z</time>
      </trkpt>
      <trkpt lat="50.24666" lon="5.7601">
        <ele>502</ele>
        <time>2015-05-10T11:51:09Z</time>
      </trkpt>
      <trkpt lat="50.24663" lon="5.7601">
        <ele>502</ele>
        <time>2015-05-10T11:51:14Z</time>
      </trkpt>
      <trkpt lat="50.24659" lon="5.7601">
        <ele>503</ele>
        <time>2015-05-10T11:51:19Z</time>
      </trkpt>
      <trkpt lat="50.24653" lon="5.76008">
        <ele>503</ele>
        <time>2015-05-10T11:51:25Z</time>
      </trkpt>
      <trkpt lat="50.24649" lon="5.76006">
        <ele>503</ele>
        <time>2015-05-10T11:51:30Z</time>
      </trkpt>
      <trkpt lat="50.24645" lon="5.76005">
        <ele>502</ele>
        <time>2015-05-10T11:51:35Z</time>
      </trkpt>
      <trkpt lat="50.2464" lon="5.76005">
        <ele>503</ele>
        <time>2015-05-10T11:51:41Z</time>
      </trkpt>
      <trkpt lat="50.24635" lon="5.76005">
        <ele>503</ele>
        <time>2015-05-10T11:51:46Z</time>
      </trkpt>
      <trkpt lat="50.2463" lon="5.76005">
        <ele>503</ele>
        <time>2015-05-10T11:51:51Z</time>
      </trkpt>
      <trkpt lat="50.24625" lon="5.76005">
        <ele>503</ele>
        <time>2015-05-10T11:51:56Z</time>
      </trkpt>
      <trkpt lat="50.2462" lon="5.76006">
        <ele>503</ele>
        <time>2015-05-10T11:52:01Z</time>
      </trkpt>
      <trkpt lat="50.24613" lon="5.76006">
        <ele>504</ele>
        <time>2015-05-10T11:52:07Z</time>
      </trkpt>
      <trkpt lat="50.24607" lon="5.76006">
        <ele>503</ele>
        <time>2015-05-10T11:52:13Z</time>
      </trkpt>
      <trkpt lat="50.24604" lon="5.76005">
        <ele>503</ele>
        <time>2015-05-10T11:52:19Z</time>
      </trkpt>
      <trkpt lat="50.24601" lon="5.76001">
        <ele>503</ele>
        <time>2015-05-10T11:52:25Z</time>
      </trkpt>
      <trkpt lat="50.24597" lon="5.76">
        <ele>503</ele>
        <time>2015-05-10T11:52:31Z</time>
      </trkpt>
      <trkpt lat="50.24595" lon="5.76003">
        <ele>503</ele>
        <time>2015-05-10T11:52:37Z</time>
      </trkpt>
      <trkpt lat="50.24593" lon="5.76005">
        <ele>503</ele>
        <time>2015-05-10T11:52:43Z</time>
      </trkpt>
      <trkpt lat="50.24591" lon="5.76005">
        <ele>503</ele>
        <time>2015-05-10T11:52:48Z</time>
      </trkpt>
      <trkpt lat="50.24587" lon="5.76005">
        <ele>503</ele>
        <time>2015-05-10T11:52:54Z</time>
      </trkpt>
      <trkpt lat="50.24583" lon="5.76003">
        <ele>503</ele>
        <time>2015-05-10T11:52:59Z</time>
      </trkpt>
      <trkpt lat="50.2458" lon="5.76">
        <ele>503</ele>
        <time>2015-05-10T11:53:04Z</time>
      </trkpt>
      <trkpt lat="50.24579" lon="5.76">
        <ele>503</ele>
        <time>2015-05-10T11:53:10Z</time>
      </trkpt>
      <trkpt lat="50.24579" lon="5.76">
        <ele>504</ele>
        <time>2015-05-10T11:53:15Z</time>
      </trkpt>
      <trkpt lat="50.2458" lon="5.76001">
        <ele>504</ele>
        <time>2015-05-10T11:53:21Z</time>
      </trkpt>
      <trkpt lat="50.24582" lon="5.76">
        <ele>504</ele>
        <time>2015-05-10T11:53:26Z</time>
      </trkpt>
      <trkpt lat="50.24586" lon="5.75997">
        <ele>504</ele>
        <time>2015-05-10T11:53:32Z</time>
      </trkpt>
      <trkpt lat="50.24587" lon="5.75999">
        <ele>504</ele>
        <time>2015-05-10T11:53:38Z</time>
      </trkpt>
      <trkpt lat="50.24585" lon="5.76003">
        <ele>503</ele>
        <time>2015-05-10T11:53:44Z</time>
      </trkpt>
      <trkpt lat="50.24582" lon="5.76">
        <ele>503</ele>
        <time>2015-05-10T11:53:49Z</time>
      </trkpt>
      <trkpt lat="50.24578" lon="5.75997">
        <ele>503</ele>
        <time>2015-05-10T11:53:55Z</time>
      </trkpt>
      <trkpt lat="50.24574" lon="5.75993">
        <ele>504</ele>
        <time>2015-05-10T11:54:00Z</time>
      </trkpt>
      <trkpt lat="50.24569" lon="5.75988">
        <ele>504</ele>
        <time>2015-05-10T11:54:06Z</time>
      </trkpt>
      <trkpt lat="50.24566" lon="5.75982">
        <ele>505</ele>
        <time>2015-05-10T11:54:12Z</time>
      </trkpt>
      <trkpt lat="50.24561" lon="5.75975">
        <ele>505</ele>
        <time>2015-05-10T11:54:18Z</time>
      </trkpt>
      <trkpt lat="50.24558" lon="5.75969">
        <ele>505</ele>
        <time>2015-05-10T11:54:24Z</time>
      </trkpt>
      <trkpt lat="50.24554" lon="5.75963">
        <ele>504</ele>
        <time>2015-05-10T11:54:29Z</time>
      </trkpt>
      <trkpt lat="50.24549" lon="5.75958">
        <ele>505</ele>
        <time>2015-05-10T11:54:35Z</time>
      </trkpt>
      <trkpt lat="50.24547" lon="5.75954">
        <ele>505</ele>
        <time>2015-05-10T11:54:40Z</time>
      </trkpt>
      <trkpt lat="50.24546" lon="5.75953">
        <ele>505</ele>
        <time>2015-05-10T11:54:46Z</time>
      </trkpt>
      <trkpt lat="50.24544" lon="5.75951">
        <ele>505</ele>
        <time>2015-05-10T11:54:52Z</time>
      </trkpt>
      <trkpt lat="50.24542" lon="5.75947">
        <ele>505</ele>
        <time>2015-05-10T11:54:58Z</time>
      </trkpt>
      <trkpt lat="50.2454" lon="5.75944">
        <ele>505</ele>
        <time>2015-05-10T11:55:04Z</time>
      </trkpt>
      <trkpt lat="50.24538" lon="5.75938">
        <ele>505</ele>
        <time>2015-05-10T11:55:10Z</time>
      </trkpt>
      <trkpt lat="50.24535" lon="5.75935">
        <ele>505</ele>
        <time>2015-05-10T11:55:15Z</time>
      </trkpt>
      <trkpt lat="50.24532" lon="5.7593">
        <ele>506</ele>
        <time>2015-05-10T11:55:21Z</time>
      </trkpt>
      <trkpt lat="50.24529" lon="5.75925">
        <ele>505</ele>
        <time>2015-05-10T11:55:27Z</time>
      </trkpt>
      <trkpt lat="50.24525" lon="5.75922">
        <ele>506</ele>
        <time>2015-05-10T11:55:33Z</time>
      </trkpt>
      <trkpt lat="50.24521" lon="5.75916">
        <ele>506</ele>
        <time>2015-05-10T11:55:39Z</time>
      </trkpt>
      <trkpt lat="50.24518" lon="5.75911">
        <ele>506</ele>
        <time>2015-05-10T11:55:44Z</time>
      </trkpt>
      <trkpt lat="50.24515" lon="5.75908">
        <ele>507</ele>
        <time>2015-05-10T11:55:49Z</time>
      </trkpt>
      <trkpt lat="50.24512" lon="5.75902">
        <ele>507</ele>
        <time>2015-05-10T11:55:55Z</time>
      </trkpt>
      <trkpt lat="50.24508" lon="5.75896">
        <ele>507</ele>
        <time>2015-05-10T11:56:00Z</time>
      </trkpt>
      <trkpt lat="50.24505" lon="5.75889">
        <ele>507</ele>
        <time>2015-05-10T11:56:05Z</time>
      </trkpt>
      <trkpt lat="50.24501" lon="5.75883">
        <ele>508</ele>
        <time>2015-05-10T11:56:10Z</time>
      </trkpt>
      <trkpt lat="50.24497" lon="5.75875">
        <ele>507</ele>
        <time>2015-05-10T11:56:16Z</time>
      </trkpt>
      <trkpt lat="50.24494" lon="5.75869">
        <ele>507</ele>
        <time>2015-05-10T11:56:22Z</time>
      </trkpt>
      <trkpt lat="50.2449" lon="5.75865">
        <ele>508</ele>
        <time>2015-05-10T11:56:27Z</time>
      </trkpt>
      <trkpt lat="50.24486" lon="5.75859">
        <ele>509</ele>
        <time>2015-05-10T11:56:33Z</time>
      </trkpt>
      <trkpt lat="50.24484" lon="5.75854">
        <ele>509</ele>
        <time>2015-05-10T11:56:38Z</time>
      </trkpt>
      <trkpt lat="50.2448" lon="5.75848">
        <ele>509</ele>
        <time>2015-05-10T11:56:44Z</time>
      </trkpt>
      <trkpt lat="50.24475" lon="5.75841">
        <ele>509</ele>
        <time>2015-05-10T11:56:50Z</time>
      </trkpt>
      <trkpt lat="50.24472" lon="5.75837">
        <ele>510</ele>
        <time>2015-05-10T11:56:55Z</time>
      </trkpt>
      <trkpt lat="50.24467" lon="5.75832">
        <ele>510</ele>
        <time>2015-05-10T11:57:01Z</time>
      </trkpt>
      <trkpt lat="50.24464" lon="5.75826">
        <ele>510</ele>
        <time>2015-05-10T11:57:07Z</time>
      </trkpt>
      <trkpt lat="50.2446" lon="5.75821">
        <ele>510</ele>
        <time>2015-05-10T11:57:12Z</time>
      </trkpt>
      <trkpt lat="50.24458" lon="5.75814">
        <ele>511</ele>
        <time>2015-05-10T11:57:18Z</time>
      </trkpt>
      <trkpt lat="50.24456" lon="5.75808">
        <ele>511</ele>
        <time>2015-05-10T11:57:24Z</time>
      </trkpt>
      <trkpt lat="50.24452" lon="5.75804">
        <ele>512</ele>
        <time>2015-05-10T11:57:30Z</time>
      </trkpt>
      <trkpt lat="50.24447" lon="5.75807">
        <ele>512</ele>
        <time>2015-05-10T11:57:36Z</time>
      </trkpt>
      <trkpt lat="50.24443" lon="5.75807">
        <ele>511</ele>
        <time>2015-05-10T11:57:42Z</time>
      </trkpt>
      <trkpt lat="50.2444" lon="5.75807">
        <ele>511</ele>
        <time>2015-05-10T11:57:47Z</time>
      </trkpt>
      <trkpt lat="50.24437" lon="5.75807">
        <ele>512</ele>
        <time>2015-05-10T11:57:52Z</time>
      </trkpt>
      <trkpt lat="50.24432" lon="5.7581">
        <ele>512</ele>
        <time>2015-05-10T11:57:58Z</time>
      </trkpt>
      <trkpt lat="50.24427" lon="5.75812">
        <ele>512</ele>
        <time>2015-05-10T11:58:03Z</time>
      </trkpt>
      <trkpt lat="50.24421" lon="5.75814">
        <ele>511</ele>
        <time>2015-05-10T11:58:08Z</time>
      </trkpt>
      <trkpt lat="50.24416" lon="5.75815">
        <ele>511</ele>
        <time>2015-05-10T11:58:13Z</time>
      </trkpt>
      <trkpt lat="50.2441" lon="5.75819">
        <ele>512</ele>
        <time>2015-05-10T11:58:19Z</time>
      </trkpt>
      <trkpt lat="50.24405" lon="5.75822">
        <ele>512</ele>
        <time>2015-05-10T11:58:24Z</time>
      </trkpt>
      <trkpt lat="50.24397" lon="5.7583">
        <ele>511</ele>
        <time>2015-05-10T11:58:30Z</time>
      </trkpt>
      <trkpt lat="50.24391" lon="5.75834">
        <ele>512</ele>
        <time>2015-05-10T11:58:36Z</time>
      </trkpt>
      <trkpt lat="50.24384" lon="5.75837">
        <ele>511</ele>
        <time>2015-05-10T11:58:42Z</time>
      </trkpt>
      <trkpt lat="50.24377" lon="5.7584">
        <ele>511</ele>
        <time>2015-05-10T11:58:48Z</time>
      </trkpt>
      <trkpt lat="50.24371" lon="5.75844">
        <ele>511</ele>
        <time>2015-05-10T11:58:54Z</time>
      </trkpt>
      <trkpt lat="50.24363" lon="5.75848">
        <ele>511</ele>
        <time>2015-05-10T11:59:00Z</time>
      </trkpt>
      <trkpt lat="50.24357" lon="5.75852">
        <ele>512</ele>
        <time>2015-05-10T11:59:05Z</time>
      </trkpt>
      <trkpt lat="50.24352" lon="5.75855">
        <ele>511</ele>
        <time>2015-05-10T11:59:10Z</time>
      </trkpt>
      <trkpt lat="50.24344" lon="5.75859">
        <ele>511</ele>
        <time>2015-05-10T11:59:16Z</time>
      </trkpt>
      <trkpt lat="50.24338" lon="5.75864">
        <ele>510</ele>
        <time>2015-05-10T11:59:21Z</time>
      </trkpt>
      <trkpt lat="50.24333" lon="5.75867">
        <ele>510</ele>
        <time>2015-05-10T11:59:26Z</time>
      </trkpt>
      <trkpt lat="50.24326" lon="5.7587">
        <ele>510</ele>
        <time>2015-05-10T11:59:32Z</time>
      </trkpt>
      <trkpt lat="50.2432" lon="5.75872">
        <ele>510</ele>
        <time>2015-05-10T11:59:37Z</time>
      </trkpt>
      <trkpt lat="50.24315" lon="5.75874">
        <ele>510</ele>
        <time>2015-05-10T11:59:42Z</time>
      </trkpt>
      <trkpt lat="50.24309" lon="5.75876">
        <ele>510</ele>
        <time>2015-05-10T11:59:48Z</time>
      </trkpt>
      <trkpt lat="50.24302" lon="5.75878">
        <ele>510</ele>
        <time>2015-05-10T11:59:54Z</time>
      </trkpt>
      <trkpt lat="50.24297" lon="5.7588">
        <ele>510</ele>
        <time>2015-05-10T11:59:59Z</time>
      </trkpt>
      <trkpt lat="50.24291" lon="5.75884">
        <ele>509</ele>
        <time>2015-05-10T12:00:04Z</time>
      </trkpt>
      <trkpt lat="50.24285" lon="5.75886">
        <ele>509</ele>
        <time>2015-05-10T12:00:10Z</time>
      </trkpt>
      <trkpt lat="50.24277" lon="5.75889">
        <ele>509</ele>
        <time>2015-05-10T12:00:16Z</time>
      </trkpt>
      <trkpt lat="50.24271" lon="5.75895">
        <ele>509</ele>
        <time>2015-05-10T12:00:22Z</time>
      </trkpt>
      <trkpt lat="50.24263" lon="5.759">
        <ele>509</ele>
        <time>2015-05-10T12:00:28Z</time>
      </trkpt>
      <trkpt lat="50.24255" lon="5.75904">
        <ele>509</ele>
        <time>2015-05-10T12:00:34Z</time>
      </trkpt>
      <trkpt lat="50.2425" lon="5.75906">
        <ele>509</ele>
        <time>2015-05-10T12:00:39Z</time>
      </trkpt>
      <trkpt lat="50.24244" lon="5.75906">
        <ele>508</ele>
        <time>2015-05-10T12:00:45Z</time>
      </trkpt>
      <trkpt lat="50.24239" lon="5.75902">
        <ele>509</ele>
        <time>2015-05-10T12:00:51Z</time>
      </trkpt>
      <trkpt lat="50.24234" lon="5.759">
        <ele>509</ele>
        <time>2015-05-10T12:00:56Z</time>
      </trkpt>
      <trkpt lat="50.2423" lon="5.75895">
        <ele>509</ele>
        <time>2015-05-10T12:01:02Z</time>
      </trkpt>
      <trkpt lat="50.24226" lon="5.75892">
        <ele>509</ele>
        <time>2015-05-10T12:01:08Z</time>
      </trkpt>
      <trkpt lat="50.24222" lon="5.75888">
        <ele>510</ele>
        <time>2015-05-10T12:01:13Z</time>
      </trkpt>
      <trkpt lat="50.24216" lon="5.75882">
        <ele>510</ele>
        <time>2015-05-10T12:01:19Z</time>
      </trkpt>
      <trkpt lat="50.24212" lon="5.75881">
        <ele>511</ele>
        <time>2015-05-10T12:01:24Z</time>
      </trkpt>
      <trkpt lat="50.2421" lon="5.75877">
        <ele>511</ele>
        <time>2015-05-10T12:01:30Z</time>
      </trkpt>
      <trkpt lat="50.2421" lon="5.75874">
        <ele>511</ele>
        <time>2015-05-10T12:01:36Z</time>
      </trkpt>
      <trkpt lat="50.24209" lon="5.75869">
        <ele>511</ele>
        <time>2015-05-10T12:01:41Z</time>
      </trkpt>
      <trkpt lat="50.24207" lon="5.75864">
        <ele>511</ele>
        <time>2015-05-10T12:01:47Z</time>
      </trkpt>
      <trkpt lat="50.24204" lon="5.75858">
        <ele>512</ele>
        <time>2015-05-10T12:01:53Z</time>
      </trkpt>
      <trkpt lat="50.242" lon="5.75853">
        <ele>512</ele>
        <time>2015-05-10T12:01:59Z</time>
      </trkpt>
      <trkpt lat="50.24197" lon="5.75849">
        <ele>513</ele>
        <time>2015-05-10T12:02:04Z</time>
      </trkpt>
      <trkpt lat="50.24192" lon="5.75845">
        <ele>513</ele>
        <time>2015-05-10T12:02:10Z</time>
      </trkpt>
      <trkpt lat="50.24189" lon="5.75841">
        <ele>513</ele>
        <time>2015-05-10T12:02:15Z</time>
      </trkpt>
      <trkpt lat="50.24185" lon="5.75835">
        <ele>514</ele>
        <time>2015-05-10T12:02:21Z</time>
      </trkpt>
      <trkpt lat="50.24182" lon="5.75831">
        <ele>515</ele>
        <time>2015-05-10T12:02:26Z</time>
      </trkpt>
      <trkpt lat="50.24178" lon="5.75824">
        <ele>515</ele>
        <time>2015-05-10T12:02:32Z</time>
      </trkpt>
      <trkpt lat="50.24174" lon="5.75818">
        <ele>515</ele>
        <time>2015-05-10T12:02:38Z</time>
      </trkpt>
      <trkpt lat="50.24173" lon="5.75813">
        <ele>515</ele>
        <time>2015-05-10T12:02:44Z</time>
      </trkpt>
      <trkpt lat="50.24173" lon="5.75808">
        <ele>515</ele>
        <time>2015-05-10T12:02:50Z</time>
      </trkpt>
      <trkpt lat="50.24174" lon="5.75803">
        <ele>515</ele>
        <time>2015-05-10T12:02:56Z</time>
      </trkpt>
      <trkpt lat="50.24174" lon="5.75799">
        <ele>516</ele>
        <time>2015-05-10T12:03:02Z</time>
      </trkpt>
      <trkpt lat="50.24173" lon="5.75797">
        <ele>516</ele>
        <time>2015-05-10T12:03:08Z</time>
      </trkpt>
      <trkpt lat="50.24173" lon="5.75792">
        <ele>516</ele>
        <time>2015-05-10T12:03:14Z</time>
      </trkpt>
      <trkpt lat="50.24175" lon="5.75787">
        <ele>515</ele>
        <time>2015-05-10T12:03:20Z</time>
      </trkpt>
      <trkpt lat="50.24176" lon="5.75787">
        <ele>515</ele>
        <time>2015-05-10T12:03:25Z</time>
      </trkpt>
      <trkpt lat="50.24176" lon="5.75789">
        <ele>516</ele>
        <time>2015-05-10T12:03:31Z</time>
      </trkpt>
      <trkpt lat="50.24177" lon="5.75789">
        <ele>516</ele>
        <time>2015-05-10T12:03:36Z</time>
      </trkpt>
      <trkpt lat="50.24178" lon="5.75791">
        <ele>516</ele>
        <time>2015-05-10T12:03:42Z</time>
      </trkpt>
      <trkpt lat="50.24177" lon="5.75792">
        <ele>516</ele>
        <time>2015-05-10T12:03:48Z</time>
      </trkpt>
      <trkpt lat="50.24176" lon="5.75796">
        <ele>515</ele>
        <time>2015-05-10T12:03:53Z</time>
      </trkpt>
      <trkpt lat="50.24172" lon="5.75796">
        <ele>515</ele>
        <time>2015-05-10T12:03:59Z</time>
      </trkpt>
      <trkpt lat="50.2417" lon="5.75793">
        <ele>516</ele>
        <time>2015-05-10T12:04:04Z</time>
      </trkpt>
      <trkpt lat="50.24167" lon="5.75789">
        <ele>517</ele>
        <time>2015-05-10T12:04:09Z</time>
      </trkpt>
      <trkpt lat="50.24164" lon="5.75785">
        <ele>517</ele>
        <time>2015-05-10T12:04:15Z</time>
      </trkpt>
      <trkpt lat="50.24161" lon="5.75779">
        <ele>517</ele>
        <time>2015-05-10T12:04:21Z</time>
      </trkpt>
      <trkpt lat="50.24159" lon="5.75773">
        <ele>517</ele>
        <time>2015-05-10T12:04:26Z</time>
      </trkpt>
      <trkpt lat="50.24157" lon="5.75767">
        <ele>518</ele>
        <time>2015-05-10T12:04:31Z</time>
      </trkpt>
      <trkpt lat="50.24153" lon="5.7576">
        <ele>518</ele>
        <time>2015-05-10T12:04:37Z</time>
      </trkpt>
      <trkpt lat="50.24147" lon="5.75756">
        <ele>519</ele>
        <time>2015-05-10T12:04:43Z</time>
      </trkpt>
      <trkpt lat="50.24144" lon="5.75753">
        <ele>519</ele>
        <time>2015-05-10T12:04:48Z</time>
      </trkpt>
      <trkpt lat="50.2414" lon="5.75746">
        <ele>520</ele>
        <time>2015-05-10T12:04:54Z</time>
      </trkpt>
      <trkpt lat="50.24137" lon="5.75739">
        <ele>520</ele>
        <time>2015-05-10T12:05:00Z</time>
      </trkpt>
      <trkpt lat="50.24133" lon="5.75734">
        <ele>520</ele>
        <time>2015-05-10T12:05:05Z</time>
      </trkpt>
      <trkpt lat="50.24131" lon="5.75728">
        <ele>521</ele>
        <time>2015-05-10T12:05:10Z</time>
      </trkpt>
      <trkpt lat="50.24129" lon="5.75723">
        <ele>521</ele>
        <time>2015-05-10T12:05:15Z</time>
      </trkpt>
      <trkpt lat="50.24129" lon="5.75715">
        <ele>521</ele>
        <time>2015-05-10T12:05:21Z</time>
      </trkpt>
      <trkpt lat="50.24127" lon="5.75711">
        <ele>522</ele>
        <time>2015-05-10T12:05:26Z</time>
      </trkpt>
      <trkpt lat="50.24126" lon="5.75704">
        <ele>522</ele>
        <time>2015-05-10T12:05:32Z</time>
      </trkpt>
      <trkpt lat="50.24125" lon="5.75697">
        <ele>522</ele>
        <time>2015-05-10T12:05:38Z</time>
      </trkpt>
      <trkpt lat="50.24125" lon="5.75688">
        <ele>522</ele>
        <time>2015-05-10T12:05:44Z</time>
      </trkpt>
      <trkpt lat="50.24125" lon="5.75683">
        <ele>522</ele>
        <time>2015-05-10T12:05:49Z</time>
      </trkpt>
      <trkpt lat="50.24123" lon="5.75676">
        <ele>523</ele>
        <time>2015-05-10T12:05:55Z</time>
      </trkpt>
      <trkpt lat="50.24121" lon="5.75672">
        <ele>523</ele>
        <time>2015-05-10T12:06:00Z</time>
      </trkpt>
      <trkpt lat="50.24118" lon="5.75667">
        <ele>523</ele>
        <time>2015-05-10T12:06:06Z</time>
      </trkpt>
      <trkpt lat="50.24117" lon="5.75663">
        <ele>523</ele>
        <time>2015-05-10T12:06:12Z</time>
      </trkpt>
      <trkpt lat="50.24117" lon="5.75661">
        <ele>522</ele>
        <time>2015-05-10T12:06:19Z</time>
      </trkpt>
      <trkpt lat="50.2412" lon="5.7566">
        <ele>523</ele>
        <time>2015-05-10T12:06:25Z</time>
      </trkpt>
      <trkpt lat="50.24123" lon="5.7566">
        <ele>523</ele>
        <time>2015-05-10T12:06:30Z</time>
      </trkpt>
      <trkpt lat="50.24126" lon="5.75662">
        <ele>523</ele>
        <time>2015-05-10T12:06:35Z</time>
      </trkpt>
      <trkpt lat="50.2413" lon="5.75662">
        <ele>523</ele>
        <time>2015-05-10T12:06:41Z</time>
      </trkpt>
      <trkpt lat="50.24133" lon="5.75662">
        <ele>523</ele>
        <time>2015-05-10T12:06:47Z</time>
      </trkpt>
      <trkpt lat="50.24134" lon="5.75664">
        <ele>523</ele>
        <time>2015-05-10T12:06:52Z</time>
      </trkpt>
      <trkpt lat="50.24133" lon="5.75671">
        <ele>523</ele>
        <time>2015-05-10T12:06:58Z</time>
      </trkpt>
      <trkpt lat="50.24132" lon="5.75676">
        <ele>523</ele>
        <time>2015-05-10T12:07:04Z</time>
      </trkpt>
      <trkpt lat="50.24133" lon="5.75677">
        <ele>523</ele>
        <time>2015-05-10T12:07:09Z</time>
      </trkpt>
      <trkpt lat="50.24133" lon="5.75677">
        <ele>523</ele>
        <time>2015-05-10T12:07:15Z</time>
      </trkpt>
      <trkpt lat="50.24134" lon="5.75676">
        <ele>523</ele>
        <time>2015-05-10T12:07:20Z</time>
      </trkpt>
      <trkpt lat="50.24134" lon="5.75671">
        <ele>523</ele>
        <time>2015-05-10T12:07:25Z</time>
      </trkpt>
      <trkpt lat="50.24134" lon="5.7567">
        <ele>523</ele>
        <time>2015-05-10T12:07:31Z</time>
      </trkpt>
      <trkpt lat="50.24131" lon="5.75672">
        <ele>523</ele>
        <time>2015-05-10T12:07:36Z</time>
      </trkpt>
      <trkpt lat="50.24131" lon="5.75675">
        <ele>523</ele>
        <time>2015-05-10T12:07:41Z</time>
      </trkpt>
      <trkpt lat="50.2413" lon="5.75675">
        <ele>522</ele>
        <time>2015-05-10T12:07:47Z</time>
      </trkpt>
      <trkpt lat="50.2413" lon="5.75673">
        <ele>523</ele>
        <time>2015-05-10T12:07:52Z</time>
      </trkpt>
      <trkpt lat="50.24129" lon="5.75671">
        <ele>523</ele>
        <time>2015-05-10T12:07:57Z</time>
      </trkpt>
      <trkpt lat="50.2413" lon="5.75671">
        <ele>523</ele>
        <time>2015-05-10T12:08:02Z</time>
      </trkpt>
      <trkpt lat="50.24128" lon="5.75669">
        <ele>522</ele>
        <time>2015-05-10T12:08:08Z</time>
      </trkpt>
      <trkpt lat="50.24126" lon="5.75666">
        <ele>522</ele>
        <time>2015-05-10T12:08:13Z</time>
      </trkpt>
      <trkpt lat="50.24127" lon="5.75663">
        <ele>523</ele>
        <time>2015-05-10T12:08:18Z</time>
      </trkpt>
      <trkpt lat="50.24128" lon="5.75658">
        <ele>523</ele>
        <time>2015-05-10T12:08:24Z</time>
      </trkpt>
      <trkpt lat="50.24126" lon="5.75657">
        <ele>523</ele>
        <time>2015-05-10T12:08:29Z</time>
      </trkpt>
      <trkpt lat="50.24123" lon="5.7566">
        <ele>523</ele>
        <time>2015-05-10T12:08:34Z</time>
      </trkpt>
      <trkpt lat="50.24122" lon="5.75664">
        <ele>523</ele>
        <time>2015-05-10T12:08:40Z</time>
      </trkpt>
      <trkpt lat="50.24122" lon="5.75668">
        <ele>523</ele>
        <time>2015-05-10T12:08:45Z</time>
      </trkpt>
      <trkpt lat="50.24121" lon="5.7567">
        <ele>523</ele>
        <time>2015-05-10T12:08:50Z</time>
      </trkpt>
      <trkpt lat="50.24123" lon="5.75671">
        <ele>523</ele>
        <time>2015-05-10T12:08:55Z</time>
      </trkpt>
      <trkpt lat="50.24126" lon="5.75673">
        <ele>523</ele>
        <time>2015-05-10T12:09:01Z</time>
      </trkpt>
      <trkpt lat="50.2413" lon="5.75671">
        <ele>523</ele>
        <time>2015-05-10T12:09:07Z</time>
      </trkpt>
      <trkpt lat="50.24131" lon="5.7567">
        <ele>523</ele>
        <time>2015-05-10T12:09:12Z</time>
      </trkpt>
      <trkpt lat="50.24133" lon="5.7567">
        <ele>523</ele>
        <time>2015-05-10T12:09:17Z</time>
      </trkpt>
      <trkpt lat="50.24134" lon="5.75672">
        <ele>523</ele>
        <time>2015-05-10T12:09:22Z</time>
      </trkpt>
      <trkpt lat="50.24134" lon="5.75675">
        <ele>523</ele>
        <time>2015-05-10T12:09:28Z</time>
      </trkpt>
      <trkpt lat="50.24134" lon="5.75675">
        <ele>523</ele>
        <time>2015-05-10T12:09:33Z</time>
      </trkpt>
      <trkpt lat="50.24134" lon="5.75673">
        <ele>523</ele>
        <time>2015-05-10T12:09:38Z</time>
      </trkpt>
      <trkpt lat="50.24135" lon="5.7567">
        <ele>523</ele>
        <time>2015-05-10T12:09:44Z</time>
      </trkpt>
      <trkpt lat="50.24133" lon="5.7567">
        <ele>523</ele>
        <time>2015-05-10T12:09:49Z</time>
      </trkpt>
      <trkpt lat="50.24128" lon="5.75671">
        <ele>523</ele>
        <time>2015-05-10T12:09:55Z</time>
      </trkpt>
      <trkpt lat="50.24123" lon="5.75672">
        <ele>523</ele>
        <time>2015-05-10T12:10:00Z</time>
      </trkpt>
      <trkpt lat="50.24115" lon="5.75676">
        <ele>522</ele>
        <time>2015-05-10T12:10:06Z</time>
      </trkpt>
      <trkpt lat="50.2411" lon="5.75679">
        <ele>523</ele>
        <time>2015-05-10T12:10:11Z</time>
      </trkpt>
      <trkpt lat="50.24102" lon="5.75682">
        <ele>523</ele>
        <time>2015-05-10T12:10:17Z</time>
      </trkpt>
      <trkpt lat="50.24096" lon="5.75684">
        <ele>523</ele>
        <time>2015-05-10T12:10:22Z</time>
      </trkpt>
      <trkpt lat="50.24088" lon="5.75688">
        <ele>523</ele>
        <time>2015-05-10T12:10:28Z</time>
      </trkpt>
      <trkpt lat="50.24082" lon="5.7569">
        <ele>523</ele>
        <time>2015-05-10T12:10:33Z</time>
      </trkpt>
      <trkpt lat="50.24076" lon="5.75692">
        <ele>523</ele>
        <time>2015-05-10T12:10:39Z</time>
      </trkpt>
      <trkpt lat="50.24071" lon="5.75692">
        <ele>524</ele>
        <time>2015-05-10T12:10:45Z</time>
      </trkpt>
      <trkpt lat="50.24067" lon="5.75693">
        <ele>524</ele>
        <time>2015-05-10T12:10:50Z</time>
      </trkpt>
      <trkpt lat="50.24062" lon="5.75697">
        <ele>524</ele>
        <time>2015-05-10T12:10:56Z</time>
      </trkpt>
      <trkpt lat="50.24057" lon="5.757">
        <ele>524</ele>
        <time>2015-05-10T12:11:02Z</time>
      </trkpt>
      <trkpt lat="50.24053" lon="5.75702">
        <ele>525</ele>
        <time>2015-05-10T12:11:07Z</time>
      </trkpt>
      <trkpt lat="50.24049" lon="5.75706">
        <ele>525</ele>
        <time>2015-05-10T12:11:12Z</time>
      </trkpt>
      <trkpt lat="50.24044" lon="5.75713">
        <ele>525</ele>
        <time>2015-05-10T12:11:18Z</time>
      </trkpt>
      <trkpt lat="50.24038" lon="5.75718">
        <ele>525</ele>
        <time>2015-05-10T12:11:24Z</time>
      </trkpt>
      <trkpt lat="50.24033" lon="5.75726">
        <ele>524</ele>
        <time>2015-05-10T12:11:30Z</time>
      </trkpt>
      <trkpt lat="50.2403" lon="5.75733">
        <ele>525</ele>
        <time>2015-05-10T12:11:36Z</time>
      </trkpt>
      <trkpt lat="50.24025" lon="5.75738">
        <ele>525</ele>
        <time>2015-05-10T12:11:42Z</time>
      </trkpt>
      <trkpt lat="50.24023" lon="5.75742">
        <ele>524</ele>
        <time>2015-05-10T12:11:47Z</time>
      </trkpt>
      <trkpt lat="50.24021" lon="5.75746">
        <ele>525</ele>
        <time>2015-05-10T12:11:52Z</time>
      </trkpt>
      <trkpt lat="50.24018" lon="5.75748">
        <ele>525</ele>
        <time>2015-05-10T12:11:58Z</time>
      </trkpt>
      <trkpt lat="50.24015" lon="5.75746">
        <ele>525</ele>
        <time>2015-05-10T12:12:04Z</time>
      </trkpt>
      <trkpt lat="50.24013" lon="5.7575">
        <ele>525</ele>
        <time>2015-05-10T12:12:09Z</time>
      </trkpt>
      <trkpt lat="50.24011" lon="5.75753">
        <ele>524</ele>
        <time>2015-05-10T12:12:15Z</time>
      </trkpt>
      <trkpt lat="50.24012" lon="5.75757">
        <ele>524</ele>
        <time>2015-05-10T12:12:20Z</time>
      </trkpt>
      <trkpt lat="50.24012" lon="5.7576">
        <ele>525</ele>
        <time>2015-05-10T12:12:25Z</time>
      </trkpt>
      <trkpt lat="50.2401" lon="5.75773">
        <ele>524</ele>
        <time>2015-05-10T12:12:31Z</time>
      </trkpt>
      <trkpt lat="50.24007" lon="5.75783">
        <ele>525</ele>
        <time>2015-05-10T12:12:37Z</time>
      </trkpt>
      <trkpt lat="50.24014" lon="5.75777">
        <ele>525</ele>
        <time>2015-05-10T12:12:42Z</time>
      </trkpt>
      <trkpt lat="50.24014" lon="5.75771">
        <ele>525</ele>
        <time>2015-05-10T12:12:49Z</time>
      </trkpt>
      <trkpt lat="50.24013" lon="5.75768">
        <ele>525</ele>
        <time>2015-05-10T12:12:55Z</time>
      </trkpt>
      <trkpt lat="50.24014" lon="5.75767">
        <ele>525</ele>
        <time>2015-05-10T12:13:00Z</time>
      </trkpt>
      <trkpt lat="50.24015" lon="5.75763">
        <ele>525</ele>
        <time>2015-05-10T12:13:05Z</time>
      </trkpt>
      <trkpt lat="50.24012" lon="5.75758">
        <ele>524</ele>
        <time>2015-05-10T12:13:11Z</time>
      </trkpt>
      <trkpt lat="50.24011" lon="5.75753">
        <ele>524</ele>
        <time>2015-05-10T12:13:16Z</time>
      </trkpt>
      <trkpt lat="50.24009" lon="5.75749">
        <ele>524</ele>
        <time>2015-05-10T12:13:22Z</time>
      </trkpt>
      <trkpt lat="50.24009" lon="5.75745">
        <ele>524</ele>
        <time>2015-05-10T12:13:27Z</time>
      </trkpt>
      <trkpt lat="50.24012" lon="5.75741">
        <ele>525</ele>
        <time>2015-05-10T12:13:32Z</time>
      </trkpt>
      <trkpt lat="50.24015" lon="5.75737">
        <ele>524</ele>
        <time>2015-05-10T12:13:38Z</time>
      </trkpt>
      <trkpt lat="50.24017" lon="5.75731">
        <ele>524</ele>
        <time>2015-05-10T12:13:43Z</time>
      </trkpt>
      <trkpt lat="50.24021" lon="5.75724">
        <ele>524</ele>
        <time>2015-05-10T12:13:48Z</time>
      </trkpt>
      <trkpt lat="50.24023" lon="5.75716">
        <ele>524</ele>
        <time>2015-05-10T12:13:54Z</time>
      </trkpt>
      <trkpt lat="50.24027" lon="5.75711">
        <ele>524</ele>
        <time>2015-05-10T12:13:59Z</time>
      </trkpt>
      <trkpt lat="50.24031" lon="5.75709">
        <ele>524</ele>
        <time>2015-05-10T12:14:04Z</time>
      </trkpt>
      <trkpt lat="50.24035" lon="5.75706">
        <ele>524</ele>
        <time>2015-05-10T12:14:09Z</time>
      </trkpt>
      <trkpt lat="50.24039" lon="5.757">
        <ele>524</ele>
        <time>2015-05-10T12:14:15Z</time>
      </trkpt>
      <trkpt lat="50.24042" lon="5.75699">
        <ele>524</ele>
        <time>2015-05-10T12:14:21Z</time>
      </trkpt>
      <trkpt lat="50.24045" lon="5.757">
        <ele>524</ele>
        <time>2015-05-10T12:14:27Z</time>
      </trkpt>
      <trkpt lat="50.24046" lon="5.75702">
        <ele>524</ele>
        <time>2015-05-10T12:14:32Z</time>
      </trkpt>
      <trkpt lat="50.24049" lon="5.75704">
        <ele>524</ele>
        <time>2015-05-10T12:14:37Z</time>
      </trkpt>
      <trkpt lat="50.24051" lon="5.75703">
        <ele>524</ele>
        <time>2015-05-10T12:14:42Z</time>
      </trkpt>
      <trkpt lat="50.24054" lon="5.75701">
        <ele>524</ele>
        <time>2015-05-10T12:14:47Z</time>
      </trkpt>
      <trkpt lat="50.24056" lon="5.75698">
        <ele>523</ele>
        <time>2015-05-10T12:14:52Z</time>
      </trkpt>
      <trkpt lat="50.2406" lon="5.75694">
        <ele>524</ele>
        <time>2015-05-10T12:14:58Z</time>
      </trkpt>
      <trkpt lat="50.24065" lon="5.7569">
        <ele>523</ele>
        <time>2015-05-10T12:15:04Z</time>
      </trkpt>
      <trkpt lat="50.24069" lon="5.75687">
        <ele>523</ele>
        <time>2015-05-10T12:15:09Z</time>
      </trkpt>
      <trkpt lat="50.24073" lon="5.75684">
        <ele>523</ele>
        <time>2015-05-10T12:15:15Z</time>
      </trkpt>
      <trkpt lat="50.24078" lon="5.75682">
        <ele>523</ele>
        <time>2015-05-10T12:15:20Z</time>
      </trkpt>
      <trkpt lat="50.24083" lon="5.75677">
        <ele>523</ele>
        <time>2015-05-10T12:15:25Z</time>
      </trkpt>
      <trkpt lat="50.24089" lon="5.75673">
        <ele>523</ele>
        <time>2015-05-10T12:15:31Z</time>
      </trkpt>
      <trkpt lat="50.24095" lon="5.7567">
        <ele>523</ele>
        <time>2015-05-10T12:15:37Z</time>
      </trkpt>
      <trkpt lat="50.241" lon="5.75667">
        <ele>523</ele>
        <time>2015-05-10T12:15:42Z</time>
      </trkpt>
      <trkpt lat="50.24105" lon="5.75664">
        <ele>523</ele>
        <time>2015-05-10T12:15:48Z</time>
      </trkpt>
      <trkpt lat="50.24111" lon="5.75662">
        <ele>523</ele>
        <time>2015-05-10T12:15:53Z</time>
      </trkpt>
      <trkpt lat="50.24116" lon="5.75659">
        <ele>523</ele>
        <time>2015-05-10T12:15:58Z</time>
      </trkpt>
      <trkpt lat="50.24123" lon="5.75657">
        <ele>523</ele>
        <time>2015-05-10T12:16:04Z</time>
      </trkpt>
      <trkpt lat="50.24128" lon="5.75654">
        <ele>523</ele>
        <time>2015-05-10T12:16:09Z</time>
      </trkpt>
      <trkpt lat="50.24134" lon="5.7565">
        <ele>524</ele>
        <time>2015-05-10T12:16:15Z</time>
      </trkpt>
      <trkpt lat="50.2414" lon="5.75647">
        <ele>524</ele>
        <time>2015-05-10T12:16:21Z</time>
      </trkpt>
      <trkpt lat="50.24146" lon="5.75643">
        <ele>524</ele>
        <time>2015-05-10T12:16:26Z</time>
      </trkpt>
      <trkpt lat="50.24152" lon="5.75639">
        <ele>524</ele>
        <time>2015-05-10T12:16:32Z</time>
      </trkpt>
      <trkpt lat="50.24159" lon="5.75635">
        <ele>524</ele>
        <time>2015-05-10T12:16:37Z</time>
      </trkpt>
      <trkpt lat="50.24164" lon="5.75632">
        <ele>524</ele>
        <time>2015-05-10T12:16:42Z</time>
      </trkpt>
      <trkpt lat="50.24171" lon="5.75627">
        <ele>524</ele>
        <time>2015-05-10T12:16:48Z</time>
      </trkpt>
      <trkpt lat="50.24176" lon="5.75624">
        <ele>524</ele>
        <time>2015-05-10T12:16:53Z</time>
      </trkpt>
      <trkpt lat="50.24181" lon="5.7562">
        <ele>524</ele>
        <time>2015-05-10T12:16:58Z</time>
      </trkpt>
      <trkpt lat="50.24186" lon="5.75617">
        <ele>524</ele>
        <time>2015-05-10T12:17:03Z</time>
      </trkpt>
      <trkpt lat="50.24191" lon="5.75613">
        <ele>524</ele>
        <time>2015-05-10T12:17:09Z</time>
      </trkpt>
      <trkpt lat="50.24196" lon="5.75611">
        <ele>524</ele>
        <time>2015-05-10T12:17:15Z</time>
      </trkpt>
      <trkpt lat="50.242" lon="5.75608">
        <ele>524</ele>
        <time>2015-05-10T12:17:20Z</time>
      </trkpt>
      <trkpt lat="50.24203" lon="5.75608">
        <ele>524</ele>
        <time>2015-05-10T12:17:26Z</time>
      </trkpt>
      <trkpt lat="50.24205" lon="5.7561">
        <ele>524</ele>
        <time>2015-05-10T12:17:32Z</time>
      </trkpt>
      <trkpt lat="50.24205" lon="5.75612">
        <ele>524</ele>
        <time>2015-05-10T12:17:37Z</time>
      </trkpt>
      <trkpt lat="50.24203" lon="5.75615">
        <ele>524</ele>
        <time>2015-05-10T12:17:43Z</time>
      </trkpt>
      <trkpt lat="50.24199" lon="5.7562">
        <ele>524</ele>
        <time>2015-05-10T12:17:48Z</time>
      </trkpt>
      <trkpt lat="50.24197" lon="5.75623">
        <ele>524</ele>
        <time>2015-05-10T12:17:54Z</time>
      </trkpt>
      <trkpt lat="50.24195" lon="5.75625">
        <ele>525</ele>
        <time>2015-05-10T12:17:59Z</time>
      </trkpt>
      <trkpt lat="50.24192" lon="5.75624">
        <ele>524</ele>
        <time>2015-05-10T12:18:05Z</time>
      </trkpt>
      <trkpt lat="50.24187" lon="5.75627">
        <ele>524</ele>
        <time>2015-05-10T12:18:11Z</time>
      </trkpt>
      <trkpt lat="50.24183" lon="5.75628">
        <ele>524</ele>
        <time>2015-05-10T12:18:16Z</time>
      </trkpt>
      <trkpt lat="50.24179" lon="5.7563">
        <ele>524</ele>
        <time>2015-05-10T12:18:21Z</time>
      </trkpt>
      <trkpt lat="50.24174" lon="5.75633">
        <ele>524</ele>
        <time>2015-05-10T12:18:26Z</time>
      </trkpt>
      <trkpt lat="50.24169" lon="5.75636">
        <ele>524</ele>
        <time>2015-05-10T12:18:31Z</time>
      </trkpt>
      <trkpt lat="50.24166" lon="5.75638">
        <ele>523</ele>
        <time>2015-05-10T12:18:37Z</time>
      </trkpt>
      <trkpt lat="50.24165" lon="5.75641">
        <ele>523</ele>
        <time>2015-05-10T12:18:42Z</time>
      </trkpt>
      <trkpt lat="50.24162" lon="5.75646">
        <ele>523</ele>
        <time>2015-05-10T12:18:48Z</time>
      </trkpt>
      <trkpt lat="50.24162" lon="5.75651">
        <ele>522</ele>
        <time>2015-05-10T12:18:53Z</time>
      </trkpt>
      <trkpt lat="50.24162" lon="5.75659">
        <ele>522</ele>
        <time>2015-05-10T12:18:59Z</time>
      </trkpt>
      <trkpt lat="50.24162" lon="5.75663">
        <ele>521</ele>
        <time>2015-05-10T12:19:04Z</time>
      </trkpt>
      <trkpt lat="50.24163" lon="5.75667">
        <ele>520</ele>
        <time>2015-05-10T12:19:09Z</time>
      </trkpt>
      <trkpt lat="50.24164" lon="5.75673">
        <ele>520</ele>
        <time>2015-05-10T12:19:14Z</time>
      </trkpt>
      <trkpt lat="50.24162" lon="5.75681">
        <ele>520</ele>
        <time>2015-05-10T12:19:20Z</time>
      </trkpt>
      <trkpt lat="50.24161" lon="5.75685">
        <ele>520</ele>
        <time>2015-05-10T12:19:25Z</time>
      </trkpt>
      <trkpt lat="50.24159" lon="5.75692">
        <ele>520</ele>
        <time>2015-05-10T12:19:30Z</time>
      </trkpt>
      <trkpt lat="50.24154" lon="5.75702">
        <ele>520</ele>
        <time>2015-05-10T12:19:36Z</time>
      </trkpt>
      <trkpt lat="50.24151" lon="5.75707">
        <ele>520</ele>
        <time>2015-05-10T12:19:41Z</time>
      </trkpt>
      <trkpt lat="50.24147" lon="5.75713">
        <ele>520</ele>
        <time>2015-05-10T12:19:47Z</time>
      </trkpt>
      <trkpt lat="50.24145" lon="5.75721">
        <ele>519</ele>
        <time>2015-05-10T12:19:52Z</time>
      </trkpt>
      <trkpt lat="50.24146" lon="5.7573">
        <ele>519</ele>
        <time>2015-05-10T12:19:58Z</time>
      </trkpt>
      <trkpt lat="50.24149" lon="5.75737">
        <ele>518</ele>
        <time>2015-05-10T12:20:03Z</time>
      </trkpt>
      <trkpt lat="50.24151" lon="5.75745">
        <ele>518</ele>
        <time>2015-05-10T12:20:09Z</time>
      </trkpt>
      <trkpt lat="50.24156" lon="5.75752">
        <ele>518</ele>
        <time>2015-05-10T12:20:15Z</time>
      </trkpt>
      <trkpt lat="50.24161" lon="5.75758">
        <ele>517</ele>
        <time>2015-05-10T12:20:21Z</time>
      </trkpt>
      <trkpt lat="50.24165" lon="5.75763">
        <ele>517</ele>
        <time>2015-05-10T12:20:26Z</time>
      </trkpt>
      <trkpt lat="50.2417" lon="5.75769">
        <ele>516</ele>
        <time>2015-05-10T12:20:32Z</time>
      </trkpt>
      <trkpt lat="50.24174" lon="5.75776">
        <ele>516</ele>
        <time>2015-05-10T12:20:38Z</time>
      </trkpt>
      <trkpt lat="50.24179" lon="5.75783">
        <ele>515</ele>
        <time>2015-05-10T12:20:44Z</time>
      </trkpt>
      <trkpt lat="50.24182" lon="5.75791">
        <ele>514</ele>
        <time>2015-05-10T12:20:49Z</time>
      </trkpt>
      <trkpt lat="50.24185" lon="5.75802">
        <ele>514</ele>
        <time>2015-05-10T12:20:55Z</time>
      </trkpt>
      <trkpt lat="50.24189" lon="5.75811">
        <ele>514</ele>
        <time>2015-05-10T12:21:01Z</time>
      </trkpt>
      <trkpt lat="50.24193" lon="5.7582">
        <ele>513</ele>
        <time>2015-05-10T12:21:07Z</time>
      </trkpt>
      <trkpt lat="50.24197" lon="5.7583">
        <ele>512</ele>
        <time>2015-05-10T12:21:13Z</time>
      </trkpt>
      <trkpt lat="50.24202" lon="5.7584">
        <ele>512</ele>
        <time>2015-05-10T12:21:19Z</time>
      </trkpt>
      <trkpt lat="50.24207" lon="5.75851">
        <ele>511</ele>
        <time>2015-05-10T12:21:25Z</time>
      </trkpt>
      <trkpt lat="50.24212" lon="5.75861">
        <ele>511</ele>
        <time>2015-05-10T12:21:31Z</time>
      </trkpt>
      <trkpt lat="50.24216" lon="5.75867">
        <ele>510</ele>
        <time>2015-05-10T12:21:36Z</time>
      </trkpt>
      <trkpt lat="50.2422" lon="5.75877">
        <ele>510</ele>
        <time>2015-05-10T12:21:42Z</time>
      </trkpt>
      <trkpt lat="50.24223" lon="5.75883">
        <ele>509</ele>
        <time>2015-05-10T12:21:47Z</time>
      </trkpt>
      <trkpt lat="50.24228" lon="5.75887">
        <ele>509</ele>
        <time>2015-05-10T12:21:52Z</time>
      </trkpt>
      <trkpt lat="50.24233" lon="5.75888">
        <ele>509</ele>
        <time>2015-05-10T12:21:57Z</time>
      </trkpt>
      <trkpt lat="50.24238" lon="5.75887">
        <ele>509</ele>
        <time>2015-05-10T12:22:02Z</time>
      </trkpt>
      <trkpt lat="50.24243" lon="5.75886">
        <ele>510</ele>
        <time>2015-05-10T12:22:08Z</time>
      </trkpt>
      <trkpt lat="50.24249" lon="5.75884">
        <ele>509</ele>
        <time>2015-05-10T12:22:14Z</time>
      </trkpt>
      <trkpt lat="50.24255" lon="5.75882">
        <ele>509</ele>
        <time>2015-05-10T12:22:19Z</time>
      </trkpt>
      <trkpt lat="50.2426" lon="5.75881">
        <ele>509</ele>
        <time>2015-05-10T12:22:25Z</time>
      </trkpt>
      <trkpt lat="50.24265" lon="5.7588">
        <ele>510</ele>
        <time>2015-05-10T12:22:30Z</time>
      </trkpt>
      <trkpt lat="50.2427" lon="5.75877">
        <ele>510</ele>
        <time>2015-05-10T12:22:35Z</time>
      </trkpt>
      <trkpt lat="50.24275" lon="5.75875">
        <ele>510</ele>
        <time>2015-05-10T12:22:41Z</time>
      </trkpt>
      <trkpt lat="50.2428" lon="5.75873">
        <ele>510</ele>
        <time>2015-05-10T12:22:46Z</time>
      </trkpt>
      <trkpt lat="50.24285" lon="5.7587">
        <ele>510</ele>
        <time>2015-05-10T12:22:51Z</time>
      </trkpt>
      <trkpt lat="50.24289" lon="5.75866">
        <ele>510</ele>
        <time>2015-05-10T12:22:57Z</time>
      </trkpt>
      <trkpt lat="50.24295" lon="5.75863">
        <ele>510</ele>
        <time>2015-05-10T12:23:03Z</time>
      </trkpt>
      <trkpt lat="50.24299" lon="5.75861">
        <ele>510</ele>
        <time>2015-05-10T12:23:08Z</time>
      </trkpt>
      <trkpt lat="50.24304" lon="5.75857">
        <ele>510</ele>
        <time>2015-05-10T12:23:13Z</time>
      </trkpt>
      <trkpt lat="50.24309" lon="5.75855">
        <ele>511</ele>
        <time>2015-05-10T12:23:19Z</time>
      </trkpt>
      <trkpt lat="50.24314" lon="5.75853">
        <ele>511</ele>
        <time>2015-05-10T12:23:24Z</time>
      </trkpt>
      <trkpt lat="50.24319" lon="5.7585">
        <ele>511</ele>
        <time>2015-05-10T12:23:29Z</time>
      </trkpt>
      <trkpt lat="50.24325" lon="5.75847">
        <ele>511</ele>
        <time>2015-05-10T12:23:35Z</time>
      </trkpt>
      <trkpt lat="50.2433" lon="5.75844">
        <ele>511</ele>
        <time>2015-05-10T12:23:41Z</time>
      </trkpt>
      <trkpt lat="50.24333" lon="5.75842">
        <ele>511</ele>
        <time>2015-05-10T12:23:46Z</time>
      </trkpt>
      <trkpt lat="50.24336" lon="5.75841">
        <ele>511</ele>
        <time>2015-05-10T12:23:51Z</time>
      </trkpt>
      <trkpt lat="50.2434" lon="5.75839">
        <ele>511</ele>
        <time>2015-05-10T12:23:57Z</time>
      </trkpt>
      <trkpt lat="50.24344" lon="5.75838">
        <ele>512</ele>
        <time>2015-05-10T12:24:03Z</time>
      </trkpt>
      <trkpt lat="50.24349" lon="5.75836">
        <ele>512</ele>
        <time>2015-05-10T12:24:09Z</time>
      </trkpt>
      <trkpt lat="50.24353" lon="5.75834">
        <ele>512</ele>
        <time>2015-05-10T12:24:15Z</time>
      </trkpt>
      <trkpt lat="50.24356" lon="5.75833">
        <ele>512</ele>
        <time>2015-05-10T12:24:20Z</time>
      </trkpt>
      <trkpt lat="50.24362" lon="5.75832">
        <ele>512</ele>
        <time>2015-05-10T12:24:26Z</time>
      </trkpt>
      <trkpt lat="50.24366" lon="5.7583">
        <ele>512</ele>
        <time>2015-05-10T12:24:31Z</time>
      </trkpt>
      <trkpt lat="50.24373" lon="5.75827">
        <ele>512</ele>
        <time>2015-05-10T12:24:37Z</time>
      </trkpt>
      <trkpt lat="50.24379" lon="5.75824">
        <ele>512</ele>
        <time>2015-05-10T12:24:42Z</time>
      </trkpt>
      <trkpt lat="50.24385" lon="5.75821">
        <ele>512</ele>
        <time>2015-05-10T12:24:48Z</time>
      </trkpt>
      <trkpt lat="50.24392" lon="5.75818">
        <ele>512</ele>
        <time>2015-05-10T12:24:54Z</time>
      </trkpt>
      <trkpt lat="50.24398" lon="5.75815">
        <ele>512</ele>
        <time>2015-05-10T12:24:59Z</time>
      </trkpt>
      <trkpt lat="50.24405" lon="5.75812">
        <ele>512</ele>
        <time>2015-05-10T12:25:05Z</time>
      </trkpt>
      <trkpt lat="50.24411" lon="5.75809">
        <ele>512</ele>
        <time>2015-05-10T12:25:11Z</time>
      </trkpt>
      <trkpt lat="50.24416" lon="5.75808">
        <ele>512</ele>
        <time>2015-05-10T12:25:16Z</time>
      </trkpt>
      <trkpt lat="50.24422" lon="5.75805">
        <ele>512</ele>
        <time>2015-05-10T12:25:21Z</time>
      </trkpt>
      <trkpt lat="50.24429" lon="5.75803">
        <ele>512</ele>
        <time>2015-05-10T12:25:27Z</time>
      </trkpt>
      <trkpt lat="50.24432" lon="5.75799">
        <ele>512</ele>
        <time>2015-05-10T12:25:32Z</time>
      </trkpt>
      <trkpt lat="50.24436" lon="5.75796">
        <ele>512</ele>
        <time>2015-05-10T12:25:38Z</time>
      </trkpt>
      <trkpt lat="50.24438" lon="5.75797">
        <ele>512</ele>
        <time>2015-05-10T12:25:44Z</time>
      </trkpt>
      <trkpt lat="50.24441" lon="5.75796">
        <ele>513</ele>
        <time>2015-05-10T12:25:50Z</time>
      </trkpt>
      <trkpt lat="50.24443" lon="5.75795">
        <ele>512</ele>
        <time>2015-05-10T12:25:56Z</time>
      </trkpt>
      <trkpt lat="50.24443" lon="5.75793">
        <ele>513</ele>
        <time>2015-05-10T12:26:02Z</time>
      </trkpt>
      <trkpt lat="50.24444" lon="5.75793">
        <ele>512</ele>
        <time>2015-05-10T12:26:09Z</time>
      </trkpt>
      <trkpt lat="50.24444" lon="5.75793">
        <ele>512</ele>
        <time>2015-05-10T12:26:14Z</time>
      </trkpt>
      <trkpt lat="50.24445" lon="5.75793">
        <ele>513</ele>
        <time>2015-05-10T12:26:20Z</time>
      </trkpt>
      <trkpt lat="50.24445" lon="5.75794">
        <ele>513</ele>
        <time>2015-05-10T12:26:26Z</time>
      </trkpt>
      <trkpt lat="50.24446" lon="5.75794">
        <ele>512</ele>
        <time>2015-05-10T12:26:32Z</time>
      </trkpt>
      <trkpt lat="50.24447" lon="5.75793">
        <ele>513</ele>
        <time>2015-05-10T12:26:38Z</time>
      </trkpt>
      <trkpt lat="50.24448" lon="5.75793">
        <ele>513</ele>
        <time>2015-05-10T12:26:43Z</time>
      </trkpt>
      <trkpt lat="50.24449" lon="5.75793">
        <ele>513</ele>
        <time>2015-05-10T12:26:49Z</time>
      </trkpt>
      <trkpt lat="50.24448" lon="5.75795">
        <ele>513</ele>
        <time>2015-05-10T12:26:55Z</time>
      </trkpt>
      <trkpt lat="50.24448" lon="5.75794">
        <ele>513</ele>
        <time>2015-05-10T12:27:01Z</time>
      </trkpt>
      <trkpt lat="50.24447" lon="5.7579">
        <ele>513</ele>
        <time>2015-05-10T12:27:07Z</time>
      </trkpt>
      <trkpt lat="50.24446" lon="5.75789">
        <ele>513</ele>
        <time>2015-05-10T12:27:12Z</time>
      </trkpt>
      <trkpt lat="50.24447" lon="5.75789">
        <ele>513</ele>
        <time>2015-05-10T12:27:18Z</time>
      </trkpt>
      <trkpt lat="50.24448" lon="5.75789">
        <ele>513</ele>
        <time>2015-05-10T12:27:23Z</time>
      </trkpt>
      <trkpt lat="50.24448" lon="5.7579">
        <ele>513</ele>
        <time>2015-05-10T12:27:28Z</time>
      </trkpt>
      <trkpt lat="50.24448" lon="5.75792">
        <ele>513</ele>
        <time>2015-05-10T12:27:34Z</time>
      </trkpt>
      <trkpt lat="50.24448" lon="5.75792">
        <ele>512</ele>
        <time>2015-05-10T12:27:39Z</time>
      </trkpt>
      <trkpt lat="50.24447" lon="5.75792">
        <ele>512</ele>
        <time>2015-05-10T12:27:45Z</time>
      </trkpt>
      <trkpt lat="50.24447" lon="5.75792">
        <ele>512</ele>
        <time>2015-05-10T12:27:50Z</time>
      </trkpt>
      <trkpt lat="50.24447" lon="5.75792">
        <ele>512</ele>
        <time>2015-05-10T12:27:55Z</time>
      </trkpt>
      <trkpt lat="50.24447" lon="5.75793">
        <ele>512</ele>
        <time>2015-05-10T12:28:01Z</time>
      </trkpt>
      <trkpt lat="50.24448" lon="5.75792">
        <ele>512</ele>
        <time>2015-05-10T12:28:06Z</time>
      </trkpt>
      <trkpt lat="50.2445" lon="5.75792">
        <ele>512</ele>
        <time>2015-05-10T12:28:11Z</time>
      </trkpt>
      <trkpt lat="50.24451" lon="5.75792">
        <ele>512</ele>
        <time>2015-05-10T12:28:18Z</time>
      </trkpt>
      <trkpt lat="50.2445" lon="5.75792">
        <ele>513</ele>
        <time>2015-05-10T12:28:23Z</time>
      </trkpt>
      <trkpt lat="50.2445" lon="5.75792">
        <ele>512</ele>
        <time>2015-05-10T12:28:29Z</time>
      </trkpt>
      <trkpt lat="50.2445" lon="5.75792">
        <ele>513</ele>
        <time>2015-05-10T12:28:34Z</time>
      </trkpt>
      <trkpt lat="50.24448" lon="5.75791">
        <ele>513</ele>
        <time>2015-05-10T12:28:40Z</time>
      </trkpt>
      <trkpt lat="50.24446" lon="5.7579">
        <ele>512</ele>
        <time>2015-05-10T12:28:45Z</time>
      </trkpt>
      <trkpt lat="50.24446" lon="5.75789">
        <ele>512</ele>
        <time>2015-05-10T12:28:51Z</time>
      </trkpt>
      <trkpt lat="50.24445" lon="5.75788">
        <ele>513</ele>
        <time>2015-05-10T12:28:57Z</time>
      </trkpt>
      <trkpt lat="50.24443" lon="5.75786">
        <ele>513</ele>
        <time>2015-05-10T12:29:02Z</time>
      </trkpt>
      <trkpt lat="50.24439" lon="5.7578">
        <ele>513</ele>
        <time>2015-05-10T12:29:08Z</time>
      </trkpt>
      <trkpt lat="50.24436" lon="5.75776">
        <ele>513</ele>
        <time>2015-05-10T12:29:13Z</time>
      </trkpt>
      <trkpt lat="50.24432" lon="5.75771">
        <ele>514</ele>
        <time>2015-05-10T12:29:19Z</time>
      </trkpt>
      <trkpt lat="50.24429" lon="5.75768">
        <ele>514</ele>
        <time>2015-05-10T12:29:24Z</time>
      </trkpt>
      <trkpt lat="50.24427" lon="5.75764">
        <ele>514</ele>
        <time>2015-05-10T12:29:30Z</time>
      </trkpt>
      <trkpt lat="50.24424" lon="5.7576">
        <ele>514</ele>
        <time>2015-05-10T12:29:35Z</time>
      </trkpt>
      <trkpt lat="50.24421" lon="5.75754">
        <ele>515</ele>
        <time>2015-05-10T12:29:41Z</time>
      </trkpt>
      <trkpt lat="50.24419" lon="5.75749">
        <ele>515</ele>
        <time>2015-05-10T12:29:46Z</time>
      </trkpt>
      <trkpt lat="50.24416" lon="5.75742">
        <ele>516</ele>
        <time>2015-05-10T12:29:52Z</time>
      </trkpt>
      <trkpt lat="50.24413" lon="5.75736">
        <ele>516</ele>
        <time>2015-05-10T12:29:58Z</time>
      </trkpt>
      <trkpt lat="50.24409" lon="5.7573">
        <ele>517</ele>
        <time>2015-05-10T12:30:04Z</time>
      </trkpt>
      <trkpt lat="50.24407" lon="5.75725">
        <ele>517</ele>
        <time>2015-05-10T12:30:09Z</time>
      </trkpt>
      <trkpt lat="50.24404" lon="5.75718">
        <ele>517</ele>
        <time>2015-05-10T12:30:15Z</time>
      </trkpt>
      <trkpt lat="50.24401" lon="5.75712">
        <ele>517</ele>
        <time>2015-05-10T12:30:21Z</time>
      </trkpt>
      <trkpt lat="50.24397" lon="5.75706">
        <ele>518</ele>
        <time>2015-05-10T12:30:27Z</time>
      </trkpt>
      <trkpt lat="50.24395" lon="5.757">
        <ele>518</ele>
        <time>2015-05-10T12:30:32Z</time>
      </trkpt>
      <trkpt lat="50.24392" lon="5.75695">
        <ele>518</ele>
        <time>2015-05-10T12:30:38Z</time>
      </trkpt>
      <trkpt lat="50.24387" lon="5.7569">
        <ele>519</ele>
        <time>2015-05-10T12:30:43Z</time>
      </trkpt>
      <trkpt lat="50.24383" lon="5.75685">
        <ele>519</ele>
        <time>2015-05-10T12:30:49Z</time>
      </trkpt>
      <trkpt lat="50.2438" lon="5.75682">
        <ele>519</ele>
        <time>2015-05-10T12:30:54Z</time>
      </trkpt>
      <trkpt lat="50.24378" lon="5.75678">
        <ele>520</ele>
        <time>2015-05-10T12:30:59Z</time>
      </trkpt>
      <trkpt lat="50.24374" lon="5.75672">
        <ele>520</ele>
        <time>2015-05-10T12:31:05Z</time>
      </trkpt>
      <trkpt lat="50.24371" lon="5.75665">
        <ele>520</ele>
        <time>2015-05-10T12:31:11Z</time>
      </trkpt>
      <trkpt lat="50.24368" lon="5.75658">
        <ele>521</ele>
        <time>2015-05-10T12:31:17Z</time>
      </trkpt>
      <trkpt lat="50.24361" lon="5.75649">
        <ele>521</ele>
        <time>2015-05-10T12:31:23Z</time>
      </trkpt>
      <trkpt lat="50.24353" lon="5.75638">
        <ele>523</ele>
        <time>2015-05-10T12:31:28Z</time>
      </trkpt>
      <trkpt lat="50.24346" lon="5.75628">
        <ele>523</ele>
        <time>2015-05-10T12:31:33Z</time>
      </trkpt>
      <trkpt lat="50.2434" lon="5.75617">
        <ele>524</ele>
        <time>2015-05-10T12:31:38Z</time>
      </trkpt>
      <trkpt lat="50.24331" lon="5.75604">
        <ele>524</ele>
        <time>2015-05-10T12:31:44Z</time>
      </trkpt>
      <trkpt lat="50.24323" lon="5.75593">
        <ele>525</ele>
        <time>2015-05-10T12:31:50Z</time>
      </trkpt>
      <trkpt lat="50.24321" lon="5.75582">
        <ele>526</ele>
        <time>2015-05-10T12:31:56Z</time>
      </trkpt>
      <trkpt lat="50.24319" lon="5.75577">
        <ele>526</ele>
        <time>2015-05-10T12:32:01Z</time>
      </trkpt>
      <trkpt lat="50.24318" lon="5.75575">
        <ele>526</ele>
        <time>2015-05-10T12:32:06Z</time>
      </trkpt>
      <trkpt lat="50.24317" lon="5.75572">
        <ele>526</ele>
        <time>2015-05-10T12:32:12Z</time>
      </trkpt>
      <trkpt lat="50.24316" lon="5.7557">
        <ele>526</ele>
        <time>2015-05-10T12:32:18Z</time>
      </trkpt>
      <trkpt lat="50.24315" lon="5.75568">
        <ele>526</ele>
        <time>2015-05-10T12:32:25Z</time>
      </trkpt>
      <trkpt lat="50.24314" lon="5.75565">
        <ele>526</ele>
        <time>2015-05-10T12:32:30Z</time>
      </trkpt>
      <trkpt lat="50.24314" lon="5.75563">
        <ele>526</ele>
        <time>2015-05-10T12:32:36Z</time>
      </trkpt>
      <trkpt lat="50.24313" lon="5.75562">
        <ele>526</ele>
        <time>2015-05-10T12:32:42Z</time>
      </trkpt>
      <trkpt lat="50.24313" lon="5.7556">
        <ele>526</ele>
        <time>2015-05-10T12:32:48Z</time>
      </trkpt>
      <trkpt lat="50.24312" lon="5.7556">
        <ele>526</ele>
        <time>2015-05-10T12:32:53Z</time>
      </trkpt>
      <trkpt lat="50.24313" lon="5.75558">
        <ele>526</ele>
        <time>2015-05-10T12:32:59Z</time>
      </trkpt>
      <trkpt lat="50.24311" lon="5.75556">
        <ele>526</ele>
        <time>2015-05-10T12:33:04Z</time>
      </trkpt>
      <trkpt lat="50.24309" lon="5.75554">
        <ele>526</ele>
        <time>2015-05-10T12:33:09Z</time>
      </trkpt>
      <trkpt lat="50.24308" lon="5.75553">
        <ele>526</ele>
        <time>2015-05-10T12:33:15Z</time>
      </trkpt>
      <trkpt lat="50.24305" lon="5.75553">
        <ele>527</ele>
        <time>2015-05-10T12:33:21Z</time>
      </trkpt>
      <trkpt lat="50.24302" lon="5.75552">
        <ele>526</ele>
        <time>2015-05-10T12:33:27Z</time>
      </trkpt>
      <trkpt lat="50.243" lon="5.75552">
        <ele>526</ele>
        <time>2015-05-10T12:33:33Z</time>
      </trkpt>
      <trkpt lat="50.24303" lon="5.75553">
        <ele>526</ele>
        <time>2015-05-10T12:33:38Z</time>
      </trkpt>
      <trkpt lat="50.24307" lon="5.75555">
        <ele>526</ele>
        <time>2015-05-10T12:33:44Z</time>
      </trkpt>
      <trkpt lat="50.24312" lon="5.75558">
        <ele>526</ele>
        <time>2015-05-10T12:33:50Z</time>
      </trkpt>
      <trkpt lat="50.24315" lon="5.75559">
        <ele>526</ele>
        <time>2015-05-10T12:33:56Z</time>
      </trkpt>
      <trkpt lat="50.24316" lon="5.75559">
        <ele>526</ele>
        <time>2015-05-10T12:34:01Z</time>
      </trkpt>
      <trkpt lat="50.24316" lon="5.75559">
        <ele>526</ele>
        <time>2015-05-10T12:34:07Z</time>
      </trkpt>
      <trkpt lat="50.24312" lon="5.75559">
        <ele>526</ele>
        <time>2015-05-10T12:34:13Z</time>
      </trkpt>
      <trkpt lat="50.2431" lon="5.75558">
        <ele>526</ele>
        <time>2015-05-10T12:34:18Z</time>
      </trkpt>
      <trkpt lat="50.24309" lon="5.75557">
        <ele>526</ele>
        <time>2015-05-10T12:34:24Z</time>
      </trkpt>
      <trkpt lat="50.2431" lon="5.75558">
        <ele>526</ele>
        <time>2015-05-10T12:34:30Z</time>
      </trkpt>
      <trkpt lat="50.24311" lon="5.75558">
        <ele>526</ele>
        <time>2015-05-10T12:34:35Z</time>
      </trkpt>
      <trkpt lat="50.24316" lon="5.75561">
        <ele>526</ele>
        <time>2015-05-10T12:34:41Z</time>
      </trkpt>
      <trkpt lat="50.24317" lon="5.75561">
        <ele>526</ele>
        <time>2015-05-10T12:34:47Z</time>
      </trkpt>
      <trkpt lat="50.24315" lon="5.75563">
        <ele>526</ele>
        <time>2015-05-10T12:34:52Z</time>
      </trkpt>
      <trkpt lat="50.24315" lon="5.75563">
        <ele>526</ele>
        <time>2015-05-10T12:34:57Z</time>
      </trkpt>
      <trkpt lat="50.24314" lon="5.75561">
        <ele>526</ele>
        <time>2015-05-10T12:35:02Z</time>
      </trkpt>
      <trkpt lat="50.24312" lon="5.75559">
        <ele>526</ele>
        <time>2015-05-10T12:35:08Z</time>
      </trkpt>
      <trkpt lat="50.24309" lon="5.75557">
        <ele>526</ele>
        <time>2015-05-10T12:35:14Z</time>
      </trkpt>
      <trkpt lat="50.24308" lon="5.75557">
        <ele>526</ele>
        <time>2015-05-10T12:35:20Z</time>
      </trkpt>
      <trkpt lat="50.24307" lon="5.75556">
        <ele>526</ele>
        <time>2015-05-10T12:35:25Z</time>
      </trkpt>
      <trkpt lat="50.24308" lon="5.75556">
        <ele>526</ele>
        <time>2015-05-10T12:35:30Z</time>
      </trkpt>
      <trkpt lat="50.2431" lon="5.75555">
        <ele>526</ele>
        <time>2015-05-10T12:35:36Z</time>
      </trkpt>
      <trkpt lat="50.24311" lon="5.75554">
        <ele>526</ele>
        <time>2015-05-10T12:35:42Z</time>
      </trkpt>
      <trkpt lat="50.24313" lon="5.75554">
        <ele>526</ele>
        <time>2015-05-10T12:35:48Z</time>
      </trkpt>
      <trkpt lat="50.24314" lon="5.75554">
        <ele>526</ele>
        <time>2015-05-10T12:35:53Z</time>
      </trkpt>
      <trkpt lat="50.24315" lon="5.75555">
        <ele>526</ele>
        <time>2015-05-10T12:35:58Z</time>
      </trkpt>
      <trkpt lat="50.24319" lon="5.75551">
        <ele>527</ele>
        <time>2015-05-10T12:36:04Z</time>
      </trkpt>
      <trkpt lat="50.24323" lon="5.75547">
        <ele>526</ele>
        <time>2015-05-10T12:36:10Z</time>
      </trkpt>
      <trkpt lat="50.24326" lon="5.75544">
        <ele>526</ele>
        <time>2015-05-10T12:36:15Z</time>
      </trkpt>
      <trkpt lat="50.24329" lon="5.75542">
        <ele>526</ele>
        <time>2015-05-10T12:36:20Z</time>
      </trkpt>
      <trkpt lat="50.24333" lon="5.75538">
        <ele>526</ele>
        <time>2015-05-10T12:36:26Z</time>
      </trkpt>
      <trkpt lat="50.24339" lon="5.75534">
        <ele>526</ele>
        <time>2015-05-10T12:36:32Z</time>
      </trkpt>
      <trkpt lat="50.24345" lon="5.75529">
        <ele>526</ele>
        <time>2015-05-10T12:36:38Z</time>
      </trkpt>
      <trkpt lat="50.24348" lon="5.75525">
        <ele>525</ele>
        <time>2015-05-10T12:36:43Z</time>
      </trkpt>
      <trkpt lat="50.24353" lon="5.75521">
        <ele>526</ele>
        <time>2015-05-10T12:36:49Z</time>
      </trkpt>
      <trkpt lat="50.24357" lon="5.75517">
        <ele>526</ele>
        <time>2015-05-10T12:36:54Z</time>
      </trkpt>
      <trkpt lat="50.24359" lon="5.75514">
        <ele>526</ele>
        <time>2015-05-10T12:36:59Z</time>
      </trkpt>
      <trkpt lat="50.24359" lon="5.75513">
        <ele>526</ele>
        <time>2015-05-10T12:37:05Z</time>
      </trkpt>
      <trkpt lat="50.24359" lon="5.75512">
        <ele>526</ele>
        <time>2015-05-10T12:37:10Z</time>
      </trkpt>
      <trkpt lat="50.2436" lon="5.75512">
        <ele>525</ele>
        <time>2015-05-10T12:37:15Z</time>
      </trkpt>
      <trkpt lat="50.24362" lon="5.75511">
        <ele>525</ele>
        <time>2015-05-10T12:37:21Z</time>
      </trkpt>
      <trkpt lat="50.24364" lon="5.75511">
        <ele>525</ele>
        <time>2015-05-10T12:37:26Z</time>
      </trkpt>
      <trkpt lat="50.24366" lon="5.75511">
        <ele>525</ele>
        <time>2015-05-10T12:37:31Z</time>
      </trkpt>
      <trkpt lat="50.24369" lon="5.7551">
        <ele>525</ele>
        <time>2015-05-10T12:37:37Z</time>
      </trkpt>
      <trkpt lat="50.24374" lon="5.75506">
        <ele>525</ele>
        <time>2015-05-10T12:37:43Z</time>
      </trkpt>
      <trkpt lat="50.2438" lon="5.75502">
        <ele>525</ele>
        <time>2015-05-10T12:37:49Z</time>
      </trkpt>
      <trkpt lat="50.24386" lon="5.75498">
        <ele>525</ele>
        <time>2015-05-10T12:37:55Z</time>
      </trkpt>
      <trkpt lat="50.24393" lon="5.75494">
        <ele>525</ele>
        <time>2015-05-10T12:38:01Z</time>
      </trkpt>
      <trkpt lat="50.24399" lon="5.75489">
        <ele>525</ele>
        <time>2015-05-10T12:38:07Z</time>
      </trkpt>
      <trkpt lat="50.24405" lon="5.75483">
        <ele>525</ele>
        <time>2015-05-10T12:38:13Z</time>
      </trkpt>
      <trkpt lat="50.24412" lon="5.75479">
        <ele>525</ele>
        <time>2015-05-10T12:38:19Z</time>
      </trkpt>
      <trkpt lat="50.2442" lon="5.75473">
        <ele>524</ele>
        <time>2015-05-10T12:38:25Z</time>
      </trkpt>
      <trkpt lat="50.24427" lon="5.75468">
        <ele>523</ele>
        <time>2015-05-10T12:38:31Z</time>
      </trkpt>
      <trkpt lat="50.24434" lon="5.75463">
        <ele>523</ele>
        <time>2015-05-10T12:38:37Z</time>
      </trkpt>
      <trkpt lat="50.24438" lon="5.75459">
        <ele>523</ele>
        <time>2015-05-10T12:38:42Z</time>
      </trkpt>
      <trkpt lat="50.24443" lon="5.75455">
        <ele>523</ele>
        <time>2015-05-10T12:38:47Z</time>
      </trkpt>
      <trkpt lat="50.24448" lon="5.7545">
        <ele>523</ele>
        <time>2015-05-10T12:38:53Z</time>
      </trkpt>
      <trkpt lat="50.24454" lon="5.75445">
        <ele>523</ele>
        <time>2015-05-10T12:38:59Z</time>
      </trkpt>
      <trkpt lat="50.24461" lon="5.7544">
        <ele>523</ele>
        <time>2015-05-10T12:39:05Z</time>
      </trkpt>
      <trkpt lat="50.24466" lon="5.75434">
        <ele>522</ele>
        <time>2015-05-10T12:39:10Z</time>
      </trkpt>
      <trkpt lat="50.24471" lon="5.75428">
        <ele>522</ele>
        <time>2015-05-10T12:39:16Z</time>
      </trkpt>
      <trkpt lat="50.24476" lon="5.75424">
        <ele>522</ele>
        <time>2015-05-10T12:39:21Z</time>
      </trkpt>
      <trkpt lat="50.24482" lon="5.75417">
        <ele>522</ele>
        <time>2015-05-10T12:39:27Z</time>
      </trkpt>
      <trkpt lat="50.2449" lon="5.75413">
        <ele>522</ele>
        <time>2015-05-10T12:39:33Z</time>
      </trkpt>
      <trkpt lat="50.24495" lon="5.75412">
        <ele>522</ele>
        <time>2015-05-10T12:39:38Z</time>
      </trkpt>
      <trkpt lat="50.24497" lon="5.75412">
        <ele>522</ele>
        <time>2015-05-10T12:39:44Z</time>
      </trkpt>
      <trkpt lat="50.245" lon="5.75411">
        <ele>522</ele>
        <time>2015-05-10T12:39:50Z</time>
      </trkpt>
      <trkpt lat="50.24501" lon="5.75411">
        <ele>522</ele>
        <time>2015-05-10T12:39:55Z</time>
      </trkpt>
      <trkpt lat="50.24502" lon="5.75411">
        <ele>521</ele>
        <time>2015-05-10T12:40:01Z</time>
      </trkpt>
      <trkpt lat="50.24501" lon="5.7541">
        <ele>522</ele>
        <time>2015-05-10T12:40:06Z</time>
      </trkpt>
      <trkpt lat="50.245" lon="5.75409">
        <ele>522</ele>
        <time>2015-05-10T12:40:12Z</time>
      </trkpt>
      <trkpt lat="50.245" lon="5.75405">
        <ele>522</ele>
        <time>2015-05-10T12:40:17Z</time>
      </trkpt>
      <trkpt lat="50.24503" lon="5.75403">
        <ele>522</ele>
        <time>2015-05-10T12:40:22Z</time>
      </trkpt>
      <trkpt lat="50.24507" lon="5.75399">
        <ele>522</ele>
        <time>2015-05-10T12:40:28Z</time>
      </trkpt>
      <trkpt lat="50.24509" lon="5.75396">
        <ele>522</ele>
        <time>2015-05-10T12:40:33Z</time>
      </trkpt>
      <trkpt lat="50.2451" lon="5.75394">
        <ele>522</ele>
        <time>2015-05-10T12:40:38Z</time>
      </trkpt>
      <trkpt lat="50.24514" lon="5.75389">
        <ele>522</ele>
        <time>2015-05-10T12:40:44Z</time>
      </trkpt>
      <trkpt lat="50.24519" lon="5.75385">
        <ele>522</ele>
        <time>2015-05-10T12:40:49Z</time>
      </trkpt>
      <trkpt lat="50.24524" lon="5.75382">
        <ele>522</ele>
        <time>2015-05-10T12:40:54Z</time>
      </trkpt>
      <trkpt lat="50.24529" lon="5.75378">
        <ele>522</ele>
        <time>2015-05-10T12:41:00Z</time>
      </trkpt>
      <trkpt lat="50.24535" lon="5.75373">
        <ele>521</ele>
        <time>2015-05-10T12:41:06Z</time>
      </trkpt>
      <trkpt lat="50.24538" lon="5.75369">
        <ele>522</ele>
        <time>2015-05-10T12:41:11Z</time>
      </trkpt>
      <trkpt lat="50.24544" lon="5.75365">
        <ele>522</ele>
        <time>2015-05-10T12:41:17Z</time>
      </trkpt>
      <trkpt lat="50.2455" lon="5.75361">
        <ele>522</ele>
        <time>2015-05-10T12:41:23Z</time>
      </trkpt>
      <trkpt lat="50.24556" lon="5.75356">
        <ele>522</ele>
        <time>2015-05-10T12:41:28Z</time>
      </trkpt>
      <trkpt lat="50.24562" lon="5.75352">
        <ele>521</ele>
        <time>2015-05-10T12:41:34Z</time>
      </trkpt>
      <trkpt lat="50.24568" lon="5.75347">
        <ele>521</ele>
        <time>2015-05-10T12:41:39Z</time>
      </trkpt>
      <trkpt lat="50.24573" lon="5.75341">
        <ele>522</ele>
        <time>2015-05-10T12:41:44Z</time>
      </trkpt>
      <trkpt lat="50.2458" lon="5.75335">
        <ele>521</ele>
        <time>2015-05-10T12:41:50Z</time>
      </trkpt>
      <trkpt lat="50.24586" lon="5.75328">
        <ele>522</ele>
        <time>2015-05-10T12:41:56Z</time>
      </trkpt>
      <trkpt lat="50.24591" lon="5.75323">
        <ele>521</ele>
        <time>2015-05-10T12:42:01Z</time>
      </trkpt>
      <trkpt lat="50.24596" lon="5.75319">
        <ele>521</ele>
        <time>2015-05-10T12:42:06Z</time>
      </trkpt>
      <trkpt lat="50.24603" lon="5.75316">
        <ele>521</ele>
        <time>2015-05-10T12:42:12Z</time>
      </trkpt>
      <trkpt lat="50.24607" lon="5.75312">
        <ele>521</ele>
        <time>2015-05-10T12:42:17Z</time>
      </trkpt>
      <trkpt lat="50.24612" lon="5.75306">
        <ele>521</ele>
        <time>2015-05-10T12:42:23Z</time>
      </trkpt>
      <trkpt lat="50.24617" lon="5.75301">
        <ele>521</ele>
        <time>2015-05-10T12:42:28Z</time>
      </trkpt>
      <trkpt lat="50.24623" lon="5.75297">
        <ele>521</ele>
        <time>2015-05-10T12:42:34Z</time>
      </trkpt>
      <trkpt lat="50.24628" lon="5.75292">
        <ele>521</ele>
        <time>2015-05-10T12:42:40Z</time>
      </trkpt>
      <trkpt lat="50.24634" lon="5.75287">
        <ele>520</ele>
        <time>2015-05-10T12:42:46Z</time>
      </trkpt>
      <trkpt lat="50.2464" lon="5.75282">
        <ele>520</ele>
        <time>2015-05-10T12:42:52Z</time>
      </trkpt>
      <trkpt lat="50.24645" lon="5.75278">
        <ele>520</ele>
        <time>2015-05-10T12:42:58Z</time>
      </trkpt>
      <trkpt lat="50.24651" lon="5.75275">
        <ele>520</ele>
        <time>2015-05-10T12:43:03Z</time>
      </trkpt>
      <trkpt lat="50.24657" lon="5.75268">
        <ele>520</ele>
        <time>2015-05-10T12:43:09Z</time>
      </trkpt>
      <trkpt lat="50.24662" lon="5.75264">
        <ele>520</ele>
        <time>2015-05-10T12:43:14Z</time>
      </trkpt>
      <trkpt lat="50.24667" lon="5.75259">
        <ele>520</ele>
        <time>2015-05-10T12:43:20Z</time>
      </trkpt>
      <trkpt lat="50.24675" lon="5.75255">
        <ele>520</ele>
        <time>2015-05-10T12:43:26Z</time>
      </trkpt>
      <trkpt lat="50.24681" lon="5.75251">
        <ele>519</ele>
        <time>2015-05-10T12:43:32Z</time>
      </trkpt>
      <trkpt lat="50.24687" lon="5.75258">
        <ele>519</ele>
        <time>2015-05-10T12:43:38Z</time>
      </trkpt>
      <trkpt lat="50.24692" lon="5.75266">
        <ele>520</ele>
        <time>2015-05-10T12:43:44Z</time>
      </trkpt>
      <trkpt lat="50.24698" lon="5.75272">
        <ele>519</ele>
        <time>2015-05-10T12:43:50Z</time>
      </trkpt>
      <trkpt lat="50.24704" lon="5.75278">
        <ele>519</ele>
        <time>2015-05-10T12:43:56Z</time>
      </trkpt>
      <trkpt lat="50.24711" lon="5.75286">
        <ele>519</ele>
        <time>2015-05-10T12:44:02Z</time>
      </trkpt>
      <trkpt lat="50.24717" lon="5.75293">
        <ele>519</ele>
        <time>2015-05-10T12:44:07Z</time>
      </trkpt>
      <trkpt lat="50.24725" lon="5.75302">
        <ele>519</ele>
        <time>2015-05-10T12:44:13Z</time>
      </trkpt>
      <trkpt lat="50.2473" lon="5.75309">
        <ele>519</ele>
        <time>2015-05-10T12:44:18Z</time>
      </trkpt>
      <trkpt lat="50.24736" lon="5.75316">
        <ele>519</ele>
        <time>2015-05-10T12:44:24Z</time>
      </trkpt>
      <trkpt lat="50.24741" lon="5.75324">
        <ele>519</ele>
        <time>2015-05-10T12:44:30Z</time>
      </trkpt>
      <trkpt lat="50.24746" lon="5.7533">
        <ele>519</ele>
        <time>2015-05-10T12:44:35Z</time>
      </trkpt>
      <trkpt lat="50.24751" lon="5.75337">
        <ele>518</ele>
        <time>2015-05-10T12:44:40Z</time>
      </trkpt>
      <trkpt lat="50.24757" lon="5.75344">
        <ele>518</ele>
        <time>2015-05-10T12:44:46Z</time>
      </trkpt>
      <trkpt lat="50.24762" lon="5.75351">
        <ele>518</ele>
        <time>2015-05-10T12:44:52Z</time>
      </trkpt>
      <trkpt lat="50.24767" lon="5.75357">
        <ele>518</ele>
        <time>2015-05-10T12:44:57Z</time>
      </trkpt>
      <trkpt lat="50.24772" lon="5.75364">
        <ele>518</ele>
        <time>2015-05-10T12:45:02Z</time>
      </trkpt>
      <trkpt lat="50.24776" lon="5.75371">
        <ele>518</ele>
        <time>2015-05-10T12:45:08Z</time>
      </trkpt>
      <trkpt lat="50.2478" lon="5.75377">
        <ele>518</ele>
        <time>2015-05-10T12:45:13Z</time>
      </trkpt>
      <trkpt lat="50.24785" lon="5.75383">
        <ele>518</ele>
        <time>2015-05-10T12:45:18Z</time>
      </trkpt>
      <trkpt lat="50.24787" lon="5.75385">
        <ele>518</ele>
        <time>2015-05-10T12:45:24Z</time>
      </trkpt>
      <trkpt lat="50.24792" lon="5.7539">
        <ele>518</ele>
        <time>2015-05-10T12:45:30Z</time>
      </trkpt>
      <trkpt lat="50.24795" lon="5.75395">
        <ele>518</ele>
        <time>2015-05-10T12:45:35Z</time>
      </trkpt>
      <trkpt lat="50.248" lon="5.75403">
        <ele>518</ele>
        <time>2015-05-10T12:45:41Z</time>
      </trkpt>
      <trkpt lat="50.24805" lon="5.75408">
        <ele>518</ele>
        <time>2015-05-10T12:45:46Z</time>
      </trkpt>
      <trkpt lat="50.24812" lon="5.75414">
        <ele>519</ele>
        <time>2015-05-10T12:45:52Z</time>
      </trkpt>
      <trkpt lat="50.24816" lon="5.75421">
        <ele>518</ele>
        <time>2015-05-10T12:45:58Z</time>
      </trkpt>
      <trkpt lat="50.2482" lon="5.75426">
        <ele>518</ele>
        <time>2015-05-10T12:46:03Z</time>
      </trkpt>
      <trkpt lat="50.24823" lon="5.75431">
        <ele>518</ele>
        <time>2015-05-10T12:46:09Z</time>
      </trkpt>
      <trkpt lat="50.24826" lon="5.75437">
        <ele>518</ele>
        <time>2015-05-10T12:46:14Z</time>
      </trkpt>
      <trkpt lat="50.24831" lon="5.75443">
        <ele>518</ele>
        <time>2015-05-10T12:46:20Z</time>
      </trkpt>
      <trkpt lat="50.24836" lon="5.7545">
        <ele>517</ele>
        <time>2015-05-10T12:46:26Z</time>
      </trkpt>
      <trkpt lat="50.2484" lon="5.75456">
        <ele>518</ele>
        <time>2015-05-10T12:46:31Z</time>
      </trkpt>
      <trkpt lat="50.24846" lon="5.75464">
        <ele>518</ele>
        <time>2015-05-10T12:46:37Z</time>
      </trkpt>
      <trkpt lat="50.2485" lon="5.75473">
        <ele>518</ele>
        <time>2015-05-10T12:46:43Z</time>
      </trkpt>
      <trkpt lat="50.24852" lon="5.75479">
        <ele>518</ele>
        <time>2015-05-10T12:46:48Z</time>
      </trkpt>
      <trkpt lat="50.24855" lon="5.75484">
        <ele>518</ele>
        <time>2015-05-10T12:46:53Z</time>
      </trkpt>
      <trkpt lat="50.24855" lon="5.75486">
        <ele>518</ele>
        <time>2015-05-10T12:46:59Z</time>
      </trkpt>
      <trkpt lat="50.24857" lon="5.75487">
        <ele>518</ele>
        <time>2015-05-10T12:47:04Z</time>
      </trkpt>
      <trkpt lat="50.24859" lon="5.7549">
        <ele>518</ele>
        <time>2015-05-10T12:47:10Z</time>
      </trkpt>
      <trkpt lat="50.24861" lon="5.75496">
        <ele>518</ele>
        <time>2015-05-10T12:47:15Z</time>
      </trkpt>
      <trkpt lat="50.24861" lon="5.75501">
        <ele>518</ele>
        <time>2015-05-10T12:47:20Z</time>
      </trkpt>
      <trkpt lat="50.2486" lon="5.755">
        <ele>518</ele>
        <time>2015-05-10T12:47:25Z</time>
      </trkpt>
      <trkpt lat="50.24859" lon="5.75502">
        <ele>518</ele>
        <time>2015-05-10T12:47:31Z</time>
      </trkpt>
      <trkpt lat="50.24862" lon="5.75509">
        <ele>518</ele>
        <time>2015-05-10T12:47:37Z</time>
      </trkpt>
      <trkpt lat="50.24865" lon="5.75517">
        <ele>517</ele>
        <time>2015-05-10T12:47:43Z</time>
      </trkpt>
      <trkpt lat="50.24869" lon="5.75523">
        <ele>518</ele>
        <time>2015-05-10T12:47:48Z</time>
      </trkpt>
      <trkpt lat="50.24874" lon="5.7553">
        <ele>518</ele>
        <time>2015-05-10T12:47:54Z</time>
      </trkpt>
      <trkpt lat="50.24878" lon="5.75536">
        <ele>518</ele>
        <time>2015-05-10T12:47:59Z</time>
      </trkpt>
      <trkpt lat="50.24882" lon="5.75543">
        <ele>518</ele>
        <time>2015-05-10T12:48:05Z</time>
      </trkpt>
      <trkpt lat="50.24885" lon="5.7555">
        <ele>518</ele>
        <time>2015-05-10T12:48:10Z</time>
      </trkpt>
      <trkpt lat="50.24889" lon="5.75558">
        <ele>518</ele>
        <time>2015-05-10T12:48:16Z</time>
      </trkpt>
      <trkpt lat="50.24893" lon="5.75564">
        <ele>518</ele>
        <time>2015-05-10T12:48:21Z</time>
      </trkpt>
      <trkpt lat="50.24898" lon="5.75571">
        <ele>518</ele>
        <time>2015-05-10T12:48:27Z</time>
      </trkpt>
      <trkpt lat="50.24902" lon="5.75576">
        <ele>518</ele>
        <time>2015-05-10T12:48:32Z</time>
      </trkpt>
      <trkpt lat="50.24906" lon="5.75577">
        <ele>518</ele>
        <time>2015-05-10T12:48:37Z</time>
      </trkpt>
      <trkpt lat="50.24906" lon="5.75576">
        <ele>519</ele>
        <time>2015-05-10T12:48:43Z</time>
      </trkpt>
      <trkpt lat="50.24907" lon="5.75574">
        <ele>519</ele>
        <time>2015-05-10T12:48:49Z</time>
      </trkpt>
      <trkpt lat="50.2491" lon="5.75568">
        <ele>520</ele>
        <time>2015-05-10T12:48:55Z</time>
      </trkpt>
      <trkpt lat="50.24913" lon="5.75562">
        <ele>519</ele>
        <time>2015-05-10T12:49:01Z</time>
      </trkpt>
      <trkpt lat="50.24913" lon="5.75555">
        <ele>519</ele>
        <time>2015-05-10T12:49:06Z</time>
      </trkpt>
      <trkpt lat="50.24913" lon="5.75547">
        <ele>519</ele>
        <time>2015-05-10T12:49:12Z</time>
      </trkpt>
      <trkpt lat="50.24913" lon="5.75538">
        <ele>519</ele>
        <time>2015-05-10T12:49:18Z</time>
      </trkpt>
      <trkpt lat="50.24912" lon="5.75531">
        <ele>519</ele>
        <time>2015-05-10T12:49:23Z</time>
      </trkpt>
      <trkpt lat="50.24911" lon="5.75522">
        <ele>520</ele>
        <time>2015-05-10T12:49:28Z</time>
      </trkpt>
      <trkpt lat="50.2491" lon="5.75512">
        <ele>520</ele>
        <time>2015-05-10T12:49:34Z</time>
      </trkpt>
      <trkpt lat="50.24911" lon="5.75502">
        <ele>520</ele>
        <time>2015-05-10T12:49:39Z</time>
      </trkpt>
      <trkpt lat="50.2491" lon="5.75494">
        <ele>520</ele>
        <time>2015-05-10T12:49:44Z</time>
      </trkpt>
      <trkpt lat="50.2491" lon="5.75485">
        <ele>520</ele>
        <time>2015-05-10T12:49:50Z</time>
      </trkpt>
      <trkpt lat="50.2491" lon="5.75474">
        <ele>520</ele>
        <time>2015-05-10T12:49:56Z</time>
      </trkpt>
      <trkpt lat="50.24911" lon="5.75465">
        <ele>520</ele>
        <time>2015-05-10T12:50:01Z</time>
      </trkpt>
      <trkpt lat="50.24911" lon="5.75456">
        <ele>520</ele>
        <time>2015-05-10T12:50:07Z</time>
      </trkpt>
      <trkpt lat="50.24912" lon="5.75447">
        <ele>521</ele>
        <time>2015-05-10T12:50:12Z</time>
      </trkpt>
      <trkpt lat="50.24912" lon="5.75437">
        <ele>521</ele>
        <time>2015-05-10T12:50:18Z</time>
      </trkpt>
      <trkpt lat="50.24913" lon="5.75429">
        <ele>521</ele>
        <time>2015-05-10T12:50:24Z</time>
      </trkpt>
      <trkpt lat="50.24914" lon="5.7542">
        <ele>521</ele>
        <time>2015-05-10T12:50:30Z</time>
      </trkpt>
      <trkpt lat="50.24914" lon="5.75412">
        <ele>521</ele>
        <time>2015-05-10T12:50:35Z</time>
      </trkpt>
      <trkpt lat="50.24914" lon="5.75402">
        <ele>522</ele>
        <time>2015-05-10T12:50:41Z</time>
      </trkpt>
      <trkpt lat="50.24916" lon="5.75395">
        <ele>522</ele>
        <time>2015-05-10T12:50:46Z</time>
      </trkpt>
      <trkpt lat="50.24917" lon="5.75387">
        <ele>522</ele>
        <time>2015-05-10T12:50:52Z</time>
      </trkpt>
      <trkpt lat="50.24916" lon="5.75379">
        <ele>522</ele>
        <time>2015-05-10T12:50:58Z</time>
      </trkpt>
      <trkpt lat="50.24916" lon="5.75369">
        <ele>522</ele>
        <time>2015-05-10T12:51:04Z</time>
      </trkpt>
      <trkpt lat="50.24915" lon="5.75361">
        <ele>522</ele>
        <time>2015-05-10T12:51:09Z</time>
      </trkpt>
      <trkpt lat="50.24913" lon="5.75353">
        <ele>523</ele>
        <time>2015-05-10T12:51:15Z</time>
      </trkpt>
      <trkpt lat="50.24911" lon="5.75343">
        <ele>523</ele>
        <time>2015-05-10T12:51:21Z</time>
      </trkpt>
      <trkpt lat="50.24911" lon="5.75332">
        <ele>523</ele>
        <time>2015-05-10T12:51:27Z</time>
      </trkpt>
      <trkpt lat="50.24911" lon="5.75323">
        <ele>523</ele>
        <time>2015-05-10T12:51:33Z</time>
      </trkpt>
      <trkpt lat="50.2491" lon="5.75316">
        <ele>523</ele>
        <time>2015-05-10T12:51:39Z</time>
      </trkpt>
      <trkpt lat="50.24914" lon="5.75307">
        <ele>524</ele>
        <time>2015-05-10T12:51:45Z</time>
      </trkpt>
      <trkpt lat="50.24914" lon="5.75296">
        <ele>524</ele>
        <time>2015-05-10T12:51:51Z</time>
      </trkpt>
      <trkpt lat="50.24914" lon="5.75284">
        <ele>523</ele>
        <time>2015-05-10T12:51:57Z</time>
      </trkpt>
      <trkpt lat="50.24914" lon="5.75279">
        <ele>524</ele>
        <time>2015-05-10T12:52:02Z</time>
      </trkpt>
      <trkpt lat="50.24913" lon="5.75274">
        <ele>525</ele>
        <time>2015-05-10T12:52:08Z</time>
      </trkpt>
      <trkpt lat="50.2491" lon="5.75264">
        <ele>524</ele>
        <time>2015-05-10T12:52:14Z</time>
      </trkpt>
      <trkpt lat="50.24911" lon="5.75254">
        <ele>524</ele>
        <time>2015-05-10T12:52:19Z</time>
      </trkpt>
      <trkpt lat="50.24912" lon="5.7525">
        <ele>525</ele>
        <time>2015-05-10T12:52:24Z</time>
      </trkpt>
      <trkpt lat="50.24911" lon="5.75247">
        <ele>525</ele>
        <time>2015-05-10T12:52:30Z</time>
      </trkpt>
      <trkpt lat="50.2491" lon="5.75245">
        <ele>525</ele>
        <time>2015-05-10T12:52:36Z</time>
      </trkpt>
      <trkpt lat="50.24909" lon="5.75243">
        <ele>525</ele>
        <time>2015-05-10T12:52:41Z</time>
      </trkpt>
      <trkpt lat="50.24909" lon="5.7524">
        <ele>525</ele>
        <time>2015-05-10T12:52:46Z</time>
      </trkpt>
      <trkpt lat="50.24909" lon="5.75235">
        <ele>524</ele>
        <time>2015-05-10T12:52:51Z</time>
      </trkpt>
      <trkpt lat="50.2491" lon="5.75228">
        <ele>525</ele>
        <time>2015-05-10T12:52:57Z</time>
      </trkpt>
      <trkpt lat="50.24912" lon="5.75221">
        <ele>525</ele>
        <time>2015-05-10T12:53:02Z</time>
      </trkpt>
      <trkpt lat="50.24915" lon="5.75213">
        <ele>525</ele>
        <time>2015-05-10T12:53:08Z</time>
      </trkpt>
      <trkpt lat="50.2492" lon="5.75208">
        <ele>525</ele>
        <time>2015-05-10T12:53:14Z</time>
      </trkpt>
      <trkpt lat="50.24926" lon="5.75205">
        <ele>525</ele>
        <time>2015-05-10T12:53:19Z</time>
      </trkpt>
      <trkpt lat="50.24933" lon="5.75204">
        <ele>526</ele>
        <time>2015-05-10T12:53:25Z</time>
      </trkpt>
      <trkpt lat="50.24938" lon="5.75203">
        <ele>526</ele>
        <time>2015-05-10T12:53:30Z</time>
      </trkpt>
      <trkpt lat="50.24944" lon="5.75201">
        <ele>526</ele>
        <time>2015-05-10T12:53:36Z</time>
      </trkpt>
      <trkpt lat="50.2495" lon="5.752">
        <ele>526</ele>
        <time>2015-05-10T12:53:42Z</time>
      </trkpt>
      <trkpt lat="50.24956" lon="5.75201">
        <ele>526</ele>
        <time>2015-05-10T12:53:48Z</time>
      </trkpt>
      <trkpt lat="50.24963" lon="5.75202">
        <ele>526</ele>
        <time>2015-05-10T12:53:54Z</time>
      </trkpt>
      <trkpt lat="50.2497" lon="5.75203">
        <ele>526</ele>
        <time>2015-05-10T12:54:00Z</time>
      </trkpt>
      <trkpt lat="50.24977" lon="5.75203">
        <ele>526</ele>
        <time>2015-05-10T12:54:06Z</time>
      </trkpt>
      <trkpt lat="50.24983" lon="5.75203">
        <ele>526</ele>
        <time>2015-05-10T12:54:12Z</time>
      </trkpt>
      <trkpt lat="50.2499" lon="5.75205">
        <ele>526</ele>
        <time>2015-05-10T12:54:18Z</time>
      </trkpt>
      <trkpt lat="50.24997" lon="5.75207">
        <ele>526</ele>
        <time>2015-05-10T12:54:24Z</time>
      </trkpt>
      <trkpt lat="50.25005" lon="5.75208">
        <ele>525</ele>
        <time>2015-05-10T12:54:30Z</time>
      </trkpt>
      <trkpt lat="50.25012" lon="5.75209">
        <ele>525</ele>
        <time>2015-05-10T12:54:36Z</time>
      </trkpt>
      <trkpt lat="50.25016" lon="5.7521">
        <ele>526</ele>
        <time>2015-05-10T12:54:41Z</time>
      </trkpt>
      <trkpt lat="50.25022" lon="5.75211">
        <ele>526</ele>
        <time>2015-05-10T12:54:47Z</time>
      </trkpt>
      <trkpt lat="50.25027" lon="5.75211">
        <ele>525</ele>
        <time>2015-05-10T12:54:52Z</time>
      </trkpt>
      <trkpt lat="50.2503" lon="5.75211">
        <ele>525</ele>
        <time>2015-05-10T12:54:58Z</time>
      </trkpt>
      <trkpt lat="50.25031" lon="5.7521">
        <ele>526</ele>
        <time>2015-05-10T12:55:03Z</time>
      </trkpt>
      <trkpt lat="50.25034" lon="5.7521">
        <ele>526</ele>
        <time>2015-05-10T12:55:08Z</time>
      </trkpt>
      <trkpt lat="50.2504" lon="5.75212">
        <ele>526</ele>
        <time>2015-05-10T12:55:14Z</time>
      </trkpt>
      <trkpt lat="50.25044" lon="5.75214">
        <ele>525</ele>
        <time>2015-05-10T12:55:19Z</time>
      </trkpt>
      <trkpt lat="50.25049" lon="5.75215">
        <ele>525</ele>
        <time>2015-05-10T12:55:24Z</time>
      </trkpt>
      <trkpt lat="50.25053" lon="5.75215">
        <ele>525</ele>
        <time>2015-05-10T12:55:29Z</time>
      </trkpt>
      <trkpt lat="50.2506" lon="5.75215">
        <ele>525</ele>
        <time>2015-05-10T12:55:34Z</time>
      </trkpt>
      <trkpt lat="50.25067" lon="5.75216">
        <ele>525</ele>
        <time>2015-05-10T12:55:40Z</time>
      </trkpt>
      <trkpt lat="50.25072" lon="5.75218">
        <ele>525</ele>
        <time>2015-05-10T12:55:46Z</time>
      </trkpt>
      <trkpt lat="50.25077" lon="5.75218">
        <ele>525</ele>
        <time>2015-05-10T12:55:52Z</time>
      </trkpt>
      <trkpt lat="50.25082" lon="5.75218">
        <ele>525</ele>
        <time>2015-05-10T12:55:57Z</time>
      </trkpt>
      <trkpt lat="50.25087" lon="5.75217">
        <ele>525</ele>
        <time>2015-05-10T12:56:02Z</time>
      </trkpt>
      <trkpt lat="50.25091" lon="5.75218">
        <ele>525</ele>
        <time>2015-05-10T12:56:08Z</time>
      </trkpt>
      <trkpt lat="50.25094" lon="5.75219">
        <ele>525</ele>
        <time>2015-05-10T12:56:14Z</time>
      </trkpt>
      <trkpt lat="50.25097" lon="5.75221">
        <ele>525</ele>
        <time>2015-05-10T12:56:20Z</time>
      </trkpt>
      <trkpt lat="50.25103" lon="5.75224">
        <ele>525</ele>
        <time>2015-05-10T12:56:26Z</time>
      </trkpt>
      <trkpt lat="50.25108" lon="5.75226">
        <ele>524</ele>
        <time>2015-05-10T12:56:32Z</time>
      </trkpt>
      <trkpt lat="50.25111" lon="5.75228">
        <ele>524</ele>
        <time>2015-05-10T12:56:37Z</time>
      </trkpt>
      <trkpt lat="50.25115" lon="5.75231">
        <ele>524</ele>
        <time>2015-05-10T12:56:42Z</time>
      </trkpt>
      <trkpt lat="50.25119" lon="5.75233">
        <ele>524</ele>
        <time>2015-05-10T12:56:47Z</time>
      </trkpt>
      <trkpt lat="50.25123" lon="5.75235">
        <ele>524</ele>
        <time>2015-05-10T12:56:52Z</time>
      </trkpt>
      <trkpt lat="50.25128" lon="5.75238">
        <ele>524</ele>
        <time>2015-05-10T12:56:58Z</time>
      </trkpt>
      <trkpt lat="50.25131" lon="5.7524">
        <ele>523</ele>
        <time>2015-05-10T12:57:03Z</time>
      </trkpt>
      <trkpt lat="50.25135" lon="5.7524">
        <ele>523</ele>
        <time>2015-05-10T12:57:09Z</time>
      </trkpt>
      <trkpt lat="50.25142" lon="5.7524">
        <ele>523</ele>
        <time>2015-05-10T12:57:15Z</time>
      </trkpt>
      <trkpt lat="50.25149" lon="5.75242">
        <ele>523</ele>
        <time>2015-05-10T12:57:21Z</time>
      </trkpt>
      <trkpt lat="50.25151" lon="5.75242">
        <ele>523</ele>
        <time>2015-05-10T12:57:26Z</time>
      </trkpt>
      <trkpt lat="50.25153" lon="5.75241">
        <ele>523</ele>
        <time>2015-05-10T12:57:32Z</time>
      </trkpt>
      <trkpt lat="50.25154" lon="5.7524">
        <ele>523</ele>
        <time>2015-05-10T12:57:37Z</time>
      </trkpt>
      <trkpt lat="50.25154" lon="5.75239">
        <ele>523</ele>
        <time>2015-05-10T12:57:43Z</time>
      </trkpt>
      <trkpt lat="50.25155" lon="5.75239">
        <ele>523</ele>
        <time>2015-05-10T12:57:49Z</time>
      </trkpt>
      <trkpt lat="50.25156" lon="5.7524">
        <ele>523</ele>
        <time>2015-05-10T12:57:55Z</time>
      </trkpt>
      <trkpt lat="50.25157" lon="5.75241">
        <ele>524</ele>
        <time>2015-05-10T12:58:00Z</time>
      </trkpt>
      <trkpt lat="50.25159" lon="5.7524">
        <ele>523</ele>
        <time>2015-05-10T12:58:06Z</time>
      </trkpt>
      <trkpt lat="50.25161" lon="5.75239">
        <ele>523</ele>
        <time>2015-05-10T12:58:12Z</time>
      </trkpt>
      <trkpt lat="50.25161" lon="5.7524">
        <ele>523</ele>
        <time>2015-05-10T12:58:19Z</time>
      </trkpt>
      <trkpt lat="50.25161" lon="5.7524">
        <ele>523</ele>
        <time>2015-05-10T12:58:24Z</time>
      </trkpt>
      <trkpt lat="50.25158" lon="5.75238">
        <ele>523</ele>
        <time>2015-05-10T12:58:30Z</time>
      </trkpt>
      <trkpt lat="50.25158" lon="5.75237">
        <ele>523</ele>
        <time>2015-05-10T12:58:36Z</time>
      </trkpt>
      <trkpt lat="50.25158" lon="5.75237">
        <ele>523</ele>
        <time>2015-05-10T12:58:41Z</time>
      </trkpt>
      <trkpt lat="50.25157" lon="5.75236">
        <ele>523</ele>
        <time>2015-05-10T12:58:46Z</time>
      </trkpt>
      <trkpt lat="50.25159" lon="5.75241">
        <ele>523</ele>
        <time>2015-05-10T12:58:52Z</time>
      </trkpt>
      <trkpt lat="50.25161" lon="5.75246">
        <ele>523</ele>
        <time>2015-05-10T12:58:57Z</time>
      </trkpt>
      <trkpt lat="50.25163" lon="5.75249">
        <ele>522</ele>
        <time>2015-05-10T12:59:03Z</time>
      </trkpt>
      <trkpt lat="50.25163" lon="5.75248">
        <ele>522</ele>
        <time>2015-05-10T12:59:08Z</time>
      </trkpt>
      <trkpt lat="50.25166" lon="5.75248">
        <ele>522</ele>
        <time>2015-05-10T12:59:13Z</time>
      </trkpt>
      <trkpt lat="50.25169" lon="5.75247">
        <ele>522</ele>
        <time>2015-05-10T12:59:19Z</time>
      </trkpt>
      <trkpt lat="50.25173" lon="5.75245">
        <ele>522</ele>
        <time>2015-05-10T12:59:25Z</time>
      </trkpt>
      <trkpt lat="50.25175" lon="5.75243">
        <ele>522</ele>
        <time>2015-05-10T12:59:30Z</time>
      </trkpt>
      <trkpt lat="50.25178" lon="5.75243">
        <ele>521</ele>
        <time>2015-05-10T12:59:35Z</time>
      </trkpt>
      <trkpt lat="50.25182" lon="5.75242">
        <ele>521</ele>
        <time>2015-05-10T12:59:40Z</time>
      </trkpt>
      <trkpt lat="50.2519" lon="5.75242">
        <ele>521</ele>
        <time>2015-05-10T12:59:46Z</time>
      </trkpt>
      <trkpt lat="50.25197" lon="5.75241">
        <ele>521</ele>
        <time>2015-05-10T12:59:52Z</time>
      </trkpt>
      <trkpt lat="50.25202" lon="5.75241">
        <ele>521</ele>
        <time>2015-05-10T12:59:57Z</time>
      </trkpt>
      <trkpt lat="50.25207" lon="5.75241">
        <ele>520</ele>
        <time>2015-05-10T13:00:02Z</time>
      </trkpt>
      <trkpt lat="50.25212" lon="5.75241">
        <ele>519</ele>
        <time>2015-05-10T13:00:08Z</time>
      </trkpt>
      <trkpt lat="50.25218" lon="5.7524">
        <ele>519</ele>
        <time>2015-05-10T13:00:13Z</time>
      </trkpt>
      <trkpt lat="50.25223" lon="5.75241">
        <ele>519</ele>
        <time>2015-05-10T13:00:19Z</time>
      </trkpt>
      <trkpt lat="50.2523" lon="5.75242">
        <ele>519</ele>
        <time>2015-05-10T13:00:25Z</time>
      </trkpt>
      <trkpt lat="50.25234" lon="5.75244">
        <ele>518</ele>
        <time>2015-05-10T13:00:30Z</time>
      </trkpt>
      <trkpt lat="50.25241" lon="5.75244">
        <ele>518</ele>
        <time>2015-05-10T13:00:36Z</time>
      </trkpt>
      <trkpt lat="50.25249" lon="5.75243">
        <ele>517</ele>
        <time>2015-05-10T13:00:42Z</time>
      </trkpt>
      <trkpt lat="50.25256" lon="5.75241">
        <ele>516</ele>
        <time>2015-05-10T13:00:48Z</time>
      </trkpt>
      <trkpt lat="50.2526" lon="5.75234">
        <ele>516</ele>
        <time>2015-05-10T13:00:54Z</time>
      </trkpt>
      <trkpt lat="50.25262" lon="5.75226">
        <ele>516</ele>
        <time>2015-05-10T13:00:59Z</time>
      </trkpt>
      <trkpt lat="50.25264" lon="5.75217">
        <ele>516</ele>
        <time>2015-05-10T13:01:05Z</time>
      </trkpt>
      <trkpt lat="50.25266" lon="5.7521">
        <ele>516</ele>
        <time>2015-05-10T13:01:10Z</time>
      </trkpt>
      <trkpt lat="50.25267" lon="5.75201">
        <ele>515</ele>
        <time>2015-05-10T13:01:16Z</time>
      </trkpt>
      <trkpt lat="50.25267" lon="5.7519">
        <ele>515</ele>
        <time>2015-05-10T13:01:22Z</time>
      </trkpt>
      <trkpt lat="50.25268" lon="5.75182">
        <ele>515</ele>
        <time>2015-05-10T13:01:27Z</time>
      </trkpt>
      <trkpt lat="50.25267" lon="5.75172">
        <ele>515</ele>
        <time>2015-05-10T13:01:33Z</time>
      </trkpt>
      <trkpt lat="50.25269" lon="5.75162">
        <ele>514</ele>
        <time>2015-05-10T13:01:39Z</time>
      </trkpt>
      <trkpt lat="50.25271" lon="5.75157">
        <ele>513</ele>
        <time>2015-05-10T13:01:44Z</time>
      </trkpt>
      <trkpt lat="50.25272" lon="5.75149">
        <ele>513</ele>
        <time>2015-05-10T13:01:50Z</time>
      </trkpt>
      <trkpt lat="50.25272" lon="5.7514">
        <ele>513</ele>
        <time>2015-05-10T13:01:56Z</time>
      </trkpt>
      <trkpt lat="50.25273" lon="5.75132">
        <ele>513</ele>
        <time>2015-05-10T13:02:02Z</time>
      </trkpt>
      <trkpt lat="50.25273" lon="5.75122">
        <ele>513</ele>
        <time>2015-05-10T13:02:08Z</time>
      </trkpt>
      <trkpt lat="50.25273" lon="5.75111">
        <ele>513</ele>
        <time>2015-05-10T13:02:14Z</time>
      </trkpt>
      <trkpt lat="50.2527" lon="5.75101">
        <ele>512</ele>
        <time>2015-05-10T13:02:19Z</time>
      </trkpt>
      <trkpt lat="50.25271" lon="5.75091">
        <ele>512</ele>
        <time>2015-05-10T13:02:25Z</time>
      </trkpt>
      <trkpt lat="50.25276" lon="5.75087">
        <ele>511</ele>
        <time>2015-05-10T13:02:31Z</time>
      </trkpt>
      <trkpt lat="50.2528" lon="5.75087">
        <ele>512</ele>
        <time>2015-05-10T13:02:37Z</time>
      </trkpt>
      <trkpt lat="50.25283" lon="5.75087">
        <ele>511</ele>
        <time>2015-05-10T13:02:42Z</time>
      </trkpt>
      <trkpt lat="50.25288" lon="5.75089">
        <ele>511</ele>
        <time>2015-05-10T13:02:48Z</time>
      </trkpt>
      <trkpt lat="50.25292" lon="5.75091">
        <ele>510</ele>
        <time>2015-05-10T13:02:53Z</time>
      </trkpt>
      <trkpt lat="50.25298" lon="5.75094">
        <ele>510</ele>
        <time>2015-05-10T13:02:59Z</time>
      </trkpt>
      <trkpt lat="50.25304" lon="5.75098">
        <ele>510</ele>
        <time>2015-05-10T13:03:05Z</time>
      </trkpt>
      <trkpt lat="50.25309" lon="5.75101">
        <ele>509</ele>
        <time>2015-05-10T13:03:10Z</time>
      </trkpt>
      <trkpt lat="50.25315" lon="5.75105">
        <ele>509</ele>
        <time>2015-05-10T13:03:16Z</time>
      </trkpt>
      <trkpt lat="50.25321" lon="5.75108">
        <ele>509</ele>
        <time>2015-05-10T13:03:21Z</time>
      </trkpt>
      <trkpt lat="50.25326" lon="5.75112">
        <ele>509</ele>
        <time>2015-05-10T13:03:26Z</time>
      </trkpt>
      <trkpt lat="50.25331" lon="5.75116">
        <ele>508</ele>
        <time>2015-05-10T13:03:32Z</time>
      </trkpt>
      <trkpt lat="50.25337" lon="5.75121">
        <ele>508</ele>
        <time>2015-05-10T13:03:38Z</time>
      </trkpt>
      <trkpt lat="50.25341" lon="5.75125">
        <ele>508</ele>
        <time>2015-05-10T13:03:43Z</time>
      </trkpt>
      <trkpt lat="50.25346" lon="5.75129">
        <ele>508</ele>
        <time>2015-05-10T13:03:49Z</time>
      </trkpt>
      <trkpt lat="50.2535" lon="5.75127">
        <ele>507</ele>
        <time>2015-05-10T13:03:54Z</time>
      </trkpt>
      <trkpt lat="50.25349" lon="5.7512">
        <ele>506</ele>
        <time>2015-05-10T13:04:00Z</time>
      </trkpt>
      <trkpt lat="50.25348" lon="5.75113">
        <ele>506</ele>
        <time>2015-05-10T13:04:05Z</time>
      </trkpt>
      <trkpt lat="50.25347" lon="5.75107">
        <ele>506</ele>
        <time>2015-05-10T13:04:10Z</time>
      </trkpt>
      <trkpt lat="50.25345" lon="5.751">
        <ele>506</ele>
        <time>2015-05-10T13:04:16Z</time>
      </trkpt>
      <trkpt lat="50.25343" lon="5.75093">
        <ele>506</ele>
        <time>2015-05-10T13:04:22Z</time>
      </trkpt>
      <trkpt lat="50.25342" lon="5.75087">
        <ele>505</ele>
        <time>2015-05-10T13:04:27Z</time>
      </trkpt>
      <trkpt lat="50.25338" lon="5.7508">
        <ele>505</ele>
        <time>2015-05-10T13:04:33Z</time>
      </trkpt>
      <trkpt lat="50.25335" lon="5.75071">
        <ele>506</ele>
        <time>2015-05-10T13:04:39Z</time>
      </trkpt>
      <trkpt lat="50.25331" lon="5.75064">
        <ele>506</ele>
        <time>2015-05-10T13:04:44Z</time>
      </trkpt>
      <trkpt lat="50.25327" lon="5.75056">
        <ele>506</ele>
        <time>2015-05-10T13:04:49Z</time>
      </trkpt>
      <trkpt lat="50.25324" lon="5.75049">
        <ele>506</ele>
        <time>2015-05-10T13:04:54Z</time>
      </trkpt>
      <trkpt lat="50.2532" lon="5.75041">
        <ele>506</ele>
        <time>2015-05-10T13:05:00Z</time>
      </trkpt>
      <trkpt lat="50.25318" lon="5.75036">
        <ele>506</ele>
        <time>2015-05-10T13:05:06Z</time>
      </trkpt>
      <trkpt lat="50.25317" lon="5.75032">
        <ele>506</ele>
        <time>2015-05-10T13:05:12Z</time>
      </trkpt>
      <trkpt lat="50.25314" lon="5.75026">
        <ele>506</ele>
        <time>2015-05-10T13:05:17Z</time>
      </trkpt>
      <trkpt lat="50.25311" lon="5.75019">
        <ele>507</ele>
        <time>2015-05-10T13:05:22Z</time>
      </trkpt>
      <trkpt lat="50.25309" lon="5.75013">
        <ele>506</ele>
        <time>2015-05-10T13:05:28Z</time>
      </trkpt>
      <trkpt lat="50.25304" lon="5.75007">
        <ele>506</ele>
        <time>2015-05-10T13:05:34Z</time>
      </trkpt>
      <trkpt lat="50.253" lon="5.75">
        <ele>507</ele>
        <time>2015-05-10T13:05:40Z</time>
      </trkpt>
      <trkpt lat="50.25297" lon="5.74995">
        <ele>507</ele>
        <time>2015-05-10T13:05:46Z</time>
      </trkpt>
      <trkpt lat="50.25293" lon="5.7499">
        <ele>507</ele>
        <time>2015-05-10T13:05:51Z</time>
      </trkpt>
      <trkpt lat="50.25289" lon="5.74982">
        <ele>506</ele>
        <time>2015-05-10T13:05:57Z</time>
      </trkpt>
      <trkpt lat="50.25286" lon="5.74977">
        <ele>507</ele>
        <time>2015-05-10T13:06:02Z</time>
      </trkpt>
      <trkpt lat="50.25282" lon="5.74971">
        <ele>508</ele>
        <time>2015-05-10T13:06:08Z</time>
      </trkpt>
      <trkpt lat="50.25278" lon="5.74965">
        <ele>507</ele>
        <time>2015-05-10T13:06:14Z</time>
      </trkpt>
      <trkpt lat="50.25277" lon="5.7496">
        <ele>507</ele>
        <time>2015-05-10T13:06:19Z</time>
      </trkpt>
      <trkpt lat="50.25274" lon="5.74953">
        <ele>508</ele>
        <time>2015-05-10T13:06:24Z</time>
      </trkpt>
      <trkpt lat="50.25269" lon="5.74946">
        <ele>507</ele>
        <time>2015-05-10T13:06:29Z</time>
      </trkpt>
      <trkpt lat="50.25265" lon="5.74938">
        <ele>508</ele>
        <time>2015-05-10T13:06:35Z</time>
      </trkpt>
      <trkpt lat="50.25263" lon="5.7493">
        <ele>508</ele>
        <time>2015-05-10T13:06:41Z</time>
      </trkpt>
      <trkpt lat="50.2526" lon="5.74923">
        <ele>508</ele>
        <time>2015-05-10T13:06:46Z</time>
      </trkpt>
      <trkpt lat="50.25257" lon="5.74915">
        <ele>508</ele>
        <time>2015-05-10T13:06:51Z</time>
      </trkpt>
      <trkpt lat="50.25254" lon="5.74908">
        <ele>509</ele>
        <time>2015-05-10T13:06:56Z</time>
      </trkpt>
      <trkpt lat="50.25249" lon="5.74899">
        <ele>509</ele>
        <time>2015-05-10T13:07:02Z</time>
      </trkpt>
      <trkpt lat="50.25246" lon="5.74893">
        <ele>509</ele>
        <time>2015-05-10T13:07:07Z</time>
      </trkpt>
      <trkpt lat="50.25244" lon="5.74889">
        <ele>509</ele>
        <time>2015-05-10T13:07:13Z</time>
      </trkpt>
      <trkpt lat="50.25244" lon="5.74889">
        <ele>509</ele>
        <time>2015-05-10T13:07:18Z</time>
      </trkpt>
      <trkpt lat="50.25242" lon="5.74882">
        <ele>508</ele>
        <time>2015-05-10T13:07:23Z</time>
      </trkpt>
      <trkpt lat="50.25239" lon="5.74874">
        <ele>509</ele>
        <time>2015-05-10T13:07:29Z</time>
      </trkpt>
      <trkpt lat="50.25235" lon="5.74868">
        <ele>509</ele>
        <time>2015-05-10T13:07:34Z</time>
      </trkpt>
      <trkpt lat="50.25232" lon="5.74862">
        <ele>509</ele>
        <time>2015-05-10T13:07:40Z</time>
      </trkpt>
      <trkpt lat="50.25228" lon="5.74856">
        <ele>509</ele>
        <time>2015-05-10T13:07:46Z</time>
      </trkpt>
      <trkpt lat="50.25224" lon="5.7485">
        <ele>510</ele>
        <time>2015-05-10T13:07:51Z</time>
      </trkpt>
      <trkpt lat="50.2522" lon="5.74841">
        <ele>509</ele>
        <time>2015-05-10T13:07:57Z</time>
      </trkpt>
      <trkpt lat="50.25216" lon="5.74834">
        <ele>510</ele>
        <time>2015-05-10T13:08:02Z</time>
      </trkpt>
      <trkpt lat="50.25212" lon="5.74828">
        <ele>510</ele>
        <time>2015-05-10T13:08:07Z</time>
      </trkpt>
      <trkpt lat="50.25209" lon="5.74823">
        <ele>510</ele>
        <time>2015-05-10T13:08:13Z</time>
      </trkpt>
      <trkpt lat="50.25207" lon="5.74813">
        <ele>510</ele>
        <time>2015-05-10T13:08:19Z</time>
      </trkpt>
      <trkpt lat="50.25204" lon="5.74805">
        <ele>510</ele>
        <time>2015-05-10T13:08:24Z</time>
      </trkpt>
      <trkpt lat="50.25201" lon="5.74794">
        <ele>511</ele>
        <time>2015-05-10T13:08:30Z</time>
      </trkpt>
      <trkpt lat="50.25197" lon="5.74784">
        <ele>511</ele>
        <time>2015-05-10T13:08:36Z</time>
      </trkpt>
      <trkpt lat="50.25195" lon="5.74777">
        <ele>511</ele>
        <time>2015-05-10T13:08:41Z</time>
      </trkpt>
      <trkpt lat="50.25194" lon="5.7477">
        <ele>512</ele>
        <time>2015-05-10T13:08:46Z</time>
      </trkpt>
      <trkpt lat="50.25192" lon="5.74764">
        <ele>512</ele>
        <time>2015-05-10T13:08:51Z</time>
      </trkpt>
      <trkpt lat="50.25191" lon="5.7476">
        <ele>513</ele>
        <time>2015-05-10T13:08:57Z</time>
      </trkpt>
      <trkpt lat="50.25192" lon="5.74754">
        <ele>513</ele>
        <time>2015-05-10T13:09:03Z</time>
      </trkpt>
      <trkpt lat="50.25193" lon="5.74749">
        <ele>513</ele>
        <time>2015-05-10T13:09:09Z</time>
      </trkpt>
      <trkpt lat="50.25191" lon="5.74742">
        <ele>513</ele>
        <time>2015-05-10T13:09:15Z</time>
      </trkpt>
      <trkpt lat="50.25189" lon="5.74736">
        <ele>513</ele>
        <time>2015-05-10T13:09:20Z</time>
      </trkpt>
      <trkpt lat="50.25187" lon="5.74728">
        <ele>513</ele>
        <time>2015-05-10T13:09:26Z</time>
      </trkpt>
      <trkpt lat="50.25182" lon="5.7472">
        <ele>513</ele>
        <time>2015-05-10T13:09:31Z</time>
      </trkpt>
      <trkpt lat="50.2518" lon="5.74712">
        <ele>514</ele>
        <time>2015-05-10T13:09:37Z</time>
      </trkpt>
      <trkpt lat="50.25176" lon="5.74702">
        <ele>514</ele>
        <time>2015-05-10T13:09:43Z</time>
      </trkpt>
      <trkpt lat="50.25171" lon="5.74692">
        <ele>515</ele>
        <time>2015-05-10T13:09:49Z</time>
      </trkpt>
      <trkpt lat="50.25169" lon="5.74685">
        <ele>515</ele>
        <time>2015-05-10T13:09:54Z</time>
      </trkpt>
      <trkpt lat="50.25164" lon="5.74678">
        <ele>515</ele>
        <time>2015-05-10T13:09:59Z</time>
      </trkpt>
      <trkpt lat="50.25162" lon="5.74671">
        <ele>516</ele>
        <time>2015-05-10T13:10:04Z</time>
      </trkpt>
      <trkpt lat="50.25158" lon="5.74665">
        <ele>516</ele>
        <time>2015-05-10T13:10:09Z</time>
      </trkpt>
      <trkpt lat="50.25157" lon="5.74661">
        <ele>516</ele>
        <time>2015-05-10T13:10:14Z</time>
      </trkpt>
      <trkpt lat="50.25157" lon="5.74656">
        <ele>516</ele>
        <time>2015-05-10T13:10:19Z</time>
      </trkpt>
      <trkpt lat="50.25156" lon="5.74651">
        <ele>517</ele>
        <time>2015-05-10T13:10:24Z</time>
      </trkpt>
      <trkpt lat="50.25155" lon="5.74648">
        <ele>517</ele>
        <time>2015-05-10T13:10:29Z</time>
      </trkpt>
      <trkpt lat="50.25156" lon="5.74648">
        <ele>517</ele>
        <time>2015-05-10T13:10:35Z</time>
      </trkpt>
      <trkpt lat="50.25157" lon="5.74646">
        <ele>517</ele>
        <time>2015-05-10T13:10:41Z</time>
      </trkpt>
      <trkpt lat="50.25156" lon="5.74644">
        <ele>517</ele>
        <time>2015-05-10T13:10:46Z</time>
      </trkpt>
      <trkpt lat="50.25153" lon="5.74641">
        <ele>517</ele>
        <time>2015-05-10T13:10:52Z</time>
      </trkpt>
      <trkpt lat="50.25152" lon="5.7464">
        <ele>517</ele>
        <time>2015-05-10T13:10:58Z</time>
      </trkpt>
      <trkpt lat="50.25152" lon="5.7464">
        <ele>517</ele>
        <time>2015-05-10T13:11:03Z</time>
      </trkpt>
      <trkpt lat="50.25153" lon="5.7464">
        <ele>517</ele>
        <time>2015-05-10T13:11:08Z</time>
      </trkpt>
      <trkpt lat="50.25155" lon="5.74639">
        <ele>516</ele>
        <time>2015-05-10T13:11:13Z</time>
      </trkpt>
      <trkpt lat="50.25156" lon="5.7464">
        <ele>517</ele>
        <time>2015-05-10T13:11:19Z</time>
      </trkpt>
      <trkpt lat="50.25155" lon="5.74641">
        <ele>517</ele>
        <time>2015-05-10T13:11:25Z</time>
      </trkpt>
      <trkpt lat="50.25154" lon="5.7464">
        <ele>517</ele>
        <time>2015-05-10T13:11:30Z</time>
      </trkpt>
      <trkpt lat="50.25154" lon="5.7464">
        <ele>517</ele>
        <time>2015-05-10T13:11:35Z</time>
      </trkpt>
      <trkpt lat="50.25154" lon="5.74641">
        <ele>517</ele>
        <time>2015-05-10T13:11:40Z</time>
      </trkpt>
      <trkpt lat="50.25155" lon="5.74642">
        <ele>517</ele>
        <time>2015-05-10T13:11:45Z</time>
      </trkpt>
      <trkpt lat="50.25158" lon="5.74645">
        <ele>517</ele>
        <time>2015-05-10T13:11:51Z</time>
      </trkpt>
      <trkpt lat="50.25158" lon="5.74643">
        <ele>517</ele>
        <time>2015-05-10T13:11:57Z</time>
      </trkpt>
      <trkpt lat="50.25159" lon="5.74645">
        <ele>517</ele>
        <time>2015-05-10T13:12:02Z</time>
      </trkpt>
      <trkpt lat="50.25159" lon="5.74645">
        <ele>517</ele>
        <time>2015-05-10T13:12:08Z</time>
      </trkpt>
      <trkpt lat="50.25153" lon="5.74638">
        <ele>517</ele>
        <time>2015-05-10T13:12:14Z</time>
      </trkpt>
      <trkpt lat="50.25148" lon="5.74638">
        <ele>517</ele>
        <time>2015-05-10T13:12:20Z</time>
      </trkpt>
      <trkpt lat="50.25149" lon="5.74637">
        <ele>517</ele>
        <time>2015-05-10T13:12:26Z</time>
      </trkpt>
      <trkpt lat="50.25151" lon="5.74634">
        <ele>517</ele>
        <time>2015-05-10T13:12:32Z</time>
      </trkpt>
      <trkpt lat="50.25157" lon="5.74632">
        <ele>517</ele>
        <time>2015-05-10T13:12:37Z</time>
      </trkpt>
      <trkpt lat="50.25158" lon="5.74633">
        <ele>517</ele>
        <time>2015-05-10T13:12:42Z</time>
      </trkpt>
      <trkpt lat="50.25156" lon="5.74634">
        <ele>517</ele>
        <time>2015-05-10T13:12:48Z</time>
      </trkpt>
      <trkpt lat="50.25157" lon="5.74634">
        <ele>517</ele>
        <time>2015-05-10T13:12:53Z</time>
      </trkpt>
      <trkpt lat="50.25159" lon="5.74633">
        <ele>517</ele>
        <time>2015-05-10T13:12:59Z</time>
      </trkpt>
      <trkpt lat="50.25159" lon="5.74634">
        <ele>517</ele>
        <time>2015-05-10T13:13:05Z</time>
      </trkpt>
      <trkpt lat="50.25159" lon="5.74635">
        <ele>517</ele>
        <time>2015-05-10T13:13:11Z</time>
      </trkpt>
      <trkpt lat="50.25159" lon="5.74636">
        <ele>516</ele>
        <time>2015-05-10T13:13:16Z</time>
      </trkpt>
      <trkpt lat="50.25158" lon="5.74636">
        <ele>517</ele>
        <time>2015-05-10T13:13:21Z</time>
      </trkpt>
      <trkpt lat="50.25157" lon="5.74636">
        <ele>517</ele>
        <time>2015-05-10T13:13:26Z</time>
      </trkpt>
      <trkpt lat="50.25157" lon="5.74636">
        <ele>516</ele>
        <time>2015-05-10T13:13:32Z</time>
      </trkpt>
      <trkpt lat="50.25162" lon="5.74638">
        <ele>516</ele>
        <time>2015-05-10T13:13:38Z</time>
      </trkpt>
      <trkpt lat="50.25162" lon="5.74639">
        <ele>517</ele>
        <time>2015-05-10T13:13:43Z</time>
      </trkpt>
      <trkpt lat="50.25161" lon="5.7464">
        <ele>516</ele>
        <time>2015-05-10T13:13:48Z</time>
      </trkpt>
      <trkpt lat="50.2516" lon="5.74641">
        <ele>516</ele>
        <time>2015-05-10T13:13:53Z</time>
      </trkpt>
      <trkpt lat="50.25158" lon="5.74642">
        <ele>516</ele>
        <time>2015-05-10T13:13:59Z</time>
      </trkpt>
      <trkpt lat="50.25157" lon="5.74642">
        <ele>516</ele>
        <time>2015-05-10T13:14:05Z</time>
      </trkpt>
      <trkpt lat="50.25156" lon="5.74643">
        <ele>516</ele>
        <time>2015-05-10T13:14:11Z</time>
      </trkpt>
      <trkpt lat="50.25156" lon="5.74643">
        <ele>516</ele>
        <time>2015-05-10T13:14:16Z</time>
      </trkpt>
      <trkpt lat="50.25156" lon="5.74644">
        <ele>516</ele>
        <time>2015-05-10T13:14:22Z</time>
      </trkpt>
      <trkpt lat="50.25155" lon="5.74643">
        <ele>516</ele>
        <time>2015-05-10T13:14:28Z</time>
      </trkpt>
      <trkpt lat="50.25155" lon="5.74644">
        <ele>516</ele>
        <time>2015-05-10T13:14:35Z</time>
      </trkpt>
      <trkpt lat="50.25155" lon="5.74645">
        <ele>517</ele>
        <time>2015-05-10T13:14:42Z</time>
      </trkpt>
      <trkpt lat="50.25155" lon="5.74645">
        <ele>516</ele>
        <time>2015-05-10T13:14:48Z</time>
      </trkpt>
      <trkpt lat="50.25154" lon="5.74644">
        <ele>516</ele>
        <time>2015-05-10T13:14:54Z</time>
      </trkpt>
      <trkpt lat="50.25153" lon="5.74644">
        <ele>516</ele>
        <time>2015-05-10T13:14:59Z</time>
      </trkpt>
      <trkpt lat="50.25153" lon="5.74643">
        <ele>517</ele>
        <time>2015-05-10T13:15:04Z</time>
      </trkpt>
      <trkpt lat="50.25153" lon="5.74643">
        <ele>517</ele>
        <time>2015-05-10T13:15:10Z</time>
      </trkpt>
      <trkpt lat="50.25155" lon="5.74643">
        <ele>516</ele>
        <time>2015-05-10T13:15:15Z</time>
      </trkpt>
      <trkpt lat="50.25157" lon="5.74642">
        <ele>517</ele>
        <time>2015-05-10T13:15:21Z</time>
      </trkpt>
      <trkpt lat="50.25157" lon="5.74641">
        <ele>517</ele>
        <time>2015-05-10T13:15:27Z</time>
      </trkpt>
      <trkpt lat="50.25159" lon="5.74641">
        <ele>517</ele>
        <time>2015-05-10T13:15:32Z</time>
      </trkpt>
      <trkpt lat="50.25162" lon="5.74642">
        <ele>517</ele>
        <time>2015-05-10T13:15:38Z</time>
      </trkpt>
      <trkpt lat="50.25163" lon="5.74644">
        <ele>517</ele>
        <time>2015-05-10T13:15:43Z</time>
      </trkpt>
      <trkpt lat="50.25161" lon="5.74644">
        <ele>516</ele>
        <time>2015-05-10T13:15:49Z</time>
      </trkpt>
      <trkpt lat="50.2516" lon="5.74643">
        <ele>516</ele>
        <time>2015-05-10T13:15:54Z</time>
      </trkpt>
      <trkpt lat="50.25158" lon="5.74641">
        <ele>516</ele>
        <time>2015-05-10T13:15:59Z</time>
      </trkpt>
      <trkpt lat="50.25157" lon="5.74639">
        <ele>516</ele>
        <time>2015-05-10T13:16:05Z</time>
      </trkpt>
      <trkpt lat="50.25157" lon="5.74638">
        <ele>516</ele>
        <time>2015-05-10T13:16:10Z</time>
      </trkpt>
      <trkpt lat="50.25156" lon="5.74638">
        <ele>516</ele>
        <time>2015-05-10T13:16:16Z</time>
      </trkpt>
      <trkpt lat="50.25157" lon="5.74637">
        <ele>516</ele>
        <time>2015-05-10T13:16:24Z</time>
      </trkpt>
      <trkpt lat="50.25157" lon="5.74637">
        <ele>516</ele>
        <time>2015-05-10T13:16:30Z</time>
      </trkpt>
      <trkpt lat="50.25157" lon="5.74636">
        <ele>516</ele>
        <time>2015-05-10T13:16:36Z</time>
      </trkpt>
      <trkpt lat="50.25157" lon="5.74636">
        <ele>516</ele>
        <time>2015-05-10T13:16:41Z</time>
      </trkpt>
      <trkpt lat="50.25157" lon="5.74636">
        <ele>516</ele>
        <time>2015-05-10T13:16:47Z</time>
      </trkpt>
      <trkpt lat="50.25158" lon="5.74635">
        <ele>516</ele>
        <time>2015-05-10T13:16:53Z</time>
      </trkpt>
      <trkpt lat="50.25158" lon="5.74634">
        <ele>516</ele>
        <time>2015-05-10T13:16:58Z</time>
      </trkpt>
      <trkpt lat="50.25159" lon="5.74633">
        <ele>516</ele>
        <time>2015-05-10T13:17:03Z</time>
      </trkpt>
      <trkpt lat="50.25159" lon="5.74633">
        <ele>517</ele>
        <time>2015-05-10T13:17:08Z</time>
      </trkpt>
      <trkpt lat="50.25159" lon="5.74633">
        <ele>517</ele>
        <time>2015-05-10T13:17:14Z</time>
      </trkpt>
      <trkpt lat="50.25158" lon="5.74633">
        <ele>517</ele>
        <time>2015-05-10T13:17:20Z</time>
      </trkpt>
      <trkpt lat="50.25158" lon="5.74633">
        <ele>516</ele>
        <time>2015-05-10T13:17:25Z</time>
      </trkpt>
      <trkpt lat="50.25157" lon="5.74632">
        <ele>516</ele>
        <time>2015-05-10T13:17:30Z</time>
      </trkpt>
      <trkpt lat="50.25157" lon="5.74632">
        <ele>516</ele>
        <time>2015-05-10T13:17:36Z</time>
      </trkpt>
      <trkpt lat="50.25157" lon="5.74632">
        <ele>516</ele>
        <time>2015-05-10T13:17:41Z</time>
      </trkpt>
      <trkpt lat="50.25156" lon="5.74632">
        <ele>516</ele>
        <time>2015-05-10T13:17:47Z</time>
      </trkpt>
      <trkpt lat="50.25156" lon="5.74632">
        <ele>516</ele>
        <time>2015-05-10T13:17:56Z</time>
      </trkpt>
      <trkpt lat="50.25157" lon="5.74631">
        <ele>517</ele>
        <time>2015-05-10T13:18:01Z</time>
      </trkpt>
      <trkpt lat="50.25158" lon="5.7463">
        <ele>517</ele>
        <time>2015-05-10T13:18:06Z</time>
      </trkpt>
      <trkpt lat="50.25158" lon="5.74631">
        <ele>516</ele>
        <time>2015-05-10T13:18:12Z</time>
      </trkpt>
      <trkpt lat="50.25158" lon="5.74631">
        <ele>516</ele>
        <time>2015-05-10T13:18:18Z</time>
      </trkpt>
      <trkpt lat="50.25159" lon="5.74631">
        <ele>516</ele>
        <time>2015-05-10T13:18:23Z</time>
      </trkpt>
      <trkpt lat="50.25158" lon="5.74631">
        <ele>516</ele>
        <time>2015-05-10T13:18:28Z</time>
      </trkpt>
      <trkpt lat="50.25156" lon="5.74631">
        <ele>517</ele>
        <time>2015-05-10T13:18:34Z</time>
      </trkpt>
      <trkpt lat="50.25154" lon="5.74632">
        <ele>517</ele>
        <time>2015-05-10T13:18:39Z</time>
      </trkpt>
      <trkpt lat="50.25152" lon="5.74633">
        <ele>517</ele>
        <time>2015-05-10T13:18:45Z</time>
      </trkpt>
      <trkpt lat="50.2515" lon="5.74633">
        <ele>517</ele>
        <time>2015-05-10T13:18:51Z</time>
      </trkpt>
      <trkpt lat="50.2515" lon="5.74633">
        <ele>517</ele>
        <time>2015-05-10T13:18:56Z</time>
      </trkpt>
      <trkpt lat="50.2515" lon="5.74633">
        <ele>517</ele>
        <time>2015-05-10T13:19:02Z</time>
      </trkpt>
      <trkpt lat="50.25149" lon="5.74633">
        <ele>516</ele>
        <time>2015-05-10T13:19:08Z</time>
      </trkpt>
      <trkpt lat="50.25148" lon="5.74633">
        <ele>517</ele>
        <time>2015-05-10T13:19:13Z</time>
      </trkpt>
      <trkpt lat="50.25148" lon="5.74634">
        <ele>517</ele>
        <time>2015-05-10T13:19:19Z</time>
      </trkpt>
      <trkpt lat="50.25149" lon="5.74635">
        <ele>517</ele>
        <time>2015-05-10T13:19:24Z</time>
      </trkpt>
      <trkpt lat="50.25151" lon="5.74635">
        <ele>517</ele>
        <time>2015-05-10T13:19:30Z</time>
      </trkpt>
      <trkpt lat="50.25152" lon="5.74635">
        <ele>517</ele>
        <time>2015-05-10T13:19:35Z</time>
      </trkpt>
      <trkpt lat="50.25154" lon="5.74636">
        <ele>517</ele>
        <time>2015-05-10T13:19:41Z</time>
      </trkpt>
      <trkpt lat="50.25155" lon="5.74636">
        <ele>516</ele>
        <time>2015-05-10T13:19:46Z</time>
      </trkpt>
      <trkpt lat="50.25156" lon="5.74636">
        <ele>517</ele>
        <time>2015-05-10T13:19:51Z</time>
      </trkpt>
      <trkpt lat="50.25157" lon="5.74637">
        <ele>517</ele>
        <time>2015-05-10T13:19:57Z</time>
      </trkpt>
      <trkpt lat="50.25156" lon="5.74638">
        <ele>518</ele>
        <time>2015-05-10T13:20:02Z</time>
      </trkpt>
      <trkpt lat="50.25155" lon="5.74637">
        <ele>518</ele>
        <time>2015-05-10T13:20:07Z</time>
      </trkpt>
      <trkpt lat="50.25156" lon="5.74638">
        <ele>517</ele>
        <time>2015-05-10T13:20:12Z</time>
      </trkpt>
      <trkpt lat="50.25156" lon="5.74639">
        <ele>517</ele>
        <time>2015-05-10T13:20:18Z</time>
      </trkpt>
      <trkpt lat="50.25156" lon="5.74639">
        <ele>518</ele>
        <time>2015-05-10T13:20:23Z</time>
      </trkpt>
      <trkpt lat="50.25154" lon="5.74639">
        <ele>518</ele>
        <time>2015-05-10T13:20:29Z</time>
      </trkpt>
      <trkpt lat="50.25153" lon="5.7464">
        <ele>518</ele>
        <time>2015-05-10T13:20:36Z</time>
      </trkpt>
      <trkpt lat="50.25152" lon="5.74641">
        <ele>517</ele>
        <time>2015-05-10T13:20:41Z</time>
      </trkpt>
      <trkpt lat="50.25152" lon="5.74642">
        <ele>517</ele>
        <time>2015-05-10T13:20:48Z</time>
      </trkpt>
      <trkpt lat="50.25153" lon="5.74641">
        <ele>518</ele>
        <time>2015-05-10T13:20:54Z</time>
      </trkpt>
      <trkpt lat="50.25153" lon="5.74641">
        <ele>517</ele>
        <time>2015-05-10T13:21:00Z</time>
      </trkpt>
      <trkpt lat="50.25153" lon="5.7464">
        <ele>517</ele>
        <time>2015-05-10T13:21:05Z</time>
      </trkpt>
      <trkpt lat="50.25154" lon="5.7464">
        <ele>518</ele>
        <time>2015-05-10T13:21:10Z</time>
      </trkpt>
      <trkpt lat="50.25155" lon="5.74641">
        <ele>518</ele>
        <time>2015-05-10T13:21:16Z</time>
      </trkpt>
      <trkpt lat="50.25155" lon="5.74641">
        <ele>518</ele>
        <time>2015-05-10T13:21:23Z</time>
      </trkpt>
      <trkpt lat="50.25151" lon="5.74642">
        <ele>517</ele>
        <time>2015-05-10T13:21:29Z</time>
      </trkpt>
      <trkpt lat="50.2515" lon="5.74642">
        <ele>517</ele>
        <time>2015-05-10T13:21:34Z</time>
      </trkpt>
      <trkpt lat="50.2515" lon="5.7464">
        <ele>518</ele>
        <time>2015-05-10T13:21:40Z</time>
      </trkpt>
      <trkpt lat="50.2515" lon="5.74642">
        <ele>517</ele>
        <time>2015-05-10T13:21:46Z</time>
      </trkpt>
      <trkpt lat="50.25151" lon="5.74642">
        <ele>517</ele>
        <time>2015-05-10T13:21:52Z</time>
      </trkpt>
      <trkpt lat="50.2515" lon="5.7464">
        <ele>518</ele>
        <time>2015-05-10T13:21:57Z</time>
      </trkpt>
      <trkpt lat="50.2515" lon="5.74639">
        <ele>518</ele>
        <time>2015-05-10T13:22:02Z</time>
      </trkpt>
      <trkpt lat="50.2515" lon="5.74637">
        <ele>517</ele>
        <time>2015-05-10T13:22:07Z</time>
      </trkpt>
      <trkpt lat="50.25148" lon="5.74634">
        <ele>518</ele>
        <time>2015-05-10T13:22:13Z</time>
      </trkpt>
      <trkpt lat="50.25146" lon="5.7463">
        <ele>518</ele>
        <time>2015-05-10T13:22:19Z</time>
      </trkpt>
      <trkpt lat="50.25144" lon="5.74626">
        <ele>518</ele>
        <time>2015-05-10T13:22:24Z</time>
      </trkpt>
      <trkpt lat="50.25142" lon="5.7462">
        <ele>518</ele>
        <time>2015-05-10T13:22:30Z</time>
      </trkpt>
      <trkpt lat="50.25141" lon="5.74615">
        <ele>519</ele>
        <time>2015-05-10T13:22:36Z</time>
      </trkpt>
      <trkpt lat="50.2514" lon="5.74613">
        <ele>519</ele>
        <time>2015-05-10T13:22:42Z</time>
      </trkpt>
      <trkpt lat="50.25138" lon="5.74607">
        <ele>519</ele>
        <time>2015-05-10T13:22:48Z</time>
      </trkpt>
      <trkpt lat="50.25137" lon="5.74602">
        <ele>519</ele>
        <time>2015-05-10T13:22:54Z</time>
      </trkpt>
      <trkpt lat="50.25136" lon="5.74598">
        <ele>519</ele>
        <time>2015-05-10T13:22:59Z</time>
      </trkpt>
      <trkpt lat="50.25134" lon="5.74592">
        <ele>520</ele>
        <time>2015-05-10T13:23:05Z</time>
      </trkpt>
      <trkpt lat="50.25132" lon="5.74586">
        <ele>520</ele>
        <time>2015-05-10T13:23:10Z</time>
      </trkpt>
      <trkpt lat="50.2513" lon="5.74579">
        <ele>520</ele>
        <time>2015-05-10T13:23:15Z</time>
      </trkpt>
      <trkpt lat="50.25128" lon="5.74573">
        <ele>521</ele>
        <time>2015-05-10T13:23:20Z</time>
      </trkpt>
      <trkpt lat="50.25126" lon="5.74566">
        <ele>521</ele>
        <time>2015-05-10T13:23:26Z</time>
      </trkpt>
      <trkpt lat="50.25125" lon="5.7456">
        <ele>521</ele>
        <time>2015-05-10T13:23:32Z</time>
      </trkpt>
      <trkpt lat="50.25122" lon="5.74553">
        <ele>521</ele>
        <time>2015-05-10T13:23:38Z</time>
      </trkpt>
      <trkpt lat="50.2512" lon="5.74546">
        <ele>521</ele>
        <time>2015-05-10T13:23:43Z</time>
      </trkpt>
      <trkpt lat="50.25116" lon="5.74539">
        <ele>521</ele>
        <time>2015-05-10T13:23:48Z</time>
      </trkpt>
      <trkpt lat="50.25114" lon="5.74529">
        <ele>521</ele>
        <time>2015-05-10T13:23:54Z</time>
      </trkpt>
      <trkpt lat="50.25111" lon="5.74523">
        <ele>521</ele>
        <time>2015-05-10T13:23:59Z</time>
      </trkpt>
      <trkpt lat="50.25109" lon="5.74516">
        <ele>522</ele>
        <time>2015-05-10T13:24:04Z</time>
      </trkpt>
      <trkpt lat="50.25107" lon="5.74507">
        <ele>523</ele>
        <time>2015-05-10T13:24:10Z</time>
      </trkpt>
      <trkpt lat="50.25105" lon="5.74498">
        <ele>523</ele>
        <time>2015-05-10T13:24:16Z</time>
      </trkpt>
      <trkpt lat="50.25103" lon="5.74489">
        <ele>523</ele>
        <time>2015-05-10T13:24:22Z</time>
      </trkpt>
      <trkpt lat="50.251" lon="5.74484">
        <ele>524</ele>
        <time>2015-05-10T13:24:28Z</time>
      </trkpt>
      <trkpt lat="50.25097" lon="5.74479">
        <ele>523</ele>
        <time>2015-05-10T13:24:33Z</time>
      </trkpt>
      <trkpt lat="50.25094" lon="5.74473">
        <ele>524</ele>
        <time>2015-05-10T13:24:39Z</time>
      </trkpt>
      <trkpt lat="50.25091" lon="5.74467">
        <ele>524</ele>
        <time>2015-05-10T13:24:45Z</time>
      </trkpt>
      <trkpt lat="50.2509" lon="5.74461">
        <ele>525</ele>
        <time>2015-05-10T13:24:50Z</time>
      </trkpt>
      <trkpt lat="50.25087" lon="5.74454">
        <ele>525</ele>
        <time>2015-05-10T13:24:56Z</time>
      </trkpt>
      <trkpt lat="50.25085" lon="5.74447">
        <ele>525</ele>
        <time>2015-05-10T13:25:01Z</time>
      </trkpt>
      <trkpt lat="50.25084" lon="5.74441">
        <ele>525</ele>
        <time>2015-05-10T13:25:06Z</time>
      </trkpt>
      <trkpt lat="50.25082" lon="5.74436">
        <ele>526</ele>
        <time>2015-05-10T13:25:11Z</time>
      </trkpt>
      <trkpt lat="50.25078" lon="5.74428">
        <ele>526</ele>
        <time>2015-05-10T13:25:17Z</time>
      </trkpt>
      <trkpt lat="50.25077" lon="5.74421">
        <ele>526</ele>
        <time>2015-05-10T13:25:22Z</time>
      </trkpt>
      <trkpt lat="50.25072" lon="5.74409">
        <ele>527</ele>
        <time>2015-05-10T13:25:28Z</time>
      </trkpt>
      <trkpt lat="50.25069" lon="5.744">
        <ele>527</ele>
        <time>2015-05-10T13:25:33Z</time>
      </trkpt>
      <trkpt lat="50.25068" lon="5.74393">
        <ele>527</ele>
        <time>2015-05-10T13:25:38Z</time>
      </trkpt>
      <trkpt lat="50.25068" lon="5.74384">
        <ele>528</ele>
        <time>2015-05-10T13:25:44Z</time>
      </trkpt>
      <trkpt lat="50.25066" lon="5.74377">
        <ele>528</ele>
        <time>2015-05-10T13:25:49Z</time>
      </trkpt>
      <trkpt lat="50.25066" lon="5.7437">
        <ele>528</ele>
        <time>2015-05-10T13:25:54Z</time>
      </trkpt>
      <trkpt lat="50.25065" lon="5.74362">
        <ele>528</ele>
        <time>2015-05-10T13:25:59Z</time>
      </trkpt>
      <trkpt lat="50.25063" lon="5.74354">
        <ele>528</ele>
        <time>2015-05-10T13:26:04Z</time>
      </trkpt>
      <trkpt lat="50.25061" lon="5.74346">
        <ele>528</ele>
        <time>2015-05-10T13:26:10Z</time>
      </trkpt>
      <trkpt lat="50.25061" lon="5.7434">
        <ele>528</ele>
        <time>2015-05-10T13:26:15Z</time>
      </trkpt>
      <trkpt lat="50.25059" lon="5.74332">
        <ele>529</ele>
        <time>2015-05-10T13:26:21Z</time>
      </trkpt>
      <trkpt lat="50.25057" lon="5.74325">
        <ele>529</ele>
        <time>2015-05-10T13:26:26Z</time>
      </trkpt>
      <trkpt lat="50.25056" lon="5.74317">
        <ele>529</ele>
        <time>2015-05-10T13:26:32Z</time>
      </trkpt>
      <trkpt lat="50.25055" lon="5.74311">
        <ele>530</ele>
        <time>2015-05-10T13:26:37Z</time>
      </trkpt>
      <trkpt lat="50.25053" lon="5.74303">
        <ele>530</ele>
        <time>2015-05-10T13:26:43Z</time>
      </trkpt>
      <trkpt lat="50.25051" lon="5.74296">
        <ele>530</ele>
        <time>2015-05-10T13:26:48Z</time>
      </trkpt>
      <trkpt lat="50.25048" lon="5.74287">
        <ele>530</ele>
        <time>2015-05-10T13:26:54Z</time>
      </trkpt>
      <trkpt lat="50.25048" lon="5.74281">
        <ele>531</ele>
        <time>2015-05-10T13:26:59Z</time>
      </trkpt>
      <trkpt lat="50.25046" lon="5.74276">
        <ele>531</ele>
        <time>2015-05-10T13:27:04Z</time>
      </trkpt>
      <trkpt lat="50.25044" lon="5.74268">
        <ele>531</ele>
        <time>2015-05-10T13:27:10Z</time>
      </trkpt>
      <trkpt lat="50.25041" lon="5.74261">
        <ele>531</ele>
        <time>2015-05-10T13:27:16Z</time>
      </trkpt>
      <trkpt lat="50.25039" lon="5.74255">
        <ele>532</ele>
        <time>2015-05-10T13:27:21Z</time>
      </trkpt>
      <trkpt lat="50.25037" lon="5.74249">
        <ele>532</ele>
        <time>2015-05-10T13:27:27Z</time>
      </trkpt>
      <trkpt lat="50.25037" lon="5.74242">
        <ele>533</ele>
        <time>2015-05-10T13:27:32Z</time>
      </trkpt>
      <trkpt lat="50.25037" lon="5.74237">
        <ele>533</ele>
        <time>2015-05-10T13:27:37Z</time>
      </trkpt>
      <trkpt lat="50.25035" lon="5.7423">
        <ele>533</ele>
        <time>2015-05-10T13:27:43Z</time>
      </trkpt>
      <trkpt lat="50.25032" lon="5.74226">
        <ele>534</ele>
        <time>2015-05-10T13:27:48Z</time>
      </trkpt>
      <trkpt lat="50.25031" lon="5.7422">
        <ele>534</ele>
        <time>2015-05-10T13:27:53Z</time>
      </trkpt>
      <trkpt lat="50.25028" lon="5.74214">
        <ele>534</ele>
        <time>2015-05-10T13:27:59Z</time>
      </trkpt>
      <trkpt lat="50.25026" lon="5.74209">
        <ele>534</ele>
        <time>2015-05-10T13:28:04Z</time>
      </trkpt>
      <trkpt lat="50.25023" lon="5.74204">
        <ele>535</ele>
        <time>2015-05-10T13:28:09Z</time>
      </trkpt>
      <trkpt lat="50.2502" lon="5.74197">
        <ele>535</ele>
        <time>2015-05-10T13:28:15Z</time>
      </trkpt>
      <trkpt lat="50.25017" lon="5.74192">
        <ele>536</ele>
        <time>2015-05-10T13:28:21Z</time>
      </trkpt>
      <trkpt lat="50.25014" lon="5.74185">
        <ele>536</ele>
        <time>2015-05-10T13:28:27Z</time>
      </trkpt>
      <trkpt lat="50.25013" lon="5.74177">
        <ele>536</ele>
        <time>2015-05-10T13:28:32Z</time>
      </trkpt>
      <trkpt lat="50.25011" lon="5.74169">
        <ele>536</ele>
        <time>2015-05-10T13:28:37Z</time>
      </trkpt>
      <trkpt lat="50.2501" lon="5.7416">
        <ele>537</ele>
        <time>2015-05-10T13:28:42Z</time>
      </trkpt>
      <trkpt lat="50.2501" lon="5.7415">
        <ele>537</ele>
        <time>2015-05-10T13:28:48Z</time>
      </trkpt>
      <trkpt lat="50.25008" lon="5.74142">
        <ele>538</ele>
        <time>2015-05-10T13:28:53Z</time>
      </trkpt>
      <trkpt lat="50.25008" lon="5.74133">
        <ele>538</ele>
        <time>2015-05-10T13:28:59Z</time>
      </trkpt>
      <trkpt lat="50.25006" lon="5.74127">
        <ele>538</ele>
        <time>2015-05-10T13:29:04Z</time>
      </trkpt>
      <trkpt lat="50.25005" lon="5.74118">
        <ele>538</ele>
        <time>2015-05-10T13:29:10Z</time>
      </trkpt>
      <trkpt lat="50.25004" lon="5.74111">
        <ele>539</ele>
        <time>2015-05-10T13:29:16Z</time>
      </trkpt>
      <trkpt lat="50.25003" lon="5.74103">
        <ele>540</ele>
        <time>2015-05-10T13:29:22Z</time>
      </trkpt>
      <trkpt lat="50.25002" lon="5.74096">
        <ele>540</ele>
        <time>2015-05-10T13:29:28Z</time>
      </trkpt>
      <trkpt lat="50.25" lon="5.74089">
        <ele>540</ele>
        <time>2015-05-10T13:29:33Z</time>
      </trkpt>
      <trkpt lat="50.24998" lon="5.74082">
        <ele>540</ele>
        <time>2015-05-10T13:29:39Z</time>
      </trkpt>
      <trkpt lat="50.24996" lon="5.74074">
        <ele>541</ele>
        <time>2015-05-10T13:29:45Z</time>
      </trkpt>
      <trkpt lat="50.24995" lon="5.74067">
        <ele>542</ele>
        <time>2015-05-10T13:29:50Z</time>
      </trkpt>
      <trkpt lat="50.24993" lon="5.74061">
        <ele>542</ele>
        <time>2015-05-10T13:29:55Z</time>
      </trkpt>
      <trkpt lat="50.2499" lon="5.74053">
        <ele>542</ele>
        <time>2015-05-10T13:30:01Z</time>
      </trkpt>
      <trkpt lat="50.24987" lon="5.74046">
        <ele>543</ele>
        <time>2015-05-10T13:30:07Z</time>
      </trkpt>
      <trkpt lat="50.24984" lon="5.74039">
        <ele>543</ele>
        <time>2015-05-10T13:30:13Z</time>
      </trkpt>
      <trkpt lat="50.24981" lon="5.74033">
        <ele>543</ele>
        <time>2015-05-10T13:30:18Z</time>
      </trkpt>
      <trkpt lat="50.24978" lon="5.74025">
        <ele>544</ele>
        <time>2015-05-10T13:30:24Z</time>
      </trkpt>
      <trkpt lat="50.24976" lon="5.74018">
        <ele>544</ele>
        <time>2015-05-10T13:30:29Z</time>
      </trkpt>
      <trkpt lat="50.24972" lon="5.7401">
        <ele>545</ele>
        <time>2015-05-10T13:30:35Z</time>
      </trkpt>
      <trkpt lat="50.2497" lon="5.74001">
        <ele>545</ele>
        <time>2015-05-10T13:30:41Z</time>
      </trkpt>
      <trkpt lat="50.24969" lon="5.73995">
        <ele>546</ele>
        <time>2015-05-10T13:30:46Z</time>
      </trkpt>
      <trkpt lat="50.2497" lon="5.73989">
        <ele>546</ele>
        <time>2015-05-10T13:30:52Z</time>
      </trkpt>
      <trkpt lat="50.24971" lon="5.73983">
        <ele>545</ele>
        <time>2015-05-10T13:30:58Z</time>
      </trkpt>
      <trkpt lat="50.24973" lon="5.73978">
        <ele>545</ele>
        <time>2015-05-10T13:31:04Z</time>
      </trkpt>
      <trkpt lat="50.24975" lon="5.73972">
        <ele>545</ele>
        <time>2015-05-10T13:31:10Z</time>
      </trkpt>
      <trkpt lat="50.24978" lon="5.73968">
        <ele>545</ele>
        <time>2015-05-10T13:31:15Z</time>
      </trkpt>
      <trkpt lat="50.24982" lon="5.73965">
        <ele>544</ele>
        <time>2015-05-10T13:31:20Z</time>
      </trkpt>
      <trkpt lat="50.24986" lon="5.73962">
        <ele>544</ele>
        <time>2015-05-10T13:31:26Z</time>
      </trkpt>
      <trkpt lat="50.24992" lon="5.7396">
        <ele>545</ele>
        <time>2015-05-10T13:31:32Z</time>
      </trkpt>
      <trkpt lat="50.24996" lon="5.73958">
        <ele>545</ele>
        <time>2015-05-10T13:31:38Z</time>
      </trkpt>
      <trkpt lat="50.25" lon="5.73954">
        <ele>545</ele>
        <time>2015-05-10T13:31:43Z</time>
      </trkpt>
      <trkpt lat="50.25003" lon="5.73948">
        <ele>545</ele>
        <time>2015-05-10T13:31:49Z</time>
      </trkpt>
      <trkpt lat="50.25006" lon="5.73944">
        <ele>545</ele>
        <time>2015-05-10T13:31:54Z</time>
      </trkpt>
      <trkpt lat="50.25009" lon="5.73941">
        <ele>545</ele>
        <time>2015-05-10T13:31:59Z</time>
      </trkpt>
      <trkpt lat="50.25013" lon="5.73937">
        <ele>545</ele>
        <time>2015-05-10T13:32:04Z</time>
      </trkpt>
      <trkpt lat="50.25015" lon="5.73931">
        <ele>545</ele>
        <time>2015-05-10T13:32:09Z</time>
      </trkpt>
      <trkpt lat="50.25018" lon="5.73925">
        <ele>546</ele>
        <time>2015-05-10T13:32:14Z</time>
      </trkpt>
      <trkpt lat="50.25021" lon="5.73918">
        <ele>545</ele>
        <time>2015-05-10T13:32:20Z</time>
      </trkpt>
      <trkpt lat="50.25025" lon="5.73913">
        <ele>545</ele>
        <time>2015-05-10T13:32:25Z</time>
      </trkpt>
      <trkpt lat="50.2503" lon="5.73905">
        <ele>546</ele>
        <time>2015-05-10T13:32:31Z</time>
      </trkpt>
      <trkpt lat="50.25034" lon="5.73898">
        <ele>545</ele>
        <time>2015-05-10T13:32:37Z</time>
      </trkpt>
      <trkpt lat="50.25039" lon="5.73892">
        <ele>545</ele>
        <time>2015-05-10T13:32:43Z</time>
      </trkpt>
      <trkpt lat="50.25042" lon="5.73886">
        <ele>545</ele>
        <time>2015-05-10T13:32:48Z</time>
      </trkpt>
      <trkpt lat="50.25048" lon="5.73881">
        <ele>545</ele>
        <time>2015-05-10T13:32:54Z</time>
      </trkpt>
      <trkpt lat="50.25053" lon="5.73876">
        <ele>545</ele>
        <time>2015-05-10T13:32:59Z</time>
      </trkpt>
      <trkpt lat="50.25058" lon="5.7387">
        <ele>545</ele>
        <time>2015-05-10T13:33:05Z</time>
      </trkpt>
      <trkpt lat="50.25063" lon="5.73864">
        <ele>545</ele>
        <time>2015-05-10T13:33:11Z</time>
      </trkpt>
      <trkpt lat="50.25068" lon="5.7386">
        <ele>545</ele>
        <time>2015-05-10T13:33:17Z</time>
      </trkpt>
      <trkpt lat="50.25073" lon="5.73853">
        <ele>545</ele>
        <time>2015-05-10T13:33:23Z</time>
      </trkpt>
      <trkpt lat="50.25077" lon="5.73849">
        <ele>545</ele>
        <time>2015-05-10T13:33:29Z</time>
      </trkpt>
      <trkpt lat="50.25079" lon="5.73842">
        <ele>545</ele>
        <time>2015-05-10T13:33:34Z</time>
      </trkpt>
      <trkpt lat="50.25083" lon="5.73834">
        <ele>544</ele>
        <time>2015-05-10T13:33:40Z</time>
      </trkpt>
      <trkpt lat="50.2509" lon="5.73826">
        <ele>544</ele>
        <time>2015-05-10T13:33:46Z</time>
      </trkpt>
      <trkpt lat="50.25095" lon="5.73817">
        <ele>544</ele>
        <time>2015-05-10T13:33:52Z</time>
      </trkpt>
      <trkpt lat="50.25099" lon="5.7381">
        <ele>544</ele>
        <time>2015-05-10T13:33:57Z</time>
      </trkpt>
      <trkpt lat="50.25104" lon="5.73801">
        <ele>544</ele>
        <time>2015-05-10T13:34:03Z</time>
      </trkpt>
      <trkpt lat="50.2511" lon="5.73793">
        <ele>543</ele>
        <time>2015-05-10T13:34:09Z</time>
      </trkpt>
      <trkpt lat="50.25115" lon="5.73786">
        <ele>543</ele>
        <time>2015-05-10T13:34:15Z</time>
      </trkpt>
      <trkpt lat="50.25119" lon="5.7378">
        <ele>543</ele>
        <time>2015-05-10T13:34:21Z</time>
      </trkpt>
      <trkpt lat="50.25124" lon="5.73776">
        <ele>542</ele>
        <time>2015-05-10T13:34:27Z</time>
      </trkpt>
      <trkpt lat="50.2513" lon="5.73772">
        <ele>541</ele>
        <time>2015-05-10T13:34:33Z</time>
      </trkpt>
      <trkpt lat="50.25137" lon="5.73767">
        <ele>541</ele>
        <time>2015-05-10T13:34:39Z</time>
      </trkpt>
      <trkpt lat="50.25143" lon="5.73763">
        <ele>541</ele>
        <time>2015-05-10T13:34:45Z</time>
      </trkpt>
      <trkpt lat="50.25149" lon="5.73758">
        <ele>541</ele>
        <time>2015-05-10T13:34:51Z</time>
      </trkpt>
      <trkpt lat="50.25152" lon="5.73753">
        <ele>541</ele>
        <time>2015-05-10T13:34:56Z</time>
      </trkpt>
      <trkpt lat="50.25157" lon="5.73749">
        <ele>540</ele>
        <time>2015-05-10T13:35:02Z</time>
      </trkpt>
      <trkpt lat="50.25164" lon="5.73744">
        <ele>540</ele>
        <time>2015-05-10T13:35:08Z</time>
      </trkpt>
      <trkpt lat="50.25169" lon="5.73742">
        <ele>540</ele>
        <time>2015-05-10T13:35:13Z</time>
      </trkpt>
      <trkpt lat="50.25174" lon="5.73741">
        <ele>540</ele>
        <time>2015-05-10T13:35:19Z</time>
      </trkpt>
      <trkpt lat="50.25177" lon="5.73742">
        <ele>541</ele>
        <time>2015-05-10T13:35:24Z</time>
      </trkpt>
      <trkpt lat="50.2518" lon="5.73743">
        <ele>540</ele>
        <time>2015-05-10T13:35:30Z</time>
      </trkpt>
      <trkpt lat="50.25182" lon="5.73744">
        <ele>540</ele>
        <time>2015-05-10T13:35:36Z</time>
      </trkpt>
      <trkpt lat="50.2518" lon="5.73745">
        <ele>541</ele>
        <time>2015-05-10T13:35:41Z</time>
      </trkpt>
      <trkpt lat="50.25178" lon="5.73746">
        <ele>540</ele>
        <time>2015-05-10T13:35:47Z</time>
      </trkpt>
      <trkpt lat="50.25174" lon="5.73746">
        <ele>540</ele>
        <time>2015-05-10T13:35:53Z</time>
      </trkpt>
      <trkpt lat="50.25172" lon="5.73747">
        <ele>540</ele>
        <time>2015-05-10T13:35:58Z</time>
      </trkpt>
      <trkpt lat="50.25167" lon="5.73746">
        <ele>541</ele>
        <time>2015-05-10T13:36:04Z</time>
      </trkpt>
      <trkpt lat="50.25164" lon="5.73749">
        <ele>540</ele>
        <time>2015-05-10T13:36:10Z</time>
      </trkpt>
      <trkpt lat="50.2516" lon="5.73752">
        <ele>541</ele>
        <time>2015-05-10T13:36:15Z</time>
      </trkpt>
      <trkpt lat="50.25161" lon="5.73756">
        <ele>541</ele>
        <time>2015-05-10T13:36:21Z</time>
      </trkpt>
      <trkpt lat="50.25163" lon="5.7376">
        <ele>541</ele>
        <time>2015-05-10T13:36:27Z</time>
      </trkpt>
      <trkpt lat="50.25165" lon="5.73761">
        <ele>541</ele>
        <time>2015-05-10T13:36:32Z</time>
      </trkpt>
      <trkpt lat="50.25168" lon="5.73758">
        <ele>540</ele>
        <time>2015-05-10T13:36:37Z</time>
      </trkpt>
      <trkpt lat="50.25173" lon="5.73751">
        <ele>541</ele>
        <time>2015-05-10T13:36:43Z</time>
      </trkpt>
      <trkpt lat="50.25176" lon="5.73746">
        <ele>540</ele>
        <time>2015-05-10T13:36:48Z</time>
      </trkpt>
      <trkpt lat="50.25179" lon="5.7374">
        <ele>540</ele>
        <time>2015-05-10T13:36:53Z</time>
      </trkpt>
      <trkpt lat="50.25182" lon="5.73735">
        <ele>540</ele>
        <time>2015-05-10T13:36:59Z</time>
      </trkpt>
      <trkpt lat="50.25183" lon="5.73728">
        <ele>540</ele>
        <time>2015-05-10T13:37:05Z</time>
      </trkpt>
      <trkpt lat="50.25185" lon="5.73723">
        <ele>540</ele>
        <time>2015-05-10T13:37:10Z</time>
      </trkpt>
      <trkpt lat="50.25189" lon="5.73719">
        <ele>540</ele>
        <time>2015-05-10T13:37:15Z</time>
      </trkpt>
      <trkpt lat="50.25192" lon="5.73712">
        <ele>540</ele>
        <time>2015-05-10T13:37:21Z</time>
      </trkpt>
      <trkpt lat="50.25195" lon="5.73707">
        <ele>540</ele>
        <time>2015-05-10T13:37:26Z</time>
      </trkpt>
      <trkpt lat="50.25199" lon="5.73702">
        <ele>540</ele>
        <time>2015-05-10T13:37:32Z</time>
      </trkpt>
      <trkpt lat="50.25202" lon="5.73698">
        <ele>540</ele>
        <time>2015-05-10T13:37:37Z</time>
      </trkpt>
      <trkpt lat="50.25208" lon="5.73692">
        <ele>540</ele>
        <time>2015-05-10T13:37:43Z</time>
      </trkpt>
      <trkpt lat="50.25214" lon="5.73686">
        <ele>540</ele>
        <time>2015-05-10T13:37:49Z</time>
      </trkpt>
      <trkpt lat="50.2522" lon="5.7368">
        <ele>540</ele>
        <time>2015-05-10T13:37:55Z</time>
      </trkpt>
      <trkpt lat="50.25225" lon="5.73675">
        <ele>540</ele>
        <time>2015-05-10T13:38:01Z</time>
      </trkpt>
      <trkpt lat="50.25229" lon="5.73672">
        <ele>540</ele>
        <time>2015-05-10T13:38:06Z</time>
      </trkpt>
      <trkpt lat="50.25235" lon="5.73667">
        <ele>540</ele>
        <time>2015-05-10T13:38:12Z</time>
      </trkpt>
      <trkpt lat="50.2524" lon="5.73662">
        <ele>540</ele>
        <time>2015-05-10T13:38:18Z</time>
      </trkpt>
      <trkpt lat="50.25246" lon="5.73658">
        <ele>540</ele>
        <time>2015-05-10T13:38:24Z</time>
      </trkpt>
      <trkpt lat="50.2525" lon="5.73652">
        <ele>540</ele>
        <time>2015-05-10T13:38:30Z</time>
      </trkpt>
      <trkpt lat="50.25254" lon="5.73647">
        <ele>540</ele>
        <time>2015-05-10T13:38:36Z</time>
      </trkpt>
      <trkpt lat="50.25259" lon="5.73644">
        <ele>540</ele>
        <time>2015-05-10T13:38:41Z</time>
      </trkpt>
      <trkpt lat="50.25263" lon="5.7364">
        <ele>540</ele>
        <time>2015-05-10T13:38:46Z</time>
      </trkpt>
      <trkpt lat="50.25267" lon="5.73636">
        <ele>540</ele>
        <time>2015-05-10T13:38:51Z</time>
      </trkpt>
      <trkpt lat="50.25273" lon="5.73632">
        <ele>540</ele>
        <time>2015-05-10T13:38:57Z</time>
      </trkpt>
      <trkpt lat="50.25278" lon="5.73628">
        <ele>540</ele>
        <time>2015-05-10T13:39:02Z</time>
      </trkpt>
      <trkpt lat="50.25282" lon="5.73622">
        <ele>540</ele>
        <time>2015-05-10T13:39:07Z</time>
      </trkpt>
      <trkpt lat="50.25287" lon="5.73617">
        <ele>540</ele>
        <time>2015-05-10T13:39:12Z</time>
      </trkpt>
      <trkpt lat="50.25292" lon="5.73608">
        <ele>540</ele>
        <time>2015-05-10T13:39:18Z</time>
      </trkpt>
      <trkpt lat="50.25298" lon="5.736">
        <ele>540</ele>
        <time>2015-05-10T13:39:24Z</time>
      </trkpt>
      <trkpt lat="50.25301" lon="5.73596">
        <ele>540</ele>
        <time>2015-05-10T13:39:29Z</time>
      </trkpt>
      <trkpt lat="50.25308" lon="5.73591">
        <ele>540</ele>
        <time>2015-05-10T13:39:35Z</time>
      </trkpt>
      <trkpt lat="50.25315" lon="5.73589">
        <ele>540</ele>
        <time>2015-05-10T13:39:40Z</time>
      </trkpt>
      <trkpt lat="50.25322" lon="5.73584">
        <ele>540</ele>
        <time>2015-05-10T13:39:46Z</time>
      </trkpt>
      <trkpt lat="50.25328" lon="5.73583">
        <ele>540</ele>
        <time>2015-05-10T13:39:52Z</time>
      </trkpt>
      <trkpt lat="50.25337" lon="5.7358">
        <ele>540</ele>
        <time>2015-05-10T13:39:58Z</time>
      </trkpt>
      <trkpt lat="50.25346" lon="5.73576">
        <ele>539</ele>
        <time>2015-05-10T13:40:04Z</time>
      </trkpt>
      <trkpt lat="50.25353" lon="5.73575">
        <ele>539</ele>
        <time>2015-05-10T13:40:10Z</time>
      </trkpt>
      <trkpt lat="50.2536" lon="5.73573">
        <ele>540</ele>
        <time>2015-05-10T13:40:16Z</time>
      </trkpt>
      <trkpt lat="50.25366" lon="5.73572">
        <ele>540</ele>
        <time>2015-05-10T13:40:22Z</time>
      </trkpt>
      <trkpt lat="50.25372" lon="5.73571">
        <ele>540</ele>
        <time>2015-05-10T13:40:28Z</time>
      </trkpt>
      <trkpt lat="50.25378" lon="5.73568">
        <ele>541</ele>
        <time>2015-05-10T13:40:34Z</time>
      </trkpt>
      <trkpt lat="50.25381" lon="5.73567">
        <ele>541</ele>
        <time>2015-05-10T13:40:39Z</time>
      </trkpt>
      <trkpt lat="50.25382" lon="5.73567">
        <ele>541</ele>
        <time>2015-05-10T13:40:44Z</time>
      </trkpt>
      <trkpt lat="50.25384" lon="5.73566">
        <ele>541</ele>
        <time>2015-05-10T13:40:50Z</time>
      </trkpt>
      <trkpt lat="50.25388" lon="5.73566">
        <ele>542</ele>
        <time>2015-05-10T13:40:55Z</time>
      </trkpt>
      <trkpt lat="50.25391" lon="5.73565">
        <ele>542</ele>
        <time>2015-05-10T13:41:01Z</time>
      </trkpt>
      <trkpt lat="50.25394" lon="5.73565">
        <ele>542</ele>
        <time>2015-05-10T13:41:08Z</time>
      </trkpt>
      <trkpt lat="50.25394" lon="5.73568">
        <ele>542</ele>
        <time>2015-05-10T13:41:13Z</time>
      </trkpt>
      <trkpt lat="50.25394" lon="5.7357">
        <ele>541</ele>
        <time>2015-05-10T13:41:19Z</time>
      </trkpt>
      <trkpt lat="50.25394" lon="5.73569">
        <ele>541</ele>
        <time>2015-05-10T13:41:24Z</time>
      </trkpt>
      <trkpt lat="50.25395" lon="5.73565">
        <ele>542</ele>
        <time>2015-05-10T13:41:29Z</time>
      </trkpt>
      <trkpt lat="50.25399" lon="5.73562">
        <ele>542</ele>
        <time>2015-05-10T13:41:35Z</time>
      </trkpt>
      <trkpt lat="50.25403" lon="5.73561">
        <ele>542</ele>
        <time>2015-05-10T13:41:40Z</time>
      </trkpt>
      <trkpt lat="50.25409" lon="5.73559">
        <ele>542</ele>
        <time>2015-05-10T13:41:46Z</time>
      </trkpt>
      <trkpt lat="50.2541" lon="5.73558">
        <ele>541</ele>
        <time>2015-05-10T13:41:51Z</time>
      </trkpt>
      <trkpt lat="50.25412" lon="5.73557">
        <ele>541</ele>
        <time>2015-05-10T13:41:57Z</time>
      </trkpt>
      <trkpt lat="50.25415" lon="5.73557">
        <ele>540</ele>
        <time>2015-05-10T13:42:02Z</time>
      </trkpt>
      <trkpt lat="50.2542" lon="5.73556">
        <ele>539</ele>
        <time>2015-05-10T13:42:07Z</time>
      </trkpt>
      <trkpt lat="50.25427" lon="5.73554">
        <ele>538</ele>
        <time>2015-05-10T13:42:13Z</time>
      </trkpt>
      <trkpt lat="50.25431" lon="5.73553">
        <ele>537</ele>
        <time>2015-05-10T13:42:18Z</time>
      </trkpt>
      <trkpt lat="50.25436" lon="5.7355">
        <ele>536</ele>
        <time>2015-05-10T13:42:23Z</time>
      </trkpt>
      <trkpt lat="50.25442" lon="5.73546">
        <ele>535</ele>
        <time>2015-05-10T13:42:29Z</time>
      </trkpt>
      <trkpt lat="50.25445" lon="5.73547">
        <ele>534</ele>
        <time>2015-05-10T13:42:35Z</time>
      </trkpt>
      <trkpt lat="50.25445" lon="5.73548">
        <ele>534</ele>
        <time>2015-05-10T13:42:40Z</time>
      </trkpt>
      <trkpt lat="50.25447" lon="5.73546">
        <ele>534</ele>
        <time>2015-05-10T13:42:45Z</time>
      </trkpt>
      <trkpt lat="50.25449" lon="5.73546">
        <ele>534</ele>
        <time>2015-05-10T13:42:46Z</time>
      </trkpt>
    </trkseg>
  </trk>
</gpx>